
Distance (Route):
Temperature : 5.6°C
Humidity : 70.5%
Pressure : 725.6hPa| Receiver | Frames | First received | Last received |
|---|---|---|---|
| DO3MHA-12 | 457 | 2026-09-03 09:47:36 | 2026-09-03 11:17:58 |
| DO3MHA-11 | 326 | 2026-09-03 09:47:26 | 2026-09-03 11:18:02 |
| BAUMI2-15 | 185 | 2026-09-03 10:27:39 | 2026-09-03 11:16:44 |
| OE5DXL-15 | 144 | 2026-09-03 09:53:05 | 2026-09-03 11:17:05 |
| OE5DRO-10 | 123 | 2026-09-03 10:02:51 | 2026-09-03 11:15:40 |
| DG1MFX-10 | 112 | 2026-09-03 09:52:24 | 2026-09-03 11:13:37 |
| OE5MMP-10 | 98 | 2026-09-03 10:32:19 | 2026-09-03 11:03:32 |
| DL6DJ-15 | 93 | 2026-09-03 09:57:00 | 2026-09-03 11:14:40 |
| NBG1-10 | 92 | 2026-09-03 09:51:25 | 2026-09-03 11:13:44 |
| OE5WHR-10 | 87 | 2026-09-03 10:17:17 | 2026-09-03 11:08:03 |
| IN3HCDX | 86 | 2026-09-03 10:14:01 | 2026-09-03 11:15:54 |
| OM5KV | 84 | 2026-09-03 10:44:01 | 2026-09-03 11:00:46 |
| DB0UT-7 | 82 | 2026-09-03 10:02:34 | 2026-09-03 11:09:48 |
| DG1MJG | 74 | 2026-09-03 09:48:16 | 2026-09-03 11:07:48 |
| OE3JTB-15 | 74 | 2026-09-03 10:03:21 | 2026-09-03 11:10:49 |
| PG1ADW-2 | 54 | 2026-09-03 10:27:09 | 2026-09-03 11:09:06 |
| DB0ND-19 | 39 | 2026-09-03 09:56:38 | 2026-09-03 11:12:09 |
| DL2OL | 33 | 2026-09-03 10:10:13 | 2026-09-03 11:07:17 |
| DL9SK-14 | 30 | 2026-09-03 10:43:43 | 2026-09-03 11:05:27 |
| S52SK | 28 | 2026-09-03 10:38:30 | 2026-09-03 11:01:55 |
| DB0NH | 26 | 2026-09-03 09:55:38 | 2026-09-03 11:13:18 |
| DO8TBO-1 | 26 | 2026-09-03 10:12:56 | 2026-09-03 11:04:37 |
| IN3IJJ | 25 | 2026-09-03 10:34:14 | 2026-09-03 11:15:34 |
| DF1GD-15 | 17 | 2026-09-03 10:21:38 | 2026-09-03 10:49:43 |
| DF7PN | 12 | 2026-09-03 10:26:45 | 2026-09-03 11:01:57 |
| DH7VM-15 | 9 | 2026-09-03 10:08:39 | 2026-09-03 11:07:41 |
| DK5PH-5 | 9 | 2026-09-03 10:47:25 | 2026-09-03 11:00:05 |
| PETON7-10 | 8 | 2026-09-03 10:56:36 | 2026-09-03 10:59:08 |
| HARRO8 | 5 | 2026-09-03 10:30:10 | 2026-09-03 10:40:00 |
| DM7RM-13 | 4 | 2026-09-03 10:16:11 | 2026-09-03 10:35:11 |
| DN1GJH-1 | 2 | 2026-09-03 10:16:50 | 2026-09-03 10:17:11 |
| Receiver | Date | Latitude | Longitude | Direction | Speed | Altitude | Climb | Temperature | Humidity | Pressure | Voltage | Killtimer | Uptime | BKT | XDATA |
|---|---|---|---|---|---|---|---|---|---|---|---|---|---|---|---|
| DO3MHA-11 | 2026-09-03 11:18:02 | 47.17710 | 11.88684 | 82° | 27km/h | 2952m | -14.6m/s | 5.6°C | 70.5% | 725.6hPa | 2.7V | 00:00:00 | 01:50:13 | 00:00:00 | |
| DO3MHA-12 | 2026-09-03 11:17:58 | 47.17709 | 11.88643 | 92° | 26km/h | 3010m | -15.0m/s | 5.0°C | 72.3% | 720.7hPa | 2.7V | 00:00:00 | 01:50:09 | 00:00:00 | |
| DO3MHA-11 | 2026-09-03 11:17:57 | 47.17709 | 11.88634 | 91° | 27km/h | 3025m | -14.8m/s | 4.9°C | 73.0% | 719.3hPa | 2.7V | 00:00:00 | 01:50:08 | 00:00:00 | |
| DO3MHA-12 | 2026-09-03 11:17:53 | 47.17709 | 11.88594 | 92° | 27km/h | 3082m | -14.3m/s | 4.4°C | 71.7% | 714.3hPa | 2.7V | 00:00:00 | 01:50:04 | 00:00:00 | |
| DO3MHA-11 | 2026-09-03 11:17:52 | 47.17710 | 11.88584 | 98° | 27km/h | 3096m | -14.4m/s | 4.1°C | 81.2% | 712.9hPa | 2.7V | 02:19:00 | 01:50:03 | 00:00:00 | |
| DO3MHA-12 | 2026-09-03 11:17:48 | 47.17710 | 11.88543 | 91° | 26km/h | 3153m | -14.6m/s | 3.5°C | 84.2% | 707.9hPa | 2.7V | 02:19:00 | 01:49:59 | 00:00:00 | |
| DO3MHA-11 | 2026-09-03 11:17:47 | 47.17710 | 11.88534 | 88° | 27km/h | 3167m | -14.4m/s | 3.3°C | 87.3% | 706.7hPa | 2.7V | 00:00:00 | 01:49:58 | 00:00:00 | |
| DO3MHA-12 | 2026-09-03 11:17:43 | 47.17709 | 11.88495 | 94° | 27km/h | 3224m | -13.6m/s | 2.9°C | 82.7% | 701.7hPa | 2.7V | 00:00:00 | 01:49:54 | 00:00:00 | |
| DO3MHA-11 | 2026-09-03 11:17:42 | 47.17710 | 11.88484 | 95° | 27km/h | 3237m | -13.5m/s | 2.8°C | 84.3% | 700.6hPa | 2.7V | 00:00:00 | 01:49:53 | 00:00:00 | |
| DO3MHA-12 | 2026-09-03 11:17:38 | 47.17709 | 11.88444 | 84° | 29km/h | 3292m | -14.6m/s | 2.5°C | 75.2% | 695.9hPa | 2.7V | 00:00:00 | 01:49:49 | 00:00:00 | |
| DO3MHA-11 | 2026-09-03 11:17:37 | 47.17709 | 11.88432 | 88° | 29km/h | 3307m | -14.6m/s | 2.4°C | 70.0% | 694.7hPa | 2.7V | 02:19:00 | 01:49:48 | 00:00:00 | |
| DO3MHA-12 | 2026-09-03 11:17:33 | 47.17708 | 11.88389 | 88° | 27km/h | 3364m | -14.4m/s | 2.0°C | 69.2% | 689.9hPa | 2.6V | 02:19:00 | 01:49:44 | 00:00:00 | |
| DO3MHA-11 | 2026-09-03 11:17:32 | 47.17709 | 11.88378 | 96° | 29km/h | 3378m | -13.9m/s | 1.8°C | 70.3% | 688.5hPa | 2.6V | 00:00:00 | 01:49:43 | 00:00:00 | |
| DO3MHA-12 | 2026-09-03 11:17:28 | 47.17709 | 11.88337 | 93° | 31km/h | 3436m | -15.4m/s | 1.4°C | 70.5% | 683.9hPa | 2.6V | 00:00:00 | 01:49:39 | 00:00:00 | |
| DO3MHA-11 | 2026-09-03 11:17:27 | 47.17710 | 11.88326 | 100° | 31km/h | 3451m | -15.4m/s | 1.2°C | 71.4% | 682.6hPa | 2.6V | 00:00:00 | 01:49:38 | 00:00:00 | |
| DO3MHA-12 | 2026-09-03 11:17:23 | 47.17713 | 11.88282 | 95° | 31km/h | 3513m | -14.3m/s | 0.7°C | 72.7% | 677.3hPa | 2.6V | 00:00:00 | 01:49:34 | 00:00:00 | |
| DO3MHA-11 | 2026-09-03 11:17:22 | 47.17713 | 11.88270 | 98° | 29km/h | 3527m | -14.0m/s | 0.6°C | 72.0% | 675.9hPa | 2.6V | 02:19:00 | 01:49:33 | 00:00:00 | |
| DO3MHA-12 | 2026-09-03 11:17:18 | 47.17720 | 11.88227 | 109° | 26km/h | 3582m | -14.7m/s | 0.3°C | 65.9% | 671.2hPa | 2.6V | 02:20:00 | 01:49:29 | 00:00:00 | |
| DO3MHA-11 | 2026-09-03 11:17:17 | 47.17722 | 11.88218 | 107° | 26km/h | 3597m | -15.5m/s | 0.5°C | 54.3% | 670.0hPa | 2.6V | 00:00:00 | 01:49:28 | 00:00:00 | |
| DO3MHA-12 | 2026-09-03 11:17:13 | 47.17730 | 11.88182 | 113° | 27km/h | 3658m | -14.7m/s | 0.2°C | 52.1% | 665.1hPa | 2.6V | 00:00:00 | 01:49:24 | 00:00:00 | |
| DO3MHA-11 | 2026-09-03 11:17:12 | 47.17732 | 11.88173 | 116° | 27km/h | 3672m | -14.9m/s | 0.1°C | 51.3% | 663.8hPa | 2.6V | 00:00:00 | 01:49:23 | 00:00:00 | |
| DO3MHA-12 | 2026-09-03 11:17:08 | 47.17742 | 11.88135 | 115° | 31km/h | 3730m | -14.7m/s | -0.2°C | 49.0% | 658.9hPa | 2.6V | 00:00:00 | 01:49:19 | 00:00:00 | |
| DO3MHA-11 | 2026-09-03 11:17:07 | 47.17745 | 11.88125 | 117° | 33km/h | 3745m | -15.4m/s | -0.4°C | 51.2% | 657.8hPa | 2.6V | 02:20:00 | 01:49:18 | 00:00:00 | |
| OE5DXL-15 | 2026-09-03 11:17:05 | 47.17751 | 11.88105 | 113° | 42km/h | 3775m | -14.7m/s | -0.5°C | 48.8% | 655.4hPa | 2.7V | 02:20:00 | 00:00:00 | 00:00:00 | |
| DO3MHA-12 | 2026-09-03 11:17:03 | 47.17759 | 11.88081 | 123° | 38km/h | 3803m | -14.7m/s | -0.0°C | 32.3% | 652.9hPa | 2.7V | 02:20:00 | 01:49:14 | 00:00:00 | |
| DO3MHA-11 | 2026-09-03 11:17:02 | 47.17764 | 11.88069 | 123° | 38km/h | 3819m | -16.3m/s | 0.2°C | 38.5% | 651.8hPa | 2.6V | 00:00:00 | 01:49:13 | 00:00:00 | |
| DO3MHA-12 | 2026-09-03 11:16:58 | 47.17784 | 11.88020 | 120° | 42km/h | 3879m | -15.4m/s | 0.1°C | 67.9% | 647.0hPa | 2.6V | 00:00:00 | 01:49:09 | 00:00:00 | |
| DO3MHA-11 | 2026-09-03 11:16:57 | 47.17790 | 11.88006 | 123° | 42km/h | 3894m | -15.3m/s | -0.0°C | 68.7% | 645.8hPa | 2.6V | 00:00:00 | 01:49:08 | 00:00:00 | |
| DO3MHA-12 | 2026-09-03 11:16:50 | 47.17833 | 11.87915 | 128° | 44km/h | 4006m | -15.6m/s | -0.9°C | 74.9% | 636.8hPa | 2.6V | 00:00:00 | 01:49:01 | 00:00:00 | |
| DO3MHA-12 | 2026-09-03 11:16:45 | 47.17865 | 11.87849 | 125° | 44km/h | 4090m | -17.1m/s | -1.7°C | 78.2% | 630.5hPa | 2.6V | 02:20:00 | 01:48:56 | 00:00:00 | |
| BAUMI2-15 | 2026-09-03 11:16:44 | 47.17871 | 11.87836 | 127° | 44km/h | 4106m | -16.5m/s | -1.9°C | 78.5% | 629.1hPa | 2.6V | 00:00:00 | 01:48:55 | 00:00:00 | |
| DO3MHA-12 | 2026-09-03 11:16:40 | 47.17899 | 11.87784 | 130° | 44km/h | 4166m | -14.1m/s | -2.4°C | 78.2% | 624.3hPa | 2.6V | 00:00:00 | 01:48:51 | 00:00:00 | |
| BAUMI2-15 | 2026-09-03 11:16:37 | 47.17920 | 11.87747 | 128° | 42km/h | 4212m | -16.3m/s | -2.8°C | 79.0% | 620.7hPa | 2.6V | 02:20:00 | 01:48:48 | 00:00:00 | |
| DO3MHA-12 | 2026-09-03 11:16:35 | 47.17934 | 11.87723 | 128° | 42km/h | 4244m | -16.4m/s | -3.1°C | 80.4% | 618.2hPa | 2.6V | 00:00:00 | 01:48:46 | 00:00:00 | |
| BAUMI2-15 | 2026-09-03 11:16:32 | 47.17953 | 11.87687 | 129° | 38km/h | 4293m | -15.9m/s | -3.2°C | 76.0% | 614.5hPa | 2.6V | 00:00:00 | 01:48:43 | 00:00:00 | |
| DO3MHA-12 | 2026-09-03 11:16:30 | 47.17966 | 11.87663 | 128° | 40km/h | 4324m | -15.7m/s | -3.3°C | 60.5% | 612.1hPa | 2.6V | 02:20:00 | 01:48:41 | 00:00:00 | |
| BAUMI2-15 | 2026-09-03 11:16:27 | 47.17983 | 11.87630 | 132° | 42km/h | 4367m | -14.0m/s | -3.3°C | 44.9% | 608.5hPa | 2.6V | 00:00:00 | 01:48:38 | 00:00:00 | |
| DO3MHA-12 | 2026-09-03 11:16:25 | 47.17996 | 11.87607 | 129° | 44km/h | 4396m | -15.1m/s | -3.1°C | 36.2% | 606.3hPa | 2.6V | 00:00:00 | 01:48:36 | 00:00:00 | |
| DO3MHA-12 | 2026-09-03 11:16:20 | 47.18034 | 11.87548 | 137° | 46km/h | 4467m | -13.0m/s | -3.4°C | 72.0% | 600.7hPa | 2.6V | 00:00:00 | 01:48:31 | 00:00:00 | |
| BAUMI2-15 | 2026-09-03 11:16:17 | 47.18060 | 11.87512 | 138° | 47km/h | 4506m | -15.2m/s | -3.8°C | 74.0% | 597.7hPa | 2.6V | 00:00:00 | 01:48:28 | 00:00:00 | |
| DO3MHA-11 | 2026-09-03 11:16:15 | 47.18077 | 11.87488 | 136° | 49km/h | 4537m | -14.5m/s | -4.0°C | 74.7% | 595.4hPa | 2.6V | 00:00:00 | 01:48:26 | 00:00:00 | |
| BAUMI2-15 | 2026-09-03 11:16:12 | 47.18105 | 11.87453 | 141° | 46km/h | 4581m | -16.8m/s | -4.3°C | 71.7% | 592.1hPa | 2.6V | 00:00:00 | 01:48:23 | 00:00:00 | |
| DO3MHA-12 | 2026-09-03 11:16:10 | 47.18124 | 11.87432 | 146° | 44km/h | 4613m | -16.6m/s | -4.1°C | 52.5% | 589.5hPa | 2.6V | 00:00:00 | 01:48:21 | 00:00:00 | |
| BAUMI2-15 | 2026-09-03 11:16:07 | 47.18151 | 11.87406 | 146° | 44km/h | 4657m | -12.4m/s | -4.3°C | 35.6% | 586.2hPa | 2.6V | 02:21:00 | 01:48:18 | 00:00:00 | |
| OE5DXL-15 | 2026-09-03 11:16:05 | 47.18169 | 11.87388 | 148° | 49km/h | 4687m | -17.9m/s | -4.4°C | 32.2% | 584.4hPa | 2.6V | 00:00:00 | 00:00:00 | 00:00:00 | |
| BAUMI2-15 | 2026-09-03 11:16:02 | 47.18196 | 11.87363 | 149° | 40km/h | 4736m | -15.9m/s | -4.9°C | 37.6% | 580.5hPa | 2.6V | 00:00:00 | 01:48:13 | 00:00:00 | |
| DO3MHA-12 | 2026-09-03 11:16:00 | 47.18213 | 11.87346 | 148° | 42km/h | 4768m | -16.3m/s | -5.1°C | 39.6% | 578.3hPa | 2.6V | 02:21:00 | 01:48:11 | 00:00:00 | |
| BAUMI2-15 | 2026-09-03 11:15:57 | 47.18240 | 11.87320 | 148° | 46km/h | 4814m | -14.1m/s | -5.4°C | 44.6% | 575.0hPa | 2.6V | 00:00:00 | 01:48:08 | 00:00:00 | |
| DO3MHA-12 | 2026-09-03 11:15:55 | 47.18258 | 11.87301 | 142° | 47km/h | 4844m | -15.7m/s | -5.5°C | 41.5% | 572.6hPa | 2.6V | 00:00:00 | 01:48:06 | 00:00:00 | |
| IN3HCDX | 2026-09-03 11:15:54 | 47.18258 | 11.87301 | 143° | 44km/h | 4844m | -15.8m/s | -5.6°C | 40.6% | 572.7hPa | 2.6V | 00:00:00 | 00:00:00 | 00:00:00 | |
| BAUMI2-15 | 2026-09-03 11:15:52 | 47.18286 | 11.87270 | 142° | 51km/h | 4890m | -15.8m/s | -5.9°C | 50.1% | 569.4hPa | 2.6V | 02:21:00 | 01:48:03 | 00:00:00 | |
| DO3MHA-12 | 2026-09-03 11:15:50 | 47.18307 | 11.87249 | 146° | 53km/h | 4919m | -14.3m/s | -6.1°C | 52.9% | 567.1hPa | 2.6V | 00:00:00 | 01:48:01 | 00:00:00 | |
| BAUMI2-15 | 2026-09-03 11:15:47 | 47.18340 | 11.87214 | 141° | 55km/h | 4968m | -16.3m/s | -6.4°C | 53.6% | 563.8hPa | 2.6V | 00:00:00 | 01:47:58 | 00:00:00 | |
| DO3MHA-12 | 2026-09-03 11:15:45 | 47.18361 | 11.87189 | 142° | 58km/h | 4999m | -16.6m/s | -6.6°C | 51.8% | 561.7hPa | 2.6V | 02:21:00 | 01:47:56 | 00:00:00 | |
| BAUMI2-15 | 2026-09-03 11:15:42 | 47.18395 | 11.87151 | 144° | 58km/h | 5048m | -15.9m/s | -7.0°C | 54.0% | 558.2hPa | 2.6V | 00:00:00 | 01:47:53 | 00:00:00 | |
| OE5DRO-10 | 2026-09-03 11:15:40 | 47.18418 | 11.87125 | 141° | 64km/h | 5080m | -15.8m/s | -7.1°C | 42.0% | 556.0hPa | 2.6V | 00:00:00 | 00:00:00 | 00:00:00 | |
| BAUMI2-15 | 2026-09-03 11:15:37 | 47.18453 | 11.87084 | 138° | 64km/h | 5125m | -15.3m/s | -7.2°C | 27.5% | 552.7hPa | 2.6V | 02:21:00 | 01:47:48 | 00:00:00 | |
| DO3MHA-12 | 2026-09-03 11:15:35 | 47.18477 | 11.87053 | 140° | 66km/h | 5155m | -15.7m/s | -7.1°C | 14.6% | 550.6hPa | 2.6V | 00:00:00 | 01:47:46 | 00:00:00 | |
| IN3IJJ | 2026-09-03 11:15:34 | 47.18477 | 11.87053 | 141° | 62km/h | 5155m | -15.8m/s | -7.2°C | 14.2% | 550.7hPa | 2.6V | 02:22:00 | 00:00:00 | 00:00:00 | |
| BAUMI2-15 | 2026-09-03 11:15:32 | 47.18513 | 11.87007 | 137° | 66km/h | 5197m | -12.8m/s | -7.0°C | 9.8% | 547.4hPa | 2.6V | 00:00:00 | 01:47:43 | 00:00:00 | |
| BAUMI2-15 | 2026-09-03 11:15:27 | 47.18574 | 11.86924 | 138° | 78km/h | 5271m | -13.7m/s | -7.5°C | 25.9% | 542.4hPa | 2.6V | 00:00:00 | 01:47:38 | 00:00:00 | |
| DO3MHA-12 | 2026-09-03 11:15:25 | 47.18600 | 11.86890 | 140° | 69km/h | 5300m | -14.7m/s | -7.7°C | 27.0% | 540.5hPa | 2.6V | 00:00:00 | 01:47:36 | 00:00:00 | |
| OE5DRO-10 | 2026-09-03 11:15:24 | 47.18612 | 11.86873 | 138° | 69km/h | 5314m | -14.3m/s | -7.8°C | 26.6% | 539.5hPa | 2.6V | 02:21:00 | 00:00:00 | 00:00:00 | |
| DO3MHA-12 | 2026-09-03 11:15:15 | 47.18730 | 11.86718 | 139° | 69km/h | 5451m | -15.5m/s | -9.0°C | 37.6% | 530.3hPa | 2.5V | 02:22:00 | 01:47:26 | 00:00:00 | |
| IN3HCDX | 2026-09-03 11:15:13 | 47.18743 | 11.86701 | 140° | 68km/h | 5467m | -16.2m/s | -9.1°C | 35.6% | 529.1hPa | 2.6V | 02:22:00 | 00:00:00 | 00:00:00 | |
| OE5DRO-10 | 2026-09-03 11:15:08 | 47.18820 | 11.86597 | 139° | 69km/h | 5546m | -15.1m/s | -9.6°C | 67.2% | 523.5hPa | 2.6V | 00:00:00 | 00:00:00 | 00:00:00 | |
| DO3MHA-12 | 2026-09-03 11:15:05 | 47.18858 | 11.86543 | 137° | 69km/h | 5591m | -14.2m/s | -9.8°C | 82.7% | 520.7hPa | 2.6V | 00:00:00 | 01:47:16 | 00:00:00 | |
| IN3IJJ | 2026-09-03 11:15:02 | 47.18884 | 11.86508 | 139° | 71km/h | 5619m | -15.1m/s | -10.1°C | 84.2% | 518.7hPa | 2.6V | 02:22:00 | 00:00:00 | 00:00:00 | |
| DO3MHA-12 | 2026-09-03 11:14:55 | 47.18989 | 11.86371 | 141° | 71km/h | 5739m | -14.9m/s | -10.7°C | 77.9% | 510.6hPa | 2.6V | 00:00:00 | 01:47:06 | 00:00:00 | |
| OE5DRO-10 | 2026-09-03 11:14:52 | 47.19030 | 11.86320 | 139° | 71km/h | 5784m | -15.4m/s | -11.0°C | 77.6% | 507.5hPa | 2.6V | 00:00:00 | 00:00:00 | 00:00:00 | |
| DO3MHA-12 | 2026-09-03 11:14:45 | 47.19124 | 11.86197 | 136° | 73km/h | 5891m | -14.7m/s | -11.6°C | 71.7% | 500.6hPa | 2.6V | 02:22:00 | 01:46:56 | 00:00:00 | |
| IN3IJJ | 2026-09-03 11:14:43 | 47.19152 | 11.86159 | 139° | 73km/h | 5920m | -14.8m/s | -11.9°C | 74.1% | 498.8hPa | 2.6V | 00:00:00 | 00:00:00 | 00:00:00 | |
| DL6DJ-15 | 2026-09-03 11:14:40 | 47.19243 | 11.86027 | 132° | 71km/h | 6027m | -15.1m/s | -12.6°C | 71.8% | 491.8hPa | 2.6V | 00:00:00 | 00:00:00 | 00:00:00 | |
| DO3MHA-12 | 2026-09-03 11:14:35 | 47.19255 | 11.86008 | 133° | 75km/h | 6042m | -15.4m/s | -12.7°C | 73.5% | 490.9hPa | 2.6V | 00:00:00 | 01:46:46 | 00:00:00 | |
| OE5DRO-10 | 2026-09-03 11:14:33 | 47.19282 | 11.85969 | 137° | 77km/h | 6072m | -14.8m/s | -12.8°C | 72.4% | 488.8hPa | 2.6V | 02:22:00 | 00:00:00 | 00:00:00 | |
| IN3HCDX | 2026-09-03 11:14:31 | 47.19295 | 11.85950 | 138° | 75km/h | 6087m | -15.6m/s | -13.0°C | 70.7% | 488.0hPa | 2.5V | 02:23:00 | 00:00:00 | 00:00:00 | |
| DO3MHA-12 | 2026-09-03 11:14:25 | 47.19393 | 11.85820 | 140° | 78km/h | 6196m | -16.9m/s | -13.9°C | 75.4% | 481.0hPa | 2.5V | 00:00:00 | 01:46:36 | 00:00:00 | |
| IN3IJJ | 2026-09-03 11:14:22 | 47.19423 | 11.85784 | 143° | 78km/h | 6228m | -15.1m/s | -14.2°C | 73.9% | 479.1hPa | 2.5V | 00:00:00 | 00:00:00 | 00:00:00 | |
| OE5DRO-10 | 2026-09-03 11:14:14 | 47.19567 | 11.85618 | 141° | 84km/h | 6355m | -12.5m/s | -14.1°C | 52.3% | 470.8hPa | 2.5V | 00:00:00 | 00:00:00 | 00:00:00 | |
| IN3HCDX | 2026-09-03 11:14:10 | 47.19616 | 11.85558 | 142° | 84km/h | 6391m | -12.0m/s | -14.4°C | 54.7% | 468.8hPa | 2.5V | 02:23:00 | 00:00:00 | 00:00:00 | |
| DL6DJ-15 | 2026-09-03 11:14:09 | 47.19649 | 11.85519 | 141° | 84km/h | 6414m | -11.3m/s | -14.5°C | 55.4% | 467.4hPa | 2.5V | 00:00:00 | 00:00:00 | 00:00:00 | |
| IN3IJJ | 2026-09-03 11:14:00 | 47.19780 | 11.85353 | 138° | 82km/h | 6499m | -12.4m/s | -14.8°C | 39.8% | 462.0hPa | 2.5V | 02:24:00 | 00:00:00 | 00:00:00 | |
| DO3MHA-12 | 2026-09-03 11:13:55 | 47.19873 | 11.85229 | 136° | 78km/h | 6564m | -11.3m/s | -15.2°C | 36.1% | 458.0hPa | 2.5V | 00:00:00 | 01:46:06 | 00:00:00 | |
| IN3HCDX | 2026-09-03 11:13:49 | 47.19945 | 11.85128 | 139° | 78km/h | 6621m | -11.9m/s | -15.7°C | 39.4% | 454.6hPa | 2.5V | 02:24:00 | 00:00:00 | 00:00:00 | |
| DO3MHA-12 | 2026-09-03 11:13:45 | 47.20018 | 11.85027 | 135° | 77km/h | 6675m | -11.8m/s | -16.0°C | 35.9% | 451.1hPa | 2.5V | 02:23:00 | 01:45:56 | 00:00:00 | |
| NBG1-10 | 2026-09-03 11:13:44 | 47.20032 | 11.85007 | 135° | 82km/h | 6687m | -11.9m/s | -16.1°C | 34.6% | 450.5hPa | 2.5V | 00:00:00 | 01:45:55 | 00:00:00 | |
| IN3IJJ | 2026-09-03 11:13:39 | 47.20086 | 11.84929 | 138° | 78km/h | 6734m | -11.3m/s | -16.5°C | 31.2% | 447.9hPa | 2.5V | 02:24:00 | 00:00:00 | 00:00:00 | |
| DG1MFX-10 | 2026-09-03 11:13:37 | 47.20115 | 11.84888 | 136° | 80km/h | 6756m | -10.9m/s | -16.5°C | 25.3% | 446.6hPa | 2.5V | 02:24:00 | 00:00:00 | 00:00:00 | |
| OE5DRO-10 | 2026-09-03 11:13:36 | 47.20142 | 11.84846 | 133° | 82km/h | 6778m | -11.6m/s | -16.4°C | 22.2% | 445.1hPa | 2.5V | 02:23:00 | 00:00:00 | 00:00:00 | |
| DO3MHA-12 | 2026-09-03 11:13:35 | 47.20156 | 11.84825 | 133° | 80km/h | 6789m | -12.1m/s | -16.4°C | 21.5% | 444.4hPa | 2.6V | 00:00:00 | 01:45:46 | 00:00:00 | |
| IN3HCDX | 2026-09-03 11:13:28 | 47.20241 | 11.84697 | 134° | 82km/h | 6856m | -12.0m/s | -16.2°C | 9.4% | 440.4hPa | 2.6V | 02:24:00 | 00:00:00 | 00:00:00 | |
| DO3MHA-12 | 2026-09-03 11:13:25 | 47.20298 | 11.84609 | 135° | 86km/h | 6902m | -11.7m/s | -16.2°C | 9.9% | 437.7hPa | 2.6V | 00:00:00 | 01:45:36 | 00:00:00 | |
| BAUMI2-15 | 2026-09-03 11:13:19 | 47.20389 | 11.84469 | 133° | 86km/h | 6970m | -12.6m/s | -16.6°C | 14.6% | 433.7hPa | 2.6V | 02:24:00 | 01:45:30 | 00:00:00 | |
| DB0NH | 2026-09-03 11:13:18 | 47.20404 | 11.84446 | 133° | 97km/h | 6983m | -12.4m/s | -16.6°C | 15.1% | 433.0hPa | 2.5V | 00:00:00 | 01:45:29 | 00:00:00 | |
| OE5DRO-10 | 2026-09-03 11:13:17 | 47.20418 | 11.84423 | 134° | 84km/h | 6995m | -12.4m/s | -16.7°C | 15.7% | 432.4hPa | 2.5V | 00:00:00 | 00:00:00 | 00:00:00 | |
| DG1MFX-10 | 2026-09-03 11:13:16 | 47.20419 | 11.84423 | 134° | 86km/h | 6995m | -12.5m/s | -16.8°C | 14.8% | 432.4hPa | 2.5V | 02:24:00 | 00:00:00 | 00:00:00 | |
| DO3MHA-12 | 2026-09-03 11:13:15 | 47.20448 | 11.84376 | 134° | 86km/h | 7020m | -12.3m/s | -16.9°C | 16.5% | 431.0hPa | 2.5V | 02:24:00 | 01:45:26 | 00:00:00 | |
| BAUMI2-15 | 2026-09-03 11:13:14 | 47.20463 | 11.84352 | 134° | 86km/h | 7032m | -11.9m/s | -17.0°C | 16.8% | 430.4hPa | 2.5V | 00:00:00 | 01:45:25 | 00:00:00 | |
| IN3IJJ | 2026-09-03 11:13:09 | 47.20521 | 11.84255 | 131° | 86km/h | 7078m | -12.8m/s | -17.4°C | 17.2% | 427.7hPa | 2.5V | 00:00:00 | 00:00:00 | 00:00:00 | |
| DL6DJ-15 | 2026-09-03 11:13:07 | 47.20591 | 11.84136 | 130° | 86km/h | 7137m | -12.0m/s | -17.8°C | 18.5% | 424.3hPa | 2.5V | 00:00:00 | 00:00:00 | 00:00:00 | |
| DO3MHA-12 | 2026-09-03 11:13:05 | 47.20591 | 11.84136 | 131° | 84km/h | 7137m | -12.0m/s | -17.8°C | 19.5% | 424.3hPa | 2.5V | 00:00:00 | 01:45:16 | 00:00:00 | |
| BAUMI2-15 | 2026-09-03 11:13:02 | 47.20631 | 11.84064 | 129° | 82km/h | 7172m | -12.6m/s | -18.0°C | 21.0% | 422.2hPa | 2.5V | 02:24:00 | 01:45:13 | 00:00:00 | |
| OE5DRO-10 | 2026-09-03 11:12:58 | 47.20684 | 11.83972 | 131° | 84km/h | 7220m | -11.8m/s | -18.4°C | 25.0% | 419.5hPa | 2.5V | 00:00:00 | 00:00:00 | 00:00:00 | |
| BAUMI2-15 | 2026-09-03 11:12:57 | 47.20698 | 11.83949 | 130° | 82km/h | 7231m | -12.3m/s | -18.6°C | 25.3% | 418.8hPa | 2.5V | 00:00:00 | 01:45:08 | 00:00:00 | |
| NBG1-10 | 2026-09-03 11:12:56 | 47.20712 | 11.83925 | 130° | 86km/h | 7243m | -12.5m/s | -18.7°C | 25.7% | 418.1hPa | 2.5V | 00:00:00 | 01:45:07 | 00:00:00 | |
| DO3MHA-12 | 2026-09-03 11:12:55 | 47.20725 | 11.83901 | 130° | 82km/h | 7255m | -13.1m/s | -18.8°C | 26.1% | 417.4hPa | 2.5V | 00:00:00 | 01:45:06 | 00:00:00 | |
| BAUMI2-15 | 2026-09-03 11:12:52 | 47.20765 | 11.83834 | 133° | 84km/h | 7292m | -12.8m/s | -19.1°C | 27.1% | 415.4hPa | 2.5V | 00:00:00 | 01:45:03 | 00:00:00 | |
| IN3IJJ | 2026-09-03 11:12:48 | 47.20808 | 11.83766 | 134° | 84km/h | 7330m | -11.6m/s | -19.5°C | 26.6% | 413.3hPa | 2.5V | 00:00:00 | 00:00:00 | 00:00:00 | |
| BAUMI2-15 | 2026-09-03 11:12:47 | 47.20837 | 11.83720 | 132° | 82km/h | 7353m | -12.2m/s | -19.6°C | 29.0% | 412.0hPa | 2.5V | 02:24:00 | 01:44:58 | 00:00:00 | |
| IN3HCDX | 2026-09-03 11:12:46 | 47.20836 | 11.83720 | 132° | 84km/h | 7353m | -12.2m/s | -19.7°C | 27.5% | 412.0hPa | 2.5V | 02:24:00 | 00:00:00 | 00:00:00 | |
| BAUMI2-15 | 2026-09-03 11:12:42 | 47.20907 | 11.83608 | 135° | 86km/h | 7414m | -12.3m/s | -20.1°C | 36.3% | 408.6hPa | 2.5V | 00:00:00 | 01:44:53 | 00:00:00 | |
| DO3MHA-12 | 2026-09-03 11:12:41 | 47.20923 | 11.83586 | 135° | 93km/h | 7426m | -11.6m/s | -20.2°C | 39.8% | 407.9hPa | 2.5V | 02:24:00 | 01:44:52 | 00:00:00 | |
| DO3MHA-11 | 2026-09-03 11:12:40 | 47.20938 | 11.83562 | 134° | 89km/h | 7438m | -11.6m/s | -20.3°C | 41.2% | 407.2hPa | 2.6V | 00:00:00 | 01:44:51 | 00:00:00 | |
| OE5DRO-10 | 2026-09-03 11:12:39 | 47.20953 | 11.83538 | 134° | 88km/h | 7450m | -12.0m/s | -20.4°C | 42.1% | 406.6hPa | 2.6V | 02:24:00 | 00:00:00 | 00:00:00 | |
| BAUMI2-15 | 2026-09-03 11:12:37 | 47.20983 | 11.83492 | 134° | 86km/h | 7474m | -13.0m/s | -20.6°C | 42.5% | 405.3hPa | 2.5V | 00:00:00 | 01:44:48 | 00:00:00 | |
| DL6DJ-15 | 2026-09-03 11:12:36 | 47.21012 | 11.83446 | 134° | 84km/h | 7499m | -13.0m/s | -20.9°C | 40.2% | 403.9hPa | 2.5V | 00:00:00 | 00:00:00 | 00:00:00 | |
| OE5DXL-15 | 2026-09-03 11:12:35 | 47.21012 | 11.83446 | 135° | 93km/h | 7500m | -12.9m/s | -20.9°C | 42.2% | 403.9hPa | 2.5V | 02:24:00 | 00:00:00 | 00:00:00 | |
| DG1MFX-10 | 2026-09-03 11:12:34 | 47.21012 | 11.83446 | 136° | 86km/h | 7500m | -13.0m/s | -20.9°C | 40.2% | 403.9hPa | 2.5V | 02:24:00 | 00:00:00 | 00:00:00 | |
| BAUMI2-15 | 2026-09-03 11:12:32 | 47.21059 | 11.83377 | 134° | 88km/h | 7536m | -11.8m/s | -21.2°C | 44.1% | 401.9hPa | 2.5V | 02:24:00 | 01:44:43 | 00:00:00 | |
| BAUMI2-15 | 2026-09-03 11:12:27 | 47.21135 | 11.83258 | 135° | 91km/h | 7597m | -13.0m/s | -21.8°C | 47.2% | 398.6hPa | 2.6V | 00:00:00 | 01:44:38 | 00:00:00 | |
| IN3HCDX | 2026-09-03 11:12:25 | 47.21151 | 11.83235 | 136° | 89km/h | 7611m | -12.2m/s | -22.0°C | 46.4% | 398.0hPa | 2.6V | 02:24:00 | 00:00:00 | 00:00:00 | |
| DO3MHA-11 | 2026-09-03 11:12:24 | 47.21184 | 11.83187 | 135° | 97km/h | 7634m | -11.8m/s | -22.2°C | 50.3% | 396.7hPa | 2.6V | 00:00:00 | 01:44:35 | 00:00:00 | |
| NBG1-10 | 2026-09-03 11:12:23 | 47.21200 | 11.83163 | 135° | 100km/h | 7646m | -11.8m/s | -22.3°C | 51.0% | 396.0hPa | 2.6V | 02:24:00 | 01:44:34 | 00:00:00 | |
| OE5DRO-10 | 2026-09-03 11:12:20 | 47.21248 | 11.83089 | 134° | 99km/h | 7681m | -12.9m/s | -22.6°C | 53.4% | 394.1hPa | 2.6V | 00:00:00 | 00:00:00 | 00:00:00 | |
| BAUMI2-15 | 2026-09-03 11:12:17 | 47.21299 | 11.83015 | 136° | 99km/h | 7719m | -12.2m/s | -22.9°C | 55.8% | 392.1hPa | 2.6V | 02:25:00 | 01:44:28 | 00:00:00 | |
| DO3MHA-11 | 2026-09-03 11:12:16 | 47.21369 | 11.82909 | 134° | 100km/h | 7768m | -12.3m/s | -23.3°C | 55.8% | 389.4hPa | 2.5V | 02:25:00 | 01:44:24 | 00:00:00 | |
| BAUMI2-15 | 2026-09-03 11:12:14 | 47.21386 | 11.82882 | 133° | 99km/h | 7779m | -13.1m/s | -23.2°C | 54.8% | 388.8hPa | 2.6V | 00:00:00 | 01:44:23 | 00:00:00 | |
| DO3MHA-12 | 2026-09-03 11:12:10 | 47.21421 | 11.82830 | 135° | 100km/h | 7804m | -13.4m/s | -23.4°C | 54.5% | 387.5hPa | 2.6V | 00:00:00 | 01:44:21 | 00:00:00 | |
| DB0ND-19 | 2026-09-03 11:12:09 | 47.21456 | 11.82778 | 135° | 100km/h | 7829m | -12.4m/s | -23.7°C | -1.0% | -1.0hPa | 2.6V | 00:00:00 | 00:00:00 | 00:00:00 | |
| BAUMI2-15 | 2026-09-03 11:12:07 | 47.21474 | 11.82751 | 136° | 102km/h | 7842m | -11.9m/s | -23.7°C | 58.8% | 385.5hPa | 2.6V | 00:00:00 | 01:44:18 | 00:00:00 | |
| OE5DXL-15 | 2026-09-03 11:12:05 | 47.21511 | 11.82697 | 134° | 108km/h | 7867m | -12.5m/s | -23.9°C | 60.2% | 384.2hPa | 2.6V | 00:00:00 | 00:00:00 | 00:00:00 | |
| IN3HCDX | 2026-09-03 11:12:04 | 47.21511 | 11.82697 | 134° | 102km/h | 7867m | -12.5m/s | -24.0°C | 57.2% | 384.3hPa | 2.6V | 00:00:00 | 00:00:00 | 00:00:00 | |
| DO3MHA-11 | 2026-09-03 11:12:03 | 47.21547 | 11.82641 | 134° | 104km/h | 7892m | -12.5m/s | -24.2°C | 61.6% | 383.0hPa | 2.6V | 00:00:00 | 01:44:14 | 00:00:00 | |
| BAUMI2-15 | 2026-09-03 11:12:02 | 47.21564 | 11.82614 | 135° | 102km/h | 7906m | -13.5m/s | -24.3°C | 62.4% | 382.3hPa | 2.6V | 02:25:00 | 01:44:13 | 00:00:00 | |
| OE5DRO-10 | 2026-09-03 11:12:01 | 47.21582 | 11.82588 | 135° | 106km/h | 7918m | -13.0m/s | -24.4°C | 63.6% | 381.6hPa | 2.6V | 00:00:00 | 00:00:00 | 00:00:00 | |
| DO3MHA-12 | 2026-09-03 11:12:00 | 47.21600 | 11.82561 | 136° | 106km/h | 7931m | -12.9m/s | -24.5°C | 64.8% | 380.9hPa | 2.6V | 00:00:00 | 01:44:11 | 00:00:00 | |
| BAUMI2-15 | 2026-09-03 11:11:57 | 47.21657 | 11.82481 | 136° | 106km/h | 7967m | -11.2m/s | -24.8°C | 70.7% | 379.1hPa | 2.6V | 00:00:00 | 01:44:08 | 00:00:00 | |
| DO3MHA-11 | 2026-09-03 11:11:53 | 47.21734 | 11.82369 | 135° | 108km/h | 8015m | -13.0m/s | -25.2°C | 72.7% | 376.5hPa | 2.6V | 00:00:00 | 01:44:04 | 00:00:00 | |
| BAUMI2-15 | 2026-09-03 11:11:52 | 47.21753 | 11.82341 | 136° | 108km/h | 8028m | -13.0m/s | -25.3°C | 72.8% | 376.0hPa | 2.6V | 00:00:00 | 01:44:03 | 00:00:00 | |
| DO3MHA-12 | 2026-09-03 11:11:50 | 47.21792 | 11.82287 | 137° | 110km/h | 8051m | -12.2m/s | -25.5°C | 73.1% | 374.7hPa | 2.6V | 02:25:00 | 01:44:01 | 00:00:00 | |
| BAUMI2-15 | 2026-09-03 11:11:47 | 47.21852 | 11.82203 | 136° | 110km/h | 8087m | -12.0m/s | -25.8°C | 72.2% | 372.8hPa | 2.5V | 02:25:00 | 01:43:58 | 00:00:00 | |
| IN3HCDX | 2026-09-03 11:11:44 | 47.21891 | 11.82146 | 137° | 108km/h | 8113m | -13.4m/s | -26.1°C | 68.2% | 371.7hPa | 2.5V | 00:00:00 | 00:00:00 | 00:00:00 | |
| DO3MHA-11 | 2026-09-03 11:11:43 | 47.21931 | 11.82090 | 137° | 110km/h | 8137m | -12.3m/s | -26.2°C | 71.7% | 370.3hPa | 2.5V | 02:25:00 | 01:43:54 | 00:00:00 | |
| BAUMI2-15 | 2026-09-03 11:11:42 | 47.21951 | 11.82062 | 138° | 111km/h | 8150m | -12.6m/s | -26.3°C | 71.8% | 369.7hPa | 2.6V | 00:00:00 | 01:43:53 | 00:00:00 | |
| DO3MHA-12 | 2026-09-03 11:11:40 | 47.21992 | 11.82007 | 138° | 111km/h | 8174m | -11.7m/s | -26.5°C | 72.6% | 368.5hPa | 2.6V | 00:00:00 | 01:43:51 | 00:00:00 | |
| OE5DXL-15 | 2026-09-03 11:11:35 | 47.22095 | 11.81865 | 138° | 108km/h | 8231m | -12.2m/s | -27.0°C | 75.3% | 365.5hPa | 2.6V | 00:00:00 | 00:00:00 | 00:00:00 | |
| DL6DJ-15 | 2026-09-03 11:11:34 | 47.22136 | 11.81812 | 138° | 108km/h | 8255m | -11.3m/s | -27.3°C | 72.0% | 364.4hPa | 2.6V | 00:00:00 | 00:00:00 | 00:00:00 | |
| DO3MHA-11 | 2026-09-03 11:11:33 | 47.22136 | 11.81812 | 139° | 110km/h | 8255m | -11.2m/s | -27.2°C | 76.0% | 364.3hPa | 2.6V | 00:00:00 | 01:43:44 | 00:00:00 | |
| BAUMI2-15 | 2026-09-03 11:11:32 | 47.22158 | 11.81784 | 139° | 111km/h | 8266m | -11.4m/s | -27.3°C | 76.3% | 363.9hPa | 2.6V | 02:25:00 | 01:43:43 | 00:00:00 | |
| DO3MHA-12 | 2026-09-03 11:11:30 | 47.22199 | 11.81729 | 138° | 108km/h | 8290m | -13.0m/s | -27.5°C | 77.2% | 362.5hPa | 2.6V | 00:00:00 | 01:43:41 | 00:00:00 | |
| BAUMI2-15 | 2026-09-03 11:11:27 | 47.22261 | 11.81646 | 138° | 108km/h | 8328m | -13.6m/s | -27.9°C | 77.6% | 360.5hPa | 2.6V | 00:00:00 | 01:43:38 | 00:00:00 | |
| IN3HCDX | 2026-09-03 11:11:23 | 47.22321 | 11.81565 | 138° | 106km/h | 8367m | -14.0m/s | -28.2°C | 72.5% | 358.8hPa | 2.6V | 02:26:00 | 00:00:00 | 00:00:00 | |
| DO3MHA-12 | 2026-09-03 11:11:20 | 47.22401 | 11.81460 | 139° | 106km/h | 8421m | -14.1m/s | -28.4°C | 70.6% | 356.1hPa | 2.6V | 02:26:00 | 01:43:31 | 00:00:00 | |
| NBG1-10 | 2026-09-03 11:11:17 | 47.22460 | 11.81384 | 140° | 108km/h | 8462m | -13.4m/s | -28.5°C | 66.1% | 354.1hPa | 2.5V | 00:00:00 | 01:43:28 | 00:00:00 | |
| DO3MHA-11 | 2026-09-03 11:11:13 | 47.22544 | 11.81282 | 140° | 108km/h | 8513m | -13.7m/s | -28.9°C | 64.1% | 351.6hPa | 2.5V | 02:26:00 | 01:43:24 | 00:00:00 | |
| DG1MFX-10 | 2026-09-03 11:11:12 | 47.22544 | 11.81282 | 140° | 108km/h | 8513m | -13.8m/s | -28.9°C | 60.4% | 351.7hPa | 2.6V | 02:26:00 | 00:00:00 | 00:00:00 | |
| DO3MHA-12 | 2026-09-03 11:11:10 | 47.22606 | 11.81206 | 142° | 108km/h | 8554m | -13.7m/s | -29.2°C | 64.0% | 349.7hPa | 2.6V | 00:00:00 | 01:43:21 | 00:00:00 | |
| OE5DXL-15 | 2026-09-03 11:11:05 | 47.22713 | 11.81080 | 141° | 108km/h | 8619m | -13.2m/s | -29.7°C | 58.8% | 346.4hPa | 2.6V | 02:26:00 | 00:00:00 | 00:00:00 | |
| DO3MHA-11 | 2026-09-03 11:11:03 | 47.22756 | 11.81029 | 142° | 108km/h | 8646m | -13.8m/s | -30.0°C | 57.0% | 345.2hPa | 2.5V | 00:00:00 | 01:43:14 | 00:00:00 | |
| IN3HCDX | 2026-09-03 11:11:02 | 47.22756 | 11.81029 | 143° | 106km/h | 8646m | -13.9m/s | -30.0°C | 53.3% | 345.3hPa | 2.5V | 02:26:00 | 00:00:00 | 00:00:00 | |
| DO3MHA-12 | 2026-09-03 11:11:00 | 47.22821 | 11.80956 | 143° | 108km/h | 8685m | -13.0m/s | -30.3°C | 56.2% | 343.3hPa | 2.5V | 00:00:00 | 01:43:11 | 00:00:00 | |
| DO3MHA-11 | 2026-09-03 11:10:53 | 47.22971 | 11.80782 | 143° | 108km/h | 8775m | -13.4m/s | -31.2°C | 58.1% | 338.9hPa | 2.5V | 00:00:00 | 01:43:04 | 00:00:00 | |
| DG1MFX-10 | 2026-09-03 11:10:51 | 47.22993 | 11.80758 | 144° | 108km/h | 8789m | -13.0m/s | -31.3°C | 54.1% | 338.3hPa | 2.5V | 02:26:00 | 00:00:00 | 00:00:00 | |
| DO3MHA-12 | 2026-09-03 11:10:50 | 47.23036 | 11.80709 | 142° | 110km/h | 8814m | -12.9m/s | -31.5°C | 56.2% | 337.0hPa | 2.5V | 02:26:00 | 01:43:01 | 00:00:00 | |
| OE3JTB-15 | 2026-09-03 11:10:49 | 47.23058 | 11.80684 | 142° | 106km/h | 8826m | -13.4m/s | -31.6°C | 54.3% | 336.4hPa | 2.5V | 00:00:00 | 00:00:00 | 00:00:00 | |
| IN3IJJ | 2026-09-03 11:10:47 | 47.23080 | 11.80658 | 142° | 108km/h | 8839m | -13.8m/s | -31.7°C | 48.8% | 335.8hPa | 2.5V | 00:00:00 | 00:00:00 | 00:00:00 | |
| OE5DRO-10 | 2026-09-03 11:10:45 | 47.23144 | 11.80585 | 143° | 106km/h | 8879m | -12.5m/s | -31.9°C | 47.8% | 333.9hPa | 2.5V | 02:26:00 | 00:00:00 | 00:00:00 | |
| DO3MHA-11 | 2026-09-03 11:10:43 | 47.23188 | 11.80536 | 143° | 108km/h | 8903m | -12.6m/s | -32.1°C | 47.7% | 332.7hPa | 2.5V | 02:26:00 | 01:42:54 | 00:00:00 | |
| IN3HCDX | 2026-09-03 11:10:41 | 47.23210 | 11.80511 | 143° | 110km/h | 8915m | -13.1m/s | -32.3°C | 44.5% | 332.1hPa | 2.5V | 02:26:00 | 00:00:00 | 00:00:00 | |
| DO3MHA-12 | 2026-09-03 11:10:40 | 47.23253 | 11.80461 | 142° | 106km/h | 8940m | -14.0m/s | -32.5°C | 48.4% | 330.8hPa | 2.5V | 00:00:00 | 01:42:51 | 00:00:00 | |
| OE5DXL-15 | 2026-09-03 11:10:35 | 47.23360 | 11.80342 | 143° | 108km/h | 9006m | -13.4m/s | -33.1°C | 48.5% | 327.7hPa | 2.5V | 00:00:00 | 00:00:00 | 00:00:00 | |
| DO3MHA-11 | 2026-09-03 11:10:33 | 47.23403 | 11.80294 | 142° | 104km/h | 9032m | -14.8m/s | -33.3°C | 47.7% | 326.5hPa | 2.5V | 00:00:00 | 01:42:44 | 00:00:00 | |
| DL6DJ-15 | 2026-09-03 11:10:31 | 47.23444 | 11.80248 | 143° | 100km/h | 9059m | -14.2m/s | -33.6°C | 42.8% | 325.3hPa | 2.5V | 00:00:00 | 00:00:00 | 00:00:00 | |
| DO3MHA-12 | 2026-09-03 11:10:30 | 47.23465 | 11.80225 | 144° | 106km/h | 9074m | -14.3m/s | -33.6°C | 45.4% | 324.6hPa | 2.5V | 00:00:00 | 01:42:41 | 00:00:00 | |
| OE5DRO-10 | 2026-09-03 11:10:26 | 47.23551 | 11.80132 | 143° | 108km/h | 9128m | -13.5m/s | -34.1°C | 44.2% | 322.1hPa | 2.5V | 00:00:00 | 00:00:00 | 00:00:00 | |
| DO3MHA-11 | 2026-09-03 11:10:23 | 47.23616 | 11.80062 | 145° | 108km/h | 9170m | -14.7m/s | -34.5°C | 44.8% | 320.3hPa | 2.5V | 00:00:00 | 01:42:34 | 00:00:00 | |
| DO3MHA-12 | 2026-09-03 11:10:20 | 47.23682 | 11.79995 | 146° | 108km/h | 9211m | -13.4m/s | -34.8°C | 45.6% | 318.3hPa | 2.5V | 02:27:00 | 01:42:31 | 00:00:00 | |
| DO3MHA-11 | 2026-09-03 11:10:13 | 47.23838 | 11.79834 | 146° | 110km/h | 9305m | -13.0m/s | -35.7°C | 48.7% | 314.0hPa | 2.5V | 02:27:00 | 01:42:24 | 00:00:00 | |
| DG1MFX-10 | 2026-09-03 11:10:11 | 47.23861 | 11.79811 | 146° | 111km/h | 9317m | -13.5m/s | -35.9°C | 45.2% | 313.5hPa | 2.5V | 02:27:00 | 00:00:00 | 00:00:00 | |
| DO3MHA-12 | 2026-09-03 11:10:10 | 47.23906 | 11.79763 | 145° | 110km/h | 9345m | -14.5m/s | -36.1°C | 49.9% | 312.3hPa | 2.5V | 00:00:00 | 01:42:21 | 00:00:00 | |
| OE5DRO-10 | 2026-09-03 11:10:07 | 47.23973 | 11.79694 | 146° | 111km/h | 9387m | -13.5m/s | -36.5°C | 51.2% | 310.4hPa | 2.5V | 00:00:00 | 00:00:00 | 00:00:00 | |
| OE5DXL-15 | 2026-09-03 11:10:05 | 47.24020 | 11.79645 | 144° | 113km/h | 9414m | -13.2m/s | -36.7°C | 50.8% | 309.2hPa | 2.5V | 00:00:00 | 00:00:00 | 00:00:00 | |
| NBG1-10 | 2026-09-03 11:10:04 | 47.24042 | 11.79620 | 144° | 117km/h | 9427m | -13.4m/s | -36.8°C | 50.3% | 308.6hPa | 2.5V | 02:27:00 | 01:42:15 | 00:00:00 | |
| DO3MHA-11 | 2026-09-03 11:10:03 | 47.24065 | 11.79595 | 143° | 110km/h | 9440m | -14.0m/s | -36.9°C | 50.1% | 308.0hPa | 2.5V | 00:00:00 | 01:42:14 | 00:00:00 | |
| DO3MHA-12 | 2026-09-03 11:10:00 | 47.24132 | 11.79524 | 145° | 111km/h | 9479m | -13.7m/s | -37.2°C | 50.2% | 306.2hPa | 2.5V | 00:00:00 | 01:42:11 | 00:00:00 | |
| IN3HCDX | 2026-09-03 11:09:59 | 47.24132 | 11.79524 | 145° | 110km/h | 9479m | -13.7m/s | -37.3°C | 45.9% | 306.3hPa | 2.5V | 02:27:00 | 00:00:00 | 00:00:00 | |
| DO3MHA-11 | 2026-09-03 11:09:53 | 47.24290 | 11.79352 | 145° | 113km/h | 9574m | -14.1m/s | -38.1°C | 50.7% | 302.1hPa | 2.5V | 00:00:00 | 01:42:04 | 00:00:00 | |
| DO3MHA-12 | 2026-09-03 11:09:50 | 47.24360 | 11.79280 | 145° | 113km/h | 9613m | -12.4m/s | -38.5°C | 51.2% | 300.3hPa | 2.5V | 02:27:00 | 01:42:01 | 00:00:00 | |
| DB0NH | 2026-09-03 11:09:49 | 47.24383 | 11.79255 | 144° | 130km/h | 9626m | -12.6m/s | -38.6°C | 51.4% | 299.7hPa | 2.5V | 02:27:00 | 01:42:00 | 00:00:00 | |
| DB0UT-7 | 2026-09-03 11:09:48 | 47.24406 | 11.79229 | 144° | 130km/h | 9638m | -12.2m/s | -38.7°C | 51.7% | 299.1hPa | 2.5V | 00:00:00 | 01:41:59 | 00:00:00 | |
| DO3MHA-11 | 2026-09-03 11:09:43 | 47.24521 | 11.79103 | 145° | 115km/h | 9699m | -12.9m/s | -39.3°C | 52.2% | 296.6hPa | 2.5V | 02:27:00 | 01:41:54 | 00:00:00 | |
| DO3MHA-12 | 2026-09-03 11:09:40 | 47.24593 | 11.79028 | 145° | 117km/h | 9737m | -11.7m/s | -39.6°C | 53.7% | 294.9hPa | 2.5V | 00:00:00 | 01:41:51 | 00:00:00 | |
| IN3HCDX | 2026-09-03 11:09:39 | 47.24592 | 11.79028 | 145° | 119km/h | 9737m | -11.7m/s | -39.7°C | 48.9% | 295.0hPa | 2.5V | 02:28:00 | 00:00:00 | 00:00:00 | |
| OE5DXL-15 | 2026-09-03 11:09:35 | 47.24712 | 11.78901 | 145° | 119km/h | 9798m | -13.3m/s | -40.2°C | 56.7% | 292.3hPa | 2.5V | 02:27:00 | 00:00:00 | 00:00:00 | |
| DO3MHA-11 | 2026-09-03 11:09:33 | 47.24760 | 11.78852 | 146° | 117km/h | 9823m | -12.1m/s | -40.4°C | 57.0% | 291.2hPa | 2.5V | 00:00:00 | 01:41:44 | 00:00:00 | |
| DO3MHA-12 | 2026-09-03 11:09:30 | 47.24835 | 11.78776 | 145° | 117km/h | 9859m | -13.2m/s | -40.7°C | 57.3% | 289.6hPa | 2.5V | 00:00:00 | 01:41:41 | 00:00:00 | |
| OE5DRO-10 | 2026-09-03 11:09:29 | 47.24859 | 11.78752 | 147° | 119km/h | 9871m | -13.4m/s | -40.8°C | 57.3% | 289.1hPa | 2.5V | 00:00:00 | 00:00:00 | 00:00:00 | |
| BAUMI2-15 | 2026-09-03 11:09:24 | 47.24981 | 11.78632 | 146° | 119km/h | 9935m | -12.6m/s | -41.3°C | 57.8% | 286.4hPa | 2.5V | 00:00:00 | 01:41:35 | 00:00:00 | |
| DO3MHA-11 | 2026-09-03 11:09:23 | 47.25006 | 11.78608 | 147° | 120km/h | 9947m | -12.6m/s | -41.4°C | 57.9% | 285.9hPa | 2.5V | 00:00:00 | 01:41:34 | 00:00:00 | |
| OE3JTB-15 | 2026-09-03 11:09:22 | 47.25031 | 11.78583 | 146° | 122km/h | 9960m | -12.1m/s | -41.5°C | 58.1% | 285.4hPa | 2.5V | 00:00:00 | 00:00:00 | 00:00:00 | |
| DO3MHA-12 | 2026-09-03 11:09:20 | 47.25082 | 11.78532 | 146° | 120km/h | 9984m | -12.1m/s | -41.8°C | 58.4% | 284.4hPa | 2.5V | 02:28:00 | 01:41:31 | 00:00:00 | |
| BAUMI2-15 | 2026-09-03 11:09:19 | 47.25107 | 11.78506 | 146° | 120km/h | 9997m | -12.3m/s | -41.9°C | 58.7% | 283.8hPa | 2.6V | 02:28:00 | 01:41:30 | 00:00:00 | |
| NBG1-10 | 2026-09-03 11:09:18 | 47.25132 | 11.78480 | 146° | 124km/h | 10009m | -12.1m/s | -42.0°C | 58.9% | 283.3hPa | 2.6V | 00:00:00 | 01:41:29 | 00:00:00 | |
| BAUMI2-15 | 2026-09-03 11:09:14 | 47.25233 | 11.78378 | 147° | 119km/h | 10059m | -13.0m/s | -42.5°C | 60.1% | 281.2hPa | 2.6V | 00:00:00 | 01:41:25 | 00:00:00 | |
| DO3MHA-11 | 2026-09-03 11:09:13 | 47.25258 | 11.78353 | 147° | 120km/h | 10072m | -13.0m/s | -42.6°C | 60.4% | 280.7hPa | 2.6V | 02:28:00 | 01:41:24 | 00:00:00 | |
| DG1MFX-10 | 2026-09-03 11:09:10 | 47.25333 | 11.78279 | 147° | 119km/h | 10112m | -13.2m/s | -43.0°C | 55.4% | 279.2hPa | 2.6V | 02:28:00 | 00:00:00 | 00:00:00 | |
| BAUMI2-15 | 2026-09-03 11:09:09 | 47.25358 | 11.78254 | 146° | 122km/h | 10126m | -12.7m/s | -43.0°C | 61.3% | 278.6hPa | 2.6V | 00:00:00 | 01:41:20 | 00:00:00 | |
| PG1ADW-2 | 2026-09-03 11:09:06 | 47.25434 | 11.78178 | 148° | 113km/h | 10164m | -12.9m/s | -43.4°C | 61.7% | 277.1hPa | 2.6V | 00:00:00 | 00:00:00 | 00:00:00 | |
| OE5DXL-15 | 2026-09-03 11:09:05 | 47.25460 | 11.78153 | 148° | 130km/h | 10176m | -12.3m/s | -43.5°C | 61.6% | 276.5hPa | 2.6V | 00:00:00 | 00:00:00 | 00:00:00 | |
| BAUMI2-15 | 2026-09-03 11:09:04 | 47.25487 | 11.78128 | 147° | 126km/h | 10188m | -12.3m/s | -43.6°C | 61.4% | 276.0hPa | 2.6V | 02:28:00 | 01:41:15 | 00:00:00 | |
| DO3MHA-11 | 2026-09-03 11:09:03 | 47.25514 | 11.78103 | 148° | 126km/h | 10200m | -12.2m/s | -43.7°C | 61.2% | 275.5hPa | 2.6V | 00:00:00 | 01:41:14 | 00:00:00 | |
| DL6DJ-15 | 2026-09-03 11:08:58 | 47.25645 | 11.77976 | 147° | 122km/h | 10263m | -13.6m/s | -44.3°C | 52.1% | 272.9hPa | 2.6V | 00:00:00 | 00:00:00 | 00:00:00 | |
| IN3HCDX | 2026-09-03 11:08:57 | 47.25645 | 11.77976 | 148° | 124km/h | 10263m | -13.6m/s | -44.3°C | 52.1% | 272.9hPa | 2.6V | 02:28:00 | 00:00:00 | 00:00:00 | |
| IN3IJJ | 2026-09-03 11:08:55 | 47.25698 | 11.77925 | 148° | 124km/h | 10290m | -13.2m/s | -44.5°C | 51.5% | 271.9hPa | 2.6V | 00:00:00 | 00:00:00 | 00:00:00 | |
| BAUMI2-15 | 2026-09-03 11:08:54 | 47.25752 | 11.77875 | 148° | 131km/h | 10316m | -12.4m/s | -44.7°C | 57.5% | 270.8hPa | 2.6V | 00:00:00 | 01:41:05 | 00:00:00 | |
| DO3MHA-11 | 2026-09-03 11:08:53 | 47.25780 | 11.77849 | 148° | 131km/h | 10328m | -12.2m/s | -44.8°C | 57.5% | 270.2hPa | 2.6V | 00:00:00 | 01:41:04 | 00:00:00 | |
| OE5DRO-10 | 2026-09-03 11:08:51 | 47.25836 | 11.77797 | 148° | 133km/h | 10353m | -12.3m/s | -45.0°C | 57.5% | 269.3hPa | 2.6V | 02:28:00 | 00:00:00 | 00:00:00 | |
| DO3MHA-12 | 2026-09-03 11:08:50 | 47.25864 | 11.77772 | 149° | 133km/h | 10366m | -12.4m/s | -45.2°C | 57.5% | 268.7hPa | 2.5V | 02:28:00 | 01:41:01 | 00:00:00 | |
| BAUMI2-15 | 2026-09-03 11:08:49 | 47.25892 | 11.77746 | 149° | 131km/h | 10378m | -12.7m/s | -45.3°C | 57.5% | 268.1hPa | 2.5V | 02:28:00 | 01:41:00 | 00:00:00 | |
| DG1MFX-10 | 2026-09-03 11:08:48 | 47.25892 | 11.77746 | 149° | 131km/h | 10378m | -12.7m/s | -45.3°C | 51.5% | 268.2hPa | 2.5V | 02:29:00 | 00:00:00 | 00:00:00 | |
| NBG1-10 | 2026-09-03 11:08:45 | 47.26004 | 11.77642 | 148° | 139km/h | 10431m | -13.3m/s | -45.7°C | 57.0% | 266.2hPa | 2.5V | 00:00:00 | 01:40:56 | 00:00:00 | |
| BAUMI2-15 | 2026-09-03 11:08:44 | 47.26032 | 11.77615 | 148° | 135km/h | 10444m | -13.4m/s | -45.9°C | 56.6% | 265.6hPa | 2.5V | 00:00:00 | 01:40:55 | 00:00:00 | |
| DO3MHA-11 | 2026-09-03 11:08:43 | 47.26060 | 11.77590 | 149° | 135km/h | 10457m | -13.4m/s | -46.0°C | 56.2% | 265.1hPa | 2.5V | 02:28:00 | 01:40:54 | 00:00:00 | |
| DO3MHA-12 | 2026-09-03 11:08:40 | 47.26149 | 11.77512 | 150° | 137km/h | 10496m | -13.0m/s | -46.3°C | 55.2% | 263.5hPa | 2.5V | 00:00:00 | 01:40:51 | 00:00:00 | |
| BAUMI2-15 | 2026-09-03 11:08:39 | 47.26178 | 11.77486 | 149° | 135km/h | 10508m | -13.2m/s | -46.4°C | 55.2% | 263.0hPa | 2.5V | 00:00:00 | 01:40:50 | 00:00:00 | |
| IN3HCDX | 2026-09-03 11:08:36 | 47.26237 | 11.77433 | 150° | 135km/h | 10534m | -13.8m/s | -46.7°C | 48.9% | 262.0hPa | 2.5V | 02:29:00 | 00:00:00 | 00:00:00 | |
| OE5DXL-15 | 2026-09-03 11:08:35 | 47.26296 | 11.77381 | 149° | 141km/h | 10561m | -13.2m/s | -46.9°C | 54.4% | 260.9hPa | 2.5V | 00:00:00 | 00:00:00 | 00:00:00 | |
| DB0UT-7 | 2026-09-03 11:08:33 | 47.26355 | 11.77328 | 149° | 144km/h | 10588m | -13.2m/s | -47.1°C | 53.7% | 259.9hPa | 2.5V | 02:28:00 | 00:00:00 | 00:00:00 | |
| OE5DRO-10 | 2026-09-03 11:08:32 | 47.26385 | 11.77302 | 150° | 141km/h | 10601m | -12.9m/s | -47.2°C | 53.6% | 259.4hPa | 2.5V | 00:00:00 | 00:00:00 | 00:00:00 | |
| DO3MHA-12 | 2026-09-03 11:08:30 | 47.26446 | 11.77250 | 151° | 139km/h | 10625m | -12.5m/s | -47.3°C | 53.1% | 258.4hPa | 2.5V | 00:00:00 | 01:40:41 | 00:00:00 | |
| BAUMI2-15 | 2026-09-03 11:08:29 | 47.26477 | 11.77225 | 151° | 137km/h | 10638m | -12.9m/s | -47.5°C | 53.4% | 257.8hPa | 2.5V | 00:00:00 | 01:40:40 | 00:00:00 | |
| DG1MFX-10 | 2026-09-03 11:08:28 | 47.26477 | 11.77225 | 152° | 139km/h | 10638m | -13.0m/s | -47.5°C | 47.3% | 257.9hPa | 2.5V | 02:29:00 | 00:00:00 | 00:00:00 | |
| DL6DJ-15 | 2026-09-03 11:08:27 | 47.26539 | 11.77174 | 151° | 137km/h | 10663m | -12.8m/s | -47.8°C | 48.1% | 256.9hPa | 2.5V | 00:00:00 | 00:00:00 | 00:00:00 | |
| DB0NH | 2026-09-03 11:08:25 | 47.26599 | 11.77126 | 152° | 64km/h | 10689m | -12.9m/s | -47.9°C | 54.9% | 255.9hPa | 2.5V | 00:00:00 | 01:40:36 | 00:00:00 | |
| BAUMI2-15 | 2026-09-03 11:08:24 | 47.26630 | 11.77101 | 152° | 139km/h | 10701m | -13.2m/s | -48.1°C | 55.2% | 255.4hPa | 2.5V | 00:00:00 | 01:40:35 | 00:00:00 | |
| DO3MHA-11 | 2026-09-03 11:08:23 | 47.26660 | 11.77077 | 151° | 142km/h | 10714m | -13.2m/s | -48.2°C | 55.6% | 254.9hPa | 2.5V | 00:00:00 | 01:40:34 | 00:00:00 | |
| DO3MHA-12 | 2026-09-03 11:08:20 | 47.26752 | 11.77001 | 151° | 146km/h | 10752m | -12.5m/s | -48.6°C | 56.4% | 253.4hPa | 2.5V | 02:29:00 | 01:40:31 | 00:00:00 | |
| BAUMI2-15 | 2026-09-03 11:08:19 | 47.26783 | 11.76975 | 151° | 144km/h | 10765m | -12.7m/s | -48.7°C | 56.6% | 252.9hPa | 2.5V | 02:29:00 | 01:40:30 | 00:00:00 | |
| IN3HCDX | 2026-09-03 11:08:16 | 47.26878 | 11.76897 | 153° | 146km/h | 10803m | -13.0m/s | -49.1°C | 49.9% | 251.5hPa | 2.6V | 02:29:00 | 00:00:00 | 00:00:00 | |
| BAUMI2-15 | 2026-09-03 11:08:14 | 47.26943 | 11.76847 | 153° | 142km/h | 10830m | -13.6m/s | -49.3°C | 57.0% | 250.4hPa | 2.6V | 00:00:00 | 01:40:25 | 00:00:00 | |
| DO3MHA-11 | 2026-09-03 11:08:13 | 47.26975 | 11.76822 | 152° | 150km/h | 10843m | -13.9m/s | -49.4°C | 57.3% | 249.9hPa | 2.6V | 02:29:00 | 01:40:24 | 00:00:00 | |
| NBG1-10 | 2026-09-03 11:08:12 | 47.27006 | 11.76797 | 152° | 151km/h | 10857m | -13.8m/s | -49.5°C | 57.0% | 249.4hPa | 2.6V | 02:29:00 | 01:40:23 | 00:00:00 | |
| BAUMI2-15 | 2026-09-03 11:08:09 | 47.27102 | 11.76720 | 152° | 148km/h | 10899m | -14.1m/s | -49.9°C | 57.2% | 247.9hPa | 2.6V | 00:00:00 | 01:40:20 | 00:00:00 | |
| DG1MFX-10 | 2026-09-03 11:08:08 | 47.27102 | 11.76720 | 152° | 146km/h | 10899m | -14.2m/s | -49.9°C | 50.3% | 247.9hPa | 2.6V | 02:29:00 | 00:00:00 | 00:00:00 | |
| OE5DXL-15 | 2026-09-03 11:08:05 | 47.27234 | 11.76618 | 154° | 153km/h | 10951m | -13.6m/s | -50.4°C | 58.6% | 245.7hPa | 2.6V | 02:29:00 | 00:00:00 | 00:00:00 | |
| BAUMI2-15 | 2026-09-03 11:08:04 | 47.27267 | 11.76593 | 154° | 148km/h | 10965m | -13.6m/s | -50.5°C | 58.6% | 245.3hPa | 2.5V | 02:29:00 | 01:40:15 | 00:00:00 | |
| OE5WHR-10 | 2026-09-03 11:08:03 | 47.27300 | 11.76569 | 154° | 150km/h | 10978m | -13.7m/s | -50.6°C | 58.8% | 244.8hPa | 2.5V | 02:29:00 | 00:00:00 | 00:00:00 | |
| DL6DJ-15 | 2026-09-03 11:07:56 | 47.27537 | 11.76387 | 153° | 151km/h | 11073m | -13.7m/s | -51.5°C | 52.6% | 241.4hPa | 2.6V | 00:00:00 | 00:00:00 | 00:00:00 | |
| OE3JTB-15 | 2026-09-03 11:07:55 | 47.27571 | 11.76361 | 153° | 151km/h | 11086m | -13.7m/s | -51.5°C | 60.1% | 240.8hPa | 2.6V | 00:00:00 | 00:00:00 | 00:00:00 | |
| BAUMI2-15 | 2026-09-03 11:07:54 | 47.27605 | 11.76335 | 153° | 153km/h | 11101m | -13.6m/s | -51.6°C | 60.0% | 240.3hPa | 2.6V | 00:00:00 | 01:40:05 | 00:00:00 | |
| IN3IJJ | 2026-09-03 11:07:52 | 47.27639 | 11.76308 | 153° | 155km/h | 11114m | -13.3m/s | 0°C | 0% | 239.8hPa | 2.6V | 02:30:00 | 00:00:00 | 00:00:00 | |
| BAUMI2-15 | 2026-09-03 11:07:49 | 47.27779 | 11.76204 | 154° | 155km/h | 11169m | -14.0m/s | -52.2°C | 59.8% | 237.8hPa | 2.6V | 02:29:00 | 01:40:00 | 00:00:00 | |
| DG1MJG | 2026-09-03 11:07:48 | 47.27779 | 11.76204 | 154° | 151km/h | 11169m | -14.1m/s | -52.3°C | 52.2% | 237.8hPa | 2.5V | 02:30:00 | 00:00:00 | 00:00:00 | |
| DG1MFX-10 | 2026-09-03 11:07:47 | 47.27813 | 11.76178 | 154° | 151km/h | 11183m | -14.2m/s | -52.4°C | 52.1% | 237.4hPa | 2.5V | 02:30:00 | 00:00:00 | 00:00:00 | |
| BAUMI2-15 | 2026-09-03 11:07:44 | 47.27953 | 11.76071 | 154° | 155km/h | 11238m | -13.5m/s | -52.8°C | 59.3% | 235.3hPa | 2.5V | 00:00:00 | 01:39:55 | 00:00:00 | |
| DO3MHA-11 | 2026-09-03 11:07:42 | 47.28024 | 11.76019 | 155° | 153km/h | 11265m | -13.7m/s | -53.0°C | 59.2% | 234.3hPa | 2.5V | 00:00:00 | 01:39:53 | 00:00:00 | |
| DH7VM-15 | 2026-09-03 11:07:41 | 47.28023 | 11.76019 | 155° | 155km/h | 11265m | -13.8m/s | -53.1°C | 51.4% | 234.3hPa | 2.5V | 00:00:00 | 00:00:00 | 00:00:00 | |
| DO3MHA-12 | 2026-09-03 11:07:40 | 47.28093 | 11.75969 | 155° | 151km/h | 11293m | -13.8m/s | -53.3°C | 59.1% | 233.3hPa | 2.5V | 00:00:00 | 01:39:51 | 00:00:00 | |
| BAUMI2-15 | 2026-09-03 11:07:39 | 47.28128 | 11.75945 | 155° | 153km/h | 11307m | -14.0m/s | -53.4°C | 59.0% | 232.8hPa | 2.5V | 00:00:00 | 01:39:50 | 00:00:00 | |
| OE5DRO-10 | 2026-09-03 11:07:36 | 47.28267 | 11.75842 | 154° | 146km/h | 11362m | -13.2m/s | -53.8°C | 59.1% | 230.8hPa | 2.5V | 00:00:00 | 00:00:00 | 00:00:00 | |
| OE5DXL-15 | 2026-09-03 11:07:35 | 47.28267 | 11.75842 | 154° | 144km/h | 11362m | -13.2m/s | -53.8°C | 59.1% | 230.8hPa | 2.5V | 00:00:00 | 00:00:00 | 00:00:00 | |
| BAUMI2-15 | 2026-09-03 11:07:34 | 47.28302 | 11.75818 | 155° | 148km/h | 11374m | -13.6m/s | -53.9°C | 59.0% | 230.3hPa | 2.5V | 02:29:00 | 01:39:45 | 00:00:00 | |
| DO3MHA-11 | 2026-09-03 11:07:32 | 47.28369 | 11.75768 | 153° | 146km/h | 11402m | -14.1m/s | -54.1°C | 58.6% | 229.3hPa | 2.7V | 00:00:00 | 01:39:43 | 00:00:00 | |
| IN3HCDX | 2026-09-03 11:07:31 | 47.28369 | 11.75768 | 154° | 148km/h | 11402m | -14.1m/s | -54.2°C | 50.6% | 229.3hPa | 2.7V | 02:30:00 | 00:00:00 | 00:00:00 | |
| DO3MHA-12 | 2026-09-03 11:07:30 | 47.28435 | 11.75718 | 153° | 144km/h | 11430m | -14.0m/s | -54.3°C | 57.8% | 228.3hPa | 2.7V | 00:00:00 | 01:39:41 | 00:00:00 | |
| BAUMI2-15 | 2026-09-03 11:07:29 | 47.28468 | 11.75693 | 154° | 133km/h | 11444m | -13.7m/s | -54.4°C | 57.2% | 227.8hPa | 2.7V | 00:00:00 | 01:39:40 | 00:00:00 | |
| OE5WHR-10 | 2026-09-03 11:07:26 | 47.28566 | 11.75620 | 153° | 133km/h | 11486m | -13.5m/s | -54.8°C | 55.3% | 226.4hPa | 2.7V | 00:00:00 | 00:00:00 | 00:00:00 | |
| DL6DJ-15 | 2026-09-03 11:07:25 | 47.28599 | 11.75595 | 152° | 146km/h | 11499m | -13.7m/s | -54.9°C | 46.8% | 225.9hPa | 2.7V | 00:00:00 | 00:00:00 | 00:00:00 | |
| DO3MHA-11 | 2026-09-03 11:07:22 | 47.28696 | 11.75519 | 153° | 142km/h | 11542m | -14.3m/s | -55.2°C | 53.1% | 224.4hPa | 2.7V | 02:29:00 | 01:39:33 | 00:00:00 | |
| DO3MHA-12 | 2026-09-03 11:07:20 | 47.28760 | 11.75472 | 154° | 142km/h | 11569m | -13.6m/s | -55.4°C | 52.7% | 223.4hPa | 2.5V | 02:30:00 | 01:39:31 | 00:00:00 | |
| DL2OL | 2026-09-03 11:07:17 | 47.28825 | 11.75424 | 154° | 144km/h | 11598m | -13.8m/s | -55.5°C | 43.7% | 222.4hPa | 2.7V | 00:00:00 | 00:00:00 | 00:00:00 | |
| OE5DRO-10 | 2026-09-03 11:07:16 | 47.28890 | 11.75375 | 153° | 137km/h | 11626m | -14.0m/s | -55.6°C | 51.3% | 221.4hPa | 2.7V | 00:00:00 | 00:00:00 | 00:00:00 | |
| IN3IJJ | 2026-09-03 11:07:15 | 47.28890 | 11.75375 | 153° | 144km/h | 11626m | -14.0m/s | 0°C | 0% | 221.5hPa | 2.7V | 02:30:00 | 00:00:00 | 00:00:00 | |
| DO3MHA-11 | 2026-09-03 11:07:12 | 47.29016 | 11.75280 | 154° | 139km/h | 11683m | -13.9m/s | -56.0°C | 51.4% | 219.5hPa | 2.7V | 00:00:00 | 01:39:23 | 00:00:00 | |
| DO3MHA-12 | 2026-09-03 11:07:10 | 47.29079 | 11.75232 | 153° | 135km/h | 11711m | -13.5m/s | -56.2°C | 51.7% | 218.5hPa | 2.7V | 00:00:00 | 01:39:21 | 00:00:00 | |
| OE5DXL-15 | 2026-09-03 11:07:05 | 47.29232 | 11.75109 | 153° | 124km/h | 11783m | -13.6m/s | -56.6°C | 52.4% | 216.1hPa | 2.7V | 00:00:00 | 00:00:00 | 00:00:00 | |
| DO3MHA-11 | 2026-09-03 11:07:02 | 47.29322 | 11.75040 | 152° | 130km/h | 11825m | -14.4m/s | -56.9°C | 53.0% | 214.6hPa | 2.7V | 00:00:00 | 01:39:13 | 00:00:00 | |
| DL6DJ-15 | 2026-09-03 11:06:54 | 47.29552 | 11.74856 | 151° | 128km/h | 11938m | -14.2m/s | -57.7°C | 45.4% | 210.9hPa | 2.7V | 00:00:00 | 00:00:00 | 00:00:00 | |
| DO3MHA-11 | 2026-09-03 11:06:52 | 47.29608 | 11.74812 | 152° | 122km/h | 11967m | -14.5m/s | -57.9°C | 53.8% | 209.9hPa | 2.7V | 02:30:00 | 01:39:03 | 00:00:00 | |
| OE5WHR-10 | 2026-09-03 11:06:51 | 47.29636 | 11.74789 | 151° | 119km/h | 11983m | -14.5m/s | -58.0°C | 53.4% | 209.3hPa | 2.5V | 00:00:00 | 01:39:02 | 00:00:00 | |
| DO3MHA-12 | 2026-09-03 11:06:50 | 47.29662 | 11.74767 | 152° | 122km/h | 11997m | -14.5m/s | -58.1°C | 53.5% | 208.9hPa | 2.5V | 02:30:00 | 01:39:01 | 00:00:00 | |
| IN3HCDX | 2026-09-03 11:06:49 | 47.29663 | 11.74767 | 152° | 122km/h | 11997m | -14.6m/s | -58.2°C | 44.8% | 209.0hPa | 2.5V | 02:30:00 | 00:00:00 | 00:00:00 | |
| DG1MJG | 2026-09-03 11:06:47 | 47.29717 | 11.74723 | 152° | 124km/h | 12027m | -13.9m/s | -58.4°C | 44.3% | 208.0hPa | 2.5V | 02:30:00 | 00:00:00 | 00:00:00 | |
| DG1MFX-10 | 2026-09-03 11:06:45 | 47.29771 | 11.74677 | 150° | 122km/h | 12055m | -14.7m/s | -58.5°C | 43.9% | 207.0hPa | 2.5V | 02:30:00 | 00:00:00 | 00:00:00 | |
| DL2OL | 2026-09-03 11:06:43 | 47.29824 | 11.74630 | 149° | 120km/h | 12085m | -14.6m/s | -58.8°C | 43.7% | 206.1hPa | 2.5V | 00:00:00 | 00:00:00 | 00:00:00 | |
| DO3MHA-11 | 2026-09-03 11:06:42 | 47.29876 | 11.74582 | 148° | 117km/h | 12114m | -14.7m/s | -59.0°C | 52.5% | 205.1hPa | 2.5V | 00:00:00 | 01:38:53 | 00:00:00 | |
| DO3MHA-12 | 2026-09-03 11:06:40 | 47.29925 | 11.74536 | 148° | 117km/h | 12144m | -14.6m/s | -59.3°C | 52.2% | 204.1hPa | 2.5V | 00:00:00 | 01:38:51 | 00:00:00 | |
| OE5DRO-10 | 2026-09-03 11:06:38 | 47.29976 | 11.74490 | 148° | 117km/h | 12174m | -13.6m/s | -59.5°C | 52.1% | 203.2hPa | 2.5V | 00:00:00 | 00:00:00 | 00:00:00 | |
| OE5DXL-15 | 2026-09-03 11:06:35 | 47.30050 | 11.74417 | 144° | 120km/h | 12215m | -14.2m/s | -59.8°C | 51.3% | 201.7hPa | 2.5V | 02:30:00 | 00:00:00 | 00:00:00 | |
| DO3MHA-11 | 2026-09-03 11:06:32 | 47.30120 | 11.74339 | 143° | 117km/h | 12258m | -14.5m/s | -60.0°C | 50.5% | 200.4hPa | 2.6V | 00:00:00 | 01:38:43 | 00:00:00 | |
| DO3MHA-12 | 2026-09-03 11:06:30 | 47.30166 | 11.74286 | 143° | 119km/h | 12287m | -14.5m/s | -60.2°C | 50.3% | 199.4hPa | 2.6V | 00:00:00 | 01:38:41 | 00:00:00 | |
| IN3HCDX | 2026-09-03 11:06:29 | 47.30166 | 11.74286 | 143° | 113km/h | 12287m | -14.6m/s | -60.3°C | 41.3% | 199.5hPa | 2.6V | 02:30:00 | 00:00:00 | 00:00:00 | |
| OE3JTB-15 | 2026-09-03 11:06:27 | 47.30235 | 11.74206 | 142° | 124km/h | 12332m | -13.8m/s | -60.5°C | 49.9% | 198.1hPa | 2.6V | 00:00:00 | 00:00:00 | 00:00:00 | |
| NBG1-10 | 2026-09-03 11:06:26 | 47.30258 | 11.74180 | 142° | 124km/h | 12346m | -14.1m/s | -60.5°C | 49.2% | 197.6hPa | 2.6V | 02:30:00 | 01:38:37 | 00:00:00 | |
| IN3IJJ | 2026-09-03 11:06:24 | 47.30281 | 11.74152 | 142° | 119km/h | 12360m | -14.0m/s | 0°C | 0% | 197.2hPa | 2.7V | 02:30:00 | 00:00:00 | 00:00:00 | |
| DL6DJ-15 | 2026-09-03 11:06:23 | 47.30328 | 11.74094 | 139° | 120km/h | 12389m | -13.9m/s | -60.7°C | 38.4% | 196.3hPa | 2.7V | 00:00:00 | 00:00:00 | 00:00:00 | |
| DO3MHA-11 | 2026-09-03 11:06:22 | 47.30351 | 11.74064 | 139° | 122km/h | 12403m | -14.0m/s | -60.8°C | 46.9% | 195.8hPa | 2.7V | 02:30:00 | 01:38:33 | 00:00:00 | |
| DO3MHA-12 | 2026-09-03 11:06:20 | 47.30397 | 11.74006 | 140° | 124km/h | 12432m | -14.6m/s | -60.9°C | 45.7% | 194.9hPa | 2.5V | 02:31:00 | 01:38:31 | 00:00:00 | |
| OE5DRO-10 | 2026-09-03 11:06:19 | 47.30420 | 11.73977 | 140° | 126km/h | 12447m | -14.5m/s | -61.0°C | 45.2% | 194.5hPa | 2.6V | 00:00:00 | 00:00:00 | 00:00:00 | |
| DB0UT-7 | 2026-09-03 11:06:17 | 47.30467 | 11.73919 | 140° | 119km/h | 12476m | -14.0m/s | -61.2°C | 44.4% | 193.5hPa | 2.6V | 00:00:00 | 00:00:00 | 00:00:00 | |
| DO3MHA-11 | 2026-09-03 11:06:12 | 47.30586 | 11.73765 | 139° | 126km/h | 12548m | -14.8m/s | -61.5°C | 41.4% | 191.3hPa | 2.6V | 00:00:00 | 01:38:23 | 00:00:00 | |
| DL2OL | 2026-09-03 11:06:08 | 47.30658 | 11.73675 | 141° | 126km/h | 12592m | -14.3m/s | -61.9°C | 31.8% | 190.0hPa | 2.6V | 00:00:00 | 00:00:00 | 00:00:00 | |
| OE5DXL-15 | 2026-09-03 11:06:05 | 47.30758 | 11.73553 | 140° | 119km/h | 12649m | -14.4m/s | -62.2°C | 39.0% | 188.2hPa | 2.6V | 00:00:00 | 00:00:00 | 00:00:00 | |
| DG1MFX-10 | 2026-09-03 11:06:04 | 47.30758 | 11.73553 | 141° | 128km/h | 12649m | -14.5m/s | -62.3°C | 30.5% | 188.2hPa | 2.6V | 02:31:00 | 00:00:00 | 00:00:00 | |
| DO3MHA-11 | 2026-09-03 11:06:02 | 47.30832 | 11.73463 | 142° | 122km/h | 12694m | -14.5m/s | -62.4°C | 37.3% | 186.8hPa | 2.6V | 00:00:00 | 01:38:13 | 00:00:00 | |
| DO3MHA-12 | 2026-09-03 11:06:00 | 47.30881 | 11.73407 | 143° | 122km/h | 12723m | -14.3m/s | -62.6°C | 36.5% | 185.9hPa | 2.6V | 00:00:00 | 01:38:11 | 00:00:00 | |
| OE3JTB-15 | 2026-09-03 11:05:58 | 47.30931 | 11.73350 | 143° | 115km/h | 12751m | -13.9m/s | -62.8°C | 35.5% | 185.1hPa | 2.6V | 00:00:00 | 01:38:09 | 00:00:00 | |
| IN3IJJ | 2026-09-03 11:05:55 | 47.30981 | 11.73293 | 141° | 122km/h | 12779m | -14.7m/s | 0°C | 0% | 184.3hPa | 2.6V | 00:00:00 | 00:00:00 | 00:00:00 | |
| DO3MHA-11 | 2026-09-03 11:05:52 | 47.31075 | 11.73177 | 141° | 117km/h | 12839m | -14.8m/s | -62.6°C | 30.9% | 182.5hPa | 2.6V | 02:31:00 | 01:38:03 | 00:00:00 | |
| IN3HCDX | 2026-09-03 11:05:47 | 47.31168 | 11.73064 | 140° | 120km/h | 12898m | -14.8m/s | -62.6°C | 20.3% | 180.8hPa | 2.5V | 00:00:00 | 00:00:00 | 00:00:00 | |
| DG1MJG | 2026-09-03 11:05:46 | 47.31191 | 11.73034 | 140° | 119km/h | 12912m | -14.9m/s | -62.6°C | 19.6% | 180.4hPa | 2.5V | 02:31:00 | 00:00:00 | 00:00:00 | |
| DG1MFX-10 | 2026-09-03 11:05:43 | 47.31257 | 11.72949 | 140° | 111km/h | 12957m | -15.3m/s | -62.6°C | 16.9% | 179.1hPa | 2.5V | 02:31:00 | 00:00:00 | 00:00:00 | |
| DO3MHA-11 | 2026-09-03 11:05:42 | 47.31300 | 11.72895 | 140° | 110km/h | 12987m | -14.8m/s | -62.7°C | 22.5% | 178.1hPa | 2.5V | 00:00:00 | 01:37:53 | 00:00:00 | |
| OE5DRO-10 | 2026-09-03 11:05:41 | 47.31321 | 11.72868 | 139° | 110km/h | 13002m | -14.7m/s | -62.8°C | 21.9% | 177.7hPa | 2.5V | 00:00:00 | 00:00:00 | 00:00:00 | |
| DO3MHA-12 | 2026-09-03 11:05:40 | 47.31341 | 11.72840 | 139° | 110km/h | 13018m | -14.4m/s | -62.5°C | 20.8% | 177.2hPa | 2.5V | 00:00:00 | 01:37:51 | 00:00:00 | |
| DB0UT-7 | 2026-09-03 11:05:38 | 47.31381 | 11.72787 | 138° | 108km/h | 13047m | -14.4m/s | -61.2°C | 17.5% | 176.5hPa | 2.5V | 00:00:00 | 01:37:49 | 00:00:00 | |
| OE5DXL-15 | 2026-09-03 11:05:35 | 47.31440 | 11.72704 | 135° | 108km/h | 13091m | -14.4m/s | -60.5°C | 15.1% | 175.2hPa | 2.5V | 00:00:00 | 00:00:00 | 00:00:00 | |
| DL2OL | 2026-09-03 11:05:34 | 47.31440 | 11.72704 | 135° | 111km/h | 13091m | -14.5m/s | -60.6°C | 9.7% | 175.2hPa | 2.5V | 00:00:00 | 00:00:00 | 00:00:00 | |
| DO3MHA-11 | 2026-09-03 11:05:32 | 47.31499 | 11.72614 | 134° | 111km/h | 13136m | -14.9m/s | -60.3°C | 13.5% | 173.9hPa | 2.5V | 00:00:00 | 01:37:43 | 00:00:00 | |
| DO3MHA-12 | 2026-09-03 11:05:30 | 47.31538 | 11.72554 | 134° | 110km/h | 13167m | -15.0m/s | -60.4°C | 12.8% | 173.1hPa | 2.5V | 00:00:00 | 01:37:41 | 00:00:00 | |
| OE3JTB-15 | 2026-09-03 11:05:29 | 47.31557 | 11.72524 | 134° | 106km/h | 13182m | -15.4m/s | -60.4°C | 12.6% | 172.7hPa | 2.5V | 02:31:00 | 00:00:00 | 00:00:00 | |
| DL9SK-14 | 2026-09-03 11:05:27 | 47.31596 | 11.72466 | 135° | 110km/h | 13212m | -14.7m/s | -59.8°C | 6.6% | 171.9hPa | 2.5V | 00:00:00 | 00:00:00 | 00:00:00 | |
| OE5WHR-10 | 2026-09-03 11:05:26 | 47.31616 | 11.72436 | 135° | 106km/h | 13227m | -14.5m/s | -58.8°C | 9.9% | 171.4hPa | 2.5V | 00:00:00 | 00:00:00 | 00:00:00 | |
| PG1ADW-2 | 2026-09-03 11:05:24 | 47.31655 | 11.72377 | 134° | 104km/h | 13256m | -15.1m/s | -58.6°C | 9.5% | 170.7hPa | 2.5V | 02:31:00 | 00:00:00 | 00:00:00 | |
| DO3MHA-11 | 2026-09-03 11:05:22 | 47.31692 | 11.72318 | 133° | 106km/h | 13286m | -15.3m/s | -58.3°C | 8.9% | 169.8hPa | 2.7V | 02:31:00 | 01:37:33 | 00:00:00 | |
| DL6DJ-15 | 2026-09-03 11:05:21 | 47.31728 | 11.72261 | 131° | 102km/h | 13317m | -15.2m/s | -58.3°C | 4.9% | 169.0hPa | 2.5V | 00:00:00 | 00:00:00 | 00:00:00 | |
| DO3MHA-12 | 2026-09-03 11:05:20 | 47.31727 | 11.72261 | 132° | 106km/h | 13317m | -15.2m/s | -58.2°C | 8.8% | 169.0hPa | 2.5V | 02:32:00 | 01:37:31 | 00:00:00 | |
| NBG1-10 | 2026-09-03 11:05:19 | 47.31745 | 11.72232 | 132° | 91km/h | 13332m | -15.1m/s | -58.1°C | 8.8% | 168.5hPa | 2.7V | 00:00:00 | 01:37:30 | 00:00:00 | |
| BAUMI2-15 | 2026-09-03 11:05:16 | 47.31799 | 11.72146 | 133° | 108km/h | 13377m | -14.3m/s | -57.6°C | 8.5% | 167.4hPa | 2.7V | 02:32:00 | 01:37:27 | 00:00:00 | |
| DG1MJG | 2026-09-03 11:05:15 | 47.31799 | 11.72146 | 133° | 108km/h | 13377m | -14.3m/s | -57.7°C | 4.7% | 167.4hPa | 2.5V | 02:32:00 | 00:00:00 | 00:00:00 | |
| DO3MHA-11 | 2026-09-03 11:05:12 | 47.31872 | 11.72027 | 135° | 104km/h | 13439m | -15.3m/s | -57.6°C | 8.4% | 165.8hPa | 2.5V | 00:00:00 | 01:37:23 | 00:00:00 | |
| BAUMI2-15 | 2026-09-03 11:05:11 | 47.31891 | 11.71999 | 136° | 106km/h | 13454m | -15.2m/s | -57.7°C | 8.4% | 165.3hPa | 2.5V | 00:00:00 | 01:37:22 | 00:00:00 | |
| DO3MHA-12 | 2026-09-03 11:05:10 | 47.31910 | 11.71972 | 138° | 100km/h | 13469m | -15.0m/s | -57.7°C | 8.3% | 164.9hPa | 2.5V | 00:00:00 | 01:37:21 | 00:00:00 | |
| DB0UT-7 | 2026-09-03 11:05:07 | 47.31971 | 11.71892 | 138° | 86km/h | 13515m | -15.2m/s | -57.9°C | 8.3% | 163.7hPa | 2.5V | 02:32:00 | 00:00:00 | 00:00:00 | |
| OE5DXL-15 | 2026-09-03 11:05:05 | 47.32009 | 11.71840 | 137° | 86km/h | 13545m | -15.5m/s | -57.9°C | 8.2% | 163.0hPa | 2.7V | 02:32:00 | 00:00:00 | 00:00:00 | |
| OE5DRO-10 | 2026-09-03 11:05:03 | 47.32045 | 11.71790 | 138° | 86km/h | 13576m | -15.6m/s | -57.7°C | 8.0% | 162.1hPa | 2.5V | 02:32:00 | 00:00:00 | 00:00:00 | |
| DO3MHA-11 | 2026-09-03 11:05:02 | 47.32063 | 11.71766 | 138° | 88km/h | 13592m | -15.3m/s | -57.4°C | 7.8% | 161.7hPa | 2.7V | 00:00:00 | 01:37:13 | 00:00:00 | |
| DL9SK-14 | 2026-09-03 11:04:56 | 47.32205 | 11.71563 | 133° | 80km/h | 13729m | -16.0m/s | -57.1°C | 3.3% | 158.2hPa | 2.7V | 00:00:00 | 00:00:00 | 00:00:00 | |
| DL6DJ-15 | 2026-09-03 11:04:50 | 47.32264 | 11.71475 | 135° | 88km/h | 13794m | -15.7m/s | -56.7°C | 3.1% | 156.7hPa | 2.7V | 00:00:00 | 00:00:00 | 00:00:00 | |
| BAUMI2-15 | 2026-09-03 11:04:45 | 47.32324 | 11.71383 | 134° | 84km/h | 13859m | -16.1m/s | -56.7°C | 6.4% | 155.1hPa | 2.7V | 02:32:00 | 01:36:56 | 00:00:00 | |
| OE5WHR-10 | 2026-09-03 11:04:44 | 47.32339 | 11.71361 | 134° | 82km/h | 13876m | -16.1m/s | -56.6°C | 6.5% | 154.7hPa | 2.6V | 02:32:00 | 00:00:00 | 00:00:00 | |
| PG1ADW-2 | 2026-09-03 11:04:42 | 47.32368 | 11.71317 | 135° | 82km/h | 13908m | -15.7m/s | -56.4°C | 6.3% | 153.9hPa | 2.5V | 00:00:00 | 00:00:00 | 00:00:00 | |
| DO3MHA-12 | 2026-09-03 11:04:40 | 47.32397 | 11.71273 | 133° | 80km/h | 13939m | -15.1m/s | -56.3°C | 6.3% | 153.1hPa | 2.5V | 00:00:00 | 01:36:51 | 00:00:00 | |
| DO8TBO-1 | 2026-09-03 11:04:37 | 47.32437 | 11.71203 | 128° | 78km/h | 13986m | -16.1m/s | -56.5°C | 6.3% | 152.0hPa | 2.5V | 00:00:00 | 01:36:48 | 00:00:00 | |
| OE5DXL-15 | 2026-09-03 11:04:35 | 47.32461 | 11.71156 | 128° | 77km/h | 14018m | -16.4m/s | -56.7°C | 6.3% | 151.2hPa | 2.5V | 00:00:00 | 00:00:00 | 00:00:00 | |
| DO3MHA-11 | 2026-09-03 11:04:32 | 47.32498 | 11.71087 | 129° | 84km/h | 14067m | -15.7m/s | -57.0°C | 6.5% | 150.1hPa | 2.5V | 00:00:00 | 01:36:43 | 00:00:00 | |
| OE3JTB-15 | 2026-09-03 11:04:31 | 47.32511 | 11.71063 | 128° | 77km/h | 14083m | -15.6m/s | -56.8°C | 6.4% | 149.6hPa | 2.5V | 00:00:00 | 01:36:42 | 00:00:00 | |
| DL9SK-14 | 2026-09-03 11:04:26 | 47.32587 | 11.70915 | 128° | 82km/h | 14181m | -16.0m/s | -56.4°C | 2.7% | 147.4hPa | 2.5V | 00:00:00 | 00:00:00 | 00:00:00 | |
| BAUMI2-15 | 2026-09-03 11:04:25 | 47.32587 | 11.70915 | 129° | 82km/h | 14181m | -15.9m/s | -56.3°C | 5.9% | 147.3hPa | 2.5V | 00:00:00 | 01:36:36 | 00:00:00 | |
| IN3HCDX | 2026-09-03 11:04:24 | 47.32587 | 11.70914 | 129° | 82km/h | 14181m | -16.0m/s | -56.4°C | 2.7% | 147.4hPa | 2.5V | 00:00:00 | 00:00:00 | 00:00:00 | |
| OE5WHR-10 | 2026-09-03 11:04:23 | 47.32613 | 11.70865 | 127° | 75km/h | 14213m | -16.5m/s | -56.3°C | 5.9% | 146.6hPa | 2.5V | 00:00:00 | 00:00:00 | 00:00:00 | |
| DO3MHA-11 | 2026-09-03 11:04:22 | 47.32626 | 11.70840 | 126° | 75km/h | 14230m | -16.4m/s | -56.2°C | 5.8% | 146.3hPa | 2.5V | 02:32:00 | 01:36:33 | 00:00:00 | |
| DB0UT-7 | 2026-09-03 11:04:21 | 47.32638 | 11.70816 | 126° | 73km/h | 14246m | -17.2m/s | -56.1°C | 5.7% | 145.8hPa | 2.7V | 00:00:00 | 01:36:32 | 00:00:00 | |
| DO3MHA-12 | 2026-09-03 11:04:20 | 47.32649 | 11.70792 | 126° | 73km/h | 14263m | -16.9m/s | -56.0°C | 5.6% | 145.5hPa | 2.7V | 02:33:00 | 01:36:31 | 00:00:00 | |
| DL6DJ-15 | 2026-09-03 11:04:19 | 47.32671 | 11.70747 | 126° | 73km/h | 14298m | -16.3m/s | -56.0°C | 2.4% | 144.7hPa | 2.6V | 00:00:00 | 00:00:00 | 00:00:00 | |
| BAUMI2-15 | 2026-09-03 11:04:15 | 47.32705 | 11.70679 | 124° | 71km/h | 14347m | -16.8m/s | -56.1°C | 5.5% | 143.5hPa | 2.6V | 02:33:00 | 01:36:26 | 00:00:00 | |
| DG1MJG | 2026-09-03 11:04:13 | 47.32715 | 11.70656 | 125° | 71km/h | 14365m | -17.0m/s | -56.1°C | 2.4% | 143.2hPa | 2.7V | 02:33:00 | 00:00:00 | 00:00:00 | |
| DO3MHA-11 | 2026-09-03 11:04:12 | 47.32734 | 11.70614 | 127° | 73km/h | 14399m | -16.7m/s | -55.7°C | 5.3% | 142.4hPa | 2.7V | 00:00:00 | 01:36:23 | 00:00:00 | |
| DO3MHA-12 | 2026-09-03 11:04:10 | 47.32756 | 11.70574 | 129° | 75km/h | 14433m | -16.5m/s | -55.8°C | 5.3% | 141.7hPa | 2.7V | 00:00:00 | 01:36:21 | 00:00:00 | |
| NBG1-10 | 2026-09-03 11:04:07 | 47.32790 | 11.70509 | 128° | 73km/h | 14482m | -16.7m/s | -55.9°C | 5.2% | 140.6hPa | 2.7V | 00:00:00 | 01:36:18 | 00:00:00 | |
| OE5DRO-10 | 2026-09-03 11:04:06 | 47.32801 | 11.70488 | 128° | 75km/h | 14499m | -17.2m/s | -55.9°C | 5.2% | 140.2hPa | 2.7V | 02:33:00 | 00:00:00 | 00:00:00 | |
| OE5DXL-15 | 2026-09-03 11:04:05 | 47.32813 | 11.70466 | 129° | 73km/h | 14516m | -17.0m/s | -56.0°C | 5.2% | 139.8hPa | 2.7V | 00:00:00 | 00:00:00 | 00:00:00 | |
| IN3HCDX | 2026-09-03 11:04:03 | 47.32824 | 11.70445 | 130° | 73km/h | 14533m | -16.6m/s | -56.0°C | 2.1% | 139.4hPa | 2.7V | 00:00:00 | 00:00:00 | 00:00:00 | |
| DO3MHA-11 | 2026-09-03 11:04:02 | 47.32849 | 11.70402 | 130° | 75km/h | 14565m | -16.4m/s | -55.8°C | 5.0% | 138.7hPa | 2.7V | 00:00:00 | 01:36:13 | 00:00:00 | |
| DG1MFX-10 | 2026-09-03 11:04:01 | 47.32849 | 11.70402 | 130° | 78km/h | 14565m | -16.4m/s | -55.8°C | 2.1% | 138.7hPa | 2.7V | 02:33:00 | 00:00:00 | 00:00:00 | |
| DL9SK-14 | 2026-09-03 11:03:54 | 47.32941 | 11.70222 | 127° | 71km/h | 14701m | -16.5m/s | -55.8°C | 2.0% | 135.8hPa | 2.7V | 00:00:00 | 00:00:00 | 00:00:00 | |
| DL6DJ-15 | 2026-09-03 11:03:48 | 47.33014 | 11.70069 | 125° | 71km/h | 14819m | -16.9m/s | -56.6°C | 2.1% | 133.3hPa | 2.7V | 00:00:00 | 00:00:00 | 00:00:00 | |
| OE5DRO-10 | 2026-09-03 11:03:47 | 47.33014 | 11.70069 | 126° | 71km/h | 14820m | -16.9m/s | -56.6°C | 5.1% | 133.3hPa | 2.7V | 00:00:00 | 00:00:00 | 00:00:00 | |
| BAUMI2-15 | 2026-09-03 11:03:45 | 47.33034 | 11.70025 | 124° | 71km/h | 14853m | -17.3m/s | -56.8°C | 5.3% | 132.5hPa | 2.7V | 02:33:00 | 01:35:56 | 00:00:00 | |
| DO3MHA-11 | 2026-09-03 11:03:42 | 47.33064 | 11.69956 | 123° | 69km/h | 14905m | -17.7m/s | -57.2°C | 5.5% | 131.5hPa | 2.6V | 00:00:00 | 01:35:53 | 00:00:00 | |
| OE5WHR-10 | 2026-09-03 11:03:41 | 47.33074 | 11.69935 | 125° | 73km/h | 14924m | -17.0m/s | -57.3°C | 5.5% | 131.1hPa | 2.6V | 02:33:00 | 00:00:00 | 00:00:00 | |
| DO3MHA-12 | 2026-09-03 11:03:40 | 47.33084 | 11.69914 | 126° | 69km/h | 14941m | -17.0m/s | -57.4°C | 5.5% | 130.7hPa | 2.5V | 00:00:00 | 01:35:51 | 00:00:00 | |
| IN3IJJ | 2026-09-03 11:03:35 | 47.33123 | 11.69827 | 121° | 69km/h | 15011m | -18.0m/s | 0°C | 0% | 129.4hPa | 2.5V | 00:00:00 | 00:00:00 | 00:00:00 | |
| NBG1-10 | 2026-09-03 11:03:34 | 47.33141 | 11.69783 | 122° | 71km/h | 15047m | -18.2m/s | -57.6°C | 5.7% | 128.5hPa | 2.5V | 00:00:00 | 01:35:45 | 00:00:00 | |
| OE3JTB-15 | 2026-09-03 11:03:33 | 47.33150 | 11.69761 | 122° | 71km/h | 15065m | -17.5m/s | -57.5°C | 5.6% | 128.2hPa | 2.5V | 00:00:00 | 00:00:00 | 00:00:00 | |
| OE5MMP-10 | 2026-09-03 11:03:32 | 47.33160 | 11.69739 | 123° | 75km/h | 15083m | -17.3m/s | -57.5°C | 5.6% | 127.8hPa | 2.5V | 00:00:00 | 01:35:43 | 00:00:00 | |
| DO3MHA-12 | 2026-09-03 11:03:30 | 47.33179 | 11.69692 | 121° | 77km/h | 15118m | -16.7m/s | -57.3°C | 5.5% | 127.1hPa | 2.5V | 00:00:00 | 01:35:41 | 00:00:00 | |
| OE5DRO-10 | 2026-09-03 11:03:28 | 47.33199 | 11.69642 | 120° | 75km/h | 15153m | -17.9m/s | -57.3°C | 5.5% | 126.4hPa | 2.5V | 00:00:00 | 00:00:00 | 00:00:00 | |
| DL9SK-14 | 2026-09-03 11:03:23 | 47.33251 | 11.69522 | 123° | 78km/h | 15243m | -17.6m/s | -56.6°C | 2.0% | 124.7hPa | 2.5V | 00:00:00 | 00:00:00 | 00:00:00 | |
| PG1ADW-2 | 2026-09-03 11:03:22 | 47.33262 | 11.69498 | 124° | 69km/h | 15261m | -18.0m/s | -56.5°C | 5.2% | 124.3hPa | 2.5V | 02:33:00 | 00:00:00 | 00:00:00 | |
| IN3HCDX | 2026-09-03 11:03:21 | 47.33262 | 11.69498 | 124° | 77km/h | 15261m | -18.1m/s | -56.6°C | 2.0% | 124.3hPa | 2.6V | 02:34:00 | 00:00:00 | 00:00:00 | |
| DO3MHA-12 | 2026-09-03 11:03:20 | 47.33284 | 11.69451 | 127° | 73km/h | 15298m | -18.3m/s | -56.3°C | 5.1% | 123.6hPa | 2.6V | 02:34:00 | 01:35:31 | 00:00:00 | |
| DL2OL | 2026-09-03 11:03:16 | 47.33319 | 11.69389 | 132° | 75km/h | 15352m | -17.4m/s | -56.3°C | 1.9% | 122.5hPa | 2.7V | 00:00:00 | 00:00:00 | 00:00:00 | |
| DO3MHA-11 | 2026-09-03 11:03:12 | 47.33382 | 11.69287 | 136° | 66km/h | 15443m | -18.3m/s | -56.4°C | 4.9% | 120.8hPa | 2.7V | 00:00:00 | 01:35:23 | 00:00:00 | |
| DG1MJG | 2026-09-03 11:03:11 | 47.33382 | 11.69287 | 137° | 69km/h | 15443m | -18.4m/s | -56.4°C | 1.8% | 120.8hPa | 2.7V | 02:34:00 | 00:00:00 | 00:00:00 | |
| DO3MHA-12 | 2026-09-03 11:03:10 | 47.33408 | 11.69252 | 140° | 55km/h | 15480m | -18.0m/s | -56.3°C | 4.9% | 120.0hPa | 2.7V | 00:00:00 | 01:35:21 | 00:00:00 | |
| OE5MMP-10 | 2026-09-03 11:03:09 | 47.33421 | 11.69236 | 140° | 51km/h | 15498m | -18.2m/s | -56.2°C | 4.8% | 119.7hPa | 2.7V | 02:34:00 | 01:35:20 | 00:00:00 | |
| OE5DXL-15 | 2026-09-03 11:03:05 | 47.33470 | 11.69174 | 140° | 51km/h | 15569m | -18.1m/s | -56.1°C | 4.7% | 118.3hPa | 2.6V | 00:00:00 | 00:00:00 | 00:00:00 | |
| OE3JTB-15 | 2026-09-03 11:03:04 | 47.33481 | 11.69160 | 138° | 51km/h | 15587m | -18.4m/s | -56.0°C | 4.6% | 118.0hPa | 2.6V | 00:00:00 | 01:35:15 | 00:00:00 | |
| DO3MHA-11 | 2026-09-03 11:03:02 | 47.33501 | 11.69131 | 134° | 51km/h | 15624m | -18.2m/s | -56.0°C | 4.5% | 117.3hPa | 2.6V | 00:00:00 | 01:35:13 | 00:00:00 | |
| DL9SK-14 | 2026-09-03 11:02:52 | 47.33576 | 11.68978 | 116° | 47km/h | 15807m | -18.3m/s | -56.6°C | 1.6% | 114.1hPa | 2.6V | 00:00:00 | 00:00:00 | 00:00:00 | |
| DL6DJ-15 | 2026-09-03 11:02:45 | 47.33609 | 11.68856 | 113° | 51km/h | 15939m | -18.2m/s | -56.7°C | 1.5% | 111.8hPa | 2.6V | 00:00:00 | 00:00:00 | 00:00:00 | |
| PG1ADW-2 | 2026-09-03 11:02:42 | 47.33624 | 11.68802 | 115° | 51km/h | 15995m | -18.0m/s | -56.8°C | 4.5% | 110.7hPa | 2.6V | 00:00:00 | 00:00:00 | 00:00:00 | |
| OE5MMP-10 | 2026-09-03 11:02:41 | 47.33630 | 11.68784 | 117° | 49km/h | 16014m | -18.0m/s | -56.8°C | 4.5% | 110.4hPa | 2.6V | 00:00:00 | 01:34:52 | 00:00:00 | |
| DO3MHA-11 | 2026-09-03 11:02:40 | 47.33635 | 11.68767 | 118° | 49km/h | 16032m | -18.1m/s | -56.9°C | 4.5% | 110.1hPa | 2.6V | 00:00:00 | 01:34:51 | 00:00:00 | |
| DG1MFX-10 | 2026-09-03 11:02:39 | 47.33635 | 11.68767 | 118° | 51km/h | 16032m | -18.1m/s | -56.9°C | 1.5% | 110.1hPa | 2.6V | 02:35:00 | 00:00:00 | 00:00:00 | |
| OE5WHR-10 | 2026-09-03 11:02:38 | 47.33647 | 11.68733 | 117° | 51km/h | 16068m | -19.0m/s | -57.0°C | 4.5% | 109.4hPa | 2.6V | 02:34:00 | 00:00:00 | 00:00:00 | |
| DL2OL | 2026-09-03 11:02:36 | 47.33652 | 11.68716 | 119° | 49km/h | 16089m | -19.0m/s | -57.1°C | 1.5% | 109.1hPa | 2.7V | 00:00:00 | 00:00:00 | 00:00:00 | |
| OE5DXL-15 | 2026-09-03 11:02:35 | 47.33663 | 11.68682 | 115° | 55km/h | 16127m | -19.3m/s | -57.2°C | 4.5% | 108.5hPa | 2.7V | 00:00:00 | 00:00:00 | 00:00:00 | |
| NBG1-10 | 2026-09-03 11:02:32 | 47.33698 | 11.68564 | 113° | 53km/h | 16263m | -18.2m/s | -57.7°C | 4.6% | 106.2hPa | 2.7V | 00:00:00 | 00:00:00 | 00:00:00 | |
| PG1ADW-2 | 2026-09-03 11:02:30 | 47.33725 | 11.68449 | 110° | 58km/h | 16376m | -18.3m/s | -57.7°C | 4.6% | 104.3hPa | 2.7V | 02:34:00 | 01:34:33 | 00:00:00 | |
| DO3MHA-12 | 2026-09-03 11:02:29 | 47.33725 | 11.68449 | 110° | 57km/h | 16376m | -18.3m/s | -57.7°C | 4.6% | 104.3hPa | 2.7V | 00:00:00 | 01:34:33 | 00:00:00 | |
| DO3MHA-11 | 2026-09-03 11:02:27 | 47.33733 | 11.68411 | 110° | 58km/h | 16413m | -18.4m/s | -57.8°C | 4.7% | 103.7hPa | 2.7V | 02:35:00 | 01:34:31 | 00:00:00 | |
| IN3HCDX | 2026-09-03 11:02:25 | 47.33738 | 11.68392 | 111° | 55km/h | 16432m | -18.1m/s | -57.9°C | 1.4% | 103.5hPa | 2.6V | 02:35:00 | 00:00:00 | 00:00:00 | |
| DG1MFX-10 | 2026-09-03 11:02:24 | 47.33738 | 11.68392 | 111° | 55km/h | 16432m | -18.1m/s | -57.9°C | 1.5% | 103.5hPa | 2.6V | 02:35:00 | 00:00:00 | 00:00:00 | |
| OE5WHR-10 | 2026-09-03 11:02:18 | 47.33748 | 11.68352 | 114° | 58km/h | 16469m | -18.0m/s | -57.9°C | 4.7% | 102.8hPa | 2.6V | 00:00:00 | 00:00:00 | 00:00:00 | |
| DL6DJ-15 | 2026-09-03 11:02:14 | 47.33766 | 11.68293 | 118° | 58km/h | 16525m | -18.3m/s | -58.1°C | 1.4% | 101.9hPa | 2.6V | 00:00:00 | 00:00:00 | 00:00:00 | |
| DO3MHA-12 | 2026-09-03 11:02:12 | 47.33781 | 11.68253 | 121° | 60km/h | 16563m | -18.5m/s | -58.2°C | 4.8% | 101.3hPa | 2.6V | 00:00:00 | 01:34:23 | 00:00:00 | |
| DG1MJG | 2026-09-03 11:02:10 | 47.33797 | 11.68213 | 122° | 62km/h | 16601m | -18.1m/s | -58.5°C | 1.4% | 100.7hPa | 2.6V | 02:35:00 | 00:00:00 | 00:00:00 | |
| OE3JTB-15 | 2026-09-03 11:02:06 | 47.33830 | 11.68134 | 125° | 47km/h | 16677m | -18.5m/s | -58.2°C | 4.8% | 99.4hPa | 2.6V | 00:00:00 | 00:00:00 | 00:00:00 | |
| OE5DXL-15 | 2026-09-03 11:02:05 | 47.33838 | 11.68116 | 126° | 46km/h | 16696m | -18.8m/s | -58.2°C | 4.8% | 99.1hPa | 2.6V | 02:35:00 | 00:00:00 | 00:00:00 | |
| PG1ADW-2 | 2026-09-03 11:02:02 | 47.33863 | 11.68062 | 126° | 49km/h | 16753m | -18.6m/s | -58.1°C | 4.7% | 98.2hPa | 2.7V | 00:00:00 | 00:00:00 | 00:00:00 | |
| DF7PN | 2026-09-03 11:01:57 | 47.33989 | 11.67843 | 135° | 46km/h | 17059m | -32.0m/s | 0°C | -1.0% | -1.0hPa | 2.7V | 00:00:00 | 00:00:00 | 00:00:00 | |
| OE5WHR-10 | 2026-09-03 11:01:56 | 47.33910 | 11.67969 | 129° | 42km/h | 16869m | -19.4m/s | -58.2°C | 4.9% | 96.4hPa | 2.7V | 00:00:00 | 01:34:07 | 00:00:00 | |
| S52SK | 2026-09-03 11:01:55 | 47.33910 | 11.67969 | 129° | 49km/h | 16869m | -19.4m/s | -58.3°C | 1.4% | 96.5hPa | 2.7V | 00:00:00 | 00:00:00 | 00:00:00 | |
| OE5DRO-10 | 2026-09-03 11:01:53 | 47.33934 | 11.67926 | 132° | 42km/h | 16928m | -19.4m/s | -58.1°C | 4.9% | 95.5hPa | 2.7V | 00:00:00 | 00:00:00 | 00:00:00 | |
| DO3MHA-12 | 2026-09-03 11:01:52 | 47.33943 | 11.67912 | 133° | 47km/h | 16948m | -19.3m/s | -58.1°C | 4.9% | 95.2hPa | 2.7V | 00:00:00 | 01:34:03 | 00:00:00 | |
| DO3MHA-11 | 2026-09-03 11:01:50 | 47.33961 | 11.67884 | 134° | 44km/h | 16986m | -19.2m/s | -58.1°C | 4.9% | 94.6hPa | 2.7V | 02:35:00 | 01:34:01 | 00:00:00 | |
| DB0UT-7 | 2026-09-03 11:01:49 | 47.33971 | 11.67870 | 133° | 47km/h | 17006m | -22.1m/s | -58.1°C | 4.9% | 94.3hPa | 2.7V | 02:35:00 | 00:00:00 | 00:00:00 | |
| NBG1-10 | 2026-09-03 11:01:48 | 47.33980 | 11.67856 | 137° | 44km/h | 17030m | -24.3m/s | -58.0°C | 4.7% | 94.1hPa | 2.7V | 00:00:00 | 01:33:59 | 00:00:00 | |
| S52SK | 2026-09-03 11:01:45 | 47.33998 | 11.67831 | 138° | 46km/h | 17091m | -32.7m/s | -57.8°C | 1.3% | 93.4hPa | 2.7V | 00:00:00 | 00:00:00 | 00:00:00 | |
| DL6DJ-15 | 2026-09-03 11:01:43 | 47.34023 | 11.67802 | 143° | 38km/h | 17186m | -29.3m/s | -57.5°C | 1.2% | 92.0hPa | 2.7V | 00:00:00 | 00:00:00 | 00:00:00 | |
| DO3MHA-12 | 2026-09-03 11:01:42 | 47.34031 | 11.67794 | 146° | 33km/h | 17215m | -28.1m/s | -57.5°C | 4.6% | 91.5hPa | 2.7V | 00:00:00 | 01:33:53 | 00:00:00 | |
| DO3MHA-11 | 2026-09-03 11:01:40 | 47.34045 | 11.67780 | 138° | 37km/h | 17275m | -30.8m/s | -57.2°C | 4.6% | 90.7hPa | 2.7V | 00:00:00 | 01:33:51 | 00:00:00 | |
| DG1MJG | 2026-09-03 11:01:39 | 47.34045 | 11.67780 | 139° | 31km/h | 17275m | -30.9m/s | -57.3°C | 1.2% | 90.7hPa | 2.7V | 02:36:00 | 00:00:00 | 00:00:00 | |
| OE3JTB-15 | 2026-09-03 11:01:37 | 47.34060 | 11.67754 | 125° | 46km/h | 17368m | -30.0m/s | -57.1°C | 4.5% | 89.3hPa | 2.7V | 00:00:00 | 01:33:48 | 00:00:00 | |
| DG1MFX-10 | 2026-09-03 11:01:36 | 47.34060 | 11.67754 | 125° | 31km/h | 17368m | -30.1m/s | -57.1°C | 1.2% | 89.3hPa | 2.7V | 02:36:00 | 00:00:00 | 00:00:00 | |
| OE5DXL-15 | 2026-09-03 11:01:35 | 47.34069 | 11.67734 | 124° | 46km/h | 17431m | -31.9m/s | -57.2°C | 4.6% | 88.5hPa | 2.7V | 00:00:00 | 00:00:00 | 00:00:00 | |
| OE5DRO-10 | 2026-09-03 11:01:34 | 47.34074 | 11.67723 | 121° | 47km/h | 17463m | -32.7m/s | -57.3°C | 4.6% | 88.1hPa | 2.7V | 00:00:00 | 00:00:00 | 00:00:00 | |
| DO3MHA-12 | 2026-09-03 11:01:32 | 47.34084 | 11.67695 | 119° | 53km/h | 17528m | -33.1m/s | -57.6°C | 4.7% | 87.2hPa | 2.7V | 02:35:00 | 01:33:43 | 00:00:00 | |
| OE5MMP-10 | 2026-09-03 11:01:30 | 47.34095 | 11.67663 | 116° | 53km/h | 17593m | -31.5m/s | -57.8°C | 4.9% | 86.3hPa | 2.5V | 02:35:00 | 01:33:41 | 00:00:00 | |
| BAUMI2-15 | 2026-09-03 11:01:23 | 47.34148 | 11.67543 | 135° | 46km/h | 17823m | -34.4m/s | -56.6°C | 4.5% | 83.1hPa | 2.6V | 00:00:00 | 01:33:34 | 00:00:00 | |
| DO3MHA-12 | 2026-09-03 11:01:22 | 47.34157 | 11.67530 | 138° | 42km/h | 17857m | -34.8m/s | -56.0°C | 4.2% | 82.8hPa | 2.6V | 00:00:00 | 01:33:33 | 00:00:00 | |
| DO8TBO-1 | 2026-09-03 11:01:21 | 47.34166 | 11.67518 | 136° | 49km/h | 17892m | -35.0m/s | -55.9°C | 4.1% | 82.3hPa | 2.6V | 00:00:00 | 01:33:32 | 00:00:00 | |
| DO3MHA-11 | 2026-09-03 11:01:20 | 47.34173 | 11.67507 | 136° | 42km/h | 17927m | -34.6m/s | -56.0°C | 4.2% | 81.8hPa | 2.6V | 02:36:00 | 01:33:31 | 00:00:00 | |
| DB0UT-7 | 2026-09-03 11:01:19 | 47.34181 | 11.67497 | 142° | 33km/h | 17961m | -33.0m/s | -56.0°C | 4.2% | 81.5hPa | 2.6V | 00:00:00 | 01:33:30 | 00:00:00 | |
| BAUMI2-15 | 2026-09-03 11:01:18 | 47.34189 | 11.67487 | 141° | 40km/h | 17994m | -31.8m/s | -55.9°C | 4.2% | 80.9hPa | 2.6V | 00:00:00 | 01:33:29 | 00:00:00 | |
| IN3HCDX | 2026-09-03 11:01:16 | 47.34196 | 11.67477 | 136° | 42km/h | 18027m | -34.1m/s | -55.8°C | 1.0% | 80.7hPa | 2.6V | 02:36:00 | 00:00:00 | 00:00:00 | |
| NBG1-10 | 2026-09-03 11:01:15 | 47.34211 | 11.67457 | 138° | 26km/h | 18094m | -32.4m/s | -55.5°C | 4.1% | 79.7hPa | 2.6V | 02:36:00 | 01:33:26 | 00:00:00 | |
| OE5WHR-10 | 2026-09-03 11:01:14 | 47.34219 | 11.67447 | 139° | 35km/h | 18126m | -32.9m/s | -55.2°C | 4.0% | 79.3hPa | 2.6V | 00:00:00 | 00:00:00 | 00:00:00 | |
| BAUMI2-15 | 2026-09-03 11:01:13 | 47.34227 | 11.67436 | 140° | 46km/h | 18160m | -32.9m/s | -55.0°C | 3.9% | 78.9hPa | 2.6V | 02:36:00 | 01:33:24 | 00:00:00 | |
| DO3MHA-12 | 2026-09-03 11:01:12 | 47.34236 | 11.67424 | 136° | 44km/h | 18193m | -32.1m/s | -55.1°C | 4.0% | 78.4hPa | 2.5V | 00:00:00 | 01:33:23 | 00:00:00 | |
| DO3MHA-11 | 2026-09-03 11:01:10 | 47.34253 | 11.67400 | 142° | 40km/h | 18258m | -32.6m/s | -55.2°C | 3.9% | 77.8hPa | 2.5V | 00:00:00 | 01:33:21 | 00:00:00 | |
| OE3JTB-15 | 2026-09-03 11:01:08 | 47.34271 | 11.67378 | 140° | 24km/h | 18322m | -31.1m/s | -55.4°C | 4.1% | 76.8hPa | 2.5V | 02:36:00 | 00:00:00 | 00:00:00 | |
| OE5DXL-15 | 2026-09-03 11:01:05 | 47.34298 | 11.67350 | 146° | 20km/h | 18408m | -28.7m/s | -55.5°C | 4.1% | 75.8hPa | 2.6V | 00:00:00 | 00:00:00 | 00:00:00 | |
| BAUMI2-15 | 2026-09-03 11:01:03 | 47.34313 | 11.67337 | 157° | 29km/h | 18469m | -30.1m/s | -55.3°C | 4.1% | 75.1hPa | 2.6V | 00:00:00 | 01:33:14 | 00:00:00 | |
| DO3MHA-12 | 2026-09-03 11:01:02 | 47.34321 | 11.67332 | 157° | 22km/h | 18499m | -30.1m/s | -55.1°C | 3.9% | 74.7hPa | 2.6V | 02:36:00 | 01:33:13 | 00:00:00 | |
| DF7PN | 2026-09-03 11:00:55 | 47.34362 | 11.67301 | 137° | 16km/h | 18760m | -31.4m/s | 0°C | -1.0% | -1.0hPa | 2.6V | 00:00:00 | 00:00:00 | 00:00:00 | |
| DL9SK-14 | 2026-09-03 11:00:48 | 47.34371 | 11.67274 | 94° | 15km/h | 18978m | -28.5m/s | -54.7°C | 0.9% | 69.3hPa | 2.6V | 00:00:00 | 00:00:00 | 00:00:00 | |
| OM5KV | 2026-09-03 11:00:46 | 47.34371 | 11.67274 | 95° | 15km/h | 18978m | -28.5m/s | 0°C | 0% | 0hPa | 2.6V | 00:00:00 | 00:00:00 | 00:00:00 | |
| OM5KV | 2026-09-03 11:00:45 | 47.34371 | 11.67268 | 92° | 16km/h | 19008m | -29.4m/s | 0°C | 0% | 0hPa | 2.6V | 00:00:00 | 00:00:00 | 00:00:00 | |
| BAUMI2-15 | 2026-09-03 11:00:43 | 47.34373 | 11.67252 | 109° | 20km/h | 19101m | -30.5m/s | -55.5°C | 4.0% | 67.9hPa | 2.6V | 02:36:00 | 01:32:54 | 00:00:00 | |
| DO3MHA-12 | 2026-09-03 11:00:42 | 47.34375 | 11.67245 | 121° | 22km/h | 19134m | -32.7m/s | -55.6°C | 4.1% | 67.8hPa | 2.7V | 00:00:00 | 01:32:53 | 00:00:00 | |
| DO3MHA-11 | 2026-09-03 11:00:40 | 47.34380 | 11.67232 | 136° | 22km/h | 19203m | -33.2m/s | -55.6°C | 4.0% | 66.9hPa | 2.7V | 00:00:00 | 01:32:51 | 00:00:00 | |
| OE3JTB-15 | 2026-09-03 11:00:39 | 47.34384 | 11.67228 | 142° | 26km/h | 19236m | -32.7m/s | -55.8°C | 4.2% | 66.6hPa | 2.7V | 00:00:00 | 00:00:00 | 00:00:00 | |
| BAUMI2-15 | 2026-09-03 11:00:38 | 47.34388 | 11.67223 | 136° | 22km/h | 19270m | -35.1m/s | -55.8°C | 4.2% | 66.2hPa | 2.7V | 00:00:00 | 01:32:49 | 00:00:00 | |
| OE5DRO-10 | 2026-09-03 11:00:37 | 47.34392 | 11.67218 | 139° | 24km/h | 19305m | -36.2m/s | -55.5°C | 4.1% | 65.9hPa | 2.7V | 00:00:00 | 00:00:00 | 00:00:00 | |
| DG1MFX-10 | 2026-09-03 11:00:36 | 47.34392 | 11.67218 | 139° | 20km/h | 19305m | -36.2m/s | -55.5°C | 1.0% | 66.0hPa | 2.7V | 02:36:00 | 00:00:00 | 00:00:00 | |
| OE5DXL-15 | 2026-09-03 11:00:35 | 47.34400 | 11.67208 | 141° | 26km/h | 19376m | -34.1m/s | -55.4°C | 4.0% | 65.2hPa | 2.7V | 02:36:00 | 00:00:00 | 00:00:00 | |
| IN3HCDX | 2026-09-03 11:00:34 | 47.34400 | 11.67208 | 142° | 22km/h | 19376m | -34.1m/s | -55.4°C | 0.9% | 65.2hPa | 2.6V | 02:36:00 | 00:00:00 | 00:00:00 | |
| BAUMI2-15 | 2026-09-03 11:00:33 | 47.34408 | 11.67198 | 140° | 20km/h | 19444m | -34.7m/s | -55.3°C | 4.1% | 64.5hPa | 2.6V | 00:00:00 | 01:32:44 | 00:00:00 | |
| DO3MHA-12 | 2026-09-03 11:00:32 | 47.34412 | 11.67192 | 140° | 22km/h | 19478m | -32.9m/s | -55.2°C | 4.0% | 64.2hPa | 2.6V | 02:36:00 | 01:32:43 | 00:00:00 | |
| DO3MHA-11 | 2026-09-03 11:00:30 | 47.34420 | 11.67182 | 128° | 24km/h | 19544m | -33.2m/s | -55.4°C | 4.1% | 63.4hPa | 2.5V | 00:00:00 | 01:32:41 | 00:00:00 | |
| BAUMI2-15 | 2026-09-03 11:00:28 | 47.34425 | 11.67169 | 119° | 22km/h | 19607m | -30.4m/s | -55.6°C | 4.3% | 62.8hPa | 2.5V | 02:36:00 | 01:32:39 | 00:00:00 | |
| BAUMI2-15 | 2026-09-03 11:00:23 | 47.34435 | 11.67130 | 106° | 29km/h | 19769m | -33.7m/s | -54.9°C | 4.1% | 61.3hPa | 2.7V | 00:00:00 | 01:32:34 | 00:00:00 | |
| DO3MHA-12 | 2026-09-03 11:00:22 | 47.34436 | 11.67120 | 103° | 33km/h | 19802m | -33.2m/s | -54.7°C | 4.0% | 61.0hPa | 2.7V | 00:00:00 | 01:32:33 | 00:00:00 | |
| DL2OL | 2026-09-03 11:00:21 | 47.34436 | 11.67120 | 104° | 29km/h | 19802m | -33.2m/s | -54.8°C | 0.9% | 61.0hPa | 2.7V | 00:00:00 | 00:00:00 | 00:00:00 | |
| OE5MMP-10 | 2026-09-03 11:00:20 | 47.34439 | 11.67099 | 99° | 35km/h | 19864m | -31.0m/s | -54.9°C | 4.1% | 60.3hPa | 2.7V | 00:00:00 | 01:32:31 | 00:00:00 | |
| BAUMI2-15 | 2026-09-03 11:00:18 | 47.34442 | 11.67076 | 107° | 37km/h | 19924m | -26.2m/s | -55.3°C | 4.2% | 59.6hPa | 2.7V | 00:00:00 | 01:32:29 | 00:00:00 | |
| DL9SK-14 | 2026-09-03 11:00:17 | 47.34448 | 11.67050 | 112° | 37km/h | 19981m | -32.1m/s | -55.4°C | 1.0% | 59.2hPa | 2.7V | 00:00:00 | 00:00:00 | 00:00:00 | |
| DG1MFX-10 | 2026-09-03 11:00:16 | 47.34448 | 11.67050 | 114° | 37km/h | 19981m | -32.1m/s | -55.4°C | 1.0% | 59.2hPa | 2.7V | 02:37:00 | 00:00:00 | 00:00:00 | |
| DB0ND-19 | 2026-09-03 11:00:15 | 47.34456 | 11.67026 | 122° | 35km/h | 20047m | -33.0m/s | -55.0°C | 1.0% | 58.7hPa | 2.7V | 00:00:00 | 00:00:00 | 00:00:00 | |
| BAUMI2-15 | 2026-09-03 11:00:13 | 47.34461 | 11.67015 | 123° | 29km/h | 20080m | -33.8m/s | -54.3°C | 4.0% | 58.4hPa | 2.7V | 02:37:00 | 01:32:24 | 00:00:00 | |
| DO3MHA-12 | 2026-09-03 11:00:12 | 47.34466 | 11.67005 | 132° | 18km/h | 20116m | -35.8m/s | -53.2°C | 3.6% | 58.1hPa | 2.6V | 00:00:00 | 01:32:23 | 00:00:00 | |
| OE5WHR-10 | 2026-09-03 11:00:11 | 47.34471 | 11.66997 | 133° | 11km/h | 20152m | -36.6m/s | -52.4°C | 3.2% | 57.7hPa | 2.6V | 00:00:00 | 00:00:00 | 00:00:00 | |
| OE5MMP-10 | 2026-09-03 11:00:10 | 47.34476 | 11.66989 | 131° | 13km/h | 20188m | -38.3m/s | -52.5°C | 3.2% | 57.5hPa | 2.6V | 00:00:00 | 01:32:21 | 00:00:00 | |
| NBG1-10 | 2026-09-03 11:00:09 | 47.34481 | 11.66982 | 138° | 11km/h | 20227m | -39.2m/s | -52.6°C | 3.2% | 57.1hPa | 2.6V | 00:00:00 | 01:32:20 | 00:00:00 | |
| BAUMI2-15 | 2026-09-03 11:00:08 | 47.34485 | 11.66977 | 143° | 13km/h | 20267m | -38.7m/s | -52.8°C | 3.3% | 56.8hPa | 2.6V | 00:00:00 | 01:32:19 | 00:00:00 | |
| DG1MJG | 2026-09-03 11:00:07 | 47.34485 | 11.66977 | 143° | 18km/h | 20267m | -38.7m/s | -52.8°C | 0.7% | 56.8hPa | 2.6V | 00:00:00 | 00:00:00 | 00:00:00 | |
| DK5PH-5 | 2026-09-03 11:00:05 | 47.34494 | 11.66969 | 148° | 11km/h | 20382m | -38.4m/s | -52.6°C | 3.3% | 55.8hPa | 2.6V | 00:00:00 | 01:32:16 | 00:00:00 | |
| DO3MHA-12 | 2026-09-03 11:00:02 | 47.34499 | 11.66966 | 163° | 5km/h | 20497m | -39.7m/s | -52.8°C | 3.3% | 54.8hPa | 2.6V | 02:37:00 | 01:32:13 | 00:00:00 | |
| DL9SK-14 | 2026-09-03 10:59:46 | 47.34506 | 11.66920 | 135° | 15km/h | 21085m | -27.1m/s | -54.5°C | 0.9% | 49.8hPa | 2.7V | 00:00:00 | 00:00:00 | 00:00:00 | |
| DB0ND-19 | 2026-09-03 10:59:44 | 47.34509 | 11.66916 | 147° | 13km/h | 21112m | -25.2m/s | -54.2°C | 0.8% | 49.5hPa | 2.7V | 00:00:00 | 00:00:00 | 00:00:00 | |
| BAUMI2-15 | 2026-09-03 10:59:43 | 47.34511 | 11.66913 | 136° | 15km/h | 21137m | -25.9m/s | -54.0°C | 3.8% | 49.3hPa | 2.7V | 02:37:00 | 01:31:54 | 00:00:00 | |
| DO3MHA-12 | 2026-09-03 10:59:42 | 47.34514 | 11.66910 | 156° | 13km/h | 21164m | -27.2m/s | -54.0°C | 3.8% | 49.1hPa | 2.6V | 00:00:00 | 01:31:53 | 00:00:00 | |
| OE3JTB-15 | 2026-09-03 10:59:41 | 47.34517 | 11.66908 | 158° | 7km/h | 21193m | -31.8m/s | -54.1°C | 3.8% | 48.9hPa | 2.6V | 02:37:00 | 00:00:00 | 00:00:00 | |
| OE5MMP-10 | 2026-09-03 10:59:40 | 47.34520 | 11.66906 | 151° | 11km/h | 21228m | -39.1m/s | -54.2°C | 3.8% | 48.9hPa | 2.7V | 00:00:00 | 01:31:51 | 00:00:00 | |
| DL6DJ-15 | 2026-09-03 10:59:39 | 47.34524 | 11.66904 | 164° | 15km/h | 21266m | -37.9m/s | -54.1°C | 0.8% | 48.5hPa | 2.7V | 00:00:00 | 00:00:00 | 00:00:00 | |
| BAUMI2-15 | 2026-09-03 10:59:38 | 47.34528 | 11.66903 | 170° | 13km/h | 21304m | -37.2m/s | -54.1°C | 3.8% | 48.2hPa | 2.7V | 00:00:00 | 01:31:49 | 00:00:00 | |
| NBG1-10 | 2026-09-03 10:59:36 | 47.34534 | 11.66900 | 158° | 7km/h | 21374m | -33.3m/s | -54.1°C | 3.8% | 47.5hPa | 2.7V | 02:37:00 | 01:31:47 | 00:00:00 | |
| OE5DXL-15 | 2026-09-03 10:59:35 | 47.34537 | 11.66899 | 174° | 7km/h | 21408m | -34.5m/s | -54.1°C | 3.9% | 47.4hPa | 2.6V | 00:00:00 | 01:31:46 | 00:00:00 | |
| DG1MFX-10 | 2026-09-03 10:59:34 | 47.34537 | 11.66899 | 174° | 13km/h | 21408m | -34.6m/s | -54.2°C | 0.9% | 47.4hPa | 2.6V | 02:38:00 | 00:00:00 | 00:00:00 | |
| BAUMI2-15 | 2026-09-03 10:59:33 | 47.34542 | 11.66897 | 171° | 4km/h | 21481m | -40.4m/s | -53.9°C | 3.8% | 46.9hPa | 2.6V | 00:00:00 | 01:31:44 | 00:00:00 | |
| DO3MHA-12 | 2026-09-03 10:59:32 | 47.34544 | 11.66896 | 128° | 4km/h | 21522m | -40.7m/s | -53.5°C | 3.7% | 46.7hPa | 2.6V | 02:37:00 | 01:31:43 | 00:00:00 | |
| IN3HCDX | 2026-09-03 10:59:31 | 47.34544 | 11.66896 | 129° | 7km/h | 21522m | -40.8m/s | -53.6°C | 0.8% | 46.8hPa | 2.7V | 02:38:00 | 00:00:00 | 00:00:00 | |
| OE5MMP-10 | 2026-09-03 10:59:30 | 47.34546 | 11.66896 | 252° | 4km/h | 21600m | -38.3m/s | -53.1°C | 3.4% | 46.0hPa | 2.7V | 02:37:00 | 01:31:41 | 00:00:00 | |
| OE5WHR-10 | 2026-09-03 10:59:29 | 47.34546 | 11.66896 | 90° | 5km/h | 21638m | -38.5m/s | -53.3°C | 3.6% | 45.8hPa | 2.6V | 02:37:00 | 00:00:00 | 00:00:00 | |
| BAUMI2-15 | 2026-09-03 10:59:28 | 47.34546 | 11.66896 | 339° | 5km/h | 21680m | -42.7m/s | -53.5°C | 3.6% | 45.5hPa | 2.6V | 02:37:00 | 01:31:39 | 00:00:00 | |
| OM5KV | 2026-09-03 10:59:24 | 47.34542 | 11.66894 | 37° | 5km/h | 21801m | -39.5m/s | -53.6°C | 0.8% | 44.7hPa | 2.6V | 02:38:00 | 00:00:00 | 00:00:00 | |
| DO3MHA-12 | 2026-09-03 10:59:22 | 47.34540 | 11.66893 | 92° | 7km/h | 21919m | -38.0m/s | -53.7°C | 3.7% | 43.7hPa | 2.6V | 00:00:00 | 01:31:33 | 00:00:00 | |
| OE5DRO-10 | 2026-09-03 10:59:21 | 47.34540 | 11.66891 | 119° | 7km/h | 21956m | -37.0m/s | -53.9°C | 3.7% | 43.4hPa | 2.6V | 02:38:00 | 00:00:00 | 00:00:00 | |
| DO3MHA-11 | 2026-09-03 10:59:20 | 47.34541 | 11.66890 | 109° | 7km/h | 21992m | -37.6m/s | -53.9°C | 3.8% | 43.2hPa | 2.6V | 02:38:00 | 01:31:31 | 00:00:00 | |
| OM5KV | 2026-09-03 10:59:19 | 47.34541 | 11.66890 | 110° | 5km/h | 21992m | -37.6m/s | -53.9°C | 0.8% | 43.3hPa | 2.6V | 02:38:00 | 00:00:00 | 00:00:00 | |
| OM5KV | 2026-09-03 10:59:14 | 47.34546 | 11.66881 | 112° | 7km/h | 22175m | -37.3m/s | -53.7°C | 0.8% | 42.0hPa | 2.6V | 02:38:00 | 00:00:00 | 00:00:00 | |
| OM5KV | 2026-09-03 10:59:13 | 47.34547 | 11.66879 | 130° | 5km/h | 22212m | -37.9m/s | -53.7°C | 0.8% | 41.8hPa | 2.6V | 02:38:00 | 00:00:00 | 00:00:00 | |
| DO3MHA-12 | 2026-09-03 10:59:12 | 47.34547 | 11.66875 | 95° | 9km/h | 22287m | -36.4m/s | -53.7°C | 3.7% | 41.3hPa | 2.6V | 00:00:00 | 01:31:23 | 00:00:00 | |
| IN3HCDX | 2026-09-03 10:59:11 | 47.34547 | 11.66875 | 96° | 5km/h | 22287m | -36.5m/s | -53.7°C | 0.8% | 41.3hPa | 2.6V | 02:38:00 | 00:00:00 | 00:00:00 | |
| DO3MHA-11 | 2026-09-03 10:59:10 | 47.34546 | 11.66870 | 76° | 9km/h | 22355m | -30.9m/s | -53.5°C | 3.6% | 40.7hPa | 2.6V | 00:00:00 | 01:31:21 | 00:00:00 | |
| PETON7-10 | 2026-09-03 10:59:08 | 47.34544 | 11.66864 | 77° | 7km/h | 22417m | -30.5m/s | -53.6°C | 3.7% | 40.3hPa | 2.6V | 00:00:00 | 01:31:19 | 00:00:00 | |
| OE5DXL-15 | 2026-09-03 10:59:05 | 47.34542 | 11.66854 | 85° | 7km/h | 22510m | -32.3m/s | -53.5°C | 3.7% | 39.7hPa | 2.6V | 02:38:00 | 00:00:00 | 00:00:00 | |
| NBG1-10 | 2026-09-03 10:59:03 | 47.34543 | 11.66848 | 110° | 9km/h | 22575m | -33.4m/s | -53.1°C | 3.5% | 39.3hPa | 2.7V | 00:00:00 | 01:31:14 | 00:00:00 | |
| DO3MHA-12 | 2026-09-03 10:59:02 | 47.34544 | 11.66845 | 137° | 5km/h | 22609m | -34.8m/s | -52.8°C | 3.4% | 39.2hPa | 2.7V | 02:38:00 | 01:31:13 | 00:00:00 | |
| IN3IJJ | 2026-09-03 10:59:01 | 47.34544 | 11.66845 | 137° | 7km/h | 22609m | -34.9m/s | 0°C | 0% | 39.2hPa | 2.6V | 00:00:00 | 00:00:00 | 00:00:00 | |
| DO3MHA-11 | 2026-09-03 10:59:00 | 47.34547 | 11.66842 | 146° | 5km/h | 22684m | -38.0m/s | -52.7°C | 3.3% | 38.7hPa | 2.6V | 00:00:00 | 01:31:11 | 00:00:00 | |
| PG1ADW-2 | 2026-09-03 10:58:59 | 47.34548 | 11.66840 | 109° | 7km/h | 22723m | -40.4m/s | -52.7°C | 3.3% | 38.6hPa | 2.6V | 00:00:00 | 01:31:10 | 00:00:00 | |
| S52SK | 2026-09-03 10:58:55 | 47.34548 | 11.66836 | 109° | 4km/h | 22834m | -32.5m/s | -53.4°C | 0.7% | 37.8hPa | 2.6V | 00:00:00 | 00:00:00 | 00:00:00 | |
| PETON7-10 | 2026-09-03 10:58:53 | 47.34547 | 11.66831 | 81° | 9km/h | 22930m | -30.0m/s | -53.6°C | 3.4% | 37.2hPa | 2.6V | 02:38:00 | 00:00:00 | 00:00:00 | |
| DO3MHA-12 | 2026-09-03 10:58:52 | 47.34547 | 11.66829 | 121° | 11km/h | 22958m | -26.3m/s | -53.7°C | 3.5% | 36.9hPa | 2.7V | 00:00:00 | 01:31:03 | 00:00:00 | |
| OM5KV | 2026-09-03 10:58:51 | 47.34547 | 11.66829 | 122° | 5km/h | 22958m | -26.3m/s | -53.8°C | 0.7% | 37.0hPa | 2.7V | 02:38:00 | 00:00:00 | 00:00:00 | |
| DO3MHA-11 | 2026-09-03 10:58:50 | 47.34551 | 11.66826 | 168° | 9km/h | 23003m | -17.8m/s | -53.8°C | 3.7% | 36.6hPa | 2.7V | 02:38:00 | 01:31:01 | 00:00:00 | |
| S52SK | 2026-09-03 10:58:49 | 47.34551 | 11.66826 | 168° | 11km/h | 23003m | -17.9m/s | -53.9°C | 0.8% | 36.7hPa | 2.7V | 00:00:00 | 00:00:00 | 00:00:00 | |
| OE5WHR-10 | 2026-09-03 10:58:47 | 47.34560 | 11.66823 | 172° | 7km/h | 23019m | 5.0m/s | -53.8°C | 3.7% | 36.4hPa | 2.7V | 00:00:00 | 01:30:58 | 00:00:00 | |
| DL2OL | 2026-09-03 10:58:45 | 47.34563 | 11.66823 | 167° | 13km/h | 23013m | 6.0m/s | -53.8°C | 0.7% | 36.5hPa | 2.7V | 02:38:00 | 00:00:00 | 00:00:00 | |
| DL9SK-14 | 2026-09-03 10:58:44 | 47.34570 | 11.66819 | 167° | 7km/h | 22998m | 5.8m/s | -53.8°C | 0.8% | 36.6hPa | 2.7V | 00:00:00 | 00:00:00 | 00:00:00 | |
| OE3JTB-15 | 2026-09-03 10:58:43 | 47.34570 | 11.66819 | 168° | 5km/h | 22999m | 5.7m/s | -53.7°C | 3.7% | 36.6hPa | 2.7V | 00:00:00 | 01:30:54 | 00:00:00 | |
| DO3MHA-12 | 2026-09-03 10:58:42 | 47.34572 | 11.66818 | 169° | 7km/h | 22993m | 5.0m/s | -53.7°C | 3.7% | 36.6hPa | 2.7V | 00:00:00 | 01:30:53 | 00:00:00 | |
| OE5MMP-10 | 2026-09-03 10:58:40 | 47.34573 | 11.66816 | 101° | 7km/h | 22982m | 5.7m/s | -53.7°C | 3.6% | 36.7hPa | 2.7V | 00:00:00 | 01:30:51 | 00:00:00 | |
| PG1ADW-2 | 2026-09-03 10:58:39 | 47.34574 | 11.66813 | 91° | 5km/h | 22977m | 4.6m/s | -53.7°C | 3.6% | 36.7hPa | 2.7V | 02:38:00 | 00:00:00 | 00:00:00 | |
| PETON7-10 | 2026-09-03 10:58:38 | 47.34574 | 11.66810 | 104° | 5km/h | 22971m | 6.4m/s | -53.7°C | 3.6% | 36.8hPa | 2.7V | 00:00:00 | 00:00:00 | 00:00:00 | |
| DL6DJ-15 | 2026-09-03 10:58:37 | 47.34575 | 11.66808 | 132° | 5km/h | 22965m | 5.0m/s | -53.7°C | 0.7% | 36.8hPa | 2.7V | 00:00:00 | 00:00:00 | 00:00:00 | |
| OE5DXL-15 | 2026-09-03 10:58:35 | 47.34577 | 11.66805 | 145° | 5km/h | 22954m | 6.1m/s | -53.6°C | 3.7% | 36.8hPa | 2.7V | 00:00:00 | 00:00:00 | 00:00:00 | |
| DO3MHA-12 | 2026-09-03 10:58:32 | 47.34584 | 11.66802 | 191° | 5km/h | 22940m | 6.1m/s | -53.6°C | 3.7% | 36.9hPa | 2.7V | 02:38:00 | 01:30:43 | 00:00:00 | |
| OM5KV | 2026-09-03 10:58:31 | 47.34584 | 11.66803 | 191° | 11km/h | 22940m | 6.2m/s | -53.7°C | 0.8% | 37.0hPa | 2.7V | 02:39:00 | 00:00:00 | 00:00:00 | |
| IN3HCDX | 2026-09-03 10:58:30 | 47.34586 | 11.66803 | 201° | 11km/h | 22934m | 5.2m/s | -53.6°C | 0.8% | 37.0hPa | 2.7V | 00:00:00 | 00:00:00 | 00:00:00 | |
| OE5WHR-10 | 2026-09-03 10:58:26 | 47.34592 | 11.66804 | 24° | 5km/h | 22907m | 4.7m/s | -53.5°C | 3.5% | 37.1hPa | 2.7V | 02:38:00 | 00:00:00 | 00:00:00 | |
| OM5KV | 2026-09-03 10:58:25 | 47.34592 | 11.66804 | 0° | 0km/h | 22907m | 4.7m/s | -53.6°C | 0.7% | 37.2hPa | 2.6V | 02:39:00 | 00:00:00 | 00:00:00 | |
| OE5DRO-10 | 2026-09-03 10:58:24 | 47.34591 | 11.66802 | 62° | 5km/h | 22897m | 5.5m/s | -53.5°C | 3.6% | 37.2hPa | 2.6V | 02:38:00 | 00:00:00 | 00:00:00 | |
| PETON7-10 | 2026-09-03 10:58:22 | 47.34591 | 11.66799 | 121° | 5km/h | 22887m | 6.4m/s | -53.4°C | 3.6% | 37.2hPa | 2.7V | 00:00:00 | 01:30:33 | 00:00:00 | |
| DO3MHA-11 | 2026-09-03 10:58:20 | 47.34593 | 11.66799 | 204° | 5km/h | 22876m | 4.1m/s | -53.4°C | 3.7% | 37.3hPa | 2.7V | 02:39:00 | 01:30:31 | 00:00:00 | |
| PG1ADW-2 | 2026-09-03 10:58:19 | 47.34595 | 11.66800 | 201° | 5km/h | 22872m | 5.6m/s | -53.4°C | 3.7% | 37.3hPa | 2.7V | 00:00:00 | 00:00:00 | 00:00:00 | |
| IN3IJJ | 2026-09-03 10:58:15 | 47.34597 | 11.66801 | 269° | 2km/h | 22855m | 5.0m/s | 0°C | 0% | 37.5hPa | 2.7V | 00:00:00 | 00:00:00 | 00:00:00 | |
| OM5KV | 2026-09-03 10:58:14 | 47.34597 | 11.66803 | 287° | 5km/h | 22850m | 6.0m/s | -53.4°C | 0.8% | 37.5hPa | 2.7V | 02:39:00 | 00:00:00 | 00:00:00 | |
| DO3MHA-12 | 2026-09-03 10:58:12 | 47.34593 | 11.66809 | 334° | 7km/h | 22834m | 5.8m/s | -53.5°C | 3.7% | 37.5hPa | 2.7V | 00:00:00 | 01:30:23 | 00:00:00 | |
| DG1MFX-10 | 2026-09-03 10:58:11 | 47.34593 | 11.66809 | 335° | 7km/h | 22834m | 5.8m/s | -53.5°C | 0.8% | 37.6hPa | 2.7V | 02:39:00 | 00:00:00 | 00:00:00 | |
| DO3MHA-11 | 2026-09-03 10:58:10 | 47.34592 | 11.66810 | 279° | 7km/h | 22824m | 6.0m/s | -53.5°C | 3.7% | 37.6hPa | 2.7V | 00:00:00 | 01:30:21 | 00:00:00 | |
| OM5KV | 2026-09-03 10:58:09 | 47.34592 | 11.66810 | 0° | 0km/h | 22824m | 6.1m/s | -53.5°C | 0.8% | 37.7hPa | 2.7V | 02:39:00 | 00:00:00 | 00:00:00 | |
| PETON7-10 | 2026-09-03 10:58:07 | 47.34597 | 11.66810 | 178° | 7km/h | 22808m | 5.8m/s | -53.4°C | 3.7% | 37.7hPa | 2.7V | 02:39:00 | 00:00:00 | 00:00:00 | |
| DL6DJ-15 | 2026-09-03 10:58:06 | 47.34600 | 11.66810 | 169° | 9km/h | 22801m | 5.6m/s | -53.4°C | 0.8% | 37.8hPa | 2.7V | 00:00:00 | 00:00:00 | 00:00:00 | |
| OE5WHR-10 | 2026-09-03 10:58:05 | 47.34602 | 11.66809 | 164° | 5km/h | 22796m | 5.1m/s | -53.3°C | 3.6% | 37.8hPa | 2.7V | 00:00:00 | 00:00:00 | 00:00:00 | |
| OM5KV | 2026-09-03 10:58:04 | 47.34602 | 11.66809 | 165° | 7km/h | 22796m | 5.1m/s | -53.3°C | 0.8% | 37.8hPa | 2.7V | 02:39:00 | 00:00:00 | 00:00:00 | |
| OM5KV | 2026-09-03 10:58:03 | 47.34604 | 11.66809 | 175° | 5km/h | 22791m | 5.7m/s | -53.3°C | 0.7% | 37.8hPa | 2.7V | 02:39:00 | 00:00:00 | 00:00:00 | |
| DO3MHA-12 | 2026-09-03 10:58:02 | 47.34606 | 11.66810 | 231° | 5km/h | 22779m | 4.5m/s | -53.2°C | 3.6% | 37.9hPa | 2.7V | 02:39:00 | 01:30:13 | 00:00:00 | |
| DO3MHA-11 | 2026-09-03 10:58:00 | 47.34607 | 11.66812 | 78° | 7km/h | 22769m | 6.2m/s | -53.1°C | 3.6% | 37.9hPa | 2.6V | 00:00:00 | 01:30:11 | 00:00:00 | |
| PG1ADW-2 | 2026-09-03 10:57:59 | 47.34607 | 11.66811 | 85° | 7km/h | 22763m | 4.7m/s | -53.0°C | 3.6% | 38.0hPa | 2.6V | 00:00:00 | 00:00:00 | 00:00:00 | |
| NBG1-10 | 2026-09-03 10:57:57 | 47.34608 | 11.66807 | 116° | 11km/h | 22752m | 6.6m/s | -53.0°C | 3.6% | 38.0hPa | 2.6V | 02:39:00 | 01:30:08 | 00:00:00 | |
| S52SK | 2026-09-03 10:57:56 | 47.34608 | 11.66807 | 117° | 7km/h | 22752m | 6.7m/s | -53.1°C | 0.8% | 38.1hPa | 2.6V | 02:39:00 | 00:00:00 | 00:00:00 | |
| DO3MHA-12 | 2026-09-03 10:57:52 | 47.34612 | 11.66794 | 86° | 4km/h | 22726m | 5.1m/s | -52.9°C | 3.5% | 38.2hPa | 2.6V | 00:00:00 | 01:30:03 | 00:00:00 | |
| S52SK | 2026-09-03 10:57:51 | 47.34612 | 11.66794 | 86° | 7km/h | 22726m | 5.2m/s | -52.9°C | 0.8% | 38.2hPa | 2.6V | 02:40:00 | 00:00:00 | 00:00:00 | |
| OE5MMP-10 | 2026-09-03 10:57:50 | 47.34612 | 11.66791 | 140° | 7km/h | 22714m | 5.1m/s | -53.0°C | 3.5% | 38.2hPa | 2.6V | 00:00:00 | 01:30:01 | 00:00:00 | |
| IN3HCDX | 2026-09-03 10:57:49 | 47.34612 | 11.66791 | 0° | 0km/h | 22714m | 5.1m/s | -53.0°C | 0.7% | 38.3hPa | 2.6V | 02:40:00 | 00:00:00 | 00:00:00 | |
| OE5DRO-10 | 2026-09-03 10:57:46 | 47.34612 | 11.66789 | 85° | 11km/h | 22693m | 4.9m/s | -53.0°C | 3.5% | 38.4hPa | 2.6V | 00:00:00 | 00:00:00 | 00:00:00 | |
| OE3JTB-15 | 2026-09-03 10:57:45 | 47.34612 | 11.66787 | 123° | 13km/h | 22688m | 6.1m/s | -53.0°C | 3.5% | 38.4hPa | 2.6V | 00:00:00 | 00:00:00 | 00:00:00 | |
| OE5WHR-10 | 2026-09-03 10:57:44 | 47.34613 | 11.66786 | 142° | 13km/h | 22682m | 5.6m/s | -53.0°C | 3.5% | 38.4hPa | 2.6V | 00:00:00 | 01:29:55 | 00:00:00 | |
| DO3MHA-12 | 2026-09-03 10:57:42 | 47.34616 | 11.66780 | 121° | 13km/h | 22671m | 6.4m/s | -53.1°C | 3.6% | 38.5hPa | 2.6V | 00:00:00 | 01:29:53 | 00:00:00 | |
| DL9SK-14 | 2026-09-03 10:57:41 | 47.34618 | 11.66774 | 115° | 16km/h | 22665m | 5.0m/s | -53.1°C | 0.8% | 38.6hPa | 2.6V | 00:00:00 | 00:00:00 | 00:00:00 | |
| DO3MHA-11 | 2026-09-03 10:57:40 | 47.34620 | 11.66769 | 118° | 11km/h | 22660m | 5.8m/s | -53.1°C | 3.6% | 38.6hPa | 2.6V | 00:00:00 | 01:29:51 | 00:00:00 | |
| PG1ADW-2 | 2026-09-03 10:57:39 | 47.34622 | 11.66763 | 118° | 13km/h | 22654m | 5.8m/s | -53.0°C | 3.6% | 38.6hPa | 2.6V | 02:39:00 | 01:29:50 | 00:00:00 | |
| PETON7-10 | 2026-09-03 10:57:37 | 47.34625 | 11.66752 | 99° | 13km/h | 22643m | 6.2m/s | 0°C | 0% | 0hPa | 2.6V | 00:00:00 | 01:29:48 | 00:00:00 | |
| OE5DXL-15 | 2026-09-03 10:57:35 | 47.34625 | 11.66742 | 79° | 13km/h | 22632m | 6.0m/s | -53.0°C | 3.5% | 38.8hPa | 2.6V | 02:39:00 | 00:00:00 | 00:00:00 | |
| IN3IJJ | 2026-09-03 10:57:34 | 47.34625 | 11.66742 | 79° | 11km/h | 22632m | 6.1m/s | 0°C | 0% | 38.8hPa | 2.7V | 00:00:00 | 00:00:00 | 00:00:00 | |
| OM5KV | 2026-09-03 10:57:33 | 47.34624 | 11.66739 | 76° | 5km/h | 22627m | 5.7m/s | -52.9°C | 0.7% | 38.8hPa | 2.7V | 02:40:00 | 00:00:00 | 00:00:00 | |
| DO3MHA-12 | 2026-09-03 10:57:32 | 47.34623 | 11.66736 | 63° | 13km/h | 22615m | 6.4m/s | -52.9°C | 3.4% | 38.8hPa | 2.7V | 02:39:00 | 01:29:43 | 00:00:00 | |
| OE5MMP-10 | 2026-09-03 10:57:30 | 47.34622 | 11.66730 | 75° | 15km/h | 22604m | 5.4m/s | -52.9°C | 3.4% | 38.9hPa | 2.6V | 02:39:00 | 01:29:41 | 00:00:00 | |
| IN3HCDX | 2026-09-03 10:57:28 | 47.34621 | 11.66726 | 89° | 11km/h | 22598m | 6.6m/s | -53.0°C | 0.7% | 39.0hPa | 2.7V | 02:40:00 | 00:00:00 | 00:00:00 | |
| OE5DRO-10 | 2026-09-03 10:57:27 | 47.34622 | 11.66718 | 97° | 13km/h | 22588m | 4.0m/s | -53.1°C | 3.5% | 39.0hPa | 2.7V | 02:39:00 | 00:00:00 | 00:00:00 | |
| NBG1-10 | 2026-09-03 10:57:24 | 47.34619 | 11.66699 | 66° | 9km/h | 22571m | 5.9m/s | -53.2°C | 3.6% | 39.1hPa | 2.7V | 00:00:00 | 01:29:35 | 00:00:00 | |
| BAUMI2-15 | 2026-09-03 10:57:23 | 47.34617 | 11.66694 | 54° | 16km/h | 22565m | 5.5m/s | -53.2°C | 3.6% | 39.1hPa | 2.7V | 00:00:00 | 01:29:34 | 00:00:00 | |
| DO3MHA-12 | 2026-09-03 10:57:22 | 47.34614 | 11.66690 | 39° | 13km/h | 22559m | 4.9m/s | -53.3°C | 3.6% | 39.2hPa | 2.7V | 00:00:00 | 01:29:33 | 00:00:00 | |
| OM5KV | 2026-09-03 10:57:21 | 47.34614 | 11.66690 | 40° | 16km/h | 22559m | 5.0m/s | -53.4°C | 0.8% | 39.3hPa | 2.7V | 02:40:00 | 00:00:00 | 00:00:00 | |
| OE5MMP-10 | 2026-09-03 10:57:20 | 47.34607 | 11.66682 | 30° | 11km/h | 22548m | 4.5m/s | -53.3°C | 3.6% | 39.3hPa | 2.7V | 00:00:00 | 01:29:31 | 00:00:00 | |
| PG1ADW-2 | 2026-09-03 10:57:19 | 47.34603 | 11.66679 | 26° | 9km/h | 22543m | 4.9m/s | -53.4°C | 3.6% | 39.3hPa | 2.7V | 00:00:00 | 00:00:00 | 00:00:00 | |
| BAUMI2-15 | 2026-09-03 10:57:18 | 47.34600 | 11.66677 | 23° | 9km/h | 22538m | 6.6m/s | -53.4°C | 3.6% | 39.3hPa | 2.7V | 00:00:00 | 01:29:29 | 00:00:00 | |
| OE3JTB-15 | 2026-09-03 10:57:16 | 47.34597 | 11.66675 | 41° | 9km/h | 22528m | 4.3m/s | -53.5°C | 3.6% | 39.4hPa | 2.7V | 00:00:00 | 01:29:27 | 00:00:00 | |
| OM5KV | 2026-09-03 10:57:15 | 47.34597 | 11.66675 | 42° | 5km/h | 22528m | 4.3m/s | -53.5°C | 0.8% | 39.4hPa | 2.7V | 02:40:00 | 00:00:00 | 00:00:00 | |
| BAUMI2-15 | 2026-09-03 10:57:13 | 47.34593 | 11.66666 | 63° | 13km/h | 22511m | 5.1m/s | -53.5°C | 3.6% | 39.5hPa | 2.7V | 02:40:00 | 01:29:24 | 00:00:00 | |
| DO3MHA-12 | 2026-09-03 10:57:12 | 47.34591 | 11.66662 | 64° | 11km/h | 22506m | 5.8m/s | -53.5°C | 3.6% | 39.5hPa | 2.6V | 00:00:00 | 01:29:23 | 00:00:00 | |
| DB0UT-7 | 2026-09-03 10:57:11 | 47.34590 | 11.66657 | 68° | 7km/h | 22500m | 5.2m/s | -53.5°C | 3.6% | 39.6hPa | 2.6V | 02:40:00 | 01:29:22 | 00:00:00 | |
| DO3MHA-11 | 2026-09-03 10:57:10 | 47.34589 | 11.66653 | 66° | 9km/h | 22495m | 4.9m/s | -53.4°C | 3.6% | 39.6hPa | 2.7V | 00:00:00 | 01:29:21 | 00:00:00 | |
| DB0ND-19 | 2026-09-03 10:57:09 | 47.34586 | 11.66645 | 55° | 13km/h | 22484m | 4.7m/s | -53.5°C | 0.8% | 39.7hPa | 2.7V | 00:00:00 | 00:00:00 | 00:00:00 | |
| BAUMI2-15 | 2026-09-03 10:57:08 | 47.34586 | 11.66645 | 56° | 9km/h | 22484m | 4.6m/s | -53.4°C | 3.6% | 39.6hPa | 2.7V | 00:00:00 | 01:29:19 | 00:00:00 | |
| PETON7-10 | 2026-09-03 10:57:07 | 47.34584 | 11.66641 | 55° | 7km/h | 22479m | 4.8m/s | 0°C | 0% | 0hPa | 2.7V | 00:00:00 | 00:00:00 | 00:00:00 | |
| OE5DXL-15 | 2026-09-03 10:57:05 | 47.34581 | 11.66635 | 73° | 5km/h | 22468m | 5.5m/s | -53.4°C | 3.7% | 39.8hPa | 2.7V | 00:00:00 | 00:00:00 | 00:00:00 | |
| DL6DJ-15 | 2026-09-03 10:57:04 | 47.34581 | 11.66633 | 85° | 5km/h | 22463m | 4.4m/s | -53.5°C | 0.8% | 39.8hPa | 2.7V | 00:00:00 | 00:00:00 | 00:00:00 | |
| BAUMI2-15 | 2026-09-03 10:57:03 | 47.34581 | 11.66630 | 86° | 7km/h | 22457m | 6.7m/s | -53.5°C | 3.7% | 39.8hPa | 2.7V | 00:00:00 | 01:29:14 | 00:00:00 | |
| DO3MHA-12 | 2026-09-03 10:57:02 | 47.34580 | 11.66627 | 78° | 7km/h | 22452m | 4.6m/s | -53.6°C | 3.7% | 39.8hPa | 2.7V | 02:40:00 | 01:29:13 | 00:00:00 | |
| DB0NH | 2026-09-03 10:57:00 | 47.34579 | 11.66622 | 62° | 5km/h | 22441m | 6.4m/s | -53.7°C | 3.7% | 39.9hPa | 2.6V | 00:00:00 | 01:29:11 | 00:00:00 | |
| PG1ADW-2 | 2026-09-03 10:56:59 | 47.34578 | 11.66621 | 32° | 5km/h | 22435m | 4.8m/s | -53.7°C | 3.7% | 40.0hPa | 2.6V | 00:00:00 | 00:00:00 | 00:00:00 | |
| BAUMI2-15 | 2026-09-03 10:56:58 | 47.34577 | 11.66620 | 21° | 9km/h | 22431m | 4.5m/s | -53.7°C | 3.7% | 40.0hPa | 2.6V | 02:40:00 | 01:29:09 | 00:00:00 | |
| DL2OL | 2026-09-03 10:56:54 | 47.34572 | 11.66614 | 54° | 9km/h | 22415m | 4.8m/s | -53.7°C | 0.8% | 40.1hPa | 2.6V | 00:00:00 | 00:00:00 | 00:00:00 | |
| BAUMI2-15 | 2026-09-03 10:56:53 | 47.34571 | 11.66609 | 118° | 5km/h | 22403m | 5.0m/s | -53.7°C | 3.7% | 40.2hPa | 2.6V | 00:00:00 | 01:29:04 | 00:00:00 | |
| DO3MHA-12 | 2026-09-03 10:56:52 | 47.34571 | 11.66608 | 157° | 5km/h | 22398m | 4.9m/s | -53.7°C | 3.6% | 40.2hPa | 2.6V | 00:00:00 | 01:29:03 | 00:00:00 | |
| OE5MMP-10 | 2026-09-03 10:56:50 | 47.34573 | 11.66606 | 123° | 5km/h | 22387m | 5.2m/s | -53.6°C | 3.7% | 40.3hPa | 2.6V | 00:00:00 | 01:29:01 | 00:00:00 | |
| BAUMI2-15 | 2026-09-03 10:56:48 | 47.34574 | 11.66603 | 111° | 5km/h | 22377m | 5.3m/s | -53.6°C | 3.6% | 40.3hPa | 2.6V | 00:00:00 | 01:28:59 | 00:00:00 | |
| OE3JTB-15 | 2026-09-03 10:56:47 | 47.34575 | 11.66601 | 135° | 5km/h | 22371m | 5.7m/s | -53.5°C | 3.6% | 40.3hPa | 2.6V | 02:40:00 | 00:00:00 | 00:00:00 | |
| IN3HCDX | 2026-09-03 10:56:46 | 47.34575 | 11.66601 | 136° | 4km/h | 22371m | 5.8m/s | -53.6°C | 0.8% | 40.4hPa | 2.7V | 02:41:00 | 00:00:00 | 00:00:00 | |
| BAUMI2-15 | 2026-09-03 10:56:43 | 47.34576 | 11.66594 | 89° | 5km/h | 22349m | 5.9m/s | -53.6°C | 3.6% | 40.5hPa | 2.7V | 02:40:00 | 01:28:54 | 00:00:00 | |
| OE5WHR-10 | 2026-09-03 10:56:42 | 47.34576 | 11.66591 | 82° | 7km/h | 22338m | 4.3m/s | -53.6°C | 3.6% | 40.6hPa | 2.6V | 00:00:00 | 01:28:52 | 00:00:00 | |
| DO3MHA-11 | 2026-09-03 10:56:40 | 47.34575 | 11.66589 | 71° | 5km/h | 22333m | 6.0m/s | -53.6°C | 3.6% | 40.6hPa | 2.6V | 00:00:00 | 01:28:51 | 00:00:00 | |
| PG1ADW-2 | 2026-09-03 10:56:39 | 47.34575 | 11.66586 | 71° | 7km/h | 22327m | 5.7m/s | -53.7°C | 3.7% | 40.6hPa | 2.6V | 02:40:00 | 00:00:00 | 00:00:00 | |
| DB0ND-19 | 2026-09-03 10:56:38 | 47.34573 | 11.66581 | 67° | 5km/h | 22316m | 6.0m/s | -53.9°C | 0.8% | 40.8hPa | 2.7V | 00:00:00 | 00:00:00 | 00:00:00 | |
| PETON7-10 | 2026-09-03 10:56:36 | 47.34573 | 11.66579 | 76° | 4km/h | 22311m | 5.0m/s | 0°C | 0% | 0hPa | 2.7V | 00:00:00 | 00:00:00 | 00:00:00 | |
| OE5DXL-15 | 2026-09-03 10:56:35 | 47.34573 | 11.66579 | 89° | 7km/h | 22306m | 4.8m/s | -53.9°C | 3.8% | 40.8hPa | 2.7V | 00:00:00 | 00:00:00 | 00:00:00 | |
| DL6DJ-15 | 2026-09-03 10:56:33 | 47.34574 | 11.66574 | 142° | 5km/h | 22289m | 5.4m/s | -54.0°C | 0.8% | 41.0hPa | 2.7V | 00:00:00 | 00:00:00 | 00:00:00 | |
| DO3MHA-12 | 2026-09-03 10:56:32 | 47.34574 | 11.66574 | 143° | 7km/h | 22289m | 5.3m/s | -53.9°C | 3.8% | 40.9hPa | 2.7V | 02:40:00 | 01:28:43 | 00:00:00 | |
| DO3MHA-11 | 2026-09-03 10:56:30 | 47.34578 | 11.66573 | 178° | 7km/h | 22278m | 4.2m/s | -53.9°C | 3.8% | 40.9hPa | 2.6V | 00:00:00 | 01:28:41 | 00:00:00 | |
| DB0NH | 2026-09-03 10:56:29 | 47.34580 | 11.66572 | 169° | 7km/h | 22273m | 5.2m/s | -53.9°C | 3.8% | 41.0hPa | 2.6V | 00:00:00 | 01:28:40 | 00:00:00 | |
| BAUMI2-15 | 2026-09-03 10:56:28 | 47.34583 | 11.66571 | 154° | 7km/h | 22268m | 6.0m/s | -53.9°C | 3.8% | 41.0hPa | 2.6V | 02:40:00 | 01:28:39 | 00:00:00 | |
| IN3HCDX | 2026-09-03 10:56:25 | 47.34587 | 11.66568 | 161° | 7km/h | 22256m | 6.7m/s | -53.9°C | 0.8% | 41.2hPa | 2.7V | 02:41:00 | 00:00:00 | 00:00:00 | |
| BAUMI2-15 | 2026-09-03 10:56:23 | 47.34590 | 11.66566 | 135° | 7km/h | 22239m | 6.8m/s | -53.8°C | 3.7% | 41.2hPa | 2.7V | 00:00:00 | 01:28:34 | 00:00:00 | |
| DO3MHA-12 | 2026-09-03 10:56:22 | 47.34592 | 11.66564 | 121° | 7km/h | 22233m | 4.9m/s | -53.8°C | 3.7% | 41.2hPa | 2.7V | 00:00:00 | 01:28:33 | 00:00:00 | |
| OM5KV | 2026-09-03 10:56:21 | 47.34592 | 11.66564 | 121° | 7km/h | 22233m | 5.0m/s | -53.8°C | 0.8% | 41.3hPa | 2.7V | 02:41:00 | 00:00:00 | 00:00:00 | |
| DO3MHA-11 | 2026-09-03 10:56:20 | 47.34594 | 11.66559 | 128° | 7km/h | 22223m | 5.9m/s | -53.8°C | 3.7% | 41.3hPa | 2.7V | 02:41:00 | 01:28:31 | 00:00:00 | |
| PG1ADW-2 | 2026-09-03 10:56:19 | 47.34595 | 11.66558 | 136° | 9km/h | 22217m | 5.1m/s | -53.8°C | 3.6% | 41.3hPa | 2.6V | 00:00:00 | 01:28:30 | 00:00:00 | |
| OE3JTB-15 | 2026-09-03 10:56:18 | 47.34595 | 11.66556 | 135° | 9km/h | 22213m | 4.6m/s | -53.8°C | 3.7% | 41.4hPa | 2.6V | 00:00:00 | 00:00:00 | 00:00:00 | |
| NBG1-10 | 2026-09-03 10:56:16 | 47.34597 | 11.66553 | 127° | 9km/h | 22201m | 5.3m/s | -53.9°C | 3.8% | 41.5hPa | 2.6V | 02:41:00 | 01:28:27 | 00:00:00 | |
| OM5KV | 2026-09-03 10:56:15 | 47.34597 | 11.66553 | 128° | 9km/h | 22201m | 5.4m/s | -53.9°C | 0.8% | 41.5hPa | 2.7V | 02:41:00 | 00:00:00 | 00:00:00 | |
| BAUMI2-15 | 2026-09-03 10:56:13 | 47.34602 | 11.66547 | 152° | 9km/h | 22185m | 5.2m/s | -53.8°C | 3.8% | 41.6hPa | 2.7V | 02:41:00 | 01:28:24 | 00:00:00 | |
| DO3MHA-12 | 2026-09-03 10:56:12 | 47.34604 | 11.66545 | 143° | 9km/h | 22179m | 5.2m/s | -53.7°C | 3.8% | 41.6hPa | 2.6V | 00:00:00 | 01:28:23 | 00:00:00 | |
| DB0UT-7 | 2026-09-03 10:56:11 | 47.34605 | 11.66543 | 124° | 7km/h | 22173m | 6.7m/s | -53.7°C | 3.7% | 41.7hPa | 2.6V | 00:00:00 | 01:28:22 | 00:00:00 | |
| OE5MMP-10 | 2026-09-03 10:56:10 | 47.34606 | 11.66539 | 111° | 9km/h | 22167m | 4.7m/s | -53.7°C | 3.7% | 41.7hPa | 2.6V | 00:00:00 | 01:28:21 | 00:00:00 | |
| DL9SK-14 | 2026-09-03 10:56:09 | 47.34608 | 11.66533 | 115° | 5km/h | 22157m | 6.3m/s | -53.7°C | 0.8% | 41.8hPa | 2.6V | 00:00:00 | 00:00:00 | 00:00:00 | |
| DG1MJG | 2026-09-03 10:56:08 | 47.34608 | 11.66533 | 116° | 7km/h | 22157m | 6.3m/s | -53.7°C | 0.8% | 41.8hPa | 2.6V | 02:41:00 | 00:00:00 | 00:00:00 | |
| DG1MFX-10 | 2026-09-03 10:56:07 | 47.34608 | 11.66533 | 116° | 7km/h | 22157m | 6.3m/s | -53.7°C | 0.9% | 41.8hPa | 2.6V | 02:41:00 | 00:00:00 | 00:00:00 | |
| DK5PH-5 | 2026-09-03 10:56:05 | 47.34611 | 11.66527 | 131° | 7km/h | 22140m | 5.6m/s | -53.5°C | 3.7% | 41.8hPa | 2.6V | 00:00:00 | 01:28:16 | 00:00:00 | |
| BAUMI2-15 | 2026-09-03 10:56:03 | 47.34615 | 11.66521 | 135° | 9km/h | 22129m | 5.6m/s | -53.5°C | 3.6% | 41.9hPa | 2.6V | 00:00:00 | 01:28:14 | 00:00:00 | |
| DL6DJ-15 | 2026-09-03 10:56:02 | 47.34619 | 11.66517 | 164° | 7km/h | 22118m | 4.9m/s | -53.6°C | 0.8% | 42.0hPa | 2.6V | 00:00:00 | 00:00:00 | 00:00:00 | |
| S52SK | 2026-09-03 10:56:01 | 47.34619 | 11.66517 | 166° | 9km/h | 22118m | 4.9m/s | -53.6°C | 0.8% | 42.0hPa | 2.6V | 00:00:00 | 00:00:00 | 00:00:00 | |
| DO3MHA-11 | 2026-09-03 10:56:00 | 47.34621 | 11.66516 | 161° | 9km/h | 22112m | 6.2m/s | -53.5°C | 3.6% | 42.0hPa | 2.6V | 00:00:00 | 01:28:11 | 00:00:00 | |
| DB0NH | 2026-09-03 10:55:59 | 47.34623 | 11.66515 | 158° | 5km/h | 22107m | 5.2m/s | -53.5°C | 3.6% | 42.1hPa | 2.6V | 02:41:00 | 01:28:10 | 00:00:00 | |
| BAUMI2-15 | 2026-09-03 10:55:58 | 47.34626 | 11.66513 | 158° | 9km/h | 22101m | 4.7m/s | -53.5°C | 3.6% | 42.1hPa | 2.6V | 02:41:00 | 01:28:09 | 00:00:00 | |
| DL2OL | 2026-09-03 10:55:56 | 47.34629 | 11.66512 | 164° | 9km/h | 22096m | 6.2m/s | -53.5°C | 0.8% | 42.2hPa | 2.7V | 02:41:00 | 00:00:00 | 00:00:00 | |
| S52SK | 2026-09-03 10:55:54 | 47.34632 | 11.66510 | 154° | 5km/h | 22085m | 5.0m/s | -53.4°C | 0.8% | 42.3hPa | 2.7V | 00:00:00 | 00:00:00 | 00:00:00 | |
| BAUMI2-15 | 2026-09-03 10:55:53 | 47.34635 | 11.66506 | 126° | 7km/h | 22074m | 5.0m/s | -53.4°C | 3.6% | 42.3hPa | 2.7V | 00:00:00 | 01:28:04 | 00:00:00 | |
| DO3MHA-12 | 2026-09-03 10:55:52 | 47.34636 | 11.66504 | 129° | 5km/h | 22069m | 4.3m/s | -53.4°C | 3.6% | 42.3hPa | 2.7V | 00:00:00 | 01:28:03 | 00:00:00 | |
| OE5MMP-10 | 2026-09-03 10:55:50 | 47.34639 | 11.66501 | 185° | 5km/h | 22057m | 5.8m/s | -53.5°C | 3.7% | 42.4hPa | 2.7V | 00:00:00 | 01:28:01 | 00:00:00 | |
| OE3JTB-15 | 2026-09-03 10:55:49 | 47.34640 | 11.66501 | 221° | 5km/h | 22052m | 4.0m/s | -53.5°C | 3.6% | 42.4hPa | 2.7V | 00:00:00 | 01:28:00 | 00:00:00 | |
| BAUMI2-15 | 2026-09-03 10:55:48 | 47.34641 | 11.66503 | 212° | 7km/h | 22048m | 5.2m/s | -53.5°C | 3.7% | 42.5hPa | 2.7V | 00:00:00 | 01:27:59 | 00:00:00 | |
| DG1MFX-10 | 2026-09-03 10:55:47 | 47.34641 | 11.66503 | 213° | 5km/h | 22048m | 5.3m/s | -53.5°C | 0.8% | 42.5hPa | 2.7V | 02:41:00 | 00:00:00 | 00:00:00 | |
| OM5KV | 2026-09-03 10:55:45 | 47.34644 | 11.66503 | 154° | 7km/h | 22036m | 5.1m/s | -53.6°C | 0.8% | 42.6hPa | 2.7V | 02:41:00 | 00:00:00 | 00:00:00 | |
| OM5KV | 2026-09-03 10:55:44 | 47.34645 | 11.66501 | 139° | 9km/h | 22031m | 5.6m/s | -53.5°C | 0.8% | 42.6hPa | 2.7V | 02:41:00 | 00:00:00 | 00:00:00 | |
| BAUMI2-15 | 2026-09-03 10:55:43 | 47.34647 | 11.66497 | 98° | 5km/h | 22019m | 5.5m/s | -53.5°C | 3.6% | 42.7hPa | 2.7V | 02:41:00 | 01:27:54 | 00:00:00 | |
| DO3MHA-12 | 2026-09-03 10:55:42 | 47.34647 | 11.66496 | 74° | 5km/h | 22013m | 5.2m/s | -53.5°C | 3.6% | 42.7hPa | 2.6V | 00:00:00 | 01:27:53 | 00:00:00 | |
| DB0UT-7 | 2026-09-03 10:55:41 | 47.34647 | 11.66494 | 70° | 5km/h | 22008m | 6.2m/s | -53.6°C | 3.6% | 42.7hPa | 2.6V | 02:41:00 | 00:00:00 | 00:00:00 | |
| DO3MHA-11 | 2026-09-03 10:55:40 | 47.34646 | 11.66492 | 60° | 4km/h | 22002m | 4.9m/s | -53.6°C | 3.6% | 42.8hPa | 2.7V | 00:00:00 | 01:27:51 | 00:00:00 | |
| PG1ADW-2 | 2026-09-03 10:55:39 | 47.34645 | 11.66490 | 35° | 4km/h | 21997m | 6.0m/s | -53.7°C | 3.7% | 42.8hPa | 2.7V | 02:41:00 | 00:00:00 | 00:00:00 | |
| BAUMI2-15 | 2026-09-03 10:55:38 | 47.34644 | 11.66490 | 357° | 4km/h | 21990m | 5.9m/s | -53.7°C | 3.7% | 42.8hPa | 2.7V | 00:00:00 | 01:27:49 | 00:00:00 | |
| DL9SK-14 | 2026-09-03 10:55:37 | 47.34643 | 11.66490 | 329° | 4km/h | 21985m | 5.1m/s | -53.7°C | 0.8% | 42.9hPa | 2.7V | 00:00:00 | 00:00:00 | 00:00:00 | |
| OE5DXL-15 | 2026-09-03 10:55:36 | 47.34643 | 11.66490 | 166° | 7km/h | 21974m | 5.2m/s | -53.7°C | 3.7% | 43.0hPa | 2.7V | 00:00:00 | 00:00:00 | 00:00:00 | |
| BAUMI2-15 | 2026-09-03 10:55:33 | 47.34645 | 11.66489 | 157° | 4km/h | 21964m | 6.3m/s | -53.7°C | 3.7% | 43.0hPa | 2.7V | 00:00:00 | 01:27:44 | 00:00:00 | |
| DO3MHA-12 | 2026-09-03 10:55:32 | 47.34646 | 11.66488 | 167° | 4km/h | 21957m | 5.9m/s | -53.7°C | 3.8% | 43.1hPa | 2.7V | 02:41:00 | 01:27:43 | 00:00:00 | |
| OM5KV | 2026-09-03 10:55:31 | 47.34646 | 11.66488 | 168° | 2km/h | 21957m | 5.9m/s | -53.8°C | 0.8% | 43.1hPa | 2.7V | 02:41:00 | 00:00:00 | 00:00:00 | |
| OE5MMP-10 | 2026-09-03 10:55:30 | 47.34647 | 11.66488 | 122° | 5km/h | 21946m | 6.2m/s | -53.6°C | 3.8% | 43.2hPa | 2.7V | 02:41:00 | 01:27:41 | 00:00:00 | |
| BAUMI2-15 | 2026-09-03 10:55:28 | 47.34647 | 11.66486 | 106° | 9km/h | 21935m | 4.4m/s | -53.6°C | 3.7% | 43.2hPa | 2.6V | 02:41:00 | 01:27:39 | 00:00:00 | |
| DB0NH | 2026-09-03 10:55:26 | 47.34646 | 11.66486 | 340° | 7km/h | 21924m | 5.7m/s | -53.6°C | 3.7% | 43.3hPa | 2.7V | 00:00:00 | 01:27:37 | 00:00:00 | |
| IN3HCDX | 2026-09-03 10:55:24 | 47.34644 | 11.66487 | 343° | 9km/h | 21918m | 5.1m/s | -53.6°C | 0.8% | 43.4hPa | 2.7V | 02:41:00 | 00:00:00 | 00:00:00 | |
| DO3MHA-11 | 2026-09-03 10:55:20 | 47.34636 | 11.66489 | 345° | 9km/h | 21890m | 4.9m/s | -53.5°C | 3.6% | 43.5hPa | 2.7V | 02:42:00 | 01:27:31 | 00:00:00 | |
| PG1ADW-2 | 2026-09-03 10:55:19 | 47.34635 | 11.66489 | 360° | 9km/h | 21886m | 4.4m/s | -53.5°C | 3.6% | 43.6hPa | 2.6V | 00:00:00 | 00:00:00 | 00:00:00 | |
| OE5WHR-10 | 2026-09-03 10:55:17 | 47.34634 | 11.66487 | 82° | 11km/h | 21874m | 4.9m/s | -53.4°C | 3.7% | 43.7hPa | 2.6V | 02:42:00 | 00:00:00 | 00:00:00 | |
| OM5KV | 2026-09-03 10:55:15 | 47.34632 | 11.66482 | 48° | 7km/h | 21864m | 6.5m/s | -53.3°C | 0.8% | 43.7hPa | 2.7V | 02:42:00 | 00:00:00 | 00:00:00 | |
| OE5DRO-10 | 2026-09-03 10:55:14 | 47.34630 | 11.66481 | 14° | 11km/h | 21858m | 5.7m/s | -53.2°C | 3.6% | 43.7hPa | 2.7V | 00:00:00 | 00:00:00 | 00:00:00 | |
| DO3MHA-12 | 2026-09-03 10:55:12 | 47.34624 | 11.66481 | 357° | 13km/h | 21846m | 6.3m/s | -53.2°C | 3.6% | 43.8hPa | 2.7V | 00:00:00 | 01:27:23 | 00:00:00 | |
| DB0UT-7 | 2026-09-03 10:55:11 | 47.34621 | 11.66482 | 349° | 9km/h | 21841m | 5.0m/s | -53.1°C | 3.6% | 43.9hPa | 2.7V | 00:00:00 | 01:27:22 | 00:00:00 | |
| DO3MHA-11 | 2026-09-03 10:55:10 | 47.34617 | 11.66483 | 337° | 11km/h | 21836m | 5.0m/s | -53.2°C | 3.5% | 43.9hPa | 2.7V | 00:00:00 | 01:27:21 | 00:00:00 | |
| DG1MJG | 2026-09-03 10:55:08 | 47.34605 | 11.66495 | 324° | 16km/h | 21819m | 5.9m/s | -53.4°C | 0.8% | 44.1hPa | 2.7V | 02:42:00 | 00:00:00 | 00:00:00 | |
| DG1MFX-10 | 2026-09-03 10:55:07 | 47.34605 | 11.66495 | 324° | 16km/h | 21819m | 5.9m/s | -53.4°C | 0.8% | 44.1hPa | 2.7V | 02:42:00 | 00:00:00 | 00:00:00 | |
| DL9SK-14 | 2026-09-03 10:55:06 | 47.34602 | 11.66498 | 327° | 9km/h | 21813m | 5.9m/s | -53.5°C | 0.8% | 44.1hPa | 2.7V | 00:00:00 | 00:00:00 | 00:00:00 | |
| OE5DXL-15 | 2026-09-03 10:55:05 | 47.34600 | 11.66499 | 339° | 7km/h | 21808m | 5.2m/s | -53.5°C | 3.6% | 44.1hPa | 2.7V | 00:00:00 | 00:00:00 | 00:00:00 | |
| IN3HCDX | 2026-09-03 10:55:04 | 47.34600 | 11.66499 | 340° | 5km/h | 21808m | 5.2m/s | -53.6°C | 0.8% | 44.1hPa | 2.7V | 02:42:00 | 00:00:00 | 00:00:00 | |
| DO3MHA-12 | 2026-09-03 10:55:02 | 47.34598 | 11.66499 | 57° | 9km/h | 21790m | 5.4m/s | -53.6°C | 3.6% | 44.2hPa | 2.7V | 02:42:00 | 01:27:13 | 00:00:00 | |
| S52SK | 2026-09-03 10:55:01 | 47.34598 | 11.66499 | 57° | 4km/h | 21790m | 5.5m/s | -53.7°C | 0.8% | 44.3hPa | 2.6V | 00:00:00 | 00:00:00 | 00:00:00 | |
| OE5MMP-10 | 2026-09-03 10:55:00 | 47.34597 | 11.66495 | 75° | 11km/h | 21779m | 4.8m/s | -53.7°C | 3.7% | 44.3hPa | 2.6V | 02:42:00 | 01:27:11 | 00:00:00 | |
| PG1ADW-2 | 2026-09-03 10:54:59 | 47.34596 | 11.66493 | 49° | 7km/h | 21774m | 3.8m/s | -53.8°C | 3.7% | 44.3hPa | 2.7V | 00:00:00 | 01:27:10 | 00:00:00 | |
| OM5KV | 2026-09-03 10:54:57 | 47.34594 | 11.66490 | 24° | 9km/h | 21769m | 6.4m/s | -53.9°C | 0.8% | 44.4hPa | 2.7V | 02:42:00 | 00:00:00 | 00:00:00 | |
| OE5WHR-10 | 2026-09-03 10:54:56 | 47.34588 | 11.66491 | 340° | 7km/h | 21759m | 4.1m/s | -54.0°C | 3.7% | 44.4hPa | 2.7V | 00:00:00 | 00:00:00 | 00:00:00 | |
| OE5DRO-10 | 2026-09-03 10:54:55 | 47.34585 | 11.66493 | 338° | 7km/h | 21754m | 5.6m/s | -54.1°C | 3.8% | 44.5hPa | 2.7V | 00:00:00 | 00:00:00 | 00:00:00 | |
| DL2OL | 2026-09-03 10:54:54 | 47.34585 | 11.66493 | 338° | 15km/h | 21754m | 5.7m/s | -54.1°C | 0.8% | 44.5hPa | 2.7V | 00:00:00 | 00:00:00 | 00:00:00 | |
| DO3MHA-12 | 2026-09-03 10:54:52 | 47.34577 | 11.66494 | 21° | 5km/h | 21737m | 5.0m/s | -54.1°C | 3.9% | 44.6hPa | 2.7V | 00:00:00 | 01:27:03 | 00:00:00 | |
| OE3JTB-15 | 2026-09-03 10:54:51 | 47.34575 | 11.66493 | 22° | 7km/h | 21731m | 6.5m/s | -54.1°C | 3.9% | 44.6hPa | 2.7V | 00:00:00 | 00:00:00 | 00:00:00 | |
| OE5MMP-10 | 2026-09-03 10:54:50 | 47.34574 | 11.66492 | 35° | 5km/h | 21725m | 5.2m/s | -54.1°C | 3.9% | 44.7hPa | 2.7V | 00:00:00 | 01:27:01 | 00:00:00 | |
| OM5KV | 2026-09-03 10:54:46 | 47.34573 | 11.66485 | 102° | 9km/h | 21708m | 4.0m/s | -54.0°C | 0.8% | 44.8hPa | 2.7V | 02:42:00 | 00:00:00 | 00:00:00 | |
| OM5KV | 2026-09-03 10:54:45 | 47.34574 | 11.66480 | 128° | 4km/h | 21698m | 6.4m/s | -54.0°C | 0.9% | 44.9hPa | 2.7V | 02:42:00 | 00:00:00 | 00:00:00 | |
| IN3HCDX | 2026-09-03 10:54:43 | 47.34574 | 11.66480 | 0° | 0km/h | 21692m | 5.1m/s | -53.9°C | 0.8% | 45.0hPa | 2.7V | 02:42:00 | 00:00:00 | 00:00:00 | |
| DO3MHA-12 | 2026-09-03 10:54:42 | 47.34574 | 11.66482 | 292° | 5km/h | 21680m | 5.3m/s | -53.8°C | 3.7% | 45.0hPa | 2.7V | 00:00:00 | 01:26:53 | 00:00:00 | |
| OM5KV | 2026-09-03 10:54:41 | 47.34574 | 11.66482 | 292° | 4km/h | 21680m | 5.4m/s | -53.8°C | 0.8% | 45.0hPa | 2.7V | 02:42:00 | 00:00:00 | 00:00:00 | |
| OE5MMP-10 | 2026-09-03 10:54:40 | 47.34574 | 11.66485 | 267° | 5km/h | 21669m | 5.7m/s | -53.7°C | 3.8% | 45.1hPa | 2.7V | 00:00:00 | 01:26:51 | 00:00:00 | |
| OE5DRO-10 | 2026-09-03 10:54:36 | 47.34576 | 11.66489 | 137° | 9km/h | 21648m | 4.7m/s | -53.5°C | 3.9% | 45.2hPa | 2.7V | 02:42:00 | 00:00:00 | 00:00:00 | |
| OE5WHR-10 | 2026-09-03 10:54:35 | 47.34577 | 11.66488 | 144° | 9km/h | 21643m | 5.1m/s | -53.5°C | 3.8% | 45.2hPa | 2.7V | 00:00:00 | 01:26:46 | 00:00:00 | |
| DO3MHA-12 | 2026-09-03 10:54:32 | 47.34582 | 11.66487 | 202° | 7km/h | 21626m | 5.8m/s | -53.4°C | 3.7% | 45.4hPa | 2.7V | 02:42:00 | 01:26:43 | 00:00:00 | |
| DL6DJ-15 | 2026-09-03 10:54:28 | 47.34584 | 11.66491 | 255° | 7km/h | 21603m | 6.3m/s | -53.3°C | 0.8% | 45.6hPa | 2.7V | 00:00:00 | 00:00:00 | 00:00:00 | |
| NBG1-10 | 2026-09-03 10:54:27 | 47.34584 | 11.66494 | 241° | 11km/h | 21597m | 5.1m/s | -53.3°C | 3.6% | 45.6hPa | 2.7V | 02:42:00 | 01:26:38 | 00:00:00 | |
| DG1MFX-10 | 2026-09-03 10:54:25 | 47.34586 | 11.66497 | 224° | 11km/h | 21592m | 4.9m/s | -53.3°C | 0.9% | 45.6hPa | 2.7V | 02:43:00 | 00:00:00 | 00:00:00 | |
| DO3MHA-12 | 2026-09-03 10:54:22 | 47.34599 | 11.66500 | 177° | 9km/h | 21569m | 4.9m/s | -53.1°C | 3.6% | 45.8hPa | 2.7V | 00:00:00 | 01:26:33 | 00:00:00 | |
| OM5KV | 2026-09-03 10:54:21 | 47.34599 | 11.66500 | 178° | 15km/h | 21569m | 4.9m/s | -53.1°C | 0.8% | 45.8hPa | 2.7V | 02:43:00 | 00:00:00 | 00:00:00 | |
| DO3MHA-11 | 2026-09-03 10:54:20 | 47.34605 | 11.66498 | 148° | 9km/h | 21558m | 6.8m/s | -53.1°C | 3.5% | 45.9hPa | 2.7V | 02:43:00 | 01:26:31 | 00:00:00 | |
| PG1ADW-2 | 2026-09-03 10:54:19 | 47.34607 | 11.66495 | 131° | 15km/h | 21552m | 4.6m/s | -53.1°C | 3.5% | 45.9hPa | 2.7V | 00:00:00 | 00:00:00 | 00:00:00 | |
| OM5KV | 2026-09-03 10:54:17 | 47.34610 | 11.66494 | 241° | 5km/h | 21536m | 5.0m/s | -53.3°C | 0.8% | 46.0hPa | 2.7V | 02:43:00 | 00:00:00 | 00:00:00 | |
| OE5WHR-10 | 2026-09-03 10:54:14 | 47.34611 | 11.66498 | 240° | 16km/h | 21525m | 5.7m/s | -53.4°C | 3.4% | 46.1hPa | 2.7V | 02:43:00 | 00:00:00 | 00:00:00 | |
| DO3MHA-12 | 2026-09-03 10:54:12 | 47.34614 | 11.66503 | 214° | 20km/h | 21515m | 5.4m/s | -53.6°C | 3.6% | 46.2hPa | 2.7V | 00:00:00 | 01:26:23 | 00:00:00 | |
| DO3MHA-11 | 2026-09-03 10:54:11 | 47.34622 | 11.66507 | 191° | 22km/h | 21505m | 4.0m/s | -53.8°C | 3.7% | 46.2hPa | 2.7V | 00:00:00 | 01:26:21 | 00:00:00 | |
| OE5MMP-10 | 2026-09-03 10:54:10 | 47.34622 | 11.66507 | 191° | 22km/h | 21505m | 4.0m/s | -53.8°C | 3.7% | 46.2hPa | 2.7V | 00:00:00 | 01:26:21 | 00:00:00 | |
| OM5KV | 2026-09-03 10:54:08 | 47.34627 | 11.66508 | 175° | 20km/h | 21500m | 6.2m/s | -54.0°C | 0.8% | 46.3hPa | 2.7V | 02:43:00 | 00:00:00 | 00:00:00 | |
| S52SK | 2026-09-03 10:54:07 | 47.34632 | 11.66505 | 155° | 22km/h | 21494m | 6.6m/s | -54.1°C | 0.8% | 46.4hPa | 2.7V | 00:00:00 | 00:00:00 | 00:00:00 | |
| DK5PH-5 | 2026-09-03 10:54:05 | 47.34646 | 11.66488 | 138° | 18km/h | 21476m | 5.5m/s | -54.0°C | 3.8% | 46.4hPa | 2.7V | 00:00:00 | 01:26:16 | 00:00:00 | |
| DL9SK-14 | 2026-09-03 10:54:04 | 47.34650 | 11.66483 | 138° | 20km/h | 21471m | 4.7m/s | -54.2°C | 0.8% | 46.5hPa | 2.7V | 00:00:00 | 00:00:00 | 00:00:00 | |
| DO3MHA-12 | 2026-09-03 10:54:02 | 47.34658 | 11.66472 | 134° | 16km/h | 21460m | 5.2m/s | -54.1°C | 3.7% | 46.6hPa | 2.7V | 02:43:00 | 01:26:13 | 00:00:00 | |
| IN3HCDX | 2026-09-03 10:54:01 | 47.34658 | 11.66472 | 134° | 20km/h | 21460m | 5.3m/s | -54.2°C | 0.8% | 46.6hPa | 2.6V | 02:43:00 | 00:00:00 | 00:00:00 | |
| DO3MHA-11 | 2026-09-03 10:54:00 | 47.34664 | 11.66464 | 147° | 18km/h | 21448m | 6.7m/s | -54.1°C | 3.8% | 46.6hPa | 2.6V | 00:00:00 | 01:26:11 | 00:00:00 | |
| OM5KV | 2026-09-03 10:53:59 | 47.34664 | 11.66464 | 148° | 13km/h | 21448m | 6.8m/s | -54.2°C | 0.9% | 46.7hPa | 2.6V | 02:43:00 | 00:00:00 | 00:00:00 | |
| OE5DRO-10 | 2026-09-03 10:53:58 | 47.34669 | 11.66461 | 159° | 18km/h | 21437m | 5.7m/s | -54.2°C | 3.7% | 46.7hPa | 2.6V | 00:00:00 | 00:00:00 | 00:00:00 | |
| PG1ADW-2 | 2026-09-03 10:53:57 | 47.34671 | 11.66459 | 150° | 22km/h | 21431m | 5.6m/s | -54.2°C | 3.8% | 46.7hPa | 2.6V | 00:00:00 | 00:00:00 | 00:00:00 | |
| NBG1-10 | 2026-09-03 10:53:54 | 47.34682 | 11.66451 | 162° | 20km/h | 21416m | 5.5m/s | -54.2°C | 3.8% | 46.9hPa | 2.6V | 00:00:00 | 01:26:05 | 00:00:00 | |
| OE3JTB-15 | 2026-09-03 10:53:53 | 47.34687 | 11.66449 | 158° | 20km/h | 21411m | 4.7m/s | -54.2°C | 3.9% | 46.9hPa | 2.6V | 02:43:00 | 00:00:00 | 00:00:00 | |
| DO3MHA-12 | 2026-09-03 10:53:52 | 47.34693 | 11.66445 | 154° | 18km/h | 21406m | 6.1m/s | -54.2°C | 3.9% | 47.0hPa | 2.7V | 00:00:00 | 01:26:03 | 00:00:00 | |
| DO3MHA-11 | 2026-09-03 10:53:50 | 47.34706 | 11.66436 | 158° | 16km/h | 21395m | 6.0m/s | -54.2°C | 3.9% | 47.0hPa | 2.7V | 02:43:00 | 01:26:01 | 00:00:00 | |
| OM5KV | 2026-09-03 10:53:49 | 47.34717 | 11.66431 | 174° | 20km/h | 21384m | 4.5m/s | -54.2°C | 0.8% | 47.1hPa | 2.6V | 02:43:00 | 00:00:00 | 00:00:00 | |
| DG1MFX-10 | 2026-09-03 10:53:43 | 47.34730 | 11.66427 | 164° | 11km/h | 21364m | 5.2m/s | -54.2°C | 0.9% | 47.3hPa | 2.6V | 02:43:00 | 00:00:00 | 00:00:00 | |
| DO3MHA-12 | 2026-09-03 10:53:42 | 47.34737 | 11.66425 | 177° | 20km/h | 21354m | 3.9m/s | -54.2°C | 3.8% | 47.4hPa | 2.6V | 00:00:00 | 01:25:53 | 00:00:00 | |
| DO3MHA-11 | 2026-09-03 10:53:41 | 47.34746 | 11.66423 | 164° | 20km/h | 21344m | 6.3m/s | -54.1°C | 3.9% | 47.4hPa | 2.6V | 00:00:00 | 01:25:51 | 00:00:00 | |
| OE5DRO-10 | 2026-09-03 10:53:39 | 47.34751 | 11.66421 | 164° | 20km/h | 21338m | 4.2m/s | -54.1°C | 3.8% | 47.5hPa | 2.6V | 02:43:00 | 00:00:00 | 00:00:00 | |
| DK5PH-5 | 2026-09-03 10:53:35 | 47.34775 | 11.66419 | 187° | 20km/h | 21319m | 5.1m/s | -54.3°C | 3.8% | 47.6hPa | 2.6V | 02:43:00 | 01:25:46 | 00:00:00 | |
| OM5KV | 2026-09-03 10:53:34 | 47.34775 | 11.66419 | 187° | 22km/h | 21319m | 5.2m/s | -54.4°C | 0.9% | 47.7hPa | 2.7V | 02:44:00 | 00:00:00 | 00:00:00 | |
| DL9SK-14 | 2026-09-03 10:53:33 | 47.34785 | 11.66419 | 176° | 15km/h | 21308m | 4.7m/s | -54.3°C | 0.9% | 47.8hPa | 2.7V | 00:00:00 | 00:00:00 | 00:00:00 | |
| DO3MHA-12 | 2026-09-03 10:53:32 | 47.34788 | 11.66419 | 176° | 20km/h | 21303m | 5.2m/s | -54.3°C | 3.7% | 47.7hPa | 2.7V | 02:43:00 | 01:25:43 | 00:00:00 | |
| OM5KV | 2026-09-03 10:53:31 | 47.34788 | 11.66419 | 177° | 15km/h | 21303m | 5.2m/s | -54.3°C | 0.8% | 47.8hPa | 2.6V | 02:44:00 | 00:00:00 | 00:00:00 | |
| OE5MMP-10 | 2026-09-03 10:53:30 | 47.34796 | 11.66419 | 182° | 20km/h | 21291m | 4.7m/s | -54.2°C | 3.8% | 47.8hPa | 2.6V | 02:43:00 | 01:25:41 | 00:00:00 | |
| OM5KV | 2026-09-03 10:53:28 | 47.34800 | 11.66419 | 174° | 16km/h | 21286m | 5.6m/s | -54.2°C | 0.9% | 47.9hPa | 2.7V | 02:44:00 | 00:00:00 | 00:00:00 | |
| DL6DJ-15 | 2026-09-03 10:53:26 | 47.34814 | 11.66412 | 159° | 22km/h | 21271m | 5.9m/s | -54.3°C | 0.9% | 48.0hPa | 2.7V | 00:00:00 | 00:00:00 | 00:00:00 | |
| OM5KV | 2026-09-03 10:53:25 | 47.34814 | 11.66412 | 161° | 22km/h | 21272m | 5.9m/s | -54.3°C | 0.9% | 48.0hPa | 2.7V | 02:44:00 | 00:00:00 | 00:00:00 | |
| OE3JTB-15 | 2026-09-03 10:53:24 | 47.34825 | 11.66407 | 164° | 16km/h | 21262m | 3.7m/s | -54.3°C | 3.8% | 48.0hPa | 2.7V | 00:00:00 | 00:00:00 | 00:00:00 | |
| DO3MHA-12 | 2026-09-03 10:53:22 | 47.34836 | 11.66400 | 149° | 18km/h | 21252m | 5.5m/s | -54.4°C | 3.9% | 48.1hPa | 2.7V | 00:00:00 | 01:25:33 | 00:00:00 | |
| DO3MHA-11 | 2026-09-03 10:53:20 | 47.34845 | 11.66391 | 150° | 18km/h | 21242m | 5.0m/s | -54.6°C | 3.9% | 48.1hPa | 2.7V | 02:44:00 | 01:25:31 | 00:00:00 | |
| BAUMI2-15 | 2026-09-03 10:53:17 | 47.34858 | 11.66384 | 165° | 16km/h | 21226m | 6.1m/s | -54.6°C | 3.9% | 48.3hPa | 2.6V | 00:00:00 | 01:25:28 | 00:00:00 | |
| OM5KV | 2026-09-03 10:53:14 | 47.34866 | 11.66380 | 156° | 16km/h | 21215m | 4.8m/s | -54.5°C | 0.9% | 48.4hPa | 2.6V | 02:44:00 | 00:00:00 | 00:00:00 | |
| DO3MHA-12 | 2026-09-03 10:53:12 | 47.34878 | 11.66372 | 154° | 18km/h | 21200m | 3.8m/s | -54.3°C | 3.7% | 48.5hPa | 2.6V | 00:00:00 | 01:25:23 | 00:00:00 | |
| OE5WHR-10 | 2026-09-03 10:53:11 | 47.34882 | 11.66369 | 144° | 16km/h | 21195m | 6.4m/s | -54.3°C | 3.7% | 48.5hPa | 2.6V | 02:44:00 | 00:00:00 | 00:00:00 | |
| DO3MHA-11 | 2026-09-03 10:53:10 | 47.34886 | 11.66363 | 132° | 16km/h | 21189m | 5.0m/s | -54.3°C | 3.8% | 48.6hPa | 2.6V | 00:00:00 | 01:25:21 | 00:00:00 | |
| BAUMI2-15 | 2026-09-03 10:53:08 | 47.34896 | 11.66345 | 134° | 18km/h | 21173m | 4.9m/s | -54.2°C | 3.8% | 48.7hPa | 2.6V | 00:00:00 | 01:25:18 | 00:00:00 | |
| OM5KV | 2026-09-03 10:53:07 | 47.34896 | 11.66345 | 135° | 20km/h | 21173m | 5.0m/s | -54.3°C | 0.9% | 48.7hPa | 2.6V | 02:44:00 | 00:00:00 | 00:00:00 | |
| OE5DXL-15 | 2026-09-03 10:53:05 | 47.34903 | 11.66335 | 127° | 15km/h | 21163m | 6.1m/s | -54.1°C | 3.8% | 48.8hPa | 2.6V | 02:44:00 | 00:00:00 | 00:00:00 | |
| DG1MFX-10 | 2026-09-03 10:53:02 | 47.34909 | 11.66323 | 143° | 7km/h | 21146m | 5.0m/s | -54.2°C | 0.9% | 49.0hPa | 2.6V | 02:44:00 | 00:00:00 | 00:00:00 | |
| OE5DRO-10 | 2026-09-03 10:53:01 | 47.34911 | 11.66321 | 150° | 13km/h | 21142m | 4.4m/s | -54.2°C | 3.6% | 48.9hPa | 2.6V | 00:00:00 | 00:00:00 | 00:00:00 | |
| OE5MMP-10 | 2026-09-03 10:53:00 | 47.34912 | 11.66319 | 141° | 15km/h | 21136m | 6.0m/s | -54.3°C | 3.7% | 49.0hPa | 2.6V | 02:44:00 | 01:25:11 | 00:00:00 | |
| IN3HCDX | 2026-09-03 10:52:59 | 47.34912 | 11.66319 | 142° | 7km/h | 21136m | 6.0m/s | -54.3°C | 0.9% | 49.1hPa | 2.7V | 02:44:00 | 00:00:00 | 00:00:00 | |
| BAUMI2-15 | 2026-09-03 10:52:57 | 47.34919 | 11.66312 | 158° | 20km/h | 21120m | 6.0m/s | -54.5°C | 3.7% | 49.1hPa | 2.7V | 02:44:00 | 01:25:08 | 00:00:00 | |
| OE3JTB-15 | 2026-09-03 10:52:55 | 47.34927 | 11.66308 | 156° | 15km/h | 21110m | 5.1m/s | -54.7°C | 3.8% | 49.2hPa | 2.6V | 00:00:00 | 01:25:06 | 00:00:00 | |
| OM5KV | 2026-09-03 10:52:54 | 47.34927 | 11.66308 | 157° | 20km/h | 21110m | 5.1m/s | -54.8°C | 0.9% | 49.2hPa | 2.6V | 02:44:00 | 00:00:00 | 00:00:00 | |
| OM5KV | 2026-09-03 10:52:53 | 47.34932 | 11.66304 | 149° | 24km/h | 21105m | 5.6m/s | -54.8°C | 0.9% | 49.3hPa | 2.6V | 02:44:00 | 00:00:00 | 00:00:00 | |
| DO3MHA-12 | 2026-09-03 10:52:52 | 47.34942 | 11.66294 | 147° | 13km/h | 21096m | 5.1m/s | -54.9°C | 3.8% | 49.3hPa | 2.6V | 00:00:00 | 01:25:03 | 00:00:00 | |
| OE5MMP-10 | 2026-09-03 10:52:50 | 47.34952 | 11.66286 | 155° | 11km/h | 21086m | 3.8m/s | -54.9°C | 3.8% | 49.4hPa | 2.6V | 00:00:00 | 01:25:01 | 00:00:00 | |
| NBG1-10 | 2026-09-03 10:52:47 | 47.34957 | 11.66279 | 108° | 13km/h | 21071m | 4.8m/s | -54.9°C | 3.8% | 49.5hPa | 2.6V | 02:44:00 | 01:24:58 | 00:00:00 | |
| DO3MHA-12 | 2026-09-03 10:52:42 | 47.34961 | 11.66265 | 108° | 16km/h | 21044m | 3.9m/s | -55.5°C | 4.0% | 49.7hPa | 2.7V | 00:00:00 | 01:24:53 | 00:00:00 | |
| OM5KV | 2026-09-03 10:52:41 | 47.34962 | 11.66261 | 121° | 11km/h | 21039m | 5.7m/s | -55.6°C | 0.9% | 49.8hPa | 2.7V | 02:45:00 | 00:00:00 | 00:00:00 | |
| DO3MHA-11 | 2026-09-03 10:52:40 | 47.34964 | 11.66257 | 134° | 18km/h | 21034m | 5.5m/s | -55.6°C | 4.1% | 49.8hPa | 2.7V | 00:00:00 | 01:24:51 | 00:00:00 | |
| OE5MMP-10 | 2026-09-03 10:52:39 | 47.34967 | 11.66253 | 133° | 18km/h | 21029m | 3.9m/s | -55.6°C | 4.1% | 49.8hPa | 2.7V | 00:00:00 | 01:24:50 | 00:00:00 | |
| IN3HCDX | 2026-09-03 10:52:38 | 47.34967 | 11.66253 | 134° | 16km/h | 21029m | 3.9m/s | -55.6°C | 0.9% | 49.9hPa | 2.7V | 00:00:00 | 00:00:00 | 00:00:00 | |
| BAUMI2-15 | 2026-09-03 10:52:37 | 47.34971 | 11.66242 | 112° | 16km/h | 21019m | 5.4m/s | -55.6°C | 4.1% | 49.9hPa | 2.7V | 00:00:00 | 01:24:48 | 00:00:00 | |
| DK5PH-5 | 2026-09-03 10:52:35 | 47.34973 | 11.66230 | 93° | 11km/h | 21009m | 5.9m/s | -55.6°C | 4.1% | 50.0hPa | 2.7V | 00:00:00 | 01:24:46 | 00:00:00 | |
| OM5KV | 2026-09-03 10:52:34 | 47.34973 | 11.66230 | 94° | 16km/h | 21009m | 6.0m/s | -55.7°C | 0.9% | 50.0hPa | 2.7V | 02:45:00 | 00:00:00 | 00:00:00 | |
| DO3MHA-12 | 2026-09-03 10:52:32 | 47.34972 | 11.66210 | 84° | 13km/h | 20993m | 5.4m/s | -55.6°C | 4.1% | 50.1hPa | 2.7V | 02:44:00 | 01:24:43 | 00:00:00 | |
| DL9SK-14 | 2026-09-03 10:52:31 | 47.34971 | 11.66195 | 84° | 18km/h | 20982m | 6.4m/s | -55.6°C | 0.9% | 50.2hPa | 2.6V | 00:00:00 | 00:00:00 | 00:00:00 | |
| DO3MHA-11 | 2026-09-03 10:52:30 | 47.34971 | 11.66195 | 85° | 11km/h | 20982m | 6.3m/s | -55.6°C | 4.0% | 50.2hPa | 2.6V | 00:00:00 | 01:24:41 | 00:00:00 | |
| OM5KV | 2026-09-03 10:52:29 | 47.34971 | 11.66189 | 92° | 15km/h | 20977m | 5.6m/s | -55.7°C | 0.9% | 50.3hPa | 2.6V | 02:45:00 | 00:00:00 | 00:00:00 | |
| BAUMI2-15 | 2026-09-03 10:52:27 | 47.34972 | 11.66180 | 115° | 9km/h | 20966m | 6.0m/s | -55.6°C | 4.1% | 50.3hPa | 2.6V | 02:44:00 | 01:24:38 | 00:00:00 | |
| OE3JTB-15 | 2026-09-03 10:52:26 | 47.34974 | 11.66177 | 130° | 9km/h | 20960m | 3.7m/s | -55.6°C | 4.1% | 50.4hPa | 2.7V | 02:44:00 | 00:00:00 | 00:00:00 | |
| OM5KV | 2026-09-03 10:52:25 | 47.34974 | 11.66177 | 131° | 11km/h | 20960m | 3.7m/s | -55.6°C | 0.9% | 50.4hPa | 2.7V | 02:45:00 | 00:00:00 | 00:00:00 | |
| DL6DJ-15 | 2026-09-03 10:52:24 | 47.34978 | 11.66173 | 168° | 7km/h | 20950m | 5.7m/s | -55.6°C | 0.9% | 50.5hPa | 2.7V | 00:00:00 | 00:00:00 | 00:00:00 | |
| OE5DRO-10 | 2026-09-03 10:52:23 | 47.34980 | 11.66172 | 173° | 9km/h | 20945m | 4.3m/s | -55.6°C | 4.1% | 50.5hPa | 2.7V | 00:00:00 | 00:00:00 | 00:00:00 | |
| DO3MHA-12 | 2026-09-03 10:52:22 | 47.34982 | 11.66171 | 156° | 13km/h | 20940m | 5.6m/s | -55.6°C | 4.1% | 50.5hPa | 2.7V | 00:00:00 | 01:24:33 | 00:00:00 | |
| DG1MFX-10 | 2026-09-03 10:52:21 | 47.34982 | 11.66171 | 156° | 7km/h | 20940m | 5.6m/s | -55.6°C | 1.0% | 50.6hPa | 2.7V | 02:45:00 | 00:00:00 | 00:00:00 | |
| DO3MHA-11 | 2026-09-03 10:52:20 | 47.34984 | 11.66166 | 109° | 11km/h | 20929m | 4.3m/s | -55.5°C | 4.1% | 50.6hPa | 2.7V | 02:45:00 | 01:24:31 | 00:00:00 | |
| OE5MMP-10 | 2026-09-03 10:52:19 | 47.34985 | 11.66161 | 98° | 9km/h | 20924m | 5.5m/s | -55.4°C | 4.1% | 50.7hPa | 2.7V | 00:00:00 | 01:24:30 | 00:00:00 | |
| BAUMI2-15 | 2026-09-03 10:52:17 | 47.34984 | 11.66151 | 71° | 13km/h | 20913m | 4.8m/s | -55.3°C | 4.1% | 50.7hPa | 2.7V | 00:00:00 | 01:24:28 | 00:00:00 | |
| OM5KV | 2026-09-03 10:52:16 | 47.34984 | 11.66151 | 71° | 13km/h | 20913m | 4.8m/s | -55.3°C | 0.9% | 50.8hPa | 2.7V | 02:45:00 | 00:00:00 | 00:00:00 | |
| NBG1-10 | 2026-09-03 10:52:14 | 47.34981 | 11.66136 | 69° | 5km/h | 20897m | 4.4m/s | -55.2°C | 4.0% | 50.8hPa | 2.7V | 00:00:00 | 01:24:25 | 00:00:00 | |
| DO3MHA-12 | 2026-09-03 10:52:13 | 47.34979 | 11.66131 | 33° | 5km/h | 20886m | 5.2m/s | -55.2°C | 4.1% | 50.9hPa | 2.7V | 00:00:00 | 01:24:23 | 00:00:00 | |
| OM5KV | 2026-09-03 10:52:11 | 47.34978 | 11.66131 | 34° | 5km/h | 20886m | 5.2m/s | -55.2°C | 0.9% | 51.0hPa | 2.7V | 02:45:00 | 00:00:00 | 00:00:00 | |
| DO3MHA-11 | 2026-09-03 10:52:10 | 47.34978 | 11.66130 | 185° | 5km/h | 20876m | 5.5m/s | -55.2°C | 4.0% | 51.1hPa | 2.7V | 00:00:00 | 01:24:21 | 00:00:00 | |
| OE5MMP-10 | 2026-09-03 10:52:09 | 47.34978 | 11.66130 | 130° | 7km/h | 20871m | 5.1m/s | -55.2°C | 4.1% | 51.1hPa | 2.7V | 00:00:00 | 01:24:20 | 00:00:00 | |
| OE5WHR-10 | 2026-09-03 10:52:08 | 47.34979 | 11.66129 | 112° | 7km/h | 20866m | 4.4m/s | -55.2°C | 4.0% | 51.1hPa | 2.7V | 02:45:00 | 00:00:00 | 00:00:00 | |
| BAUMI2-15 | 2026-09-03 10:52:07 | 47.34979 | 11.66127 | 84° | 7km/h | 20861m | 6.3m/s | -55.2°C | 4.0% | 51.2hPa | 2.6V | 00:00:00 | 01:24:18 | 00:00:00 | |
| DK5PH-5 | 2026-09-03 10:52:05 | 47.34977 | 11.66123 | 61° | 5km/h | 20850m | 5.4m/s | -55.1°C | 4.0% | 51.3hPa | 2.6V | 02:45:00 | 01:24:16 | 00:00:00 | |
| OE5DRO-10 | 2026-09-03 10:52:04 | 47.34977 | 11.66120 | 70° | 7km/h | 20843m | 6.3m/s | -55.1°C | 4.0% | 51.3hPa | 2.7V | 00:00:00 | 00:00:00 | 00:00:00 | |
| OM5KV | 2026-09-03 10:52:03 | 47.34977 | 11.66120 | 70° | 11km/h | 20843m | 6.3m/s | -55.1°C | 0.9% | 51.3hPa | 2.7V | 02:45:00 | 00:00:00 | 00:00:00 | |
| BAUMI2-15 | 2026-09-03 10:52:02 | 47.34975 | 11.66113 | 61° | 5km/h | 20832m | 6.3m/s | -54.9°C | 4.0% | 51.4hPa | 2.7V | 00:00:00 | 01:24:13 | 00:00:00 | |
| S52SK | 2026-09-03 10:52:01 | 47.34975 | 11.66113 | 62° | 9km/h | 20832m | 6.4m/s | -55.0°C | 0.9% | 51.5hPa | 2.7V | 00:00:00 | 00:00:00 | 00:00:00 | |
| DL9SK-14 | 2026-09-03 10:52:00 | 47.34971 | 11.66109 | 35° | 4km/h | 20816m | 6.3m/s | -54.9°C | 0.9% | 51.6hPa | 2.7V | 00:00:00 | 00:00:00 | 00:00:00 | |
| DL6DJ-15 | 2026-09-03 10:51:53 | 47.34963 | 11.66110 | 26° | 7km/h | 20784m | 5.0m/s | -54.7°C | 0.9% | 51.8hPa | 2.7V | 00:00:00 | 00:00:00 | 00:00:00 | |
| DO3MHA-12 | 2026-09-03 10:51:52 | 47.34961 | 11.66108 | 33° | 5km/h | 20779m | 4.6m/s | -54.6°C | 3.9% | 51.8hPa | 2.7V | 00:00:00 | 01:24:03 | 00:00:00 | |
| DO3MHA-11 | 2026-09-03 10:51:50 | 47.34956 | 11.66105 | 15° | 4km/h | 20768m | 4.9m/s | -54.6°C | 3.9% | 51.9hPa | 2.7V | 02:45:00 | 01:24:01 | 00:00:00 | |
| OE5WHR-10 | 2026-09-03 10:51:47 | 47.34953 | 11.66102 | 67° | 4km/h | 20752m | 4.8m/s | -54.5°C | 3.9% | 52.1hPa | 2.7V | 00:00:00 | 00:00:00 | 00:00:00 | |
| OE5DRO-10 | 2026-09-03 10:51:45 | 47.34952 | 11.66101 | 307° | 4km/h | 20740m | 5.2m/s | -54.4°C | 3.9% | 52.2hPa | 2.7V | 02:45:00 | 00:00:00 | 00:00:00 | |
| OM5KV | 2026-09-03 10:51:43 | 47.34952 | 11.66102 | 302° | 4km/h | 20735m | 4.7m/s | -54.4°C | 0.9% | 52.2hPa | 2.6V | 02:46:00 | 00:00:00 | 00:00:00 | |
| DO3MHA-12 | 2026-09-03 10:51:42 | 47.34951 | 11.66103 | 43° | 5km/h | 20724m | 4.7m/s | -54.3°C | 4.0% | 52.3hPa | 2.6V | 00:00:00 | 01:23:53 | 00:00:00 | |
| NBG1-10 | 2026-09-03 10:51:41 | 47.34950 | 11.66102 | 25° | 5km/h | 20718m | 5.5m/s | -54.2°C | 3.9% | 52.3hPa | 2.6V | 00:00:00 | 01:23:52 | 00:00:00 | |
| DB0UT-7 | 2026-09-03 10:51:40 | 47.34949 | 11.66101 | 11° | 5km/h | 20713m | 5.7m/s | -54.2°C | 3.9% | 52.4hPa | 2.6V | 00:00:00 | 00:00:00 | 00:00:00 | |
| OE5MMP-10 | 2026-09-03 10:51:39 | 47.34947 | 11.66101 | 10° | 5km/h | 20708m | 4.7m/s | -54.1°C | 3.9% | 52.4hPa | 2.6V | 00:00:00 | 01:23:50 | 00:00:00 | |
| BAUMI2-15 | 2026-09-03 10:51:38 | 47.34944 | 11.66099 | 53° | 4km/h | 20696m | 5.7m/s | -54.0°C | 3.9% | 52.5hPa | 2.6V | 00:00:00 | 01:23:48 | 00:00:00 | |
| OE5DXL-15 | 2026-09-03 10:51:35 | 47.34943 | 11.66096 | 46° | 5km/h | 20684m | 5.5m/s | -53.9°C | 3.9% | 52.6hPa | 2.6V | 02:45:00 | 00:00:00 | 00:00:00 | |
| OM5KV | 2026-09-03 10:51:34 | 47.34942 | 11.66096 | 47° | 4km/h | 20684m | 5.6m/s | -54.0°C | 0.9% | 52.7hPa | 2.6V | 02:46:00 | 00:00:00 | 00:00:00 | |
| DO3MHA-12 | 2026-09-03 10:51:32 | 47.34943 | 11.66093 | 168° | 4km/h | 20668m | 4.8m/s | -53.8°C | 3.8% | 52.7hPa | 2.6V | 02:45:00 | 01:23:43 | 00:00:00 | |
| DO3MHA-11 | 2026-09-03 10:51:30 | 47.34945 | 11.66095 | 262° | 4km/h | 20656m | 5.5m/s | -53.7°C | 3.8% | 52.8hPa | 2.7V | 00:00:00 | 01:23:41 | 00:00:00 | |
| OE5MMP-10 | 2026-09-03 10:51:29 | 47.34945 | 11.66097 | 281° | 5km/h | 20651m | 4.3m/s | -53.7°C | 3.8% | 52.9hPa | 2.7V | 02:45:00 | 01:23:40 | 00:00:00 | |
| OE3JTB-15 | 2026-09-03 10:51:28 | 47.34944 | 11.66099 | 296° | 7km/h | 20646m | 5.8m/s | -53.8°C | 3.8% | 52.9hPa | 2.6V | 00:00:00 | 01:23:39 | 00:00:00 | |
| BAUMI2-15 | 2026-09-03 10:51:27 | 47.34944 | 11.66101 | 314° | 2km/h | 20640m | 6.5m/s | -53.7°C | 3.8% | 53.0hPa | 2.6V | 02:45:00 | 01:23:38 | 00:00:00 | |
| OE5WHR-10 | 2026-09-03 10:51:26 | 47.34943 | 11.66101 | 25° | 7km/h | 20634m | 5.0m/s | -53.7°C | 3.7% | 53.0hPa | 2.7V | 00:00:00 | 01:23:37 | 00:00:00 | |
| OM5KV | 2026-09-03 10:51:25 | 47.34943 | 11.66101 | 25° | 2km/h | 20634m | 5.1m/s | -53.7°C | 0.8% | 53.1hPa | 2.7V | 02:46:00 | 00:00:00 | 00:00:00 | |
| DL2OL | 2026-09-03 10:51:24 | 47.34943 | 11.66100 | 15° | 2km/h | 20628m | 6.3m/s | -53.7°C | 0.9% | 53.1hPa | 2.7V | 00:00:00 | 00:00:00 | 00:00:00 | |
| OM5KV | 2026-09-03 10:51:23 | 47.34942 | 11.66100 | 0° | 0km/h | 20622m | 5.4m/s | -53.6°C | 0.9% | 53.2hPa | 2.7V | 02:46:00 | 00:00:00 | 00:00:00 | |
| DO3MHA-12 | 2026-09-03 10:51:22 | 47.34943 | 11.66098 | 115° | 5km/h | 20611m | 6.7m/s | -53.5°C | 3.7% | 53.2hPa | 2.7V | 00:00:00 | 01:23:33 | 00:00:00 | |
| OM5KV | 2026-09-03 10:51:21 | 47.34943 | 11.66098 | 116° | 5km/h | 20611m | 6.7m/s | -53.6°C | 0.9% | 53.2hPa | 2.7V | 02:46:00 | 00:00:00 | 00:00:00 | |
| DO3MHA-11 | 2026-09-03 10:51:20 | 47.34945 | 11.66093 | 148° | 5km/h | 20601m | 4.2m/s | -53.5°C | 3.7% | 53.3hPa | 2.7V | 02:46:00 | 01:23:31 | 00:00:00 | |
| OE5MMP-10 | 2026-09-03 10:51:19 | 47.34947 | 11.66092 | 173° | 5km/h | 20596m | 6.6m/s | -53.5°C | 3.7% | 53.3hPa | 2.6V | 00:00:00 | 01:23:30 | 00:00:00 | |
| DG1MFX-10 | 2026-09-03 10:51:18 | 47.34947 | 11.66092 | 174° | 7km/h | 20596m | 6.7m/s | -53.6°C | 0.9% | 53.4hPa | 2.6V | 02:46:00 | 00:00:00 | 00:00:00 | |
| IN3IJJ | 2026-09-03 10:51:17 | 47.34951 | 11.66094 | 212° | 7km/h | 20584m | 5.3m/s | 0°C | 0% | 53.5hPa | 2.6V | 00:00:00 | 00:00:00 | 00:00:00 | |
| OM5KV | 2026-09-03 10:51:16 | 47.34953 | 11.66095 | 204° | 4km/h | 20579m | 6.3m/s | -53.4°C | 0.8% | 53.5hPa | 2.6V | 02:46:00 | 00:00:00 | 00:00:00 | |
| IN3HCDX | 2026-09-03 10:51:15 | 47.34953 | 11.66095 | 169° | 2km/h | 20573m | 4.6m/s | -53.4°C | 0.9% | 53.6hPa | 2.6V | 02:46:00 | 00:00:00 | 00:00:00 | |
| S52SK | 2026-09-03 10:51:14 | 47.34954 | 11.66095 | 0° | 0km/h | 20568m | 5.4m/s | -53.4°C | 0.8% | 53.6hPa | 2.6V | 02:46:00 | 00:00:00 | 00:00:00 | |
| DO3MHA-12 | 2026-09-03 10:51:12 | 47.34955 | 11.66095 | 178° | 11km/h | 20557m | 4.4m/s | -53.4°C | 3.7% | 53.7hPa | 2.6V | 00:00:00 | 01:23:23 | 00:00:00 | |
| DO3MHA-11 | 2026-09-03 10:51:10 | 47.34959 | 11.66092 | 143° | 13km/h | 20546m | 6.2m/s | -53.5°C | 3.8% | 53.7hPa | 2.6V | 00:00:00 | 01:23:21 | 00:00:00 | |
| OE5MMP-10 | 2026-09-03 10:51:09 | 47.34962 | 11.66089 | 134° | 13km/h | 20540m | 6.0m/s | -53.4°C | 3.7% | 53.8hPa | 2.6V | 00:00:00 | 01:23:20 | 00:00:00 | |
| OE5DRO-10 | 2026-09-03 10:51:08 | 47.34966 | 11.66081 | 123° | 15km/h | 20528m | 5.6m/s | -53.4°C | 3.7% | 53.9hPa | 2.6V | 00:00:00 | 00:00:00 | 00:00:00 | |
| NBG1-10 | 2026-09-03 10:51:07 | 47.34966 | 11.66081 | 123° | 16km/h | 20528m | 5.6m/s | -53.4°C | 3.7% | 53.9hPa | 2.6V | 02:46:00 | 01:23:18 | 00:00:00 | |
| OE5WHR-10 | 2026-09-03 10:51:05 | 47.34969 | 11.66074 | 123° | 15km/h | 20518m | 6.5m/s | -53.3°C | 3.7% | 54.0hPa | 2.6V | 02:46:00 | 00:00:00 | 00:00:00 | |
| S52SK | 2026-09-03 10:51:03 | 47.34971 | 11.66070 | 133° | 13km/h | 20512m | 4.9m/s | -53.3°C | 0.8% | 54.1hPa | 2.7V | 02:47:00 | 00:00:00 | 00:00:00 | |
| DO3MHA-12 | 2026-09-03 10:51:02 | 47.34976 | 11.66065 | 163° | 15km/h | 20501m | 6.4m/s | -53.2°C | 3.7% | 54.1hPa | 2.7V | 02:46:00 | 01:23:13 | 00:00:00 | |
| DL9SK-14 | 2026-09-03 10:50:58 | 47.34994 | 11.66060 | 153° | 15km/h | 20475m | 5.4m/s | -53.1°C | 0.8% | 54.4hPa | 2.6V | 00:00:00 | 00:00:00 | 00:00:00 | |
| DL6DJ-15 | 2026-09-03 10:50:51 | 47.35015 | 11.66041 | 156° | 18km/h | 20445m | 5.2m/s | -52.9°C | 0.8% | 54.6hPa | 2.6V | 00:00:00 | 00:00:00 | 00:00:00 | |
| DO3MHA-11 | 2026-09-03 10:50:50 | 47.35019 | 11.66039 | 163° | 16km/h | 20439m | 5.7m/s | -52.8°C | 3.5% | 54.7hPa | 2.6V | 02:46:00 | 01:23:01 | 00:00:00 | |
| OE5MMP-10 | 2026-09-03 10:50:49 | 47.35023 | 11.66037 | 163° | 16km/h | 20434m | 4.5m/s | -52.9°C | 3.5% | 54.7hPa | 2.6V | 00:00:00 | 01:23:00 | 00:00:00 | |
| OM5KV | 2026-09-03 10:50:48 | 47.35027 | 11.66035 | 159° | 16km/h | 20429m | 5.9m/s | -52.9°C | 0.8% | 54.8hPa | 2.6V | 02:47:00 | 00:00:00 | 00:00:00 | |
| OM5KV | 2026-09-03 10:50:46 | 47.35035 | 11.66030 | 166° | 15km/h | 20418m | 6.6m/s | -53.1°C | 0.8% | 54.9hPa | 2.6V | 02:47:00 | 00:00:00 | 00:00:00 | |
| OE5WHR-10 | 2026-09-03 10:50:44 | 47.35042 | 11.66028 | 163° | 24km/h | 20407m | 6.0m/s | -53.2°C | 3.6% | 54.9hPa | 2.6V | 00:00:00 | 00:00:00 | 00:00:00 | |
| DO3MHA-12 | 2026-09-03 10:50:42 | 47.35049 | 11.66023 | 155° | 18km/h | 20396m | 4.8m/s | -53.3°C | 3.7% | 55.0hPa | 2.6V | 00:00:00 | 01:22:53 | 00:00:00 | |
| DO3MHA-11 | 2026-09-03 10:50:40 | 47.35057 | 11.66019 | 157° | 20km/h | 20385m | 4.1m/s | -53.3°C | 3.7% | 55.1hPa | 2.6V | 00:00:00 | 01:22:51 | 00:00:00 | |
| OE5MMP-10 | 2026-09-03 10:50:39 | 47.35061 | 11.66016 | 149° | 20km/h | 20380m | 6.6m/s | -53.3°C | 3.7% | 55.2hPa | 2.6V | 00:00:00 | 01:22:50 | 00:00:00 | |
| DG1MFX-10 | 2026-09-03 10:50:36 | 47.35069 | 11.66007 | 145° | 20km/h | 20369m | 5.2m/s | -53.4°C | 0.9% | 55.3hPa | 2.6V | 02:47:00 | 00:00:00 | 00:00:00 | |
| OE5DXL-15 | 2026-09-03 10:50:35 | 47.35077 | 11.66001 | 157° | 31km/h | 20358m | 4.7m/s | -53.4°C | 3.8% | 55.3hPa | 2.6V | 00:00:00 | 00:00:00 | 00:00:00 | |
| NBG1-10 | 2026-09-03 10:50:34 | 47.35082 | 11.65997 | 155° | 31km/h | 20353m | 4.8m/s | -53.4°C | 3.8% | 55.4hPa | 2.6V | 00:00:00 | 01:22:45 | 00:00:00 | |
| DO3MHA-12 | 2026-09-03 10:50:32 | 47.35091 | 11.65989 | 142° | 31km/h | 20342m | 4.5m/s | -53.3°C | 3.8% | 55.5hPa | 2.6V | 02:46:00 | 01:22:43 | 00:00:00 | |
| DO3MHA-11 | 2026-09-03 10:50:30 | 47.35100 | 11.65979 | 141° | 33km/h | 20331m | 5.1m/s | -53.2°C | 3.7% | 55.6hPa | 2.6V | 00:00:00 | 01:22:41 | 00:00:00 | |
| OE5MMP-10 | 2026-09-03 10:50:29 | 47.35105 | 11.65973 | 139° | 35km/h | 20326m | 5.2m/s | -53.2°C | 3.6% | 55.6hPa | 2.6V | 02:46:00 | 01:22:40 | 00:00:00 | |
| OM5KV | 2026-09-03 10:50:28 | 47.35105 | 11.65973 | 140° | 27km/h | 20326m | 5.2m/s | -53.2°C | 0.8% | 55.7hPa | 2.6V | 02:47:00 | 00:00:00 | 00:00:00 | |
| DL9SK-14 | 2026-09-03 10:50:27 | 47.35124 | 11.65949 | 142° | 37km/h | 20310m | 5.9m/s | -53.1°C | 0.9% | 55.8hPa | 2.6V | 00:00:00 | 00:00:00 | 00:00:00 | |
| DB0ND-19 | 2026-09-03 10:50:25 | 47.35139 | 11.65933 | 146° | 37km/h | 20299m | 4.1m/s | -53.1°C | 0.9% | 55.9hPa | 2.6V | 00:00:00 | 00:00:00 | 00:00:00 | |
| OE5WHR-10 | 2026-09-03 10:50:23 | 47.35147 | 11.65925 | 147° | 33km/h | 20294m | 6.0m/s | -53.0°C | 3.6% | 55.9hPa | 2.6V | 00:00:00 | 01:22:34 | 00:00:00 | |
| DO3MHA-12 | 2026-09-03 10:50:22 | 47.35155 | 11.65918 | 147° | 27km/h | 20289m | 4.2m/s | -53.0°C | 3.7% | 55.9hPa | 2.6V | 00:00:00 | 01:22:33 | 00:00:00 | |
| OM5KV | 2026-09-03 10:50:21 | 47.35155 | 11.65918 | 148° | 37km/h | 20289m | 4.2m/s | -53.0°C | 0.8% | 56.0hPa | 2.6V | 02:47:00 | 00:00:00 | 00:00:00 | |
| DL6DJ-15 | 2026-09-03 10:50:20 | 47.35169 | 11.65905 | 147° | 27km/h | 20278m | 4.9m/s | -53.0°C | 0.9% | 56.1hPa | 2.6V | 00:00:00 | 00:00:00 | 00:00:00 | |
| DG1MFX-10 | 2026-09-03 10:50:17 | 47.35186 | 11.65877 | 119° | 24km/h | 20257m | 5.9m/s | -53.0°C | 0.9% | 56.3hPa | 2.6V | 02:47:00 | 00:00:00 | 00:00:00 | |
| S52SK | 2026-09-03 10:50:15 | 47.35186 | 11.65877 | 119° | 24km/h | 20257m | 5.9m/s | -53.0°C | 0.9% | 56.3hPa | 2.6V | 02:47:00 | 00:00:00 | 00:00:00 | |
| IN3HCDX | 2026-09-03 10:50:14 | 47.35192 | 11.65860 | 122° | 27km/h | 20248m | 4.2m/s | -52.9°C | 0.9% | 56.4hPa | 2.6V | 02:47:00 | 00:00:00 | 00:00:00 | |
| OM5KV | 2026-09-03 10:50:13 | 47.35196 | 11.65851 | 126° | 31km/h | 20242m | 6.5m/s | -52.9°C | 0.9% | 56.4hPa | 2.6V | 02:47:00 | 00:00:00 | 00:00:00 | |
| DO3MHA-12 | 2026-09-03 10:50:12 | 47.35201 | 11.65842 | 133° | 35km/h | 20236m | 4.8m/s | -52.9°C | 3.7% | 56.5hPa | 2.6V | 00:00:00 | 01:22:23 | 00:00:00 | |
| DB0UT-7 | 2026-09-03 10:50:10 | 47.35215 | 11.65822 | 141° | 37km/h | 20226m | 5.1m/s | -52.8°C | 3.6% | 56.5hPa | 2.6V | 00:00:00 | 01:22:21 | 00:00:00 | |
| OE5MMP-10 | 2026-09-03 10:50:09 | 47.35223 | 11.65814 | 143° | 33km/h | 20221m | 4.0m/s | -52.7°C | 3.6% | 56.5hPa | 2.6V | 00:00:00 | 01:22:20 | 00:00:00 | |
| OM5KV | 2026-09-03 10:50:06 | 47.35238 | 11.65796 | 140° | 38km/h | 20210m | 5.5m/s | -52.7°C | 0.9% | 56.7hPa | 2.6V | 02:47:00 | 00:00:00 | 00:00:00 | |
| DK5PH-5 | 2026-09-03 10:50:05 | 47.35251 | 11.65777 | 132° | 38km/h | 20199m | 6.5m/s | -52.7°C | 3.5% | 56.7hPa | 2.6V | 00:00:00 | 01:22:16 | 00:00:00 | |
| S52SK | 2026-09-03 10:50:04 | 47.35251 | 11.65777 | 133° | 33km/h | 20199m | 6.5m/s | -52.7°C | 0.8% | 56.8hPa | 2.6V | 00:00:00 | 00:00:00 | 00:00:00 | |
| DG1MJG | 2026-09-03 10:50:03 | 47.35256 | 11.65768 | 128° | 27km/h | 20194m | 5.1m/s | 0°C | 0% | 0hPa | 2.6V | 00:00:00 | 00:00:00 | 00:00:00 | |
| DO3MHA-12 | 2026-09-03 10:50:02 | 47.35263 | 11.65750 | 116° | 37km/h | 20183m | 5.8m/s | -52.6°C | 3.5% | 56.9hPa | 2.6V | 02:47:00 | 01:22:13 | 00:00:00 | |
| DL9SK-14 | 2026-09-03 10:49:56 | 47.35298 | 11.65673 | 129° | 40km/h | 20146m | 5.1m/s | -52.6°C | 0.8% | 57.3hPa | 2.6V | 00:00:00 | 00:00:00 | 00:00:00 | |
| DB0ND-19 | 2026-09-03 10:49:54 | 47.35315 | 11.65640 | 118° | 33km/h | 20131m | 5.2m/s | -52.6°C | 0.8% | 57.4hPa | 2.6V | 00:00:00 | 00:00:00 | 00:00:00 | |
| DO3MHA-12 | 2026-09-03 10:49:52 | 47.35314 | 11.65640 | 119° | 38km/h | 20131m | 5.1m/s | -52.6°C | 3.3% | 57.4hPa | 2.6V | 00:00:00 | 01:22:03 | 00:00:00 | |
| OE5DRO-10 | 2026-09-03 10:49:51 | 47.35318 | 11.65628 | 115° | 40km/h | 20126m | 5.6m/s | -52.6°C | 3.3% | 57.4hPa | 2.6V | 02:47:00 | 00:00:00 | 00:00:00 | |
| DO3MHA-11 | 2026-09-03 10:49:50 | 47.35322 | 11.65616 | 112° | 40km/h | 20120m | 4.5m/s | -52.7°C | 3.3% | 57.4hPa | 2.7V | 02:47:00 | 01:22:01 | 00:00:00 | |
| OE5MMP-10 | 2026-09-03 10:49:49 | 47.35325 | 11.65604 | 113° | 42km/h | 20116m | 4.8m/s | -52.8°C | 3.3% | 57.5hPa | 2.7V | 00:00:00 | 01:22:00 | 00:00:00 | |
| OM5KV | 2026-09-03 10:49:44 | 47.35341 | 11.65556 | 120° | 42km/h | 20095m | 5.6m/s | -54.2°C | 0.8% | 57.7hPa | 2.7V | 02:47:00 | 00:00:00 | 00:00:00 | |
| DF1GD-15 | 2026-09-03 10:49:43 | 47.35347 | 11.65542 | 121° | 46km/h | 20090m | 4.4m/s | -54.5°C | 0.9% | 57.8hPa | 2.7V | 00:00:00 | 00:00:00 | 00:00:00 | |
| DO3MHA-12 | 2026-09-03 10:49:42 | 47.35359 | 11.65513 | 122° | 42km/h | 20079m | 4.3m/s | -54.6°C | 3.7% | 57.8hPa | 2.7V | 00:00:00 | 01:21:53 | 00:00:00 | |
| OE5WHR-10 | 2026-09-03 10:49:41 | 47.35364 | 11.65499 | 119° | 38km/h | 20074m | 4.7m/s | -54.7°C | 3.8% | 57.9hPa | 2.7V | 00:00:00 | 00:00:00 | 00:00:00 | |
| DB0UT-7 | 2026-09-03 10:49:40 | 47.35369 | 11.65483 | 115° | 35km/h | 20069m | 6.0m/s | -54.7°C | 3.8% | 57.9hPa | 2.7V | 02:47:00 | 00:00:00 | 00:00:00 | |
| OE5MMP-10 | 2026-09-03 10:49:39 | 47.35374 | 11.65466 | 111° | 38km/h | 20063m | 5.0m/s | -54.7°C | 3.8% | 58.0hPa | 2.6V | 00:00:00 | 01:21:50 | 00:00:00 | |
| IN3IJJ | 2026-09-03 10:49:36 | 47.35381 | 11.65434 | 108° | 42km/h | 20053m | 6.7m/s | 0°C | 0% | 0hPa | 2.6V | 00:00:00 | 00:00:00 | 00:00:00 | |
| OE5DXL-15 | 2026-09-03 10:49:35 | 47.35387 | 11.65407 | 110° | 31km/h | 20042m | 6.1m/s | -55.0°C | 3.9% | 58.2hPa | 2.6V | 00:00:00 | 00:00:00 | 00:00:00 | |
| DG1MFX-10 | 2026-09-03 10:49:34 | 47.35387 | 11.65407 | 110° | 37km/h | 20042m | 6.1m/s | -55.0°C | 1.0% | 58.2hPa | 2.6V | 02:47:00 | 00:00:00 | 00:00:00 | |
| DO3MHA-12 | 2026-09-03 10:49:32 | 47.35397 | 11.65370 | 113° | 35km/h | 20026m | 6.2m/s | -55.5°C | 4.0% | 58.3hPa | 2.6V | 02:47:00 | 01:21:43 | 00:00:00 | |
| DF7PN | 2026-09-03 10:49:31 | 47.35400 | 11.65360 | 114° | 29km/h | 20021m | 3.9m/s | 0°C | -1.0% | -1.0hPa | 2.6V | 00:00:00 | 00:00:00 | 00:00:00 | |
| DO3MHA-11 | 2026-09-03 10:49:30 | 47.35403 | 11.65349 | 115° | 37km/h | 20017m | 5.1m/s | -55.7°C | 4.1% | 58.4hPa | 2.6V | 00:00:00 | 01:21:41 | 00:00:00 | |
| NBG1-10 | 2026-09-03 10:49:28 | 47.35410 | 11.65325 | 111° | 29km/h | 20006m | 3.9m/s | -55.6°C | 4.1% | 58.5hPa | 2.6V | 02:47:00 | 01:21:39 | 00:00:00 | |
| OM5KV | 2026-09-03 10:49:26 | 47.35413 | 11.65313 | 109° | 37km/h | 20001m | 6.1m/s | -55.7°C | 1.0% | 58.6hPa | 2.7V | 02:47:00 | 00:00:00 | 00:00:00 | |
| DL9SK-14 | 2026-09-03 10:49:25 | 47.35420 | 11.65273 | 101° | 38km/h | 19984m | 4.9m/s | -55.5°C | 1.0% | 58.7hPa | 2.7V | 00:00:00 | 00:00:00 | 00:00:00 | |
| DB0ND-19 | 2026-09-03 10:49:23 | 47.35422 | 11.65259 | 99° | 37km/h | 19980m | 4.4m/s | 0°C | -1.0% | 58.8hPa | 2.7V | 00:00:00 | 00:00:00 | 00:00:00 | |
| DO3MHA-12 | 2026-09-03 10:49:22 | 47.35423 | 11.65245 | 98° | 29km/h | 19975m | 5.3m/s | -55.4°C | 4.1% | 58.8hPa | 2.7V | 00:00:00 | 01:21:33 | 00:00:00 | |
| DF1GD-15 | 2026-09-03 10:49:20 | 47.35424 | 11.65233 | 95° | 33km/h | 19970m | 5.7m/s | -55.5°C | 1.1% | 58.9hPa | 2.7V | 02:48:00 | 00:00:00 | 00:00:00 | |
| OE5MMP-10 | 2026-09-03 10:49:19 | 47.35425 | 11.65210 | 98° | 29km/h | 19959m | 6.0m/s | -55.4°C | 4.2% | 58.9hPa | 2.7V | 00:00:00 | 01:21:30 | 00:00:00 | |
| BAUMI2-15 | 2026-09-03 10:49:17 | 47.35428 | 11.65188 | 98° | 27km/h | 19948m | 6.2m/s | -55.5°C | 4.2% | 59.0hPa | 2.7V | 00:00:00 | 01:21:28 | 00:00:00 | |
| S52SK | 2026-09-03 10:49:16 | 47.35428 | 11.65188 | 99° | 27km/h | 19948m | 6.2m/s | -55.5°C | 1.0% | 59.1hPa | 2.7V | 00:00:00 | 00:00:00 | 00:00:00 | |
| OE5DRO-10 | 2026-09-03 10:49:13 | 47.35434 | 11.65148 | 108° | 26km/h | 19928m | 4.3m/s | -55.3°C | 4.1% | 59.2hPa | 2.7V | 00:00:00 | 00:00:00 | 00:00:00 | |
| DO3MHA-12 | 2026-09-03 10:49:12 | 47.35436 | 11.65138 | 107° | 26km/h | 19923m | 5.7m/s | -55.3°C | 4.1% | 59.3hPa | 2.7V | 00:00:00 | 01:21:23 | 00:00:00 | |
| PG1ADW-2 | 2026-09-03 10:49:11 | 47.35438 | 11.65127 | 103° | 24km/h | 19918m | 5.2m/s | -55.3°C | 4.1% | 59.3hPa | 2.7V | 02:48:00 | 01:21:22 | 00:00:00 | |
| DB0UT-7 | 2026-09-03 10:49:10 | 47.35439 | 11.65117 | 100° | 20km/h | 19913m | 5.0m/s | -55.2°C | 4.0% | 59.4hPa | 2.7V | 00:00:00 | 01:21:21 | 00:00:00 | |
| OE5MMP-10 | 2026-09-03 10:49:09 | 47.35440 | 11.65108 | 100° | 24km/h | 19907m | 5.1m/s | -55.2°C | 4.1% | 59.4hPa | 2.7V | 00:00:00 | 01:21:20 | 00:00:00 | |
| DL2OL | 2026-09-03 10:49:08 | 47.35440 | 11.65108 | 101° | 27km/h | 19907m | 5.1m/s | -55.2°C | 1.0% | 59.5hPa | 2.7V | 00:00:00 | 00:00:00 | 00:00:00 | |
| OE5DXL-15 | 2026-09-03 10:49:06 | 47.35443 | 11.65070 | 87° | 18km/h | 19887m | 4.5m/s | -55.0°C | 4.0% | 59.6hPa | 2.7V | 00:00:00 | 00:00:00 | 00:00:00 | |
| DK5PH-5 | 2026-09-03 10:49:05 | 47.35443 | 11.65070 | 87° | 18km/h | 19887m | 4.5m/s | 0°C | 0% | 0hPa | 2.7V | 02:48:00 | 01:21:16 | 00:00:00 | |
| DO3MHA-12 | 2026-09-03 10:49:02 | 47.35443 | 11.65044 | 89° | 24km/h | 19873m | 3.6m/s | -55.0°C | 4.0% | 59.7hPa | 2.7V | 02:48:00 | 01:21:13 | 00:00:00 | |
| OM5KV | 2026-09-03 10:49:01 | 47.35443 | 11.65044 | 90° | 24km/h | 19873m | 3.6m/s | -55.1°C | 1.0% | 59.8hPa | 2.6V | 02:48:00 | 00:00:00 | 00:00:00 | |
| DF7PN | 2026-09-03 10:49:00 | 47.35441 | 11.65018 | 81° | 22km/h | 19858m | 4.6m/s | 0°C | -1.0% | -1.0hPa | 2.6V | 00:00:00 | 00:00:00 | 00:00:00 | |
| DL9SK-14 | 2026-09-03 10:48:54 | 47.35442 | 11.64967 | 87° | 22km/h | 19828m | 4.6m/s | -55.0°C | 1.0% | 60.2hPa | 2.6V | 00:00:00 | 00:00:00 | 00:00:00 | |
| DB0ND-19 | 2026-09-03 10:48:52 | 47.35442 | 11.64958 | 91° | 22km/h | 19823m | 6.1m/s | 0°C | -1.0% | -1.0hPa | 2.6V | 00:00:00 | 00:00:00 | 00:00:00 | |
| DL6DJ-15 | 2026-09-03 10:48:47 | 47.35441 | 11.64920 | 90° | 13km/h | 19793m | 4.1m/s | -54.9°C | 0.9% | 60.5hPa | 2.6V | 00:00:00 | 00:00:00 | 00:00:00 | |
| OM5KV | 2026-09-03 10:48:43 | 47.35441 | 11.64910 | 84° | 13km/h | 19784m | 5.3m/s | -54.9°C | 0.9% | 60.6hPa | 2.6V | 02:48:00 | 00:00:00 | 00:00:00 | |
| DO3MHA-12 | 2026-09-03 10:48:42 | 47.35440 | 11.64901 | 97° | 16km/h | 19775m | 5.2m/s | -55.1°C | 3.8% | 60.6hPa | 2.6V | 00:00:00 | 01:20:53 | 00:00:00 | |
| DO3MHA-11 | 2026-09-03 10:48:40 | 47.35443 | 11.64892 | 121° | 16km/h | 19764m | 4.9m/s | -55.0°C | 3.8% | 60.7hPa | 2.6V | 00:00:00 | 01:20:51 | 00:00:00 | |
| OE5MMP-10 | 2026-09-03 10:48:39 | 47.35445 | 11.64888 | 118° | 16km/h | 19759m | 5.6m/s | -55.0°C | 3.8% | 60.8hPa | 2.6V | 00:00:00 | 01:20:50 | 00:00:00 | |
| OE5WHR-10 | 2026-09-03 10:48:38 | 47.35446 | 11.64882 | 119° | 22km/h | 19754m | 3.6m/s | -55.0°C | 3.9% | 60.9hPa | 2.6V | 00:00:00 | 00:00:00 | 00:00:00 | |
| BAUMI2-15 | 2026-09-03 10:48:37 | 47.35449 | 11.64877 | 124° | 18km/h | 19749m | 5.9m/s | -55.0°C | 3.9% | 60.9hPa | 2.6V | 00:00:00 | 01:20:48 | 00:00:00 | |
| IN3IJJ | 2026-09-03 10:48:36 | 47.35448 | 11.64877 | 124° | 18km/h | 19749m | 5.9m/s | 0°C | 0% | 0hPa | 2.6V | 00:00:00 | 00:00:00 | 00:00:00 | |
| OE5DXL-15 | 2026-09-03 10:48:35 | 47.35454 | 11.64866 | 125° | 22km/h | 19739m | 4.5m/s | -55.0°C | 3.9% | 61.0hPa | 2.6V | 02:48:00 | 00:00:00 | 00:00:00 | |
| DL2OL | 2026-09-03 10:48:34 | 47.35454 | 11.64866 | 125° | 18km/h | 19739m | 4.5m/s | -55.1°C | 1.0% | 61.1hPa | 2.7V | 00:00:00 | 00:00:00 | 00:00:00 | |
| BAUMI2-15 | 2026-09-03 10:48:33 | 47.35459 | 11.64849 | 112° | 18km/h | 19725m | 4.8m/s | -55.6°C | 4.1% | 61.2hPa | 2.7V | 00:00:00 | 01:20:43 | 00:00:00 | |
| DO3MHA-12 | 2026-09-03 10:48:32 | 47.35459 | 11.64849 | 112° | 22km/h | 19725m | 4.8m/s | -55.6°C | 4.1% | 61.2hPa | 2.7V | 02:48:00 | 01:20:43 | 00:00:00 | |
| DO3MHA-11 | 2026-09-03 10:48:30 | 47.35463 | 11.64838 | 122° | 26km/h | 19715m | 3.9m/s | -55.9°C | 4.2% | 61.2hPa | 2.6V | 00:00:00 | 01:20:41 | 00:00:00 | |
| OE5MMP-10 | 2026-09-03 10:48:29 | 47.35466 | 11.64832 | 120° | 26km/h | 19711m | 5.5m/s | -55.9°C | 4.2% | 61.3hPa | 2.6V | 02:48:00 | 01:20:40 | 00:00:00 | |
| BAUMI2-15 | 2026-09-03 10:48:27 | 47.35470 | 11.64819 | 121° | 27km/h | 19700m | 4.5m/s | -55.9°C | 4.1% | 61.4hPa | 2.7V | 02:48:00 | 01:20:38 | 00:00:00 | |
| DL9SK-14 | 2026-09-03 10:48:23 | 47.35488 | 11.64775 | 108° | 27km/h | 19676m | 5.2m/s | -55.8°C | 1.0% | 61.7hPa | 2.6V | 00:00:00 | 00:00:00 | 00:00:00 | |
| DO3MHA-12 | 2026-09-03 10:48:22 | 47.35488 | 11.64775 | 109° | 22km/h | 19676m | 5.1m/s | -55.8°C | 4.1% | 61.6hPa | 2.6V | 00:00:00 | 01:20:33 | 00:00:00 | |
| OM5KV | 2026-09-03 10:48:21 | 47.35488 | 11.64775 | 109° | 27km/h | 19676m | 5.2m/s | -55.8°C | 1.0% | 61.7hPa | 2.6V | 02:49:00 | 00:00:00 | 00:00:00 | |
| DO3MHA-11 | 2026-09-03 10:48:20 | 47.35492 | 11.64755 | 107° | 20km/h | 19666m | 5.9m/s | -55.7°C | 4.2% | 61.7hPa | 2.6V | 02:49:00 | 01:20:31 | 00:00:00 | |
| OE5MMP-10 | 2026-09-03 10:48:19 | 47.35494 | 11.64745 | 109° | 18km/h | 19661m | 4.2m/s | -55.6°C | 4.2% | 61.7hPa | 2.7V | 00:00:00 | 01:20:30 | 00:00:00 | |
| OM5KV | 2026-09-03 10:48:18 | 47.35494 | 11.64745 | 110° | 27km/h | 19661m | 4.2m/s | -55.7°C | 1.0% | 61.8hPa | 2.7V | 02:49:00 | 00:00:00 | 00:00:00 | |
| OE5WHR-10 | 2026-09-03 10:48:17 | 47.35498 | 11.64729 | 111° | 16km/h | 19651m | 5.3m/s | -55.6°C | 4.2% | 61.8hPa | 2.7V | 00:00:00 | 01:20:28 | 00:00:00 | |
| OE5DRO-10 | 2026-09-03 10:48:16 | 47.35500 | 11.64723 | 116° | 16km/h | 19646m | 4.3m/s | -55.6°C | 4.1% | 61.9hPa | 2.7V | 00:00:00 | 00:00:00 | 00:00:00 | |
| IN3IJJ | 2026-09-03 10:48:15 | 47.35499 | 11.64723 | 116° | 16km/h | 19646m | 4.4m/s | 0°C | 0% | 0hPa | 2.7V | 02:49:00 | 00:00:00 | 00:00:00 | |
| DO3MHA-12 | 2026-09-03 10:48:12 | 47.35510 | 11.64704 | 128° | 18km/h | 19626m | 6.0m/s | -55.5°C | 4.1% | 62.1hPa | 2.7V | 00:00:00 | 01:20:23 | 00:00:00 | |
| DG1MFX-10 | 2026-09-03 10:48:11 | 47.35509 | 11.64704 | 128° | 16km/h | 19626m | 6.0m/s | -55.6°C | 1.0% | 62.1hPa | 2.7V | 02:49:00 | 00:00:00 | 00:00:00 | |
| DO3MHA-11 | 2026-09-03 10:48:10 | 47.35514 | 11.64693 | 121° | 18km/h | 19616m | 5.8m/s | -55.6°C | 4.0% | 62.2hPa | 2.7V | 00:00:00 | 01:20:21 | 00:00:00 | |
| OE5MMP-10 | 2026-09-03 10:48:09 | 47.35517 | 11.64686 | 119° | 18km/h | 19611m | 4.3m/s | -55.6°C | 4.1% | 62.3hPa | 2.7V | 00:00:00 | 01:20:20 | 00:00:00 | |
| DH7VM-15 | 2026-09-03 10:48:08 | 47.35517 | 11.64686 | 119° | 24km/h | 19611m | 4.3m/s | -55.6°C | 1.0% | 62.3hPa | 2.7V | 00:00:00 | 00:00:00 | 00:00:00 | |
| BAUMI2-15 | 2026-09-03 10:48:07 | 47.35522 | 11.64670 | 112° | 18km/h | 19602m | 5.4m/s | -55.6°C | 4.0% | 62.3hPa | 2.7V | 00:00:00 | 01:20:18 | 00:00:00 | |
| S52SK | 2026-09-03 10:48:06 | 47.35522 | 11.64670 | 112° | 22km/h | 19602m | 5.5m/s | -55.6°C | 1.0% | 62.4hPa | 2.7V | 00:00:00 | 00:00:00 | 00:00:00 | |
| OE5DXL-15 | 2026-09-03 10:48:05 | 47.35525 | 11.64657 | 115° | 16km/h | 19592m | 5.1m/s | -55.6°C | 4.1% | 62.4hPa | 2.7V | 00:00:00 | 00:00:00 | 00:00:00 | |
| OE3JTB-15 | 2026-09-03 10:48:04 | 47.35527 | 11.64652 | 126° | 16km/h | 19586m | 5.7m/s | -55.6°C | 4.1% | 62.5hPa | 2.7V | 02:49:00 | 00:00:00 | 00:00:00 | |
| BAUMI2-15 | 2026-09-03 10:48:02 | 47.35533 | 11.64644 | 147° | 13km/h | 19576m | 6.1m/s | -55.5°C | 4.1% | 62.6hPa | 2.6V | 00:00:00 | 01:20:13 | 00:00:00 | |
| OM5KV | 2026-09-03 10:48:01 | 47.35533 | 11.64644 | 148° | 13km/h | 19576m | 6.2m/s | -55.5°C | 1.0% | 62.6hPa | 2.6V | 02:49:00 | 00:00:00 | 00:00:00 | |
| DL9SK-14 | 2026-09-03 10:47:51 | 47.35561 | 11.64606 | 137° | 18km/h | 19523m | 5.6m/s | -55.5°C | 1.0% | 63.2hPa | 2.6V | 00:00:00 | 00:00:00 | 00:00:00 | |
| DL6DJ-15 | 2026-09-03 10:47:45 | 47.35593 | 11.64585 | 169° | 18km/h | 19487m | 3.4m/s | -55.3°C | 1.0% | 63.5hPa | 2.6V | 00:00:00 | 00:00:00 | 00:00:00 | |
| DO3MHA-12 | 2026-09-03 10:47:42 | 47.35603 | 11.64582 | 163° | 18km/h | 19478m | 4.3m/s | -55.3°C | 4.0% | 63.6hPa | 2.6V | 00:00:00 | 01:19:53 | 00:00:00 | |
| DB0UT-7 | 2026-09-03 10:47:40 | 47.35611 | 11.64576 | 154° | 20km/h | 19468m | 4.6m/s | -55.4°C | 4.0% | 63.6hPa | 2.6V | 00:00:00 | 00:00:00 | 00:00:00 | |
| OE5MMP-10 | 2026-09-03 10:47:39 | 47.35615 | 11.64574 | 152° | 18km/h | 19463m | 4.9m/s | -55.4°C | 4.0% | 63.7hPa | 2.6V | 00:00:00 | 01:19:50 | 00:00:00 | |
| OE5DRO-10 | 2026-09-03 10:47:38 | 47.35618 | 11.64571 | 150° | 22km/h | 19458m | 6.0m/s | -55.4°C | 4.1% | 63.8hPa | 2.6V | 00:00:00 | 00:00:00 | 00:00:00 | |
| BAUMI2-15 | 2026-09-03 10:47:37 | 47.35623 | 11.64567 | 147° | 18km/h | 19453m | 4.1m/s | -55.5°C | 4.1% | 63.8hPa | 2.6V | 00:00:00 | 01:19:48 | 00:00:00 | |
| OE5DXL-15 | 2026-09-03 10:47:35 | 47.35630 | 11.64559 | 139° | 22km/h | 19443m | 5.0m/s | -55.5°C | 4.1% | 63.9hPa | 2.6V | 00:00:00 | 00:00:00 | 00:00:00 | |
| NBG1-10 | 2026-09-03 10:47:32 | 47.35640 | 11.64546 | 146° | 22km/h | 19428m | 5.3m/s | -55.6°C | 4.2% | 64.1hPa | 2.6V | 02:49:00 | 01:19:43 | 00:00:00 | |
| OM5KV | 2026-09-03 10:47:31 | 47.35640 | 11.64546 | 146° | 20km/h | 19428m | 5.4m/s | -55.7°C | 1.0% | 64.1hPa | 2.7V | 02:50:00 | 00:00:00 | 00:00:00 | |
| DO3MHA-11 | 2026-09-03 10:47:30 | 47.35649 | 11.64538 | 154° | 24km/h | 19417m | 6.0m/s | -55.7°C | 4.1% | 64.2hPa | 2.7V | 00:00:00 | 01:19:41 | 00:00:00 | |
| OE5MMP-10 | 2026-09-03 10:47:29 | 47.35653 | 11.64536 | 160° | 24km/h | 19412m | 4.6m/s | -55.7°C | 4.1% | 64.2hPa | 2.7V | 02:49:00 | 01:19:40 | 00:00:00 | |
| IN3HCDX | 2026-09-03 10:47:28 | 47.35658 | 11.64533 | 163° | 24km/h | 19407m | 6.0m/s | -55.7°C | 1.1% | 64.3hPa | 2.6V | 02:50:00 | 00:00:00 | 00:00:00 | |
| BAUMI2-15 | 2026-09-03 10:47:27 | 47.35664 | 11.64530 | 163° | 26km/h | 19401m | 4.7m/s | -55.6°C | 4.1% | 64.4hPa | 2.6V | 02:49:00 | 01:19:38 | 00:00:00 | |
| OM5KV | 2026-09-03 10:47:26 | 47.35664 | 11.64530 | 164° | 26km/h | 19401m | 4.8m/s | -55.7°C | 1.0% | 64.4hPa | 2.7V | 02:50:00 | 00:00:00 | 00:00:00 | |
| DK5PH-5 | 2026-09-03 10:47:25 | 47.35677 | 11.64524 | 161° | 26km/h | 19392m | 5.7m/s | 0°C | 0% | 0hPa | 2.7V | 00:00:00 | 01:19:36 | 00:00:00 | |
| OM5KV | 2026-09-03 10:47:24 | 47.35677 | 11.64524 | 161° | 26km/h | 19392m | 5.8m/s | -55.7°C | 1.0% | 64.5hPa | 2.7V | 02:50:00 | 00:00:00 | 00:00:00 | |
| OM5KV | 2026-09-03 10:47:22 | 47.35694 | 11.64512 | 151° | 26km/h | 19375m | 4.4m/s | -55.7°C | 1.0% | 64.6hPa | 2.7V | 02:50:00 | 00:00:00 | 00:00:00 | |
| DO3MHA-11 | 2026-09-03 10:47:20 | 47.35704 | 11.64503 | 144° | 20km/h | 19365m | 6.0m/s | -55.6°C | 4.0% | 64.7hPa | 2.7V | 02:50:00 | 01:19:31 | 00:00:00 | |
| OE5MMP-10 | 2026-09-03 10:47:19 | 47.35708 | 11.64498 | 142° | 20km/h | 19359m | 4.8m/s | -55.6°C | 4.1% | 64.7hPa | 2.7V | 00:00:00 | 01:19:30 | 00:00:00 | |
| S52SK | 2026-09-03 10:47:17 | 47.35712 | 11.64494 | 145° | 20km/h | 19354m | 5.8m/s | -55.6°C | 1.0% | 64.9hPa | 2.7V | 00:00:00 | 00:00:00 | 00:00:00 | |
| OM5KV | 2026-09-03 10:47:15 | 47.35720 | 11.64485 | 138° | 18km/h | 19344m | 6.3m/s | -55.6°C | 1.0% | 65.0hPa | 2.7V | 02:50:00 | 00:00:00 | 00:00:00 | |
| DL6DJ-15 | 2026-09-03 10:47:14 | 47.35730 | 11.64470 | 139° | 22km/h | 19327m | 5.4m/s | -55.7°C | 1.0% | 65.1hPa | 2.7V | 00:00:00 | 00:00:00 | 00:00:00 | |
| DO3MHA-12 | 2026-09-03 10:47:12 | 47.35735 | 11.64464 | 139° | 24km/h | 19322m | 4.9m/s | -55.7°C | 4.1% | 65.1hPa | 2.7V | 00:00:00 | 01:19:23 | 00:00:00 | |
| DO3MHA-11 | 2026-09-03 10:47:10 | 47.35743 | 11.64453 | 137° | 24km/h | 19311m | 4.5m/s | -55.8°C | 4.1% | 65.2hPa | 2.7V | 00:00:00 | 01:19:21 | 00:00:00 | |
| OE5MMP-10 | 2026-09-03 10:47:09 | 47.35747 | 11.64447 | 140° | 24km/h | 19305m | 6.3m/s | -56.0°C | 4.2% | 65.3hPa | 2.7V | 00:00:00 | 01:19:20 | 00:00:00 | |
| S52SK | 2026-09-03 10:47:07 | 47.35752 | 11.64440 | 142° | 26km/h | 19300m | 4.5m/s | -56.0°C | 1.0% | 65.4hPa | 2.7V | 00:00:00 | 00:00:00 | 00:00:00 | |
| OE3JTB-15 | 2026-09-03 10:47:06 | 47.35762 | 11.64428 | 131° | 22km/h | 19291m | 5.7m/s | -56.1°C | 4.2% | 65.5hPa | 2.7V | 00:00:00 | 01:19:17 | 00:00:00 | |
| OE5DXL-15 | 2026-09-03 10:47:05 | 47.35765 | 11.64421 | 119° | 22km/h | 19285m | 5.9m/s | -56.1°C | 4.2% | 65.5hPa | 2.7V | 02:50:00 | 00:00:00 | 00:00:00 | |
| DO3MHA-12 | 2026-09-03 10:47:02 | 47.35771 | 11.64397 | 111° | 24km/h | 19269m | 4.9m/s | -56.2°C | 4.3% | 65.7hPa | 2.6V | 02:50:00 | 01:19:13 | 00:00:00 | |
| DO3MHA-11 | 2026-09-03 10:47:00 | 47.35775 | 11.64381 | 115° | 24km/h | 19258m | 5.8m/s | -56.2°C | 4.3% | 65.8hPa | 2.7V | 00:00:00 | 01:19:11 | 00:00:00 | |
| OE5MMP-10 | 2026-09-03 10:46:59 | 47.35778 | 11.64374 | 124° | 24km/h | 19253m | 4.2m/s | -56.2°C | 4.3% | 65.9hPa | 2.7V | 02:50:00 | 01:19:10 | 00:00:00 | |
| DG1MJG | 2026-09-03 10:46:58 | 47.35778 | 11.64374 | 125° | 20km/h | 19253m | 4.2m/s | -56.2°C | 1.1% | 65.9hPa | 2.6V | 02:50:00 | 00:00:00 | 00:00:00 | |
| NBG1-10 | 2026-09-03 10:46:57 | 47.35785 | 11.64362 | 139° | 20km/h | 19242m | 5.3m/s | -56.1°C | 4.3% | 66.0hPa | 2.6V | 00:00:00 | 01:19:08 | 00:00:00 | |
| OM5KV | 2026-09-03 10:46:56 | 47.35785 | 11.64362 | 139° | 24km/h | 19242m | 5.3m/s | -56.2°C | 1.1% | 66.0hPa | 2.6V | 02:50:00 | 00:00:00 | 00:00:00 | |
| OM5KV | 2026-09-03 10:46:55 | 47.35789 | 11.64357 | 138° | 24km/h | 19237m | 4.9m/s | -56.1°C | 1.1% | 66.1hPa | 2.6V | 02:50:00 | 00:00:00 | 00:00:00 | |
| OE5WHR-10 | 2026-09-03 10:46:53 | 47.35802 | 11.64337 | 134° | 20km/h | 19220m | 6.2m/s | -55.9°C | 4.3% | 66.2hPa | 2.6V | 02:50:00 | 00:00:00 | 00:00:00 | |
| DO3MHA-12 | 2026-09-03 10:46:52 | 47.35806 | 11.64330 | 131° | 18km/h | 19215m | 4.8m/s | -55.8°C | 4.3% | 66.3hPa | 2.6V | 00:00:00 | 01:19:03 | 00:00:00 | |
| DG1MFX-10 | 2026-09-03 10:46:50 | 47.35815 | 11.64308 | 115° | 20km/h | 19198m | 4.9m/s | -55.8°C | 1.1% | 66.5hPa | 2.6V | 02:51:00 | 00:00:00 | 00:00:00 | |
| OM5KV | 2026-09-03 10:46:45 | 47.35822 | 11.64292 | 125° | 15km/h | 19182m | 5.7m/s | -55.7°C | 1.0% | 66.6hPa | 2.6V | 02:51:00 | 00:00:00 | 00:00:00 | |
| DO3MHA-12 | 2026-09-03 10:46:42 | 47.35832 | 11.64272 | 133° | 20km/h | 19159m | 5.6m/s | -55.8°C | 4.2% | 66.8hPa | 2.6V | 00:00:00 | 01:18:53 | 00:00:00 | |
| OE5DRO-10 | 2026-09-03 10:46:41 | 47.35835 | 11.64267 | 127° | 20km/h | 19153m | 6.4m/s | -55.8°C | 4.2% | 66.9hPa | 2.6V | 00:00:00 | 00:00:00 | 00:00:00 | |
| DO3MHA-11 | 2026-09-03 10:46:40 | 47.35837 | 11.64260 | 118° | 20km/h | 19147m | 5.5m/s | -55.8°C | 4.2% | 67.0hPa | 2.6V | 00:00:00 | 01:18:51 | 00:00:00 | |
| OE5MMP-10 | 2026-09-03 10:46:39 | 47.35840 | 11.64253 | 116° | 20km/h | 19142m | 4.2m/s | -55.8°C | 4.3% | 67.0hPa | 2.6V | 00:00:00 | 01:18:50 | 00:00:00 | |
| OE3JTB-15 | 2026-09-03 10:46:37 | 47.35846 | 11.64238 | 124° | 18km/h | 19130m | 5.3m/s | -55.7°C | 4.2% | 67.1hPa | 2.6V | 02:50:00 | 00:00:00 | 00:00:00 | |
| OE5DXL-15 | 2026-09-03 10:46:35 | 47.35851 | 11.64224 | 109° | 18km/h | 19119m | 6.7m/s | -55.6°C | 4.2% | 67.2hPa | 2.6V | 00:00:00 | 00:00:00 | 00:00:00 | |
| OM5KV | 2026-09-03 10:46:33 | 47.35852 | 11.64217 | 98° | 18km/h | 19113m | 4.9m/s | -55.7°C | 0% | 0hPa | 2.6V | 02:51:00 | 00:00:00 | 00:00:00 | |
| DO3MHA-12 | 2026-09-03 10:46:32 | 47.35853 | 11.64203 | 95° | 20km/h | 19102m | 5.6m/s | -55.6°C | 4.2% | 67.4hPa | 2.6V | 02:50:00 | 01:18:43 | 00:00:00 | |
| DO3MHA-11 | 2026-09-03 10:46:30 | 47.35853 | 11.64190 | 91° | 18km/h | 19092m | 5.5m/s | -55.5°C | 4.1% | 67.5hPa | 2.6V | 00:00:00 | 01:18:41 | 00:00:00 | |
| OE5MMP-10 | 2026-09-03 10:46:29 | 47.35853 | 11.64183 | 86° | 18km/h | 19087m | 5.8m/s | -55.5°C | 4.2% | 67.6hPa | 2.6V | 02:50:00 | 01:18:40 | 00:00:00 | |
| DG1MFX-10 | 2026-09-03 10:46:28 | 47.35853 | 11.64183 | 86° | 22km/h | 19087m | 5.9m/s | -55.5°C | 1.1% | 67.6hPa | 2.7V | 02:51:00 | 00:00:00 | 00:00:00 | |
| OM5KV | 2026-09-03 10:46:27 | 47.35852 | 11.64175 | 87° | 22km/h | 19081m | 5.1m/s | -55.5°C | 1.1% | 67.7hPa | 2.7V | 02:51:00 | 00:00:00 | 00:00:00 | |
| IN3HCDX | 2026-09-03 10:46:24 | 47.35853 | 11.64152 | 97° | 20km/h | 19065m | 5.7m/s | -55.3°C | 1.1% | 67.9hPa | 2.7V | 02:51:00 | 00:00:00 | 00:00:00 | |
| DO3MHA-12 | 2026-09-03 10:46:22 | 47.35855 | 11.64132 | 101° | 15km/h | 19048m | 5.6m/s | -55.1°C | 4.1% | 68.0hPa | 2.7V | 00:00:00 | 01:18:33 | 00:00:00 | |
| OM5KV | 2026-09-03 10:46:21 | 47.35855 | 11.64132 | 101° | 16km/h | 19048m | 5.6m/s | -55.2°C | 0% | 0hPa | 2.7V | 02:51:00 | 00:00:00 | 00:00:00 | |
| DO3MHA-11 | 2026-09-03 10:46:20 | 47.35855 | 11.64121 | 82° | 16km/h | 19038m | 6.5m/s | -55.0°C | 4.1% | 68.1hPa | 2.7V | 02:51:00 | 01:18:31 | 00:00:00 | |
| OE5MMP-10 | 2026-09-03 10:46:19 | 47.35854 | 11.64117 | 67° | 16km/h | 19032m | 4.7m/s | -54.9°C | 4.0% | 68.2hPa | 2.6V | 00:00:00 | 01:18:30 | 00:00:00 | |
| DL9SK-14 | 2026-09-03 10:46:18 | 47.35853 | 11.64112 | 65° | 13km/h | 19026m | 5.9m/s | -54.9°C | 1.0% | 68.3hPa | 2.6V | 00:00:00 | 00:00:00 | 00:00:00 | |
| DB0ND-19 | 2026-09-03 10:46:17 | 47.35852 | 11.64108 | 71° | 13km/h | 19020m | 5.7m/s | 0°C | -1.0% | -1.0hPa | 2.6V | 00:00:00 | 00:00:00 | 00:00:00 | |
| S52SK | 2026-09-03 10:46:15 | 47.35851 | 11.64103 | 76° | 13km/h | 19016m | 4.4m/s | -54.8°C | 1.0% | 68.4hPa | 2.6V | 00:00:00 | 00:00:00 | 00:00:00 | |
| DO3MHA-12 | 2026-09-03 10:46:12 | 47.35847 | 11.64080 | 88° | 18km/h | 18995m | 6.5m/s | -54.7°C | 4.0% | 68.6hPa | 2.6V | 00:00:00 | 01:18:23 | 00:00:00 | |
| OE5WHR-10 | 2026-09-03 10:46:11 | 47.35847 | 11.64072 | 96° | 15km/h | 18989m | 4.9m/s | -54.7°C | 4.0% | 68.7hPa | 2.6V | 00:00:00 | 01:18:22 | 00:00:00 | |
| DB0UT-7 | 2026-09-03 10:46:10 | 47.35847 | 11.64064 | 96° | 15km/h | 18984m | 4.9m/s | -54.7°C | 3.9% | 68.7hPa | 2.6V | 00:00:00 | 01:18:21 | 00:00:00 | |
| OE5MMP-10 | 2026-09-03 10:46:09 | 47.35848 | 11.64056 | 92° | 15km/h | 18979m | 5.7m/s | -54.7°C | 4.0% | 68.7hPa | 2.6V | 00:00:00 | 01:18:20 | 00:00:00 | |
| OE3JTB-15 | 2026-09-03 10:46:08 | 47.35847 | 11.64048 | 88° | 15km/h | 18973m | 4.8m/s | -54.7°C | 4.0% | 68.8hPa | 2.6V | 00:00:00 | 00:00:00 | 00:00:00 | |
| OE5DXL-15 | 2026-09-03 10:46:05 | 47.35848 | 11.64030 | 98° | 15km/h | 18957m | 5.0m/s | -55.0°C | 4.1% | 69.0hPa | 2.6V | 00:00:00 | 00:00:00 | 00:00:00 | |
| IN3HCDX | 2026-09-03 10:46:04 | 47.35848 | 11.64030 | 99° | 13km/h | 18957m | 5.0m/s | -55.1°C | 1.0% | 69.0hPa | 2.6V | 02:51:00 | 00:00:00 | 00:00:00 | |
| OE5DRO-10 | 2026-09-03 10:46:03 | 47.35848 | 11.64021 | 80° | 15km/h | 18946m | 4.9m/s | -55.2°C | 4.1% | 69.1hPa | 2.6V | 02:51:00 | 00:00:00 | 00:00:00 | |
| DO3MHA-12 | 2026-09-03 10:46:02 | 47.35847 | 11.64017 | 85° | 15km/h | 18941m | 4.7m/s | -55.2°C | 4.0% | 69.1hPa | 2.6V | 02:51:00 | 01:18:13 | 00:00:00 | |
| DL9SK-14 | 2026-09-03 10:45:47 | 47.35869 | 11.63948 | 135° | 15km/h | 18859m | 3.6m/s | -54.9°C | 1.0% | 70.1hPa | 2.6V | 00:00:00 | 00:00:00 | 00:00:00 | |
| DB0ND-19 | 2026-09-03 10:45:46 | 47.35875 | 11.63939 | 131° | 18km/h | 18849m | 4.0m/s | 0°C | -1.0% | -1.0hPa | 2.6V | 00:00:00 | 00:00:00 | 00:00:00 | |
| OE5DRO-10 | 2026-09-03 10:45:44 | 47.35878 | 11.63934 | 135° | 20km/h | 18844m | 5.9m/s | -54.8°C | 4.0% | 70.2hPa | 2.6V | 00:00:00 | 00:00:00 | 00:00:00 | |
| IN3HCDX | 2026-09-03 10:45:43 | 47.35878 | 11.63934 | 135° | 18km/h | 18844m | 5.9m/s | -54.9°C | 1.0% | 70.3hPa | 2.6V | 02:52:00 | 00:00:00 | 00:00:00 | |
| DL2OL | 2026-09-03 10:45:42 | 47.35884 | 11.63925 | 142° | 18km/h | 18833m | 5.3m/s | -54.8°C | 1.0% | 70.4hPa | 2.6V | 02:52:00 | 00:00:00 | 00:00:00 | |
| DO3MHA-11 | 2026-09-03 10:45:40 | 47.35892 | 11.63916 | 145° | 22km/h | 18822m | 5.4m/s | -54.7°C | 3.9% | 70.5hPa | 2.6V | 00:00:00 | 01:17:51 | 00:00:00 | |
| OE3JTB-15 | 2026-09-03 10:45:39 | 47.35896 | 11.63913 | 148° | 26km/h | 18817m | 5.9m/s | -54.6°C | 3.9% | 70.5hPa | 2.6V | 00:00:00 | 01:17:50 | 00:00:00 | |
| OE5DXL-15 | 2026-09-03 10:45:35 | 47.35912 | 11.63897 | 147° | 27km/h | 18796m | 4.4m/s | -54.7°C | 3.9% | 70.8hPa | 2.6V | 02:51:00 | 00:00:00 | 00:00:00 | |
| DO3MHA-12 | 2026-09-03 10:45:32 | 47.35928 | 11.63886 | 162° | 24km/h | 18780m | 4.3m/s | -54.9°C | 4.0% | 70.9hPa | 2.6V | 02:51:00 | 01:17:43 | 00:00:00 | |
| OM5KV | 2026-09-03 10:45:31 | 47.35928 | 11.63886 | 162° | 24km/h | 18780m | 4.4m/s | 0°C | 0% | 0hPa | 2.7V | 02:52:00 | 00:00:00 | 00:00:00 | |
| DO3MHA-11 | 2026-09-03 10:45:30 | 47.35940 | 11.63879 | 151° | 26km/h | 18769m | 5.1m/s | -54.9°C | 4.0% | 71.1hPa | 2.7V | 00:00:00 | 01:17:41 | 00:00:00 | |
| OE5MMP-10 | 2026-09-03 10:45:29 | 47.35945 | 11.63874 | 148° | 26km/h | 18764m | 4.7m/s | -54.9°C | 3.9% | 71.1hPa | 2.7V | 02:51:00 | 01:17:40 | 00:00:00 | |
| DG1MFX-10 | 2026-09-03 10:45:28 | 47.35945 | 11.63874 | 148° | 24km/h | 18764m | 4.8m/s | -55.0°C | 1.0% | 71.2hPa | 2.7V | 02:52:00 | 00:00:00 | 00:00:00 | |
| OM5KV | 2026-09-03 10:45:26 | 47.35954 | 11.63866 | 147° | 20km/h | 18753m | 4.5m/s | 0°C | 0% | 71.3hPa | 2.7V | 00:00:00 | 00:00:00 | 00:00:00 | |
| OE5DRO-10 | 2026-09-03 10:45:25 | 47.35962 | 11.63856 | 139° | 29km/h | 18741m | 4.9m/s | -54.9°C | 3.9% | 71.4hPa | 2.7V | 00:00:00 | 00:00:00 | 00:00:00 | |
| DO3MHA-12 | 2026-09-03 10:45:22 | 47.35979 | 11.63840 | 151° | 33km/h | 18725m | 5.4m/s | -55.0°C | 3.9% | 71.5hPa | 2.7V | 00:00:00 | 01:17:33 | 00:00:00 | |
| DO3MHA-11 | 2026-09-03 10:45:20 | 47.35994 | 11.63828 | 155° | 31km/h | 18714m | 4.6m/s | -55.1°C | 3.9% | 71.7hPa | 2.7V | 02:52:00 | 01:17:31 | 00:00:00 | |
| OE5MMP-10 | 2026-09-03 10:45:19 | 47.36003 | 11.63822 | 159° | 29km/h | 18709m | 5.6m/s | -55.2°C | 4.0% | 71.7hPa | 2.6V | 00:00:00 | 01:17:30 | 00:00:00 | |
| BAUMI2-15 | 2026-09-03 10:45:17 | 47.36020 | 11.63811 | 154° | 31km/h | 18699m | 5.8m/s | -55.3°C | 4.0% | 71.8hPa | 2.6V | 00:00:00 | 01:17:28 | 00:00:00 | |
| DL9SK-14 | 2026-09-03 10:45:16 | 47.36028 | 11.63805 | 147° | 33km/h | 18693m | 5.0m/s | -55.4°C | 1.0% | 71.9hPa | 2.6V | 00:00:00 | 00:00:00 | 00:00:00 | |
| OM5KV | 2026-09-03 10:45:13 | 47.36041 | 11.63792 | 144° | 27km/h | 18683m | 5.2m/s | 0°C | 0% | 72.1hPa | 2.6V | 00:00:00 | 00:00:00 | 00:00:00 | |
| DO3MHA-12 | 2026-09-03 10:45:12 | 47.36050 | 11.63780 | 136° | 26km/h | 18674m | 5.4m/s | -55.5°C | 4.1% | 72.1hPa | 2.6V | 00:00:00 | 01:17:23 | 00:00:00 | |
| DO3MHA-11 | 2026-09-03 10:45:10 | 47.36058 | 11.63767 | 133° | 27km/h | 18663m | 5.4m/s | -55.6°C | 4.1% | 72.3hPa | 2.6V | 00:00:00 | 01:17:21 | 00:00:00 | |
| OE5MMP-10 | 2026-09-03 10:45:09 | 47.36062 | 11.63761 | 141° | 27km/h | 18657m | 5.6m/s | -55.6°C | 4.1% | 72.3hPa | 2.6V | 00:00:00 | 01:17:20 | 00:00:00 | |
| OE5WHR-10 | 2026-09-03 10:45:08 | 47.36067 | 11.63756 | 148° | 29km/h | 18653m | 3.4m/s | -55.6°C | 4.1% | 72.4hPa | 2.6V | 00:00:00 | 01:17:19 | 00:00:00 | |
| BAUMI2-15 | 2026-09-03 10:45:07 | 47.36073 | 11.63751 | 147° | 27km/h | 18648m | 5.7m/s | -55.5°C | 4.1% | 72.4hPa | 2.6V | 00:00:00 | 01:17:18 | 00:00:00 | |
| OE5DRO-10 | 2026-09-03 10:45:06 | 47.36078 | 11.63745 | 144° | 31km/h | 18642m | 5.1m/s | -55.5°C | 4.1% | 72.5hPa | 2.6V | 02:52:00 | 00:00:00 | 00:00:00 | |
| OE5DXL-15 | 2026-09-03 10:45:05 | 47.36084 | 11.63739 | 147° | 35km/h | 18637m | 4.8m/s | -55.5°C | 4.1% | 72.5hPa | 2.6V | 00:00:00 | 00:00:00 | 00:00:00 | |
| OM5KV | 2026-09-03 10:45:01 | 47.36103 | 11.63724 | 153° | 29km/h | 18622m | 5.5m/s | 0°C | 0% | 0hPa | 2.6V | 02:53:00 | 00:00:00 | 00:00:00 | |
| DO3MHA-11 | 2026-09-03 10:45:00 | 47.36116 | 11.63712 | 144° | 31km/h | 18611m | 4.4m/s | -55.5°C | 4.0% | 72.9hPa | 2.6V | 00:00:00 | 01:17:11 | 00:00:00 | |
| OE5MMP-10 | 2026-09-03 10:44:59 | 47.36122 | 11.63706 | 147° | 31km/h | 18606m | 6.0m/s | -55.5°C | 4.1% | 72.9hPa | 2.6V | 02:52:00 | 01:17:10 | 00:00:00 | |
| BAUMI2-15 | 2026-09-03 10:44:57 | 47.36135 | 11.63695 | 154° | 29km/h | 18595m | 4.2m/s | -55.4°C | 4.1% | 73.0hPa | 2.7V | 02:52:00 | 01:17:08 | 00:00:00 | |
| DG1MJG | 2026-09-03 10:44:55 | 47.36142 | 11.63690 | 152° | 29km/h | 18590m | 6.2m/s | -55.5°C | 1.0% | 73.1hPa | 2.6V | 02:53:00 | 00:00:00 | 00:00:00 | |
| OM5KV | 2026-09-03 10:44:54 | 47.36148 | 11.63684 | 152° | 29km/h | 18585m | 4.6m/s | 0°C | 0% | 0hPa | 2.6V | 02:53:00 | 00:00:00 | 00:00:00 | |
| DO3MHA-12 | 2026-09-03 10:44:52 | 47.36169 | 11.63672 | 162° | 35km/h | 18569m | 4.3m/s | -55.3°C | 4.1% | 73.3hPa | 2.6V | 00:00:00 | 01:17:03 | 00:00:00 | |
| DO3MHA-11 | 2026-09-03 10:44:50 | 47.36184 | 11.63662 | 151° | 37km/h | 18558m | 4.8m/s | -55.3°C | 4.1% | 73.5hPa | 2.6V | 02:52:00 | 01:17:01 | 00:00:00 | |
| OE5MMP-10 | 2026-09-03 10:44:49 | 47.36192 | 11.63655 | 148° | 37km/h | 18553m | 4.0m/s | -55.3°C | 4.0% | 73.5hPa | 2.6V | 00:00:00 | 01:17:00 | 00:00:00 | |
| OE5WHR-10 | 2026-09-03 10:44:47 | 47.36206 | 11.63642 | 148° | 42km/h | 18543m | 4.9m/s | -55.4°C | 4.0% | 73.6hPa | 2.6V | 02:52:00 | 00:00:00 | 00:00:00 | |
| DG1MFX-10 | 2026-09-03 10:44:46 | 47.36206 | 11.63642 | 148° | 33km/h | 18543m | 5.0m/s | -55.4°C | 1.1% | 73.7hPa | 2.6V | 02:53:00 | 00:00:00 | 00:00:00 | |
| DF1GD-15 | 2026-09-03 10:44:44 | 47.36220 | 11.63627 | 141° | 35km/h | 18532m | 4.8m/s | -55.5°C | 1.1% | 73.8hPa | 2.6V | 02:53:00 | 00:00:00 | 00:00:00 | |
| NBG1-10 | 2026-09-03 10:44:43 | 47.36235 | 11.63610 | 148° | 46km/h | 18521m | 5.6m/s | -55.5°C | 4.0% | 73.9hPa | 2.6V | 00:00:00 | 01:16:54 | 00:00:00 | |
| DO3MHA-12 | 2026-09-03 10:44:42 | 47.36243 | 11.63603 | 152° | 46km/h | 18517m | 3.9m/s | -55.5°C | 4.0% | 73.9hPa | 2.6V | 00:00:00 | 01:16:53 | 00:00:00 | |
| OE3JTB-15 | 2026-09-03 10:44:41 | 47.36252 | 11.63596 | 150° | 46km/h | 18511m | 5.9m/s | -55.5°C | 4.0% | 74.0hPa | 2.6V | 00:00:00 | 00:00:00 | 00:00:00 | |
| DO3MHA-11 | 2026-09-03 10:44:40 | 47.36261 | 11.63588 | 150° | 46km/h | 18506m | 5.2m/s | -55.5°C | 4.0% | 74.1hPa | 2.6V | 00:00:00 | 01:16:51 | 00:00:00 | |
| OE5MMP-10 | 2026-09-03 10:44:39 | 47.36271 | 11.63580 | 153° | 46km/h | 18500m | 5.6m/s | -55.5°C | 4.1% | 74.1hPa | 2.6V | 00:00:00 | 01:16:50 | 00:00:00 | |
| DL6DJ-15 | 2026-09-03 10:44:38 | 47.36282 | 11.63572 | 153° | 44km/h | 18495m | 4.4m/s | -55.5°C | 1.1% | 74.2hPa | 2.6V | 00:00:00 | 00:00:00 | 00:00:00 | |
| BAUMI2-15 | 2026-09-03 10:44:37 | 47.36292 | 11.63564 | 152° | 47km/h | 18491m | 3.2m/s | -55.5°C | 4.1% | 74.2hPa | 2.6V | 00:00:00 | 01:16:48 | 00:00:00 | |
| OE5DXL-15 | 2026-09-03 10:44:35 | 47.36312 | 11.63546 | 145° | 46km/h | 18482m | 5.2m/s | -55.5°C | 4.1% | 74.4hPa | 2.6V | 00:00:00 | 00:00:00 | 00:00:00 | |
| DO3MHA-12 | 2026-09-03 10:44:32 | 47.36341 | 11.63514 | 142° | 46km/h | 18467m | 4.4m/s | -55.5°C | 4.1% | 74.5hPa | 2.6V | 02:52:00 | 01:16:43 | 00:00:00 | |
| DO3MHA-11 | 2026-09-03 10:44:30 | 47.36358 | 11.63491 | 137° | 46km/h | 18456m | 4.2m/s | -55.5°C | 4.1% | 74.7hPa | 2.7V | 00:00:00 | 01:16:41 | 00:00:00 | |
| OE5MMP-10 | 2026-09-03 10:44:29 | 47.36367 | 11.63480 | 139° | 46km/h | 18452m | 4.5m/s | -55.6°C | 4.1% | 74.7hPa | 2.7V | 02:52:00 | 01:16:40 | 00:00:00 | |
| OE5DRO-10 | 2026-09-03 10:44:28 | 47.36375 | 11.63469 | 143° | 46km/h | 18447m | 5.6m/s | -55.6°C | 4.0% | 74.8hPa | 2.6V | 00:00:00 | 00:00:00 | 00:00:00 | |
| BAUMI2-15 | 2026-09-03 10:44:27 | 47.36385 | 11.63460 | 147° | 47km/h | 18442m | 4.2m/s | -55.7°C | 4.1% | 74.8hPa | 2.6V | 02:52:00 | 01:16:38 | 00:00:00 | |
| OE5WHR-10 | 2026-09-03 10:44:26 | 47.36395 | 11.63450 | 146° | 46km/h | 18437m | 6.0m/s | -55.7°C | 4.1% | 74.9hPa | 2.6V | 00:00:00 | 00:00:00 | 00:00:00 | |
| DG1MJG | 2026-09-03 10:44:25 | 47.36395 | 11.63450 | 147° | 47km/h | 18437m | 6.1m/s | -55.8°C | 1.0% | 74.9hPa | 2.6V | 02:53:00 | 00:00:00 | 00:00:00 | |
| DF1GD-15 | 2026-09-03 10:44:24 | 47.36405 | 11.63440 | 146° | 47km/h | 18431m | 4.8m/s | -55.8°C | 1.1% | 75.0hPa | 2.6V | 02:53:00 | 00:00:00 | 00:00:00 | |
| DO3MHA-12 | 2026-09-03 10:44:22 | 47.36435 | 11.63412 | 150° | 46km/h | 18416m | 4.5m/s | -55.7°C | 4.1% | 75.1hPa | 2.6V | 00:00:00 | 01:16:33 | 00:00:00 | |
| DO3MHA-11 | 2026-09-03 10:44:20 | 47.36454 | 11.63392 | 141° | 46km/h | 18405m | 4.7m/s | -55.7°C | 4.1% | 75.3hPa | 2.6V | 02:53:00 | 01:16:31 | 00:00:00 | |
| OE5MMP-10 | 2026-09-03 10:44:19 | 47.36463 | 11.63381 | 139° | 46km/h | 18401m | 4.3m/s | -55.7°C | 4.1% | 75.3hPa | 2.7V | 00:00:00 | 01:16:30 | 00:00:00 | |
| OM5KV | 2026-09-03 10:44:18 | 47.36463 | 11.63381 | 139° | 46km/h | 18401m | 4.4m/s | 0°C | 0% | 0hPa | 2.7V | 02:53:00 | 00:00:00 | 00:00:00 | |
| BAUMI2-15 | 2026-09-03 10:44:17 | 47.36480 | 11.63358 | 139° | 47km/h | 18391m | 4.1m/s | -55.7°C | 4.2% | 75.4hPa | 2.7V | 00:00:00 | 01:16:28 | 00:00:00 | |
| OM5KV | 2026-09-03 10:44:16 | 47.36480 | 11.63358 | 140° | 46km/h | 18391m | 4.1m/s | 0°C | 0% | 0hPa | 2.7V | 00:00:00 | 00:00:00 | 00:00:00 | |
| DL9SK-14 | 2026-09-03 10:44:14 | 47.36506 | 11.63322 | 133° | 47km/h | 18376m | 5.0m/s | -55.7°C | 1.1% | 75.7hPa | 2.7V | 00:00:00 | 00:00:00 | 00:00:00 | |
| OE3JTB-15 | 2026-09-03 10:44:12 | 47.36522 | 11.63298 | 137° | 47km/h | 18366m | 4.9m/s | -55.7°C | 4.1% | 75.7hPa | 2.7V | 00:00:00 | 01:16:23 | 00:00:00 | |
| DB0UT-7 | 2026-09-03 10:44:10 | 47.36539 | 11.63274 | 136° | 47km/h | 18356m | 5.7m/s | -55.8°C | 4.2% | 75.9hPa | 2.7V | 00:00:00 | 01:16:21 | 00:00:00 | |
| PG1ADW-2 | 2026-09-03 10:44:09 | 47.36547 | 11.63262 | 136° | 49km/h | 18350m | 4.4m/s | -55.8°C | 4.2% | 75.9hPa | 2.7V | 02:53:00 | 00:00:00 | 00:00:00 | |
| BAUMI2-15 | 2026-09-03 10:44:07 | 47.36564 | 11.63239 | 139° | 51km/h | 18340m | 4.3m/s | -55.8°C | 4.2% | 76.0hPa | 2.7V | 00:00:00 | 01:16:18 | 00:00:00 | |
| OE5DXL-15 | 2026-09-03 10:44:05 | 47.36582 | 11.63214 | 134° | 47km/h | 18330m | 5.1m/s | -55.9°C | 4.2% | 76.2hPa | 2.7V | 02:53:00 | 00:00:00 | 00:00:00 | |
| DF1GD-15 | 2026-09-03 10:44:03 | 47.36591 | 11.63199 | 132° | 55km/h | 18326m | 3.7m/s | -56.0°C | 1.2% | 76.3hPa | 2.6V | 00:00:00 | 00:00:00 | 00:00:00 | |
| BAUMI2-15 | 2026-09-03 10:44:02 | 47.36609 | 11.63169 | 133° | 53km/h | 18316m | 4.8m/s | -55.9°C | 4.3% | 76.3hPa | 2.6V | 00:00:00 | 01:16:13 | 00:00:00 | |
| OM5KV | 2026-09-03 10:44:01 | 47.36609 | 11.63169 | 134° | 55km/h | 18316m | 4.9m/s | 0°C | 0% | 0hPa | 2.6V | 00:00:00 | 00:00:00 | 00:00:00 | |
| DF7PN | 2026-09-03 10:43:50 | 47.36712 | 11.62985 | 126° | 44km/h | 18252m | 4.7m/s | -55.6°C | 1.1% | 77.2hPa | 2.6V | 00:00:00 | 00:00:00 | 00:00:00 | |
| OE5MMP-10 | 2026-09-03 10:43:49 | 47.36712 | 11.62985 | 127° | 46km/h | 18252m | 4.7m/s | -55.6°C | 4.2% | 77.1hPa | 2.6V | 00:00:00 | 01:16:00 | 00:00:00 | |
| BAUMI2-15 | 2026-09-03 10:43:47 | 47.36725 | 11.62958 | 129° | 47km/h | 18242m | 5.9m/s | -55.6°C | 4.2% | 77.2hPa | 2.6V | 00:00:00 | 01:15:58 | 00:00:00 | |
| DG1MFX-10 | 2026-09-03 10:43:45 | 47.36733 | 11.62945 | 133° | 46km/h | 18237m | 4.6m/s | -55.6°C | 1.2% | 77.4hPa | 2.6V | 02:53:00 | 00:00:00 | 00:00:00 | |
| OE5WHR-10 | 2026-09-03 10:43:44 | 47.36749 | 11.62918 | 129° | 42km/h | 18226m | 5.3m/s | -55.4°C | 4.2% | 77.4hPa | 2.6V | 02:53:00 | 00:00:00 | 00:00:00 | |
| DL9SK-14 | 2026-09-03 10:43:43 | 47.36756 | 11.62904 | 129° | 46km/h | 18222m | 4.2m/s | -55.4°C | 1.1% | 77.5hPa | 2.6V | 00:00:00 | 00:00:00 | 00:00:00 | |
| DO3MHA-12 | 2026-09-03 10:43:42 | 47.36764 | 11.62891 | 134° | 40km/h | 18216m | 6.3m/s | -55.3°C | 4.1% | 77.6hPa | 2.6V | 00:00:00 | 01:15:53 | 00:00:00 | |
| DO3MHA-11 | 2026-09-03 10:43:40 | 47.36778 | 11.62868 | 131° | 38km/h | 18206m | 6.0m/s | -55.2°C | 4.1% | 77.7hPa | 2.6V | 00:00:00 | 01:15:51 | 00:00:00 | |
| OE5MMP-10 | 2026-09-03 10:43:39 | 47.36785 | 11.62856 | 130° | 40km/h | 18201m | 3.9m/s | -55.2°C | 4.1% | 77.8hPa | 2.6V | 00:00:00 | 01:15:50 | 00:00:00 | |
| BAUMI2-15 | 2026-09-03 10:43:37 | 47.36797 | 11.62835 | 134° | 38km/h | 18192m | 5.5m/s | -55.2°C | 4.1% | 77.8hPa | 2.6V | 00:00:00 | 01:15:48 | 00:00:00 | |
| NBG1-10 | 2026-09-03 10:43:36 | 47.36804 | 11.62825 | 137° | 38km/h | 18187m | 4.7m/s | -55.1°C | 4.1% | 77.9hPa | 2.6V | 00:00:00 | 01:15:47 | 00:00:00 | |
| OE5DXL-15 | 2026-09-03 10:43:35 | 47.36811 | 11.62816 | 136° | 38km/h | 18182m | 4.6m/s | -55.2°C | 4.0% | 78.0hPa | 2.6V | 00:00:00 | 00:00:00 | 00:00:00 | |
| DO3MHA-12 | 2026-09-03 10:43:32 | 47.36830 | 11.62781 | 126° | 40km/h | 18167m | 5.3m/s | -55.2°C | 4.0% | 78.2hPa | 2.6V | 02:53:00 | 01:15:43 | 00:00:00 | |
| OE5DRO-10 | 2026-09-03 10:43:31 | 47.36836 | 11.62769 | 128° | 40km/h | 18162m | 5.2m/s | -55.2°C | 4.0% | 78.2hPa | 2.7V | 00:00:00 | 00:00:00 | 00:00:00 | |
| DO3MHA-11 | 2026-09-03 10:43:30 | 47.36842 | 11.62757 | 129° | 40km/h | 18157m | 3.5m/s | -55.1°C | 4.0% | 78.3hPa | 2.7V | 00:00:00 | 01:15:41 | 00:00:00 | |
| OE5MMP-10 | 2026-09-03 10:43:29 | 47.36849 | 11.62744 | 127° | 40km/h | 18153m | 5.6m/s | -55.2°C | 4.0% | 78.3hPa | 2.7V | 02:53:00 | 01:15:40 | 00:00:00 | |
| BAUMI2-15 | 2026-09-03 10:43:27 | 47.36862 | 11.62719 | 130° | 40km/h | 18143m | 5.0m/s | -55.3°C | 4.0% | 78.5hPa | 2.6V | 02:53:00 | 01:15:38 | 00:00:00 | |
| DG1MFX-10 | 2026-09-03 10:43:24 | 47.36877 | 11.62697 | 138° | 38km/h | 18133m | 4.6m/s | -55.4°C | 1.2% | 78.7hPa | 2.7V | 00:00:00 | 00:00:00 | 00:00:00 | |
| OE5WHR-10 | 2026-09-03 10:43:23 | 47.36890 | 11.62677 | 136° | 35km/h | 18121m | 4.3m/s | -55.3°C | 4.1% | 78.7hPa | 2.7V | 00:00:00 | 00:00:00 | 00:00:00 | |
| DO3MHA-12 | 2026-09-03 10:43:22 | 47.36898 | 11.62667 | 140° | 38km/h | 18116m | 5.8m/s | -55.4°C | 4.1% | 78.8hPa | 2.7V | 00:00:00 | 01:15:33 | 00:00:00 | |
| DO3MHA-11 | 2026-09-03 10:43:20 | 47.36913 | 11.62648 | 140° | 37km/h | 18107m | 4.4m/s | -55.4°C | 4.2% | 78.9hPa | 2.7V | 02:54:00 | 01:15:31 | 00:00:00 | |
| DF7PN | 2026-09-03 10:43:19 | 47.36928 | 11.62627 | 131° | 40km/h | 18096m | 4.2m/s | 0°C | -1.0% | -1.0hPa | 2.7V | 00:00:00 | 00:00:00 | 00:00:00 | |
| IN3HCDX | 2026-09-03 10:43:16 | 47.36935 | 11.62616 | 132° | 40km/h | 18092m | 4.5m/s | -55.5°C | 1.1% | 79.1hPa | 2.7V | 02:54:00 | 00:00:00 | 00:00:00 | |
| S52SK | 2026-09-03 10:43:14 | 47.36948 | 11.62594 | 134° | 37km/h | 18082m | 4.2m/s | -55.6°C | 1.1% | 79.3hPa | 2.7V | 00:00:00 | 00:00:00 | 00:00:00 | |
| OE3JTB-15 | 2026-09-03 10:43:13 | 47.36959 | 11.62575 | 127° | 31km/h | 18072m | 4.8m/s | -55.6°C | 4.1% | 79.3hPa | 2.7V | 00:00:00 | 00:00:00 | 00:00:00 | |
| DO3MHA-12 | 2026-09-03 10:43:12 | 47.36963 | 11.62567 | 128° | 33km/h | 18067m | 4.5m/s | -55.5°C | 4.0% | 79.4hPa | 2.7V | 00:00:00 | 01:15:23 | 00:00:00 | |
| DO3MHA-11 | 2026-09-03 10:43:10 | 47.36973 | 11.62551 | 135° | 33km/h | 18057m | 4.2m/s | -55.5°C | 4.1% | 79.5hPa | 2.7V | 00:00:00 | 01:15:21 | 00:00:00 | |
| OE5MMP-10 | 2026-09-03 10:43:09 | 47.36978 | 11.62543 | 134° | 33km/h | 18053m | 4.8m/s | -55.5°C | 4.1% | 79.6hPa | 2.7V | 00:00:00 | 01:15:20 | 00:00:00 | |
| OE5DXL-15 | 2026-09-03 10:43:05 | 47.37003 | 11.62506 | 140° | 33km/h | 18033m | 4.5m/s | -55.6°C | 4.3% | 79.8hPa | 2.7V | 00:00:00 | 00:00:00 | 00:00:00 | |
| NBG1-10 | 2026-09-03 10:43:03 | 47.37016 | 11.62488 | 136° | 37km/h | 18023m | 5.0m/s | -55.7°C | 4.3% | 80.0hPa | 2.7V | 00:00:00 | 01:15:14 | 00:00:00 | |
| DO3MHA-12 | 2026-09-03 10:43:02 | 47.37021 | 11.62480 | 138° | 26km/h | 18018m | 4.6m/s | -55.7°C | 4.2% | 80.0hPa | 2.7V | 02:54:00 | 01:15:13 | 00:00:00 | |
| DO3MHA-11 | 2026-09-03 10:43:00 | 47.37033 | 11.62467 | 142° | 27km/h | 18008m | 3.8m/s | -55.8°C | 4.2% | 80.1hPa | 2.6V | 00:00:00 | 01:15:11 | 00:00:00 | |
| OE5MMP-10 | 2026-09-03 10:42:59 | 47.37038 | 11.62460 | 138° | 29km/h | 18003m | 5.8m/s | -55.9°C | 4.1% | 80.2hPa | 2.6V | 02:54:00 | 01:15:10 | 00:00:00 | |
| IN3HCDX | 2026-09-03 10:42:56 | 47.37046 | 11.62448 | 135° | 24km/h | 17993m | 5.8m/s | -55.9°C | 1.2% | 80.4hPa | 2.6V | 02:54:00 | 00:00:00 | 00:00:00 | |
| DG1MJG | 2026-09-03 10:42:53 | 47.37066 | 11.62422 | 145° | 31km/h | 17973m | 4.2m/s | -55.8°C | 1.2% | 80.6hPa | 2.6V | 02:54:00 | 00:00:00 | 00:00:00 | |
| DO3MHA-12 | 2026-09-03 10:42:52 | 47.37072 | 11.62416 | 150° | 35km/h | 17967m | 6.1m/s | -55.7°C | 4.3% | 80.6hPa | 2.6V | 00:00:00 | 01:15:03 | 00:00:00 | |
| DO3MHA-11 | 2026-09-03 10:42:50 | 47.37088 | 11.62403 | 150° | 35km/h | 17957m | 6.2m/s | -55.8°C | 4.3% | 80.8hPa | 2.6V | 02:54:00 | 01:15:01 | 00:00:00 | |
| OE5MMP-10 | 2026-09-03 10:42:49 | 47.37096 | 11.62395 | 149° | 35km/h | 17952m | 4.7m/s | -55.8°C | 4.3% | 80.9hPa | 2.6V | 00:00:00 | 01:15:00 | 00:00:00 | |
| OE3JTB-15 | 2026-09-03 10:42:44 | 47.37132 | 11.62356 | 131° | 49km/h | 17925m | 3.7m/s | -55.7°C | 4.1% | 81.2hPa | 2.6V | 00:00:00 | 01:14:55 | 00:00:00 | |
| DO3MHA-12 | 2026-09-03 10:42:42 | 47.37143 | 11.62339 | 139° | 44km/h | 17915m | 4.4m/s | -55.9°C | 4.2% | 81.3hPa | 2.6V | 00:00:00 | 01:14:53 | 00:00:00 | |
| OE5WHR-10 | 2026-09-03 10:42:41 | 47.37149 | 11.62330 | 141° | 49km/h | 17910m | 5.8m/s | -56.0°C | 4.2% | 81.4hPa | 2.6V | 02:54:00 | 00:00:00 | 00:00:00 | |
| DB0ND-19 | 2026-09-03 10:42:40 | 47.37166 | 11.62312 | 142° | 42km/h | 17899m | 4.5m/s | -56.0°C | 1.2% | 81.5hPa | 2.7V | 00:00:00 | 00:00:00 | 00:00:00 | |
| OE5MMP-10 | 2026-09-03 10:42:39 | 47.37166 | 11.62312 | 143° | 47km/h | 17899m | 4.5m/s | -55.9°C | 4.3% | 81.5hPa | 2.7V | 00:00:00 | 01:14:50 | 00:00:00 | |
| DH7VM-15 | 2026-09-03 10:42:36 | 47.37183 | 11.62293 | 147° | 44km/h | 17888m | 5.2m/s | -56.0°C | 1.2% | 81.7hPa | 2.7V | 02:54:00 | 00:00:00 | 00:00:00 | |
| OE5DXL-15 | 2026-09-03 10:42:35 | 47.37202 | 11.62273 | 145° | 57km/h | 17878m | 6.8m/s | -55.8°C | 4.3% | 81.8hPa | 2.7V | 02:54:00 | 00:00:00 | 00:00:00 | |
| OE5DRO-10 | 2026-09-03 10:42:34 | 47.37212 | 11.62262 | 143° | 55km/h | 17873m | 4.8m/s | -55.8°C | 4.3% | 81.9hPa | 2.6V | 00:00:00 | 00:00:00 | 00:00:00 | |
| DO3MHA-12 | 2026-09-03 10:42:32 | 47.37233 | 11.62238 | 141° | 51km/h | 17862m | 6.1m/s | -55.8°C | 4.3% | 82.0hPa | 2.6V | 02:54:00 | 01:14:43 | 00:00:00 | |
| NBG1-10 | 2026-09-03 10:42:30 | 47.37252 | 11.62215 | 139° | 62km/h | 17852m | 4.8m/s | -55.7°C | 4.2% | 82.1hPa | 2.7V | 02:54:00 | 01:14:41 | 00:00:00 | |
| OE5MMP-10 | 2026-09-03 10:42:29 | 47.37261 | 11.62203 | 137° | 55km/h | 17847m | 6.0m/s | -55.7°C | 4.2% | 82.2hPa | 2.6V | 02:54:00 | 01:14:40 | 00:00:00 | |
| IN3IJJ | 2026-09-03 10:42:24 | 47.37297 | 11.62149 | 136° | 53km/h | 17826m | 5.6m/s | 0°C | 0% | 0hPa | 2.6V | 00:00:00 | 00:00:00 | 00:00:00 | |
| DO3MHA-12 | 2026-09-03 10:42:22 | 47.37327 | 11.62103 | 136° | 58km/h | 17808m | 5.7m/s | -55.9°C | 4.2% | 82.7hPa | 2.6V | 00:00:00 | 01:14:33 | 00:00:00 | |
| DG1MJG | 2026-09-03 10:42:21 | 47.37327 | 11.62103 | 136° | 58km/h | 17808m | 5.8m/s | -55.9°C | 1.2% | 82.7hPa | 2.6V | 02:55:00 | 00:00:00 | 00:00:00 | |
| OE5WHR-10 | 2026-09-03 10:42:20 | 47.37348 | 11.62074 | 135° | 64km/h | 17798m | 3.7m/s | -55.8°C | 4.2% | 82.8hPa | 2.6V | 00:00:00 | 00:00:00 | 00:00:00 | |
| OE5MMP-10 | 2026-09-03 10:42:19 | 47.37358 | 11.62059 | 134° | 60km/h | 17793m | 5.5m/s | -55.9°C | 4.2% | 82.9hPa | 2.6V | 00:00:00 | 01:14:30 | 00:00:00 | |
| DG1MFX-10 | 2026-09-03 10:42:18 | 47.37358 | 11.62059 | 135° | 57km/h | 17793m | 5.6m/s | -55.9°C | 1.2% | 82.9hPa | 2.6V | 02:55:00 | 00:00:00 | 00:00:00 | |
| S52SK | 2026-09-03 10:42:16 | 47.37377 | 11.62025 | 128° | 60km/h | 17782m | 4.7m/s | -56.1°C | 0% | 0hPa | 2.6V | 00:00:00 | 00:00:00 | 00:00:00 | |
| OE3JTB-15 | 2026-09-03 10:42:15 | 47.37394 | 11.61989 | 125° | 68km/h | 17772m | 5.7m/s | -56.2°C | 4.2% | 83.1hPa | 2.6V | 02:55:00 | 00:00:00 | 00:00:00 | |
| DF1GD-15 | 2026-09-03 10:42:14 | 47.37394 | 11.61989 | 125° | 58km/h | 17772m | 5.7m/s | -56.2°C | 1.2% | 83.2hPa | 2.6V | 00:00:00 | 00:00:00 | 00:00:00 | |
| DB0UT-7 | 2026-09-03 10:42:10 | 47.37440 | 11.61901 | 128° | 68km/h | 17747m | 4.9m/s | -56.6°C | 4.3% | 83.5hPa | 2.6V | 02:55:00 | 01:14:21 | 00:00:00 | |
| PG1ADW-2 | 2026-09-03 10:42:09 | 47.37451 | 11.61881 | 128° | 71km/h | 17742m | 5.8m/s | -56.7°C | 4.3% | 83.5hPa | 2.6V | 02:55:00 | 00:00:00 | 00:00:00 | |
| OE5DXL-15 | 2026-09-03 10:42:05 | 47.37492 | 11.61794 | 123° | 66km/h | 17722m | 4.6m/s | -56.8°C | 4.4% | 83.8hPa | 2.6V | 00:00:00 | 00:00:00 | 00:00:00 | |
| DL6DJ-15 | 2026-09-03 10:42:03 | 47.37511 | 11.61750 | 120° | 68km/h | 17711m | 4.3m/s | -56.8°C | 1.3% | 84.0hPa | 2.6V | 00:00:00 | 00:00:00 | 00:00:00 | |
| DO3MHA-12 | 2026-09-03 10:42:02 | 47.37519 | 11.61727 | 121° | 69km/h | 17706m | 5.6m/s | -56.8°C | 4.4% | 84.0hPa | 2.6V | 02:55:00 | 01:14:13 | 00:00:00 | |
| DO3MHA-11 | 2026-09-03 10:42:00 | 47.37537 | 11.61683 | 122° | 71km/h | 17697m | 5.1m/s | -56.9°C | 4.4% | 84.2hPa | 2.7V | 00:00:00 | 01:14:11 | 00:00:00 | |
| OE5WHR-10 | 2026-09-03 10:41:59 | 47.37546 | 11.61661 | 121° | 66km/h | 17691m | 5.7m/s | -56.9°C | 4.4% | 84.2hPa | 2.7V | 00:00:00 | 01:14:10 | 00:00:00 | |
| NBG1-10 | 2026-09-03 10:41:57 | 47.37564 | 11.61617 | 121° | 58km/h | 17681m | 5.6m/s | -57.0°C | 4.5% | 84.4hPa | 2.7V | 00:00:00 | 01:14:08 | 00:00:00 | |
| OE5DRO-10 | 2026-09-03 10:41:56 | 47.37573 | 11.61594 | 121° | 66km/h | 17676m | 4.6m/s | -57.1°C | 4.5% | 84.4hPa | 2.7V | 00:00:00 | 00:00:00 | 00:00:00 | |
| IN3HCDX | 2026-09-03 10:41:53 | 47.37590 | 11.61548 | 120° | 71km/h | 17666m | 5.5m/s | -57.4°C | 1.3% | 84.6hPa | 2.7V | 02:55:00 | 00:00:00 | 00:00:00 | |
| DO3MHA-12 | 2026-09-03 10:41:52 | 47.37607 | 11.61501 | 118° | 66km/h | 17656m | 5.6m/s | -57.5°C | 4.5% | 84.7hPa | 2.7V | 00:00:00 | 01:14:03 | 00:00:00 | |
| DO3MHA-11 | 2026-09-03 10:41:50 | 47.37623 | 11.61453 | 115° | 64km/h | 17646m | 6.0m/s | -57.5°C | 4.5% | 84.9hPa | 2.7V | 02:55:00 | 01:14:01 | 00:00:00 | |
| OE5MMP-10 | 2026-09-03 10:41:49 | 47.37630 | 11.61429 | 113° | 62km/h | 17641m | 4.6m/s | -57.5°C | 4.6% | 84.9hPa | 2.6V | 00:00:00 | 01:14:00 | 00:00:00 | |
| OE3JTB-15 | 2026-09-03 10:41:46 | 47.37651 | 11.61360 | 116° | 51km/h | 17626m | 3.9m/s | -57.4°C | 4.7% | 85.1hPa | 2.6V | 00:00:00 | 00:00:00 | 00:00:00 | |
| DO3MHA-12 | 2026-09-03 10:41:42 | 47.37677 | 11.61280 | 115° | 57km/h | 17606m | 5.7m/s | -57.5°C | 4.7% | 85.4hPa | 2.6V | 00:00:00 | 01:13:53 | 00:00:00 | |
| DB0UT-7 | 2026-09-03 10:41:40 | 47.37689 | 11.61240 | 112° | 49km/h | 17596m | 6.1m/s | -57.5°C | 4.6% | 85.5hPa | 2.6V | 00:00:00 | 00:00:00 | 00:00:00 | |
| OE5MMP-10 | 2026-09-03 10:41:39 | 47.37694 | 11.61220 | 111° | 53km/h | 17591m | 4.7m/s | -57.5°C | 4.6% | 85.6hPa | 2.6V | 00:00:00 | 01:13:50 | 00:00:00 | |
| OE5WHR-10 | 2026-09-03 10:41:38 | 47.37699 | 11.61200 | 111° | 47km/h | 17586m | 5.2m/s | -57.5°C | 4.6% | 85.6hPa | 2.6V | 02:55:00 | 00:00:00 | 00:00:00 | |
| OE5DRO-10 | 2026-09-03 10:41:37 | 47.37704 | 11.61180 | 112° | 47km/h | 17581m | 4.6m/s | -57.4°C | 4.6% | 85.7hPa | 2.7V | 00:00:00 | 00:00:00 | 00:00:00 | |
| DG1MFX-10 | 2026-09-03 10:41:36 | 47.37704 | 11.61180 | 112° | 57km/h | 17581m | 4.6m/s | -57.5°C | 1.4% | 85.7hPa | 2.7V | 02:56:00 | 00:00:00 | 00:00:00 | |
| OE5DXL-15 | 2026-09-03 10:41:35 | 47.37714 | 11.61142 | 112° | 42km/h | 17571m | 6.1m/s | -57.4°C | 4.6% | 85.8hPa | 2.7V | 00:00:00 | 00:00:00 | 00:00:00 | |
| DO3MHA-12 | 2026-09-03 10:41:32 | 47.37730 | 11.61089 | 118° | 46km/h | 17555m | 5.3m/s | -57.4°C | 4.7% | 86.1hPa | 2.7V | 02:55:00 | 01:13:43 | 00:00:00 | |
| DO3MHA-11 | 2026-09-03 10:41:30 | 47.37742 | 11.61057 | 118° | 44km/h | 17544m | 6.6m/s | -57.4°C | 4.8% | 86.2hPa | 2.6V | 00:00:00 | 01:13:41 | 00:00:00 | |
| PG1ADW-2 | 2026-09-03 10:41:29 | 47.37747 | 11.61042 | 117° | 40km/h | 17539m | 4.4m/s | -57.3°C | 4.8% | 86.3hPa | 2.6V | 00:00:00 | 00:00:00 | 00:00:00 | |
| NBG1-10 | 2026-09-03 10:41:24 | 47.37771 | 11.60970 | 115° | 37km/h | 17514m | 4.2m/s | -57.2°C | 4.7% | 86.6hPa | 2.6V | 00:00:00 | 01:13:35 | 00:00:00 | |
| S52SK | 2026-09-03 10:41:23 | 47.37770 | 11.60970 | 115° | 40km/h | 17514m | 4.3m/s | -57.2°C | 0% | 0hPa | 2.6V | 00:00:00 | 00:00:00 | 00:00:00 | |
| DO3MHA-12 | 2026-09-03 10:41:22 | 47.37779 | 11.60941 | 115° | 40km/h | 17503m | 5.9m/s | -57.1°C | 4.6% | 86.8hPa | 2.6V | 00:00:00 | 01:13:33 | 00:00:00 | |
| DO3MHA-11 | 2026-09-03 10:41:20 | 47.37789 | 11.60910 | 115° | 38km/h | 17492m | 6.0m/s | -57.1°C | 4.6% | 86.9hPa | 2.6V | 02:56:00 | 01:13:31 | 00:00:00 | |
| OE5MMP-10 | 2026-09-03 10:41:19 | 47.37794 | 11.60894 | 114° | 37km/h | 17487m | 5.2m/s | -57.1°C | 4.6% | 87.0hPa | 2.6V | 00:00:00 | 01:13:30 | 00:00:00 | |
| S52SK | 2026-09-03 10:41:18 | 47.37798 | 11.60879 | 114° | 44km/h | 17482m | 4.7m/s | -57.1°C | 0% | 0hPa | 2.6V | 00:00:00 | 00:00:00 | 00:00:00 | |
| OE5WHR-10 | 2026-09-03 10:41:17 | 47.37803 | 11.60864 | 114° | 33km/h | 17477m | 5.4m/s | -57.0°C | 4.5% | 87.1hPa | 2.6V | 00:00:00 | 00:00:00 | 00:00:00 | |
| BAUMI2-15 | 2026-09-03 10:41:15 | 47.37812 | 11.60837 | 119° | 31km/h | 17466m | 6.1m/s | -57.0°C | 4.5% | 87.3hPa | 2.6V | 00:00:00 | 01:13:26 | 00:00:00 | |
| DO3MHA-12 | 2026-09-03 10:41:12 | 47.37824 | 11.60809 | 129° | 37km/h | 17449m | 5.5m/s | -57.0°C | 4.6% | 87.5hPa | 2.6V | 00:00:00 | 01:13:23 | 00:00:00 | |
| IN3HCDX | 2026-09-03 10:41:11 | 47.37824 | 11.60809 | 130° | 29km/h | 17449m | 5.6m/s | -57.1°C | 1.3% | 87.6hPa | 2.6V | 02:56:00 | 00:00:00 | 00:00:00 | |
| DB0UT-7 | 2026-09-03 10:41:10 | 47.37834 | 11.60790 | 124° | 31km/h | 17439m | 5.6m/s | -56.9°C | 4.6% | 87.7hPa | 2.6V | 00:00:00 | 01:13:21 | 00:00:00 | |
| OE5MMP-10 | 2026-09-03 10:41:09 | 47.37838 | 11.60779 | 121° | 37km/h | 17434m | 5.2m/s | -56.9°C | 4.5% | 87.8hPa | 2.6V | 00:00:00 | 01:13:20 | 00:00:00 | |
| OE5DXL-15 | 2026-09-03 10:41:05 | 47.37861 | 11.60730 | 131° | 31km/h | 17412m | 5.8m/s | -57.0°C | 4.7% | 88.0hPa | 2.6V | 02:56:00 | 00:00:00 | 00:00:00 | |
| BAUMI2-15 | 2026-09-03 10:41:04 | 47.37868 | 11.60719 | 133° | 33km/h | 17406m | 5.8m/s | -56.9°C | 4.7% | 88.1hPa | 2.7V | 00:00:00 | 01:13:15 | 00:00:00 | |
| DO3MHA-12 | 2026-09-03 10:41:02 | 47.37880 | 11.60701 | 137° | 29km/h | 17396m | 5.1m/s | -56.9°C | 4.6% | 88.3hPa | 2.7V | 02:56:00 | 01:13:13 | 00:00:00 | |
| DL6DJ-15 | 2026-09-03 10:41:01 | 47.37885 | 11.60693 | 135° | 31km/h | 17390m | 6.6m/s | -57.0°C | 1.4% | 88.4hPa | 2.6V | 00:00:00 | 00:00:00 | 00:00:00 | |
| DO3MHA-11 | 2026-09-03 10:41:00 | 47.37891 | 11.60685 | 135° | 29km/h | 17384m | 5.2m/s | -56.9°C | 4.5% | 88.4hPa | 2.6V | 00:00:00 | 01:13:11 | 00:00:00 | |
| OE5MMP-10 | 2026-09-03 10:40:59 | 47.37895 | 11.60678 | 134° | 29km/h | 17378m | 6.6m/s | -56.9°C | 4.5% | 88.5hPa | 2.6V | 02:56:00 | 01:13:10 | 00:00:00 | |
| OE5WHR-10 | 2026-09-03 10:40:56 | 47.37908 | 11.60657 | 131° | 31km/h | 17363m | 5.7m/s | -56.9°C | 4.5% | 88.7hPa | 2.7V | 00:00:00 | 01:13:07 | 00:00:00 | |
| DG1MFX-10 | 2026-09-03 10:40:55 | 47.37908 | 11.60657 | 132° | 29km/h | 17363m | 5.8m/s | -56.9°C | 1.4% | 88.8hPa | 2.7V | 02:56:00 | 00:00:00 | 00:00:00 | |
| BAUMI2-15 | 2026-09-03 10:40:54 | 47.37919 | 11.60640 | 136° | 33km/h | 17354m | 4.3m/s | -56.9°C | 4.6% | 88.9hPa | 2.7V | 02:56:00 | 01:13:05 | 00:00:00 | |
| DO3MHA-12 | 2026-09-03 10:40:52 | 47.37931 | 11.60624 | 139° | 31km/h | 17344m | 4.6m/s | -56.7°C | 4.7% | 89.0hPa | 2.6V | 00:00:00 | 01:13:03 | 00:00:00 | |
| NBG1-10 | 2026-09-03 10:40:51 | 47.37937 | 11.60616 | 141° | 44km/h | 17339m | 5.2m/s | -56.7°C | 4.7% | 89.1hPa | 2.6V | 02:56:00 | 01:13:02 | 00:00:00 | |
| DO3MHA-11 | 2026-09-03 10:40:50 | 47.37943 | 11.60609 | 144° | 31km/h | 17334m | 5.3m/s | -56.7°C | 4.6% | 89.1hPa | 2.7V | 02:56:00 | 01:13:01 | 00:00:00 | |
| BAUMI2-15 | 2026-09-03 10:40:49 | 47.37950 | 11.60602 | 147° | 31km/h | 17329m | 4.5m/s | -56.7°C | 4.6% | 89.2hPa | 2.6V | 00:00:00 | 01:13:00 | 00:00:00 | |
| OE3JTB-15 | 2026-09-03 10:40:48 | 47.37957 | 11.60595 | 150° | 35km/h | 17324m | 5.5m/s | -56.7°C | 4.6% | 89.3hPa | 2.6V | 02:56:00 | 00:00:00 | 00:00:00 | |
| BAUMI2-15 | 2026-09-03 10:40:44 | 47.37984 | 11.60576 | 157° | 31km/h | 17303m | 5.8m/s | -56.8°C | 4.5% | 89.6hPa | 2.7V | 00:00:00 | 01:12:55 | 00:00:00 | |
| DO3MHA-12 | 2026-09-03 10:40:42 | 47.37997 | 11.60567 | 154° | 35km/h | 17293m | 5.3m/s | -56.8°C | 4.5% | 89.7hPa | 2.7V | 00:00:00 | 01:12:53 | 00:00:00 | |
| DO3MHA-11 | 2026-09-03 10:40:41 | 47.38012 | 11.60555 | 148° | 35km/h | 17282m | 4.8m/s | -56.7°C | 4.4% | 89.9hPa | 2.7V | 00:00:00 | 01:12:51 | 00:00:00 | |
| OE5MMP-10 | 2026-09-03 10:40:40 | 47.38019 | 11.60548 | 144° | 35km/h | 17277m | 6.2m/s | -56.7°C | 4.5% | 89.9hPa | 2.7V | 00:00:00 | 01:12:50 | 00:00:00 | |
| BAUMI2-15 | 2026-09-03 10:40:38 | 47.38025 | 11.60540 | 142° | 37km/h | 17271m | 4.3m/s | -56.7°C | 4.5% | 90.0hPa | 2.7V | 02:56:00 | 01:12:49 | 00:00:00 | |
| OE5DXL-15 | 2026-09-03 10:40:35 | 47.38047 | 11.60518 | 151° | 42km/h | 17257m | 3.8m/s | -56.7°C | 4.5% | 90.2hPa | 2.7V | 00:00:00 | 00:00:00 | 00:00:00 | |
| DG1MFX-10 | 2026-09-03 10:40:34 | 47.38047 | 11.60518 | 151° | 38km/h | 17257m | 3.9m/s | -56.7°C | 1.4% | 90.3hPa | 2.7V | 02:57:00 | 00:00:00 | 00:00:00 | |
| BAUMI2-15 | 2026-09-03 10:40:33 | 47.38063 | 11.60505 | 157° | 37km/h | 17247m | 5.0m/s | -56.7°C | 4.6% | 90.4hPa | 2.7V | 00:00:00 | 01:12:44 | 00:00:00 | |
| DO3MHA-12 | 2026-09-03 10:40:32 | 47.38071 | 11.60501 | 161° | 38km/h | 17243m | 3.7m/s | -56.7°C | 4.5% | 90.4hPa | 2.7V | 02:56:00 | 01:12:43 | 00:00:00 | |
| DO3MHA-11 | 2026-09-03 10:40:30 | 47.38089 | 11.60493 | 166° | 38km/h | 17232m | 4.8m/s | -56.7°C | 4.4% | 90.5hPa | 2.6V | 00:00:00 | 01:12:41 | 00:00:00 | |
| OE5MMP-10 | 2026-09-03 10:40:29 | 47.38099 | 11.60489 | 166° | 38km/h | 17227m | 5.0m/s | -56.7°C | 4.5% | 90.7hPa | 2.6V | 02:56:00 | 01:12:40 | 00:00:00 | |
| BAUMI2-15 | 2026-09-03 10:40:27 | 47.38116 | 11.60480 | 158° | 40km/h | 17217m | 4.8m/s | -56.9°C | 4.6% | 90.8hPa | 2.7V | 00:00:00 | 01:12:38 | 00:00:00 | |
| S52SK | 2026-09-03 10:40:25 | 47.38125 | 11.60475 | 155° | 38km/h | 17212m | 6.2m/s | -57.0°C | 0% | 0hPa | 2.7V | 00:00:00 | 00:00:00 | 00:00:00 | |
| DO3MHA-12 | 2026-09-03 10:40:22 | 47.38159 | 11.60445 | 149° | 42km/h | 17192m | 4.2m/s | -56.9°C | 4.5% | 91.1hPa | 2.7V | 00:00:00 | 01:12:33 | 00:00:00 | |
| OE5DRO-10 | 2026-09-03 10:40:21 | 47.38168 | 11.60438 | 152° | 47km/h | 17186m | 5.7m/s | -56.9°C | 4.5% | 91.2hPa | 2.7V | 02:57:00 | 00:00:00 | 00:00:00 | |
| DO3MHA-11 | 2026-09-03 10:40:20 | 47.38177 | 11.60430 | 156° | 44km/h | 17181m | 5.3m/s | -57.0°C | 4.5% | 91.3hPa | 2.7V | 02:57:00 | 01:12:31 | 00:00:00 | |
| OE5MMP-10 | 2026-09-03 10:40:19 | 47.38187 | 11.60424 | 159° | 46km/h | 17175m | 5.9m/s | -57.1°C | 4.5% | 91.4hPa | 2.7V | 00:00:00 | 01:12:30 | 00:00:00 | |
| DG1MJG | 2026-09-03 10:40:18 | 47.38187 | 11.60424 | 159° | 42km/h | 17175m | 5.9m/s | -57.2°C | 1.4% | 91.4hPa | 2.7V | 02:57:00 | 00:00:00 | 00:00:00 | |
| OE5WHR-10 | 2026-09-03 10:40:14 | 47.38239 | 11.60399 | 158° | 53km/h | 17150m | 5.7m/s | -57.3°C | 4.6% | 91.7hPa | 2.7V | 00:00:00 | 00:00:00 | 00:00:00 | |
| DO3MHA-12 | 2026-09-03 10:40:12 | 47.38259 | 11.60383 | 146° | 51km/h | 17140m | 4.8m/s | -57.3°C | 4.6% | 91.9hPa | 2.7V | 00:00:00 | 01:12:23 | 00:00:00 | |
| DO3MHA-11 | 2026-09-03 10:40:11 | 47.38279 | 11.60360 | 141° | 51km/h | 17129m | 4.9m/s | -57.3°C | 4.6% | 92.0hPa | 2.7V | 00:00:00 | 01:12:21 | 00:00:00 | |
| DB0UT-7 | 2026-09-03 10:40:10 | 47.38279 | 11.60360 | 141° | 55km/h | 17129m | 4.9m/s | -57.3°C | 4.6% | 92.0hPa | 2.7V | 00:00:00 | 01:12:21 | 00:00:00 | |
| PG1ADW-2 | 2026-09-03 10:40:09 | 47.38289 | 11.60348 | 142° | 57km/h | 17123m | 5.7m/s | -57.4°C | 4.6% | 92.1hPa | 2.7V | 02:57:00 | 00:00:00 | 00:00:00 | |
| OE5DXL-15 | 2026-09-03 10:40:05 | 47.38330 | 11.60303 | 148° | 57km/h | 17101m | 4.7m/s | -57.7°C | 4.7% | 92.4hPa | 2.7V | 00:00:00 | 00:00:00 | 00:00:00 | |
| BAUMI2-15 | 2026-09-03 10:40:04 | 47.38341 | 11.60293 | 148° | 57km/h | 17096m | 5.6m/s | -57.7°C | 4.7% | 92.5hPa | 2.7V | 02:57:00 | 01:12:15 | 00:00:00 | |
| DO3MHA-12 | 2026-09-03 10:40:02 | 47.38363 | 11.60272 | 146° | 60km/h | 17086m | 5.0m/s | -57.7°C | 4.7% | 92.7hPa | 2.6V | 02:57:00 | 01:12:13 | 00:00:00 | |
| HARRO8 | 2026-09-03 10:40:00 | 47.38386 | 11.60247 | 140° | 58km/h | 17076m | 4.5m/s | 0°C | -1.0% | 92.9hPa | 2.6V | 00:00:00 | 00:00:00 | 00:00:00 | |
| DL6DJ-15 | 2026-09-03 10:39:59 | 47.38408 | 11.60217 | 136° | 58km/h | 17065m | 4.7m/s | -57.8°C | 1.5% | 93.0hPa | 2.6V | 00:00:00 | 00:00:00 | 00:00:00 | |
| BAUMI2-15 | 2026-09-03 10:39:58 | 47.38408 | 11.60217 | 137° | 62km/h | 17065m | 4.7m/s | -57.8°C | 4.9% | 93.0hPa | 2.6V | 00:00:00 | 01:12:09 | 00:00:00 | |
| OE5WHR-10 | 2026-09-03 10:39:53 | 47.38464 | 11.60137 | 133° | 55km/h | 17041m | 4.0m/s | -57.8°C | 5.0% | 93.3hPa | 2.6V | 00:00:00 | 01:12:04 | 00:00:00 | |
| DO3MHA-12 | 2026-09-03 10:39:52 | 47.38474 | 11.60122 | 134° | 53km/h | 17036m | 5.3m/s | -57.8°C | 5.0% | 93.4hPa | 2.6V | 00:00:00 | 01:12:03 | 00:00:00 | |
| DO3MHA-11 | 2026-09-03 10:39:50 | 47.38493 | 11.60092 | 134° | 53km/h | 17026m | 3.6m/s | -57.8°C | 4.9% | 93.5hPa | 2.6V | 02:57:00 | 01:12:01 | 00:00:00 | |
| OE5MMP-10 | 2026-09-03 10:39:49 | 47.38502 | 11.60077 | 132° | 55km/h | 17022m | 5.5m/s | -57.8°C | 4.9% | 93.6hPa | 2.6V | 00:00:00 | 01:12:00 | 00:00:00 | |
| BAUMI2-15 | 2026-09-03 10:39:48 | 47.38510 | 11.60063 | 129° | 51km/h | 17017m | 4.6m/s | -57.8°C | 4.8% | 93.7hPa | 2.6V | 02:57:00 | 01:11:59 | 00:00:00 | |
| DG1MJG | 2026-09-03 10:39:47 | 47.38510 | 11.60063 | 130° | 49km/h | 17017m | 4.7m/s | -57.8°C | 1.5% | 93.7hPa | 2.7V | 02:58:00 | 00:00:00 | 00:00:00 | |
| BAUMI2-15 | 2026-09-03 10:39:43 | 47.38551 | 11.59985 | 129° | 57km/h | 16992m | 3.9m/s | -57.7°C | 4.9% | 94.1hPa | 2.7V | 00:00:00 | 01:11:54 | 00:00:00 | |
| DO3MHA-12 | 2026-09-03 10:39:42 | 47.38560 | 11.59968 | 131° | 57km/h | 16987m | 6.3m/s | -57.7°C | 4.9% | 94.1hPa | 2.7V | 00:00:00 | 01:11:53 | 00:00:00 | |
| DF7PN | 2026-09-03 10:39:41 | 47.38570 | 11.59952 | 133° | 58km/h | 16981m | 5.2m/s | -57.7°C | -1.0% | -1.0hPa | 2.7V | 00:00:00 | 00:00:00 | 00:00:00 | |
| DO3MHA-11 | 2026-09-03 10:39:40 | 47.38580 | 11.59936 | 135° | 57km/h | 16976m | 5.2m/s | -57.6°C | 4.9% | 94.3hPa | 2.7V | 00:00:00 | 01:11:51 | 00:00:00 | |
| OE5MMP-10 | 2026-09-03 10:39:39 | 47.38590 | 11.59921 | 135° | 57km/h | 16971m | 4.7m/s | -57.6°C | 4.9% | 94.4hPa | 2.7V | 00:00:00 | 01:11:50 | 00:00:00 | |
| BAUMI2-15 | 2026-09-03 10:39:37 | 47.38610 | 11.59892 | 138° | 57km/h | 16961m | 5.3m/s | -57.6°C | 4.8% | 94.5hPa | 2.7V | 00:00:00 | 01:11:48 | 00:00:00 | |
| OE5DXL-15 | 2026-09-03 10:39:35 | 47.38631 | 11.59864 | 136° | 58km/h | 16951m | 5.4m/s | -57.6°C | 4.8% | 94.7hPa | 2.7V | 02:57:00 | 00:00:00 | 00:00:00 | |
| DO3MHA-12 | 2026-09-03 10:39:32 | 47.38660 | 11.59817 | 131° | 60km/h | 16935m | 6.0m/s | -57.5°C | 4.7% | 94.9hPa | 2.6V | 02:57:00 | 01:11:43 | 00:00:00 | |
| DO3MHA-11 | 2026-09-03 10:39:30 | 47.38679 | 11.59783 | 130° | 60km/h | 16925m | 4.8m/s | -57.4°C | 4.7% | 95.1hPa | 2.7V | 00:00:00 | 01:11:41 | 00:00:00 | |
| PG1ADW-2 | 2026-09-03 10:39:29 | 47.38689 | 11.59766 | 128° | 58km/h | 16920m | 5.2m/s | -57.4°C | 4.7% | 95.2hPa | 2.7V | 00:00:00 | 00:00:00 | 00:00:00 | |
| S52SK | 2026-09-03 10:39:27 | 47.38698 | 11.59748 | 129° | 60km/h | 16915m | 4.8m/s | -57.5°C | 0% | 0hPa | 2.7V | 00:00:00 | 00:00:00 | 00:00:00 | |
| BAUMI2-15 | 2026-09-03 10:39:26 | 47.38718 | 11.59713 | 131° | 60km/h | 16904m | 4.4m/s | -57.5°C | 4.9% | 95.4hPa | 2.7V | 00:00:00 | 01:11:37 | 00:00:00 | |
| OE5DRO-10 | 2026-09-03 10:39:24 | 47.38738 | 11.59679 | 132° | 57km/h | 16894m | 5.2m/s | -57.5°C | 4.9% | 95.6hPa | 2.7V | 02:57:00 | 00:00:00 | 00:00:00 | |
| DO3MHA-12 | 2026-09-03 10:39:22 | 47.38757 | 11.59647 | 133° | 58km/h | 16883m | 5.5m/s | -57.4°C | 4.9% | 95.7hPa | 2.6V | 00:00:00 | 01:11:33 | 00:00:00 | |
| OE3JTB-15 | 2026-09-03 10:39:21 | 47.38767 | 11.59631 | 132° | 55km/h | 16878m | 4.5m/s | -57.4°C | 4.9% | 95.8hPa | 2.6V | 02:58:00 | 00:00:00 | 00:00:00 | |
| DO3MHA-11 | 2026-09-03 10:39:20 | 47.38776 | 11.59615 | 130° | 58km/h | 16873m | 6.3m/s | -57.4°C | 4.9% | 95.9hPa | 2.6V | 02:58:00 | 01:11:31 | 00:00:00 | |
| OE5MMP-10 | 2026-09-03 10:39:19 | 47.38785 | 11.59599 | 127° | 58km/h | 16867m | 4.1m/s | 0°C | 0% | 0hPa | 2.7V | 00:00:00 | 01:11:30 | 00:00:00 | |
| DG1MJG | 2026-09-03 10:39:17 | 47.38793 | 11.59582 | 127° | 57km/h | 16863m | 5.0m/s | -57.4°C | 1.5% | 96.1hPa | 2.7V | 02:58:00 | 00:00:00 | 00:00:00 | |
| DO3MHA-12 | 2026-09-03 10:39:12 | 47.38848 | 11.59473 | 130° | 51km/h | 16832m | 4.7m/s | -57.3°C | 4.7% | 96.5hPa | 2.7V | 00:00:00 | 01:11:23 | 00:00:00 | |
| OE5WHR-10 | 2026-09-03 10:39:11 | 47.38858 | 11.59456 | 132° | 53km/h | 16827m | 4.4m/s | -57.3°C | 4.6% | 96.6hPa | 2.7V | 00:00:00 | 00:00:00 | 00:00:00 | |
| DO3MHA-11 | 2026-09-03 10:39:10 | 47.38867 | 11.59440 | 132° | 51km/h | 16822m | 5.9m/s | -57.4°C | 4.7% | 96.6hPa | 2.7V | 00:00:00 | 01:11:21 | 00:00:00 | |
| OE5MMP-10 | 2026-09-03 10:39:09 | 47.38876 | 11.59426 | 132° | 51km/h | 16816m | 4.9m/s | 0°C | 0% | 0hPa | 2.7V | 00:00:00 | 01:11:20 | 00:00:00 | |
| IN3HCDX | 2026-09-03 10:39:06 | 47.38893 | 11.59398 | 135° | 49km/h | 16805m | 4.9m/s | -57.4°C | 1.5% | 96.9hPa | 2.7V | 00:00:00 | 00:00:00 | 00:00:00 | |
| OE5DXL-15 | 2026-09-03 10:39:05 | 47.38910 | 11.59372 | 132° | 57km/h | 16796m | 5.9m/s | -57.3°C | 4.8% | 97.0hPa | 2.7V | 00:00:00 | 00:00:00 | 00:00:00 | |
| DO3MHA-12 | 2026-09-03 10:39:02 | 47.38934 | 11.59330 | 130° | 53km/h | 16781m | 4.7m/s | -57.4°C | 4.9% | 97.3hPa | 2.7V | 02:58:00 | 01:11:13 | 00:00:00 | |
| DO3MHA-11 | 2026-09-03 10:39:00 | 47.38952 | 11.59298 | 130° | 53km/h | 16772m | 5.6m/s | -57.5°C | 5.1% | 97.4hPa | 2.7V | 00:00:00 | 01:11:11 | 00:00:00 | |
| OE5MMP-10 | 2026-09-03 10:38:59 | 47.38960 | 11.59282 | 129° | 53km/h | 16766m | 4.4m/s | 0°C | 0% | 0hPa | 2.7V | 02:58:00 | 01:11:10 | 00:00:00 | |
| NBG1-10 | 2026-09-03 10:38:56 | 47.38987 | 11.59234 | 132° | 55km/h | 16752m | 4.2m/s | -57.6°C | 4.8% | 97.7hPa | 2.7V | 00:00:00 | 01:11:07 | 00:00:00 | |
| DO3MHA-12 | 2026-09-03 10:38:52 | 47.39024 | 11.59181 | 140° | 57km/h | 16733m | 4.9m/s | -57.5°C | 4.8% | 98.0hPa | 2.7V | 00:00:00 | 01:11:03 | 00:00:00 | |
| DO3MHA-11 | 2026-09-03 10:38:50 | 47.39044 | 11.59154 | 135° | 58km/h | 16724m | 5.4m/s | -57.6°C | 4.8% | 98.1hPa | 2.7V | 02:58:00 | 01:11:01 | 00:00:00 | |
| OE5MMP-10 | 2026-09-03 10:38:49 | 47.39053 | 11.59140 | 131° | 60km/h | 16719m | 4.5m/s | 0°C | 0% | 0hPa | 2.6V | 00:00:00 | 01:11:00 | 00:00:00 | |
| DG1MJG | 2026-09-03 10:38:47 | 47.39061 | 11.59124 | 128° | 55km/h | 16714m | 4.2m/s | -57.6°C | 1.6% | 98.3hPa | 2.6V | 02:58:00 | 00:00:00 | 00:00:00 | |
| OE5DRO-10 | 2026-09-03 10:38:46 | 47.39078 | 11.59089 | 126° | 62km/h | 16704m | 4.9m/s | -57.5°C | 4.9% | 98.5hPa | 2.6V | 00:00:00 | 00:00:00 | 00:00:00 | |
| IN3HCDX | 2026-09-03 10:38:45 | 47.39078 | 11.59089 | 126° | 60km/h | 16704m | 4.9m/s | -57.6°C | 1.6% | 98.5hPa | 2.6V | 00:00:00 | 00:00:00 | 00:00:00 | |
| DO3MHA-12 | 2026-09-03 10:38:42 | 47.39112 | 11.59013 | 123° | 62km/h | 16684m | 5.8m/s | -57.4°C | 4.9% | 98.8hPa | 2.6V | 00:00:00 | 01:10:53 | 00:00:00 | |
| DO3MHA-11 | 2026-09-03 10:38:40 | 47.39129 | 11.58975 | 125° | 62km/h | 16674m | 4.8m/s | -57.5°C | 4.8% | 98.9hPa | 2.6V | 00:00:00 | 01:10:51 | 00:00:00 | |
| DB0UT-7 | 2026-09-03 10:38:39 | 47.39138 | 11.58956 | 124° | 66km/h | 16669m | 5.3m/s | -57.5°C | 4.9% | 99.0hPa | 2.6V | 00:00:00 | 00:00:00 | 00:00:00 | |
| OE5MMP-10 | 2026-09-03 10:38:37 | 47.39155 | 11.58919 | 125° | 64km/h | 16659m | 5.8m/s | 0°C | 0% | 0hPa | 2.6V | 00:00:00 | 01:10:48 | 00:00:00 | |
| OE5DXL-15 | 2026-09-03 10:38:35 | 47.39173 | 11.58882 | 127° | 66km/h | 16650m | 3.7m/s | -57.4°C | 4.9% | 99.3hPa | 2.6V | 00:00:00 | 00:00:00 | 00:00:00 | |
| S52SK | 2026-09-03 10:38:33 | 47.39182 | 11.58863 | 128° | 62km/h | 16645m | 5.6m/s | -57.5°C | 0% | 0hPa | 2.6V | 00:00:00 | 00:00:00 | 00:00:00 | |
| DO3MHA-12 | 2026-09-03 10:38:32 | 47.39202 | 11.58826 | 129° | 68km/h | 16634m | 5.6m/s | -57.4°C | 5.0% | 99.5hPa | 2.6V | 02:58:00 | 01:10:43 | 00:00:00 | |
| S52SK | 2026-09-03 10:38:30 | 47.39231 | 11.58765 | 120° | 68km/h | 16619m | 5.0m/s | 0°C | 0% | 0hPa | 2.6V | 00:00:00 | 00:00:00 | 00:00:00 | |
| OE5DRO-10 | 2026-09-03 10:38:28 | 47.39246 | 11.58720 | 117° | 68km/h | 16610m | 5.1m/s | -57.3°C | 4.7% | 100.0hPa | 2.6V | 02:58:00 | 00:00:00 | 00:00:00 | |
| OE5MMP-10 | 2026-09-03 10:38:27 | 47.39246 | 11.58720 | 117° | 66km/h | 16610m | 5.1m/s | 0°C | 0% | 0hPa | 2.7V | 02:58:00 | 01:10:38 | 00:00:00 | |
| DL6DJ-15 | 2026-09-03 10:38:25 | 47.39262 | 11.58675 | 116° | 68km/h | 16601m | 4.6m/s | -57.3°C | 1.5% | 100.1hPa | 2.7V | 00:00:00 | 00:00:00 | 00:00:00 | |
| OE3JTB-15 | 2026-09-03 10:38:23 | 47.39277 | 11.58630 | 118° | 64km/h | 16591m | 4.3m/s | -57.3°C | 4.7% | 100.3hPa | 2.7V | 00:00:00 | 01:10:34 | 00:00:00 | |
| DO3MHA-12 | 2026-09-03 10:38:22 | 47.39286 | 11.58608 | 122° | 68km/h | 16586m | 5.5m/s | -57.3°C | 4.7% | 100.3hPa | 2.7V | 00:00:00 | 01:10:33 | 00:00:00 | |
| DO3MHA-11 | 2026-09-03 10:38:20 | 47.39304 | 11.58568 | 126° | 68km/h | 16576m | 5.2m/s | -57.4°C | 4.8% | 100.5hPa | 2.7V | 02:59:00 | 01:10:31 | 00:00:00 | |
| DL2OL | 2026-09-03 10:38:19 | 47.39304 | 11.58568 | 127° | 64km/h | 16576m | 5.3m/s | -57.4°C | 1.6% | 100.5hPa | 2.7V | 00:00:00 | 00:00:00 | 00:00:00 | |
| OE5MMP-10 | 2026-09-03 10:38:16 | 47.39342 | 11.58489 | 125° | 68km/h | 16558m | 3.3m/s | 0°C | 0% | 0hPa | 2.7V | 00:00:00 | 01:10:27 | 00:00:00 | |
| DO3MHA-12 | 2026-09-03 10:38:12 | 47.39377 | 11.58400 | 120° | 64km/h | 16538m | 4.4m/s | -57.8°C | 5.0% | 101.1hPa | 2.7V | 00:00:00 | 01:10:23 | 00:00:00 | |
| DO3MHA-11 | 2026-09-03 10:38:10 | 47.39393 | 11.58357 | 119° | 62km/h | 16528m | 4.8m/s | -57.8°C | 4.9% | 101.2hPa | 2.7V | 00:00:00 | 01:10:21 | 00:00:00 | |
| DB0UT-7 | 2026-09-03 10:38:09 | 47.39401 | 11.58336 | 121° | 62km/h | 16524m | 4.1m/s | -57.8°C | 4.9% | 101.3hPa | 2.7V | 00:00:00 | 01:10:20 | 00:00:00 | |
| OE5WHR-10 | 2026-09-03 10:38:08 | 47.39410 | 11.58316 | 123° | 62km/h | 16519m | 5.7m/s | -57.8°C | 4.9% | 101.4hPa | 2.7V | 00:00:00 | 00:00:00 | 00:00:00 | |
| OE5MMP-10 | 2026-09-03 10:38:05 | 47.39437 | 11.58255 | 122° | 60km/h | 16505m | 5.2m/s | 0°C | 0% | 0hPa | 2.7V | 00:00:00 | 01:10:16 | 00:00:00 | |
| IN3HCDX | 2026-09-03 10:38:03 | 47.39445 | 11.58235 | 119° | 62km/h | 16500m | 4.2m/s | -57.8°C | 1.7% | 101.8hPa | 2.7V | 02:59:00 | 00:00:00 | 00:00:00 | |
| DO3MHA-12 | 2026-09-03 10:38:02 | 47.39459 | 11.58194 | 117° | 60km/h | 16491m | 4.7m/s | -57.6°C | 5.0% | 101.8hPa | 2.7V | 02:59:00 | 01:10:13 | 00:00:00 | |
| OE5MMP-10 | 2026-09-03 10:37:55 | 47.39501 | 11.58054 | 114° | 64km/h | 16457m | 3.9m/s | 0°C | 0% | 0hPa | 2.6V | 02:59:00 | 01:10:06 | 00:00:00 | |
| OE3JTB-15 | 2026-09-03 10:37:54 | 47.39508 | 11.58032 | 116° | 60km/h | 16452m | 5.6m/s | -57.5°C | 4.9% | 102.5hPa | 2.6V | 02:59:00 | 00:00:00 | 00:00:00 | |
| DO3MHA-12 | 2026-09-03 10:37:52 | 47.39523 | 11.57988 | 117° | 62km/h | 16442m | 4.8m/s | -57.4°C | 5.0% | 102.6hPa | 2.7V | 00:00:00 | 01:10:03 | 00:00:00 | |
| DO3MHA-11 | 2026-09-03 10:37:50 | 47.39538 | 11.57943 | 115° | 58km/h | 16434m | 3.8m/s | -57.4°C | 4.9% | 102.8hPa | 2.7V | 02:59:00 | 01:10:01 | 00:00:00 | |
| PG1ADW-2 | 2026-09-03 10:37:49 | 47.39545 | 11.57921 | 116° | 60km/h | 16429m | 5.5m/s | -57.4°C | 4.9% | 102.9hPa | 2.7V | 00:00:00 | 00:00:00 | 00:00:00 | |
| OE5WHR-10 | 2026-09-03 10:37:47 | 47.39558 | 11.57880 | 116° | 58km/h | 16420m | 4.2m/s | -57.4°C | 5.0% | 103.0hPa | 2.7V | 00:00:00 | 01:09:58 | 00:00:00 | |
| DG1MJG | 2026-09-03 10:37:46 | 47.39558 | 11.57880 | 116° | 60km/h | 16420m | 4.2m/s | -57.5°C | 1.7% | 103.1hPa | 2.7V | 02:59:00 | 00:00:00 | 00:00:00 | |
| OE5MMP-10 | 2026-09-03 10:37:45 | 47.39570 | 11.57840 | 113° | 58km/h | 16411m | 4.5m/s | 0°C | 0% | 0hPa | 2.7V | 00:00:00 | 01:09:56 | 00:00:00 | |
| IN3HCDX | 2026-09-03 10:37:43 | 47.39576 | 11.57820 | 115° | 57km/h | 16406m | 5.4m/s | -57.5°C | 1.7% | 103.3hPa | 2.7V | 02:59:00 | 00:00:00 | 00:00:00 | |
| DO3MHA-12 | 2026-09-03 10:37:42 | 47.39588 | 11.57782 | 115° | 60km/h | 16396m | 4.6m/s | -57.5°C | 4.9% | 103.4hPa | 2.7V | 00:00:00 | 01:09:53 | 00:00:00 | |
| DO3MHA-11 | 2026-09-03 10:37:40 | 47.39599 | 11.57743 | 112° | 60km/h | 16387m | 3.5m/s | -57.4°C | 4.9% | 103.5hPa | 2.7V | 00:00:00 | 01:09:51 | 00:00:00 | |
| DB0UT-7 | 2026-09-03 10:37:39 | 47.39604 | 11.57724 | 114° | 57km/h | 16382m | 5.5m/s | -57.4°C | 4.9% | 103.6hPa | 2.7V | 02:59:00 | 00:00:00 | 00:00:00 | |
| OE5DXL-15 | 2026-09-03 10:37:35 | 47.39629 | 11.57641 | 112° | 57km/h | 16364m | 4.4m/s | -57.6°C | 5.0% | 103.9hPa | 2.7V | 00:00:00 | 01:09:46 | 00:00:00 | |
| DO8TBO-1 | 2026-09-03 10:37:34 | 47.39635 | 11.57619 | 112° | 55km/h | 16359m | 4.6m/s | -57.6°C | 5.0% | 104.0hPa | 2.7V | 02:59:00 | 01:09:45 | 00:00:00 | |
| DO3MHA-12 | 2026-09-03 10:37:32 | 47.39646 | 11.57576 | 110° | 55km/h | 16350m | 3.6m/s | -57.5°C | 5.0% | 104.2hPa | 2.6V | 02:59:00 | 01:09:43 | 00:00:00 | |
| IN3IJJ | 2026-09-03 10:37:31 | 47.39646 | 11.57576 | 111° | 60km/h | 16350m | 3.7m/s | 0°C | 0% | 0hPa | 2.6V | 00:00:00 | 00:00:00 | 00:00:00 | |
| DO3MHA-11 | 2026-09-03 10:37:30 | 47.39655 | 11.57534 | 106° | 55km/h | 16341m | 3.8m/s | -57.5°C | 5.0% | 104.3hPa | 2.6V | 00:00:00 | 01:09:41 | 00:00:00 | |
| PG1ADW-2 | 2026-09-03 10:37:29 | 47.39659 | 11.57515 | 107° | 57km/h | 16337m | 5.2m/s | -57.5°C | 5.0% | 104.4hPa | 2.6V | 00:00:00 | 00:00:00 | 00:00:00 | |
| OE5MMP-10 | 2026-09-03 10:37:28 | 47.39663 | 11.57496 | 109° | 53km/h | 16332m | 4.2m/s | 0°C | 0% | 0hPa | 2.6V | 00:00:00 | 01:09:39 | 00:00:00 | |
| OE5WHR-10 | 2026-09-03 10:37:26 | 47.39671 | 11.57460 | 108° | 57km/h | 16322m | 5.2m/s | -57.5°C | 5.1% | 104.6hPa | 2.6V | 02:59:00 | 00:00:00 | 00:00:00 | |
| OE3JTB-15 | 2026-09-03 10:37:25 | 47.39675 | 11.57441 | 108° | 55km/h | 16318m | 3.6m/s | -57.5°C | 5.1% | 104.7hPa | 2.6V | 00:00:00 | 00:00:00 | 00:00:00 | |
| DL6DJ-15 | 2026-09-03 10:37:23 | 47.39685 | 11.57402 | 110° | 55km/h | 16309m | 4.7m/s | -57.6°C | 1.7% | 104.9hPa | 2.6V | 00:00:00 | 00:00:00 | 00:00:00 | |
| BAUMI2-15 | 2026-09-03 10:37:22 | 47.39690 | 11.57382 | 111° | 60km/h | 16305m | 4.3m/s | -57.5°C | 5.1% | 104.9hPa | 2.6V | 00:00:00 | 01:09:33 | 00:00:00 | |
| DO3MHA-11 | 2026-09-03 10:37:20 | 47.39699 | 11.57340 | 108° | 57km/h | 16294m | 4.5m/s | -57.6°C | 5.1% | 105.1hPa | 2.6V | 00:00:00 | 01:09:31 | 00:00:00 | |
| BAUMI2-15 | 2026-09-03 10:37:17 | 47.39713 | 11.57277 | 108° | 55km/h | 16281m | 4.9m/s | -57.5°C | 5.1% | 105.3hPa | 2.7V | 00:00:00 | 01:09:28 | 00:00:00 | |
| DG1MJG | 2026-09-03 10:37:16 | 47.39713 | 11.57277 | 108° | 57km/h | 16281m | 4.9m/s | -57.5°C | 1.8% | 105.4hPa | 2.6V | 03:00:00 | 00:00:00 | 00:00:00 | |
| OE5MMP-10 | 2026-09-03 10:37:15 | 47.39722 | 11.57238 | 110° | 55km/h | 16272m | 4.1m/s | 0°C | 0% | 0hPa | 2.6V | 00:00:00 | 01:09:26 | 00:00:00 | |
| NBG1-10 | 2026-09-03 10:37:13 | 47.39732 | 11.57201 | 114° | 53km/h | 16263m | 4.2m/s | -57.4°C | 5.0% | 105.6hPa | 2.6V | 00:00:00 | 01:09:24 | 00:00:00 | |
| DO3MHA-12 | 2026-09-03 10:37:12 | 47.39738 | 11.57182 | 114° | 53km/h | 16258m | 4.9m/s | -57.4°C | 4.9% | 105.7hPa | 2.6V | 00:00:00 | 01:09:23 | 00:00:00 | |
| OE5DRO-10 | 2026-09-03 10:37:11 | 47.39743 | 11.57162 | 110° | 51km/h | 16253m | 5.4m/s | -57.4°C | 5.0% | 105.8hPa | 2.6V | 00:00:00 | 00:00:00 | 00:00:00 | |
| DO3MHA-11 | 2026-09-03 10:37:10 | 47.39747 | 11.57142 | 109° | 51km/h | 16248m | 3.7m/s | -57.3°C | 4.9% | 105.9hPa | 2.6V | 00:00:00 | 01:09:21 | 00:00:00 | |
| PG1ADW-2 | 2026-09-03 10:37:09 | 47.39752 | 11.57122 | 109° | 51km/h | 16244m | 5.3m/s | -57.3°C | 4.9% | 105.9hPa | 2.6V | 00:00:00 | 01:09:20 | 00:00:00 | |
| DG1MFX-10 | 2026-09-03 10:37:08 | 47.39752 | 11.57122 | 109° | 57km/h | 16244m | 5.3m/s | -57.4°C | 1.7% | 106.0hPa | 2.7V | 03:00:00 | 00:00:00 | 00:00:00 | |
| BAUMI2-15 | 2026-09-03 10:37:07 | 47.39761 | 11.57084 | 110° | 49km/h | 16234m | 4.1m/s | -57.3°C | 5.0% | 106.1hPa | 2.7V | 03:00:00 | 01:09:18 | 00:00:00 | |
| OE5WHR-10 | 2026-09-03 10:37:05 | 47.39769 | 11.57049 | 110° | 53km/h | 16225m | 3.6m/s | -57.4°C | 5.0% | 106.3hPa | 2.7V | 00:00:00 | 00:00:00 | 00:00:00 | |
| DO8TBO-1 | 2026-09-03 10:37:03 | 47.39779 | 11.57017 | 120° | 55km/h | 16215m | 4.6m/s | -57.5°C | 5.0% | 106.4hPa | 2.7V | 00:00:00 | 01:09:14 | 00:00:00 | |
| DO3MHA-12 | 2026-09-03 10:37:02 | 47.39785 | 11.57001 | 121° | 51km/h | 16210m | 4.9m/s | -57.5°C | 5.1% | 106.5hPa | 2.7V | 00:00:00 | 01:09:13 | 00:00:00 | |
| IN3HCDX | 2026-09-03 10:37:01 | 47.39785 | 11.57002 | 122° | 47km/h | 16210m | 5.0m/s | -57.6°C | 1.8% | 106.5hPa | 2.7V | 00:00:00 | 00:00:00 | 00:00:00 | |
| DO3MHA-11 | 2026-09-03 10:37:00 | 47.39797 | 11.56971 | 119° | 53km/h | 16200m | 4.3m/s | -57.6°C | 5.1% | 106.7hPa | 2.7V | 03:00:00 | 01:09:11 | 00:00:00 | |
| BAUMI2-15 | 2026-09-03 10:36:57 | 47.39816 | 11.56920 | 120° | 55km/h | 16185m | 3.6m/s | -57.6°C | 5.2% | 106.9hPa | 2.7V | 00:00:00 | 01:09:08 | 00:00:00 | |
| OE3JTB-15 | 2026-09-03 10:36:56 | 47.39823 | 11.56902 | 118° | 55km/h | 16180m | 6.2m/s | -57.6°C | 5.2% | 107.0hPa | 2.7V | 00:00:00 | 01:09:07 | 00:00:00 | |
| DO3MHA-12 | 2026-09-03 10:36:52 | 47.39849 | 11.56831 | 120° | 55km/h | 16160m | 5.3m/s | -57.5°C | 5.2% | 107.3hPa | 2.7V | 03:00:00 | 01:09:03 | 00:00:00 | |
| DO3MHA-11 | 2026-09-03 10:36:50 | 47.39862 | 11.56797 | 121° | 57km/h | 16150m | 4.1m/s | -57.4°C | 5.2% | 107.5hPa | 2.7V | 00:00:00 | 01:09:01 | 00:00:00 | |
| PG1ADW-2 | 2026-09-03 10:36:49 | 47.39869 | 11.56780 | 123° | 55km/h | 16145m | 5.4m/s | -57.4°C | 5.2% | 107.6hPa | 2.6V | 00:00:00 | 00:00:00 | 00:00:00 | |
| BAUMI2-15 | 2026-09-03 10:36:47 | 47.39884 | 11.56745 | 122° | 57km/h | 16137m | 4.8m/s | -57.4°C | 5.2% | 107.8hPa | 2.6V | 03:00:00 | 01:08:58 | 00:00:00 | |
| OE5MMP-10 | 2026-09-03 10:36:46 | 47.39891 | 11.56727 | 119° | 55km/h | 16132m | 4.8m/s | 0°C | 0% | 0hPa | 2.7V | 03:00:00 | 01:08:57 | 00:00:00 | |
| DG1MJG | 2026-09-03 10:36:45 | 47.39891 | 11.56727 | 120° | 57km/h | 16132m | 4.9m/s | -57.4°C | 1.8% | 107.9hPa | 2.7V | 03:00:00 | 00:00:00 | 00:00:00 | |
| OE5WHR-10 | 2026-09-03 10:36:44 | 47.39904 | 11.56689 | 115° | 55km/h | 16122m | 4.2m/s | -57.3°C | 5.2% | 108.0hPa | 2.7V | 00:00:00 | 01:08:55 | 00:00:00 | |
| DO3MHA-12 | 2026-09-03 10:36:42 | 47.39916 | 11.56649 | 115° | 55km/h | 16113m | 3.9m/s | -57.3°C | 5.1% | 108.2hPa | 2.7V | 00:00:00 | 01:08:53 | 00:00:00 | |
| DO3MHA-11 | 2026-09-03 10:36:40 | 47.39927 | 11.56611 | 115° | 55km/h | 16104m | 4.2m/s | -57.3°C | 5.1% | 108.3hPa | 2.7V | 00:00:00 | 01:08:51 | 00:00:00 | |
| DB0UT-7 | 2026-09-03 10:36:39 | 47.39933 | 11.56592 | 117° | 53km/h | 16099m | 6.0m/s | -57.3°C | 5.1% | 108.4hPa | 2.7V | 00:00:00 | 00:00:00 | 00:00:00 | |
| BAUMI2-15 | 2026-09-03 10:36:37 | 47.39946 | 11.56557 | 120° | 55km/h | 16089m | 5.3m/s | -57.2°C | 5.1% | 108.6hPa | 2.7V | 00:00:00 | 01:08:48 | 00:00:00 | |
| OE5DXL-15 | 2026-09-03 10:36:35 | 47.39960 | 11.56523 | 120° | 53km/h | 16080m | 3.6m/s | -57.1°C | 5.1% | 108.7hPa | 2.7V | 00:00:00 | 00:00:00 | 00:00:00 | |
| OE5DRO-10 | 2026-09-03 10:36:33 | 47.39974 | 11.56487 | 121° | 55km/h | 16071m | 4.6m/s | -57.1°C | 5.2% | 108.9hPa | 2.6V | 00:00:00 | 00:00:00 | 00:00:00 | |
| DO3MHA-12 | 2026-09-03 10:36:32 | 47.39981 | 11.56469 | 120° | 55km/h | 16066m | 5.6m/s | -57.1°C | 5.2% | 109.0hPa | 2.6V | 00:00:00 | 01:08:43 | 00:00:00 | |
| DO3MHA-11 | 2026-09-03 10:36:30 | 47.39994 | 11.56432 | 116° | 53km/h | 16057m | 4.1m/s | -57.1°C | 5.2% | 109.1hPa | 2.7V | 00:00:00 | 01:08:41 | 00:00:00 | |
| PG1ADW-2 | 2026-09-03 10:36:29 | 47.40000 | 11.56413 | 115° | 53km/h | 16053m | 4.9m/s | -57.0°C | 5.2% | 109.2hPa | 2.7V | 03:00:00 | 00:00:00 | 00:00:00 | |
| BAUMI2-15 | 2026-09-03 10:36:27 | 47.40011 | 11.56375 | 112° | 53km/h | 16043m | 5.8m/s | -57.0°C | 5.2% | 109.4hPa | 2.7V | 03:00:00 | 01:08:38 | 00:00:00 | |
| OE5WHR-10 | 2026-09-03 10:36:23 | 47.40032 | 11.56304 | 119° | 53km/h | 16025m | 3.8m/s | -57.0°C | 5.1% | 109.7hPa | 2.7V | 03:00:00 | 00:00:00 | 00:00:00 | |
| DO3MHA-12 | 2026-09-03 10:36:22 | 47.40039 | 11.56287 | 122° | 53km/h | 16020m | 6.1m/s | -57.0°C | 5.0% | 109.7hPa | 2.7V | 00:00:00 | 01:08:33 | 00:00:00 | |
| DL6DJ-15 | 2026-09-03 10:36:21 | 47.40046 | 11.56271 | 123° | 51km/h | 16014m | 3.8m/s | -57.0°C | 1.8% | 109.9hPa | 2.7V | 00:00:00 | 00:00:00 | 00:00:00 | |
| IN3HCDX | 2026-09-03 10:36:19 | 47.40053 | 11.56254 | 124° | 53km/h | 16010m | 5.9m/s | -57.0°C | 1.8% | 110.0hPa | 2.7V | 03:01:00 | 00:00:00 | 00:00:00 | |
| BAUMI2-15 | 2026-09-03 10:36:17 | 47.40073 | 11.56203 | 117° | 55km/h | 15995m | 4.0m/s | -56.9°C | 5.0% | 110.2hPa | 2.7V | 00:00:00 | 01:08:28 | 00:00:00 | |
| OE5DRO-10 | 2026-09-03 10:36:14 | 47.40089 | 11.56147 | 109° | 51km/h | 15981m | 3.6m/s | -56.8°C | 5.0% | 110.5hPa | 2.7V | 00:00:00 | 00:00:00 | 00:00:00 | |
| DO3MHA-12 | 2026-09-03 10:36:12 | 47.40098 | 11.56109 | 109° | 53km/h | 15972m | 4.6m/s | -56.9°C | 5.0% | 110.6hPa | 2.7V | 03:01:00 | 01:08:23 | 00:00:00 | |
| DO3MHA-11 | 2026-09-03 10:36:10 | 47.40106 | 11.56073 | 109° | 53km/h | 15962m | 5.3m/s | -57.0°C | 5.2% | 110.7hPa | 2.7V | 00:00:00 | 01:08:21 | 00:00:00 | |
| DB0UT-7 | 2026-09-03 10:36:09 | 47.40111 | 11.56054 | 111° | 51km/h | 15958m | 4.3m/s | -57.0°C | 5.3% | 110.9hPa | 2.7V | 00:00:00 | 01:08:20 | 00:00:00 | |
| OE5MMP-10 | 2026-09-03 10:36:08 | 47.40116 | 11.56036 | 113° | 51km/h | 15953m | 5.8m/s | 0°C | 0% | 0hPa | 2.7V | 00:00:00 | 01:08:19 | 00:00:00 | |
| NBG1-10 | 2026-09-03 10:36:07 | 47.40121 | 11.56019 | 117° | 53km/h | 15948m | 4.0m/s | -57.4°C | 5.5% | 111.1hPa | 2.7V | 00:00:00 | 01:08:18 | 00:00:00 | |
| DG1MFX-10 | 2026-09-03 10:36:06 | 47.40121 | 11.56019 | 117° | 51km/h | 15948m | 4.0m/s | -57.4°C | 2.1% | 111.1hPa | 2.7V | 03:01:00 | 00:00:00 | 00:00:00 | |
| OE5DXL-15 | 2026-09-03 10:36:05 | 47.40132 | 11.55984 | 115° | 53km/h | 15939m | 5.0m/s | -57.6°C | 5.6% | 111.2hPa | 2.7V | 00:00:00 | 00:00:00 | 00:00:00 | |
| OE5WHR-10 | 2026-09-03 10:36:02 | 47.40147 | 11.55929 | 112° | 51km/h | 15924m | 4.6m/s | -57.6°C | 5.4% | 111.5hPa | 2.7V | 00:00:00 | 00:00:00 | 00:00:00 | |
| DO3MHA-11 | 2026-09-03 10:36:00 | 47.40156 | 11.55893 | 106° | 51km/h | 15915m | 4.1m/s | -57.5°C | 5.3% | 111.6hPa | 2.7V | 00:00:00 | 01:08:11 | 00:00:00 | |
| OE5MMP-10 | 2026-09-03 10:35:58 | 47.40162 | 11.55858 | 109° | 53km/h | 15906m | 5.0m/s | 0°C | 0% | 0hPa | 2.7V | 00:00:00 | 01:08:09 | 00:00:00 | |
| BAUMI2-15 | 2026-09-03 10:35:57 | 47.40167 | 11.55842 | 113° | 51km/h | 15901m | 3.7m/s | -57.4°C | 5.3% | 111.9hPa | 2.7V | 00:00:00 | 01:08:08 | 00:00:00 | |
| OE5DRO-10 | 2026-09-03 10:35:55 | 47.40177 | 11.55808 | 115° | 53km/h | 15892m | 4.9m/s | -57.3°C | 5.4% | 112.0hPa | 2.7V | 00:00:00 | 00:00:00 | 00:00:00 | |
| DO3MHA-12 | 2026-09-03 10:35:52 | 47.40196 | 11.55756 | 122° | 51km/h | 15877m | 4.3m/s | -57.2°C | 5.4% | 112.3hPa | 2.7V | 00:00:00 | 01:08:03 | 00:00:00 | |
| DO3MHA-11 | 2026-09-03 10:35:50 | 47.40210 | 11.55720 | 118° | 51km/h | 15867m | 4.9m/s | -57.2°C | 5.5% | 112.5hPa | 2.7V | 00:00:00 | 01:08:01 | 00:00:00 | |
| PG1ADW-2 | 2026-09-03 10:35:49 | 47.40216 | 11.55702 | 118° | 53km/h | 15862m | 3.8m/s | -57.2°C | 5.5% | 112.5hPa | 2.7V | 00:00:00 | 01:08:00 | 00:00:00 | |
| OE5MMP-10 | 2026-09-03 10:35:47 | 47.40229 | 11.55669 | 123° | 49km/h | 15852m | 4.3m/s | 0°C | 0% | 0hPa | 2.7V | 03:01:00 | 01:07:58 | 00:00:00 | |
| DF1GD-15 | 2026-09-03 10:35:46 | 47.40236 | 11.55653 | 122° | 49km/h | 15848m | 4.2m/s | -57.1°C | 2.1% | 112.8hPa | 2.7V | 00:00:00 | 00:00:00 | 00:00:00 | |
| DG1MFX-10 | 2026-09-03 10:35:45 | 47.40236 | 11.55653 | 122° | 49km/h | 15848m | 4.2m/s | -57.1°C | 2.1% | 112.8hPa | 2.7V | 03:02:00 | 00:00:00 | 00:00:00 | |
| DG1MJG | 2026-09-03 10:35:44 | 47.40242 | 11.55637 | 120° | 47km/h | 15843m | 5.2m/s | -57.1°C | 2.1% | 112.9hPa | 2.7V | 03:02:00 | 00:00:00 | 00:00:00 | |
| DO3MHA-12 | 2026-09-03 10:35:42 | 47.40260 | 11.55588 | 123° | 55km/h | 15829m | 5.0m/s | -57.0°C | 5.3% | 113.2hPa | 2.7V | 00:00:00 | 01:07:53 | 00:00:00 | |
| OE5WHR-10 | 2026-09-03 10:35:41 | 47.40268 | 11.55571 | 124° | 53km/h | 15824m | 4.4m/s | -57.0°C | 5.3% | 113.2hPa | 2.7V | 00:00:00 | 01:07:52 | 00:00:00 | |
| DB0UT-7 | 2026-09-03 10:35:39 | 47.40283 | 11.55537 | 122° | 57km/h | 15814m | 4.5m/s | -56.9°C | 5.3% | 113.4hPa | 2.7V | 00:00:00 | 00:00:00 | 00:00:00 | |
| BAUMI2-15 | 2026-09-03 10:35:37 | 47.40299 | 11.55501 | 124° | 55km/h | 15804m | 5.3m/s | -56.9°C | 5.2% | 113.6hPa | 2.7V | 00:00:00 | 01:07:48 | 00:00:00 | |
| OE5DRO-10 | 2026-09-03 10:35:36 | 47.40306 | 11.55484 | 124° | 53km/h | 15799m | 4.4m/s | -56.9°C | 5.2% | 113.7hPa | 2.7V | 03:01:00 | 00:00:00 | 00:00:00 | |
| OE5DXL-15 | 2026-09-03 10:35:35 | 47.40314 | 11.55466 | 123° | 53km/h | 15794m | 5.5m/s | -56.9°C | 5.3% | 113.7hPa | 2.7V | 00:00:00 | 00:00:00 | 00:00:00 | |
| NBG1-10 | 2026-09-03 10:35:34 | 47.40321 | 11.55449 | 123° | 55km/h | 15789m | 4.2m/s | -56.8°C | 5.3% | 113.8hPa | 2.7V | 03:01:00 | 01:07:45 | 00:00:00 | |
| DO3MHA-12 | 2026-09-03 10:35:32 | 47.40336 | 11.55418 | 127° | 51km/h | 15780m | 4.9m/s | -56.8°C | 5.4% | 114.0hPa | 2.7V | 03:01:00 | 01:07:43 | 00:00:00 | |
| OE3JTB-15 | 2026-09-03 10:35:30 | 47.40368 | 11.55360 | 132° | 55km/h | 15761m | 4.8m/s | -56.6°C | 5.3% | 114.4hPa | 2.7V | 03:01:00 | 01:07:39 | 00:00:00 | |
| BAUMI2-15 | 2026-09-03 10:35:27 | 47.40376 | 11.55347 | 134° | 60km/h | 15756m | 5.4m/s | -56.6°C | 5.4% | 114.4hPa | 2.7V | 03:01:00 | 01:07:38 | 00:00:00 | |
| DG1MFX-10 | 2026-09-03 10:35:24 | 47.40395 | 11.55319 | 135° | 53km/h | 15747m | 5.4m/s | -56.6°C | 2.1% | 114.6hPa | 2.7V | 03:02:00 | 00:00:00 | 00:00:00 | |
| OE5MMP-10 | 2026-09-03 10:35:23 | 47.40413 | 11.55290 | 135° | 60km/h | 15737m | 5.4m/s | 0°C | 0% | 0hPa | 2.7V | 00:00:00 | 01:07:34 | 00:00:00 | |
| DO3MHA-12 | 2026-09-03 10:35:22 | 47.40423 | 11.55275 | 134° | 55km/h | 15732m | 4.1m/s | -56.5°C | 5.2% | 114.9hPa | 2.7V | 00:00:00 | 01:07:33 | 00:00:00 | |
| DO3MHA-11 | 2026-09-03 10:35:20 | 47.40442 | 11.55244 | 128° | 55km/h | 15722m | 5.0m/s | -56.5°C | 5.1% | 115.0hPa | 2.7V | 00:00:00 | 01:07:31 | 00:00:00 | |
| DL6DJ-15 | 2026-09-03 10:35:19 | 47.40450 | 11.55229 | 127° | 49km/h | 15718m | 4.0m/s | -56.6°C | 1.9% | 115.2hPa | 2.7V | 00:00:00 | 00:00:00 | 00:00:00 | |
| OE5DRO-10 | 2026-09-03 10:35:17 | 47.40466 | 11.55199 | 131° | 57km/h | 15708m | 4.8m/s | -56.5°C | 5.1% | 115.3hPa | 2.7V | 00:00:00 | 00:00:00 | 00:00:00 | |
| IN3HCDX | 2026-09-03 10:35:15 | 47.40474 | 11.55185 | 133° | 53km/h | 15704m | 4.7m/s | -56.5°C | 2.0% | 115.4hPa | 2.7V | 03:02:00 | 00:00:00 | 00:00:00 | |
| DG1MJG | 2026-09-03 10:35:14 | 47.40483 | 11.55170 | 133° | 55km/h | 15699m | 4.6m/s | -56.4°C | 2.1% | 115.5hPa | 2.7V | 03:02:00 | 00:00:00 | 00:00:00 | |
| DO3MHA-12 | 2026-09-03 10:35:12 | 47.40513 | 11.55124 | 137° | 57km/h | 15685m | 4.9m/s | -56.3°C | 5.5% | 115.7hPa | 2.7V | 00:00:00 | 01:07:23 | 00:00:00 | |
| DM7RM-13 | 2026-09-03 10:35:11 | 47.40513 | 11.55124 | 137° | 57km/h | 15685m | 4.9m/s | 0°C | 0% | 0hPa | 2.7V | 03:02:00 | 00:00:00 | 00:00:00 | |
| DO3MHA-11 | 2026-09-03 10:35:10 | 47.40533 | 11.55095 | 135° | 57km/h | 15675m | 5.5m/s | -56.3°C | 5.4% | 115.9hPa | 2.7V | 00:00:00 | 01:07:21 | 00:00:00 | |
| PG1ADW-2 | 2026-09-03 10:35:09 | 47.40543 | 11.55080 | 134° | 60km/h | 15670m | 4.1m/s | -56.3°C | 5.3% | 116.0hPa | 2.7V | 03:02:00 | 00:00:00 | 00:00:00 | |
| OE5DXL-15 | 2026-09-03 10:35:05 | 47.40586 | 11.55021 | 138° | 66km/h | 15651m | 6.4m/s | -56.3°C | 5.1% | 116.3hPa | 2.7V | 03:02:00 | 00:00:00 | 00:00:00 | |
| DB0UT-7 | 2026-09-03 10:35:03 | 47.40607 | 11.54992 | 139° | 66km/h | 15641m | 5.5m/s | -56.3°C | 5.3% | 116.5hPa | 2.7V | 03:02:00 | 01:07:14 | 00:00:00 | |
| DO3MHA-12 | 2026-09-03 10:35:02 | 47.40618 | 11.54978 | 141° | 60km/h | 15636m | 4.4m/s | -56.3°C | 5.4% | 116.6hPa | 2.7V | 00:00:00 | 01:07:13 | 00:00:00 | |
| DL6DJ-15 | 2026-09-03 10:34:48 | 47.40786 | 11.54769 | 141° | 64km/h | 15567m | 5.7m/s | -56.4°C | 2.2% | 117.9hPa | 2.7V | 00:00:00 | 00:00:00 | 00:00:00 | |
| OE5MMP-10 | 2026-09-03 10:34:46 | 47.40812 | 11.54740 | 145° | 69km/h | 15558m | 4.6m/s | 0°C | 0% | 0hPa | 2.7V | 00:00:00 | 01:06:57 | 00:00:00 | |
| DG1MFX-10 | 2026-09-03 10:34:43 | 47.40840 | 11.54709 | 142° | 69km/h | 15548m | 3.7m/s | -56.4°C | 2.3% | 118.3hPa | 2.7V | 03:03:00 | 00:00:00 | 00:00:00 | |
| DO3MHA-12 | 2026-09-03 10:34:42 | 47.40867 | 11.54676 | 141° | 75km/h | 15539m | 4.7m/s | -56.3°C | 5.5% | 118.4hPa | 2.7V | 00:00:00 | 01:06:53 | 00:00:00 | |
| DO3MHA-11 | 2026-09-03 10:34:40 | 47.40895 | 11.54640 | 139° | 77km/h | 15530m | 5.5m/s | -56.3°C | 5.5% | 118.6hPa | 2.7V | 00:00:00 | 01:06:51 | 00:00:00 | |
| OE5DRO-10 | 2026-09-03 10:34:39 | 47.40909 | 11.54622 | 138° | 77km/h | 15525m | 4.7m/s | -56.4°C | 5.6% | 118.7hPa | 2.7V | 00:00:00 | 00:00:00 | 00:00:00 | |
| OE5WHR-10 | 2026-09-03 10:34:38 | 47.40922 | 11.54604 | 138° | 77km/h | 15520m | 4.3m/s | -56.4°C | 5.7% | 118.8hPa | 2.7V | 00:00:00 | 01:06:49 | 00:00:00 | |
| OE5MMP-10 | 2026-09-03 10:34:36 | 47.40950 | 11.54567 | 138° | 75km/h | 15511m | 3.9m/s | 0°C | 0% | 0hPa | 2.7V | 00:00:00 | 01:06:47 | 00:00:00 | |
| OE5DXL-15 | 2026-09-03 10:34:35 | 47.40964 | 11.54548 | 136° | 77km/h | 15507m | 5.4m/s | -56.8°C | 5.9% | 119.0hPa | 2.7V | 00:00:00 | 00:00:00 | 00:00:00 | |
| DB0UT-7 | 2026-09-03 10:34:33 | 47.40991 | 11.54507 | 135° | 77km/h | 15497m | 5.5m/s | -56.7°C | 5.9% | 119.2hPa | 2.7V | 00:00:00 | 00:00:00 | 00:00:00 | |
| DO3MHA-12 | 2026-09-03 10:34:32 | 47.41006 | 11.54486 | 135° | 77km/h | 15491m | 4.5m/s | -56.8°C | 5.9% | 119.4hPa | 2.7V | 00:00:00 | 01:06:43 | 00:00:00 | |
| DO3MHA-11 | 2026-09-03 10:34:30 | 47.41034 | 11.54443 | 134° | 77km/h | 15482m | 5.0m/s | -56.8°C | 5.9% | 119.5hPa | 2.7V | 00:00:00 | 01:06:41 | 00:00:00 | |
| PG1ADW-2 | 2026-09-03 10:34:29 | 47.41047 | 11.54422 | 134° | 77km/h | 15478m | 3.4m/s | -56.8°C | 5.9% | 119.6hPa | 2.7V | 00:00:00 | 01:06:40 | 00:00:00 | |
| NBG1-10 | 2026-09-03 10:34:28 | 47.41061 | 11.54401 | 136° | 75km/h | 15473m | 5.2m/s | -56.8°C | 5.8% | 119.7hPa | 2.7V | 00:00:00 | 01:06:39 | 00:00:00 | |
| OE3JTB-15 | 2026-09-03 10:34:26 | 47.41089 | 11.54362 | 137° | 75km/h | 15463m | 5.9m/s | -56.8°C | 5.8% | 119.8hPa | 2.7V | 00:00:00 | 00:00:00 | 00:00:00 | |
| DL2OL | 2026-09-03 10:34:24 | 47.41103 | 11.54342 | 137° | 75km/h | 15458m | 4.6m/s | -56.8°C | 2.5% | 120.0hPa | 2.7V | 00:00:00 | 00:00:00 | 00:00:00 | |
| DG1MFX-10 | 2026-09-03 10:34:23 | 47.41116 | 11.54323 | 138° | 75km/h | 15453m | 5.8m/s | -56.8°C | 2.5% | 120.1hPa | 2.7V | 03:03:00 | 00:00:00 | 00:00:00 | |
| DO3MHA-12 | 2026-09-03 10:34:22 | 47.41144 | 11.54284 | 134° | 77km/h | 15443m | 4.5m/s | -56.6°C | 5.8% | 120.2hPa | 2.7V | 00:00:00 | 01:06:33 | 00:00:00 | |
| DO3MHA-11 | 2026-09-03 10:34:20 | 47.41169 | 11.54240 | 129° | 77km/h | 15434m | 3.4m/s | -56.6°C | 5.8% | 120.4hPa | 2.7V | 03:03:00 | 01:06:31 | 00:00:00 | |
| OE5WHR-10 | 2026-09-03 10:34:17 | 47.41206 | 11.54171 | 127° | 75km/h | 15419m | 5.3m/s | -56.5°C | 5.9% | 120.7hPa | 2.7V | 00:00:00 | 00:00:00 | 00:00:00 | |
| IN3IJJ | 2026-09-03 10:34:14 | 47.41230 | 11.54126 | 131° | 75km/h | 15409m | 5.6m/s | 0°C | 0% | 0hPa | 2.7V | 00:00:00 | 00:00:00 | 00:00:00 | |
| DO3MHA-12 | 2026-09-03 10:34:12 | 47.41268 | 11.54065 | 133° | 75km/h | 15395m | 5.4m/s | -56.6°C | 5.8% | 121.1hPa | 2.7V | 03:03:00 | 01:06:23 | 00:00:00 | |
| DO3MHA-11 | 2026-09-03 10:34:10 | 47.41292 | 11.54024 | 133° | 75km/h | 15385m | 5.6m/s | -56.6°C | 5.8% | 121.3hPa | 2.7V | 00:00:00 | 01:06:21 | 00:00:00 | |
| PG1ADW-2 | 2026-09-03 10:34:09 | 47.41305 | 11.54003 | 132° | 77km/h | 15380m | 3.7m/s | -56.7°C | 5.8% | 121.4hPa | 2.7V | 00:00:00 | 00:00:00 | 00:00:00 | |
| OE5DXL-15 | 2026-09-03 10:34:05 | 47.41352 | 11.53917 | 128° | 77km/h | 15360m | 4.3m/s | -56.8°C | 5.9% | 121.8hPa | 2.7V | 00:00:00 | 00:00:00 | 00:00:00 | |
| DB0UT-7 | 2026-09-03 10:34:03 | 47.41375 | 11.53871 | 125° | 77km/h | 15350m | 4.2m/s | -57.1°C | 5.9% | 122.0hPa | 2.7V | 00:00:00 | 01:06:14 | 00:00:00 | |
| DO3MHA-12 | 2026-09-03 10:34:02 | 47.41386 | 11.53848 | 126° | 77km/h | 15345m | 5.6m/s | -57.2°C | 5.9% | 122.1hPa | 2.7V | 00:00:00 | 01:06:13 | 00:00:00 | |
| DB0ND-19 | 2026-09-03 10:33:52 | 47.41501 | 11.53615 | 121° | 82km/h | 15296m | 4.8m/s | -57.3°C | 2.6% | 123.1hPa | 2.7V | 00:00:00 | 00:00:00 | 00:00:00 | |
| DL6DJ-15 | 2026-09-03 10:33:46 | 47.41573 | 11.53433 | 122° | 73km/h | 15261m | 4.1m/s | -57.7°C | 2.7% | 123.8hPa | 2.7V | 00:00:00 | 00:00:00 | 00:00:00 | |
| DO3MHA-12 | 2026-09-03 10:33:42 | 47.41604 | 11.53366 | 125° | 73km/h | 15247m | 5.2m/s | -57.9°C | 6.2% | 124.0hPa | 2.7V | 00:00:00 | 01:05:53 | 00:00:00 | |
| DG1MJG | 2026-09-03 10:33:41 | 47.41604 | 11.53366 | 126° | 71km/h | 15247m | 5.2m/s | -58.0°C | 2.7% | 124.0hPa | 2.7V | 03:04:00 | 00:00:00 | 00:00:00 | |
| DO3MHA-11 | 2026-09-03 10:33:40 | 47.41624 | 11.53322 | 123° | 75km/h | 15238m | 3.9m/s | -58.0°C | 6.3% | 124.1hPa | 2.7V | 03:03:00 | 01:05:51 | 00:00:00 | |
| DB0UT-7 | 2026-09-03 10:33:32 | 47.41704 | 11.53134 | 123° | 69km/h | 15199m | 4.9m/s | -58.0°C | 6.2% | 124.9hPa | 2.7V | 00:00:00 | 00:00:00 | 00:00:00 | |
| IN3HCDX | 2026-09-03 10:33:30 | 47.41714 | 11.53111 | 122° | 73km/h | 15195m | 5.3m/s | -58.0°C | 2.7% | 125.1hPa | 2.7V | 03:04:00 | 00:00:00 | 00:00:00 | |
| PG1ADW-2 | 2026-09-03 10:33:29 | 47.41733 | 11.53065 | 123° | 68km/h | 15186m | 5.7m/s | -57.9°C | 6.1% | 125.2hPa | 2.7V | 00:00:00 | 00:00:00 | 00:00:00 | |
| OE3JTB-15 | 2026-09-03 10:33:28 | 47.41742 | 11.53043 | 123° | 69km/h | 15181m | 3.7m/s | -57.8°C | 6.1% | 125.3hPa | 2.7V | 03:03:00 | 00:00:00 | 00:00:00 | |
| DH7VM-15 | 2026-09-03 10:33:27 | 47.41742 | 11.53043 | 123° | 71km/h | 15181m | 3.7m/s | -57.9°C | 2.7% | 125.4hPa | 2.7V | 00:00:00 | 00:00:00 | 00:00:00 | |
| NBG1-10 | 2026-09-03 10:33:25 | 47.41770 | 11.52975 | 122° | 69km/h | 15166m | 5.8m/s | -57.8°C | 6.1% | 125.6hPa | 2.7V | 00:00:00 | 01:05:36 | 00:00:00 | |
| OE5DRO-10 | 2026-09-03 10:33:24 | 47.41788 | 11.52930 | 121° | 68km/h | 15156m | 6.0m/s | -58.0°C | 6.1% | 125.8hPa | 2.7V | 00:00:00 | 00:00:00 | 00:00:00 | |
| DG1MFX-10 | 2026-09-03 10:33:23 | 47.41788 | 11.52930 | 121° | 71km/h | 15156m | 6.1m/s | -58.1°C | 2.7% | 125.8hPa | 2.7V | 03:04:00 | 00:00:00 | 00:00:00 | |
| DO3MHA-12 | 2026-09-03 10:33:22 | 47.41797 | 11.52908 | 120° | 66km/h | 15151m | 3.7m/s | -58.0°C | 6.2% | 125.9hPa | 2.7V | 00:00:00 | 01:05:33 | 00:00:00 | |
| DB0ND-19 | 2026-09-03 10:33:21 | 47.41806 | 11.52886 | 121° | 68km/h | 15146m | 5.8m/s | -58.1°C | -1.0% | 126.0hPa | 2.7V | 00:00:00 | 00:00:00 | 00:00:00 | |
| DO3MHA-11 | 2026-09-03 10:33:20 | 47.41815 | 11.52864 | 124° | 66km/h | 15141m | 4.2m/s | -58.1°C | 6.2% | 126.1hPa | 2.7V | 00:00:00 | 01:05:31 | 00:00:00 | |
| BAUMI2-15 | 2026-09-03 10:33:19 | 47.41824 | 11.52843 | 123° | 66km/h | 15135m | 6.0m/s | -58.1°C | 6.2% | 126.2hPa | 2.7V | 00:00:00 | 01:05:30 | 00:00:00 | |
| DL6DJ-15 | 2026-09-03 10:33:15 | 47.41872 | 11.52746 | 125° | 64km/h | 15111m | 4.6m/s | -58.2°C | 2.7% | 126.8hPa | 2.7V | 00:00:00 | 00:00:00 | 00:00:00 | |
| BAUMI2-15 | 2026-09-03 10:33:14 | 47.41872 | 11.52746 | 126° | 68km/h | 15111m | 4.5m/s | -58.1°C | 6.3% | 126.7hPa | 2.7V | 00:00:00 | 01:05:25 | 00:00:00 | |
| DO3MHA-12 | 2026-09-03 10:33:12 | 47.41892 | 11.52706 | 126° | 71km/h | 15100m | 4.3m/s | -58.1°C | 6.3% | 126.9hPa | 2.7V | 00:00:00 | 01:05:23 | 00:00:00 | |
| DG1MJG | 2026-09-03 10:33:11 | 47.41892 | 11.52706 | 127° | 68km/h | 15100m | 4.4m/s | -58.2°C | 2.7% | 126.9hPa | 2.7V | 03:04:00 | 00:00:00 | 00:00:00 | |
| DO3MHA-11 | 2026-09-03 10:33:10 | 47.41912 | 11.52663 | 123° | 71km/h | 15091m | 5.5m/s | -58.1°C | 6.2% | 127.1hPa | 2.7V | 00:00:00 | 01:05:21 | 00:00:00 | |
| PG1ADW-2 | 2026-09-03 10:33:09 | 47.41921 | 11.52640 | 123° | 69km/h | 15086m | 3.8m/s | -58.1°C | 6.2% | 127.2hPa | 2.7V | 00:00:00 | 01:05:20 | 00:00:00 | |
| OE5DXL-15 | 2026-09-03 10:33:05 | 47.41962 | 11.52553 | 128° | 71km/h | 15067m | 4.1m/s | -58.0°C | 6.2% | 127.6hPa | 2.7V | 03:04:00 | 00:00:00 | 00:00:00 | |
| BAUMI2-15 | 2026-09-03 10:33:04 | 47.41973 | 11.52532 | 130° | 71km/h | 15062m | 5.2m/s | -58.0°C | 6.2% | 127.6hPa | 2.7V | 03:04:00 | 01:05:15 | 00:00:00 | |
| DO3MHA-12 | 2026-09-03 10:33:02 | 47.41996 | 11.52492 | 129° | 71km/h | 15052m | 5.3m/s | -57.9°C | 6.2% | 127.9hPa | 2.7V | 00:00:00 | 01:05:13 | 00:00:00 | |
| DB0UT-7 | 2026-09-03 10:33:01 | 47.42007 | 11.52472 | 128° | 71km/h | 15047m | 4.3m/s | -57.9°C | 6.1% | 128.0hPa | 2.7V | 03:04:00 | 01:05:12 | 00:00:00 | |
| DO3MHA-11 | 2026-09-03 10:33:00 | 47.42018 | 11.52451 | 127° | 69km/h | 15042m | 5.6m/s | -57.9°C | 6.2% | 128.0hPa | 2.7V | 03:04:00 | 01:05:11 | 00:00:00 | |
| OE3JTB-15 | 2026-09-03 10:32:59 | 47.42029 | 11.52429 | 126° | 71km/h | 15037m | 4.2m/s | -57.8°C | 6.1% | 128.2hPa | 2.7V | 00:00:00 | 00:00:00 | 00:00:00 | |
| BAUMI2-15 | 2026-09-03 10:32:54 | 47.42076 | 11.52315 | 122° | 66km/h | 15013m | 4.4m/s | -57.7°C | 6.1% | 128.7hPa | 2.7V | 00:00:00 | 01:05:05 | 00:00:00 | |
| OE5WHR-10 | 2026-09-03 10:32:53 | 47.42085 | 11.52294 | 122° | 71km/h | 15008m | 5.2m/s | -57.7°C | 6.1% | 128.8hPa | 2.7V | 00:00:00 | 00:00:00 | 00:00:00 | |
| NBG1-10 | 2026-09-03 10:32:52 | 47.42093 | 11.52273 | 121° | 73km/h | 15003m | 4.2m/s | -57.8°C | 6.1% | 128.8hPa | 2.7V | 03:04:00 | 01:05:03 | 00:00:00 | |
| DO3MHA-11 | 2026-09-03 10:32:50 | 47.42112 | 11.52232 | 125° | 73km/h | 14995m | 5.3m/s | -57.8°C | 6.1% | 129.0hPa | 2.7V | 00:00:00 | 01:05:01 | 00:00:00 | |
| PG1ADW-2 | 2026-09-03 10:32:49 | 47.42121 | 11.52211 | 127° | 73km/h | 14990m | 4.2m/s | -57.8°C | 6.2% | 129.1hPa | 2.7V | 00:00:00 | 00:00:00 | 00:00:00 | |
| IN3HCDX | 2026-09-03 10:32:47 | 47.42132 | 11.52190 | 126° | 69km/h | 14985m | 5.6m/s | -57.9°C | 2.7% | 129.3hPa | 2.7V | 03:04:00 | 00:00:00 | 00:00:00 | |
| OE5DRO-10 | 2026-09-03 10:32:45 | 47.42164 | 11.52123 | 127° | 73km/h | 14970m | 4.0m/s | -57.9°C | 6.3% | 129.5hPa | 2.7V | 00:00:00 | 00:00:00 | 00:00:00 | |
| DL6DJ-15 | 2026-09-03 10:32:44 | 47.42186 | 11.52077 | 122° | 73km/h | 14960m | 5.2m/s | -58.1°C | 2.8% | 129.8hPa | 2.7V | 00:00:00 | 00:00:00 | 00:00:00 | |
| DO8TBO-1 | 2026-09-03 10:32:42 | 47.42196 | 11.52054 | 122° | 71km/h | 14955m | 4.1m/s | -58.1°C | 6.4% | 129.8hPa | 2.7V | 03:04:00 | 01:04:53 | 00:00:00 | |
| DO3MHA-11 | 2026-09-03 10:32:40 | 47.42215 | 11.52008 | 122° | 71km/h | 14946m | 4.3m/s | -58.1°C | 6.4% | 130.0hPa | 2.7V | 00:00:00 | 01:04:51 | 00:00:00 | |
| BAUMI2-15 | 2026-09-03 10:32:39 | 47.42224 | 11.51986 | 121° | 71km/h | 14941m | 4.9m/s | -58.1°C | 6.3% | 130.1hPa | 2.7V | 00:00:00 | 01:04:50 | 00:00:00 | |
| OE5DXL-15 | 2026-09-03 10:32:35 | 47.42264 | 11.51897 | 127° | 73km/h | 14922m | 4.4m/s | -57.9°C | 6.2% | 130.5hPa | 2.7V | 00:00:00 | 00:00:00 | 00:00:00 | |
| BAUMI2-15 | 2026-09-03 10:32:34 | 47.42275 | 11.51875 | 126° | 73km/h | 14917m | 4.8m/s | -57.9°C | 6.3% | 130.6hPa | 2.7V | 00:00:00 | 01:04:45 | 00:00:00 | |
| OE5WHR-10 | 2026-09-03 10:32:32 | 47.42296 | 11.51831 | 126° | 73km/h | 14907m | 5.9m/s | -57.8°C | 6.3% | 130.8hPa | 2.7V | 00:00:00 | 01:04:43 | 00:00:00 | |
| DB0UT-7 | 2026-09-03 10:32:31 | 47.42306 | 11.51809 | 125° | 73km/h | 14902m | 3.9m/s | -57.8°C | 6.3% | 130.9hPa | 2.7V | 00:00:00 | 00:00:00 | 00:00:00 | |
| DO3MHA-11 | 2026-09-03 10:32:30 | 47.42316 | 11.51786 | 124° | 73km/h | 14897m | 5.4m/s | -57.8°C | 6.4% | 131.0hPa | 2.7V | 00:00:00 | 01:04:41 | 00:00:00 | |
| PG1ADW-2 | 2026-09-03 10:32:29 | 47.42326 | 11.51764 | 123° | 73km/h | 14893m | 3.7m/s | -57.7°C | 6.4% | 131.1hPa | 2.7V | 03:04:00 | 00:00:00 | 00:00:00 | |
| IN3HCDX | 2026-09-03 10:32:27 | 47.42336 | 11.51741 | 124° | 71km/h | 14888m | 5.6m/s | -57.8°C | 2.9% | 131.2hPa | 2.7V | 03:04:00 | 00:00:00 | 00:00:00 | |
| OE5DRO-10 | 2026-09-03 10:32:26 | 47.42356 | 11.51696 | 123° | 73km/h | 14878m | 5.7m/s | -57.6°C | 6.4% | 131.4hPa | 2.7V | 00:00:00 | 00:00:00 | 00:00:00 | |
| BAUMI2-15 | 2026-09-03 10:32:24 | 47.42377 | 11.51650 | 125° | 77km/h | 14868m | 5.0m/s | -57.6°C | 6.4% | 131.6hPa | 2.7V | 03:04:00 | 01:04:35 | 00:00:00 | |
| DO3MHA-11 | 2026-09-03 10:32:23 | 47.42423 | 11.51559 | 128° | 71km/h | 14850m | 4.2m/s | -57.4°C | 6.5% | 131.9hPa | 2.7V | 03:05:00 | 01:04:31 | 00:00:00 | |
| BAUMI2-15 | 2026-09-03 10:32:22 | 47.42435 | 11.51536 | 128° | 75km/h | 14846m | 3.9m/s | -57.4°C | 6.5% | 132.0hPa | 2.7V | 00:00:00 | 01:04:30 | 00:00:00 | |
| NBG1-10 | 2026-09-03 10:32:21 | 47.42435 | 11.51536 | 128° | 73km/h | 14846m | 3.9m/s | -57.4°C | 6.5% | 132.0hPa | 2.7V | 00:00:00 | 01:04:30 | 00:00:00 | |
| OE5MMP-10 | 2026-09-03 10:32:19 | 47.42435 | 11.51536 | 128° | 77km/h | 14846m | 3.9m/s | 0°C | 0% | 0hPa | 2.7V | 03:05:00 | 01:04:30 | 00:00:00 | |
| BAUMI2-15 | 2026-09-03 10:32:14 | 47.42491 | 11.51426 | 126° | 68km/h | 14821m | 5.9m/s | -57.3°C | 6.5% | 132.5hPa | 2.7V | 00:00:00 | 01:04:25 | 00:00:00 | |
| DL6DJ-15 | 2026-09-03 10:32:13 | 47.42510 | 11.51385 | 122° | 66km/h | 14811m | 6.0m/s | -57.3°C | 3.0% | 132.8hPa | 2.7V | 00:00:00 | 00:00:00 | 00:00:00 | |
| OE5WHR-10 | 2026-09-03 10:32:11 | 47.42519 | 11.51363 | 121° | 71km/h | 14805m | 4.2m/s | -57.2°C | 6.4% | 132.9hPa | 2.7V | 03:05:00 | 00:00:00 | 00:00:00 | |
| BAUMI2-15 | 2026-09-03 10:32:09 | 47.42537 | 11.51320 | 123° | 69km/h | 14796m | 4.8m/s | -57.2°C | 6.4% | 133.0hPa | 2.7V | 00:00:00 | 01:04:20 | 00:00:00 | |
| OE5DRO-10 | 2026-09-03 10:32:07 | 47.42556 | 11.51277 | 124° | 73km/h | 14787m | 4.8m/s | -57.1°C | 6.4% | 133.2hPa | 2.7V | 00:00:00 | 00:00:00 | 00:00:00 | |
| OE5DXL-15 | 2026-09-03 10:32:05 | 47.42576 | 11.51233 | 127° | 75km/h | 14778m | 5.5m/s | -57.1°C | 6.4% | 133.4hPa | 2.7V | 00:00:00 | 00:00:00 | 00:00:00 | |
| BAUMI2-15 | 2026-09-03 10:32:04 | 47.42587 | 11.51212 | 129° | 73km/h | 14772m | 4.2m/s | -57.1°C | 6.4% | 133.5hPa | 2.7V | 03:05:00 | 01:04:15 | 00:00:00 | |
| DF7PN | 2026-09-03 10:31:55 | 47.42688 | 11.51023 | 125° | 69km/h | 14740m | 3.6m/s | -57.3°C | 3.2% | 134.4hPa | 2.7V | 00:00:00 | 00:00:00 | 00:00:00 | |
| BAUMI2-15 | 2026-09-03 10:31:54 | 47.42699 | 11.51001 | 126° | 77km/h | 14736m | 4.7m/s | -57.3°C | 6.6% | 134.4hPa | 2.7V | 00:00:00 | 01:04:05 | 00:00:00 | |
| DO8TBO-1 | 2026-09-03 10:31:53 | 47.42710 | 11.50978 | 126° | 77km/h | 14732m | 4.8m/s | -57.3°C | 6.7% | 134.6hPa | 2.7V | 00:00:00 | 01:04:04 | 00:00:00 | |
| OE5WHR-10 | 2026-09-03 10:31:50 | 47.42746 | 11.50909 | 132° | 77km/h | 14718m | 3.8m/s | -57.4°C | 6.6% | 134.9hPa | 2.7V | 00:00:00 | 00:00:00 | 00:00:00 | |
| PG1ADW-2 | 2026-09-03 10:31:49 | 47.42760 | 11.50887 | 132° | 75km/h | 14713m | 5.2m/s | -57.4°C | 6.6% | 134.9hPa | 2.7V | 00:00:00 | 01:04:00 | 00:00:00 | |
| OE5DRO-10 | 2026-09-03 10:31:48 | 47.42773 | 11.50864 | 133° | 75km/h | 14708m | 4.1m/s | -57.4°C | 6.7% | 135.1hPa | 2.7V | 03:05:00 | 00:00:00 | 00:00:00 | |
| IN3HCDX | 2026-09-03 10:31:47 | 47.42788 | 11.50842 | 134° | 80km/h | 14704m | 5.2m/s | -57.5°C | 3.3% | 135.2hPa | 2.7V | 03:05:00 | 00:00:00 | 00:00:00 | |
| NBG1-10 | 2026-09-03 10:31:46 | 47.42801 | 11.50820 | 133° | 73km/h | 14699m | 4.4m/s | -57.5°C | 6.9% | 135.3hPa | 2.7V | 00:00:00 | 01:03:57 | 00:00:00 | |
| BAUMI2-15 | 2026-09-03 10:31:44 | 47.42827 | 11.50776 | 130° | 78km/h | 14690m | 4.4m/s | -57.4°C | 7.0% | 135.5hPa | 2.7V | 03:05:00 | 01:03:55 | 00:00:00 | |
| HARRO8 | 2026-09-03 10:31:43 | 47.42840 | 11.50753 | 128° | 78km/h | 14686m | 3.2m/s | -57.5°C | 3.5% | 135.6hPa | 2.7V | 00:00:00 | 00:00:00 | 00:00:00 | |
| DL6DJ-15 | 2026-09-03 10:31:41 | 47.42864 | 11.50708 | 127° | 75km/h | 14677m | 4.6m/s | -57.5°C | 3.5% | 135.8hPa | 2.7V | 00:00:00 | 00:00:00 | 00:00:00 | |
| BAUMI2-15 | 2026-09-03 10:31:39 | 47.42888 | 11.50662 | 127° | 77km/h | 14667m | 4.7m/s | -57.5°C | 7.3% | 135.9hPa | 2.7V | 00:00:00 | 01:03:50 | 00:00:00 | |
| DG1MJG | 2026-09-03 10:31:38 | 47.42887 | 11.50662 | 127° | 78km/h | 14667m | 4.7m/s | -57.6°C | 3.6% | 136.0hPa | 2.7V | 03:05:00 | 00:00:00 | 00:00:00 | |
| OE5DXL-15 | 2026-09-03 10:31:35 | 47.42934 | 11.50573 | 130° | 71km/h | 14648m | 4.9m/s | -57.6°C | 7.1% | 136.3hPa | 2.7V | 00:00:00 | 00:00:00 | 00:00:00 | |
| BAUMI2-15 | 2026-09-03 10:31:34 | 47.42947 | 11.50552 | 131° | 69km/h | 14644m | 3.9m/s | -57.5°C | 7.0% | 136.5hPa | 2.7V | 00:00:00 | 01:03:45 | 00:00:00 | |
| OE3JTB-15 | 2026-09-03 10:31:32 | 47.42970 | 11.50513 | 131° | 71km/h | 14634m | 3.3m/s | -57.5°C | 6.9% | 136.7hPa | 2.7V | 03:05:00 | 00:00:00 | 00:00:00 | |
| OE5WHR-10 | 2026-09-03 10:31:29 | 47.43002 | 11.50454 | 127° | 71km/h | 14620m | 6.0m/s | -57.6°C | 7.0% | 137.0hPa | 2.7V | 00:00:00 | 01:03:40 | 00:00:00 | |
| IN3HCDX | 2026-09-03 10:31:25 | 47.43034 | 11.50390 | 127° | 75km/h | 14605m | 4.0m/s | -57.8°C | 3.7% | 137.4hPa | 2.7V | 00:00:00 | 00:00:00 | 00:00:00 | |
| DB0UT-7 | 2026-09-03 10:31:24 | 47.43057 | 11.50345 | 128° | 75km/h | 14596m | 3.6m/s | -57.8°C | 7.7% | 137.5hPa | 2.7V | 00:00:00 | 00:00:00 | 00:00:00 | |
| DO3MHA-11 | 2026-09-03 10:31:22 | 47.43080 | 11.50302 | 129° | 71km/h | 14587m | 4.7m/s | -57.9°C | 7.8% | 137.7hPa | 2.7V | 00:00:00 | 01:03:33 | 00:00:00 | |
| DH7VM-15 | 2026-09-03 10:31:21 | 47.43080 | 11.50302 | 129° | 75km/h | 14587m | 4.8m/s | -57.9°C | 4.0% | 137.7hPa | 2.7V | 00:00:00 | 00:00:00 | 00:00:00 | |
| DL2OL | 2026-09-03 10:31:18 | 47.43114 | 11.50237 | 129° | 69km/h | 14573m | 4.4m/s | -58.0°C | 3.9% | 138.0hPa | 2.7V | 00:00:00 | 00:00:00 | 00:00:00 | |
| DO3MHA-12 | 2026-09-03 10:31:17 | 47.43135 | 11.50195 | 126° | 71km/h | 14565m | 4.8m/s | -57.9°C | 7.6% | 138.1hPa | 2.7V | 00:00:00 | 01:03:28 | 00:00:00 | |
| HARRO8 | 2026-09-03 10:31:14 | 47.43186 | 11.50090 | 126° | 69km/h | 14541m | 4.0m/s | -58.1°C | 3.9% | 138.8hPa | 2.7V | 00:00:00 | 00:00:00 | 00:00:00 | |
| DO3MHA-11 | 2026-09-03 10:31:12 | 47.43186 | 11.50090 | 127° | 75km/h | 14541m | 4.0m/s | -58.1°C | 7.6% | 138.7hPa | 2.7V | 00:00:00 | 01:03:23 | 00:00:00 | |
| OE5DRO-10 | 2026-09-03 10:31:10 | 47.43208 | 11.50049 | 131° | 77km/h | 14531m | 4.6m/s | -58.1°C | 7.6% | 138.9hPa | 2.7V | 00:00:00 | 00:00:00 | 00:00:00 | |
| PG1ADW-2 | 2026-09-03 10:31:09 | 47.43219 | 11.50029 | 131° | 77km/h | 14526m | 5.5m/s | -58.1°C | 7.7% | 139.0hPa | 2.7V | 03:06:00 | 00:00:00 | 00:00:00 | |
| OE5WHR-10 | 2026-09-03 10:31:08 | 47.43231 | 11.50008 | 130° | 77km/h | 14521m | 3.5m/s | -58.1°C | 7.7% | 139.1hPa | 2.7V | 00:00:00 | 00:00:00 | 00:00:00 | |
| DO3MHA-12 | 2026-09-03 10:31:07 | 47.43243 | 11.49986 | 130° | 78km/h | 14517m | 5.2m/s | -58.1°C | 7.7% | 139.2hPa | 2.7V | 00:00:00 | 01:03:18 | 00:00:00 | |
| OE5DXL-15 | 2026-09-03 10:31:05 | 47.43268 | 11.49943 | 130° | 78km/h | 14508m | 4.7m/s | -58.1°C | 7.9% | 139.4hPa | 2.7V | 03:06:00 | 00:00:00 | 00:00:00 | |
| IN3HCDX | 2026-09-03 10:31:04 | 47.43268 | 11.49943 | 130° | 78km/h | 14508m | 4.7m/s | -58.1°C | 4.1% | 139.5hPa | 2.7V | 00:00:00 | 00:00:00 | 00:00:00 | |
| OE3JTB-15 | 2026-09-03 10:31:03 | 47.43293 | 11.49897 | 128° | 78km/h | 14498m | 4.8m/s | -58.0°C | 8.1% | 139.7hPa | 2.7V | 00:00:00 | 01:03:14 | 00:00:00 | |
| DO3MHA-11 | 2026-09-03 10:31:02 | 47.43305 | 11.49873 | 127° | 77km/h | 14493m | 4.6m/s | -58.0°C | 8.2% | 139.7hPa | 2.7V | 00:00:00 | 01:03:13 | 00:00:00 | |
| DF7PN | 2026-09-03 10:30:53 | 47.43406 | 11.49664 | 124° | 71km/h | 14451m | 5.5m/s | -58.1°C | -1.0% | -1.0hPa | 2.7V | 00:00:00 | 00:00:00 | 00:00:00 | |
| DO3MHA-11 | 2026-09-03 10:30:52 | 47.43416 | 11.49642 | 125° | 80km/h | 14447m | 3.8m/s | -58.1°C | 7.9% | 140.8hPa | 2.7V | 03:06:00 | 01:03:03 | 00:00:00 | |
| OE5DRO-10 | 2026-09-03 10:30:51 | 47.43427 | 11.49620 | 125° | 80km/h | 14442m | 5.3m/s | -58.2°C | 8.0% | 140.9hPa | 2.7V | 00:00:00 | 00:00:00 | 00:00:00 | |
| PG1ADW-2 | 2026-09-03 10:30:49 | 47.43449 | 11.49575 | 129° | 82km/h | 14432m | 5.1m/s | -58.1°C | 8.0% | 141.1hPa | 2.7V | 00:00:00 | 00:00:00 | 00:00:00 | |
| DO8TBO-1 | 2026-09-03 10:30:48 | 47.43462 | 11.49552 | 130° | 84km/h | 14427m | 4.6m/s | -58.0°C | 8.0% | 141.2hPa | 2.7V | 00:00:00 | 01:02:59 | 00:00:00 | |
| DO3MHA-12 | 2026-09-03 10:30:47 | 47.43475 | 11.49529 | 131° | 82km/h | 14423m | 4.4m/s | -58.0°C | 8.0% | 141.3hPa | 2.7V | 03:06:00 | 01:02:58 | 00:00:00 | |
| IN3HCDX | 2026-09-03 10:30:46 | 47.43515 | 11.49455 | 129° | 84km/h | 14408m | 5.8m/s | -58.0°C | 4.4% | 141.7hPa | 2.7V | 00:00:00 | 00:00:00 | 00:00:00 | |
| DO3MHA-11 | 2026-09-03 10:30:42 | 47.43540 | 11.49405 | 126° | 80km/h | 14399m | 5.5m/s | -57.9°C | 8.3% | 141.8hPa | 2.7V | 00:00:00 | 01:02:53 | 00:00:00 | |
| HARRO8 | 2026-09-03 10:30:41 | 47.43564 | 11.49356 | 124° | 78km/h | 14389m | 3.9m/s | 0°C | -1.0% | 142.1hPa | 2.7V | 00:00:00 | 00:00:00 | 00:00:00 | |
| NBG1-10 | 2026-09-03 10:30:40 | 47.43564 | 11.49356 | 125° | 82km/h | 14389m | 3.8m/s | -57.9°C | 8.2% | 142.0hPa | 2.7V | 03:06:00 | 01:02:51 | 00:00:00 | |
| DL6DJ-15 | 2026-09-03 10:30:39 | 47.43575 | 11.49331 | 124° | 77km/h | 14385m | 5.2m/s | -58.0°C | 4.5% | 142.2hPa | 2.7V | 00:00:00 | 00:00:00 | 00:00:00 | |
| DG1MFX-10 | 2026-09-03 10:30:38 | 47.43575 | 11.49331 | 126° | 77km/h | 14385m | 5.2m/s | -58.0°C | 4.5% | 142.2hPa | 2.7V | 03:07:00 | 00:00:00 | 00:00:00 | |
| DO3MHA-12 | 2026-09-03 10:30:37 | 47.43598 | 11.49284 | 127° | 84km/h | 14375m | 5.2m/s | -58.1°C | 8.3% | 142.4hPa | 2.7V | 00:00:00 | 01:02:48 | 00:00:00 | |
| DG1MJG | 2026-09-03 10:30:36 | 47.43598 | 11.49284 | 128° | 78km/h | 14375m | 5.2m/s | -58.1°C | 4.5% | 142.4hPa | 2.7V | 03:07:00 | 00:00:00 | 00:00:00 | |
| OE5DXL-15 | 2026-09-03 10:30:35 | 47.43623 | 11.49238 | 130° | 84km/h | 14367m | 4.6m/s | -58.1°C | 8.4% | 142.5hPa | 2.7V | 00:00:00 | 00:00:00 | 00:00:00 | |
| OE3JTB-15 | 2026-09-03 10:30:33 | 47.43650 | 11.49191 | 131° | 84km/h | 14358m | 4.1m/s | -58.1°C | 8.4% | 142.8hPa | 2.7V | 00:00:00 | 00:00:00 | 00:00:00 | |
| DO3MHA-11 | 2026-09-03 10:30:32 | 47.43664 | 11.49167 | 130° | 86km/h | 14353m | 5.4m/s | -58.1°C | 8.4% | 142.9hPa | 2.7V | 00:00:00 | 01:02:43 | 00:00:00 | |
| PG1ADW-2 | 2026-09-03 10:30:29 | 47.43706 | 11.49091 | 129° | 84km/h | 14339m | 3.7m/s | -58.0°C | 8.5% | 143.2hPa | 2.7V | 00:00:00 | 01:02:40 | 00:00:00 | |
| DO3MHA-12 | 2026-09-03 10:30:27 | 47.43732 | 11.49040 | 128° | 84km/h | 14330m | 4.0m/s | -58.0°C | 8.5% | 143.4hPa | 2.7V | 00:00:00 | 01:02:38 | 00:00:00 | |
| OE5WHR-10 | 2026-09-03 10:30:26 | 47.43745 | 11.49015 | 128° | 82km/h | 14326m | 4.6m/s | -58.0°C | 8.4% | 143.5hPa | 2.7V | 00:00:00 | 01:02:37 | 00:00:00 | |
| DB0UT-7 | 2026-09-03 10:30:24 | 47.43771 | 11.48968 | 131° | 80km/h | 14316m | 3.7m/s | -58.0°C | 8.4% | 143.7hPa | 2.7V | 00:00:00 | 00:00:00 | 00:00:00 | |
| DO3MHA-11 | 2026-09-03 10:30:22 | 47.43799 | 11.48920 | 131° | 84km/h | 14307m | 4.3m/s | -57.9°C | 8.4% | 143.9hPa | 2.7V | 00:00:00 | 01:02:33 | 00:00:00 | |
| DO8TBO-1 | 2026-09-03 10:30:18 | 47.43853 | 11.48821 | 126° | 78km/h | 14288m | 3.7m/s | -58.1°C | 8.5% | 144.4hPa | 2.7V | 00:00:00 | 01:02:29 | 00:00:00 | |
| DO3MHA-12 | 2026-09-03 10:30:17 | 47.43865 | 11.48795 | 126° | 82km/h | 14283m | 4.6m/s | -58.2°C | 8.6% | 144.5hPa | 2.7V | 00:00:00 | 01:02:28 | 00:00:00 | |
| DB0ND-19 | 2026-09-03 10:30:15 | 47.43890 | 11.48745 | 127° | 80km/h | 14274m | 4.1m/s | -58.3°C | -1.0% | -1.0hPa | 2.7V | 00:00:00 | 00:00:00 | 00:00:00 | |
| OE5DRO-10 | 2026-09-03 10:30:13 | 47.43915 | 11.48697 | 128° | 78km/h | 14265m | 4.5m/s | -58.2°C | 8.7% | 144.9hPa | 2.7V | 00:00:00 | 00:00:00 | 00:00:00 | |
| DO3MHA-11 | 2026-09-03 10:30:12 | 47.43928 | 11.48673 | 130° | 80km/h | 14260m | 4.7m/s | -58.2°C | 8.6% | 145.0hPa | 2.7V | 03:07:00 | 01:02:23 | 00:00:00 | |
| HARRO8 | 2026-09-03 10:30:10 | 47.43969 | 11.48605 | 130° | 80km/h | 14247m | 4.9m/s | 0°C | -1.0% | -1.0hPa | 2.7V | 00:00:00 | 00:00:00 | 00:00:00 | |
| PG1ADW-2 | 2026-09-03 10:30:09 | 47.43969 | 11.48605 | 131° | 78km/h | 14247m | 4.8m/s | -58.1°C | 8.5% | 145.3hPa | 2.7V | 00:00:00 | 00:00:00 | 00:00:00 | |
| DL6DJ-15 | 2026-09-03 10:30:08 | 47.43982 | 11.48582 | 129° | 80km/h | 14242m | 4.3m/s | -58.1°C | 4.6% | 145.5hPa | 2.7V | 00:00:00 | 00:00:00 | 00:00:00 | |
| DO3MHA-12 | 2026-09-03 10:30:07 | 47.43994 | 11.48559 | 129° | 78km/h | 14238m | 4.5m/s | -58.1°C | 8.4% | 145.5hPa | 2.7V | 03:07:00 | 01:02:18 | 00:00:00 | |
| DG1MJG | 2026-09-03 10:30:06 | 47.43995 | 11.48559 | 129° | 78km/h | 14238m | 4.6m/s | -58.1°C | 4.6% | 145.6hPa | 2.7V | 03:07:00 | 00:00:00 | 00:00:00 | |
| OE5DXL-15 | 2026-09-03 10:30:05 | 47.44019 | 11.48513 | 128° | 77km/h | 14229m | 3.8m/s | -58.1°C | 8.2% | 145.7hPa | 2.7V | 00:00:00 | 00:00:00 | 00:00:00 | |
| OE3JTB-15 | 2026-09-03 10:30:04 | 47.44030 | 11.48490 | 127° | 77km/h | 14225m | 5.1m/s | -58.0°C | 8.2% | 145.8hPa | 2.7V | 00:00:00 | 00:00:00 | 00:00:00 | |
| DO3MHA-11 | 2026-09-03 10:30:02 | 47.44054 | 11.48442 | 127° | 78km/h | 14215m | 4.9m/s | -58.1°C | 8.2% | 146.0hPa | 2.7V | 00:00:00 | 01:02:13 | 00:00:00 | |
| DF7PN | 2026-09-03 10:29:51 | 47.44189 | 11.48193 | 130° | 73km/h | 14162m | 5.4m/s | -58.2°C | -1.0% | -1.0hPa | 2.7V | 00:00:00 | 00:00:00 | 00:00:00 | |
| PG1ADW-2 | 2026-09-03 10:29:49 | 47.44213 | 11.48150 | 130° | 75km/h | 14153m | 4.2m/s | -58.2°C | 8.5% | 147.5hPa | 2.7V | 03:07:00 | 00:00:00 | 00:00:00 | |
| DO8TBO-1 | 2026-09-03 10:29:48 | 47.44225 | 11.48129 | 130° | 100km/h | 14148m | 5.4m/s | -58.2°C | 8.5% | 147.6hPa | 2.7V | 03:07:00 | 01:01:59 | 00:00:00 | |
| DO3MHA-12 | 2026-09-03 10:29:47 | 47.44237 | 11.48107 | 129° | 75km/h | 14143m | 4.6m/s | -58.2°C | 8.4% | 147.8hPa | 2.7V | 00:00:00 | 01:01:58 | 00:00:00 | |
| DF1GD-15 | 2026-09-03 10:29:46 | 47.44237 | 11.48107 | 130° | 73km/h | 14143m | 4.7m/s | -58.2°C | 4.6% | 147.8hPa | 2.7V | 03:08:00 | 00:00:00 | 00:00:00 | |
| OE5WHR-10 | 2026-09-03 10:29:44 | 47.44272 | 11.48042 | 129° | 77km/h | 14128m | 5.0m/s | -58.1°C | 8.5% | 148.1hPa | 2.7V | 00:00:00 | 00:00:00 | 00:00:00 | |
| DO3MHA-11 | 2026-09-03 10:29:42 | 47.44295 | 11.47998 | 129° | 75km/h | 14120m | 5.0m/s | -58.1°C | 8.4% | 148.3hPa | 2.7V | 00:00:00 | 01:01:53 | 00:00:00 | |
| IN3HCDX | 2026-09-03 10:29:41 | 47.44295 | 11.47998 | 130° | 77km/h | 14120m | 5.0m/s | -58.1°C | 4.5% | 148.4hPa | 2.7V | 03:08:00 | 00:00:00 | 00:00:00 | |
| DO3MHA-12 | 2026-09-03 10:29:37 | 47.44359 | 11.47893 | 132° | 77km/h | 14095m | 4.0m/s | -57.9°C | 8.0% | 148.9hPa | 2.7V | 00:00:00 | 01:01:48 | 00:00:00 | |
| DG1MFX-10 | 2026-09-03 10:29:36 | 47.44359 | 11.47892 | 133° | 75km/h | 14095m | 4.1m/s | -57.9°C | 4.4% | 148.9hPa | 2.7V | 03:08:00 | 00:00:00 | 00:00:00 | |
| OE3JTB-15 | 2026-09-03 10:29:35 | 47.44384 | 11.47852 | 134° | 80km/h | 14087m | 4.9m/s | -57.8°C | 8.0% | 149.1hPa | 2.7V | 03:07:00 | 01:01:46 | 00:00:00 | |
| DO3MHA-11 | 2026-09-03 10:29:32 | 47.44422 | 11.47793 | 133° | 78km/h | 14072m | 4.3m/s | -57.7°C | 8.2% | 149.4hPa | 2.7V | 03:07:00 | 01:01:43 | 00:00:00 | |
| PG1ADW-2 | 2026-09-03 10:29:29 | 47.44463 | 11.47729 | 135° | 80km/h | 14058m | 4.8m/s | -57.6°C | 8.4% | 149.8hPa | 2.7V | 00:00:00 | 00:00:00 | 00:00:00 | |
| DO3MHA-12 | 2026-09-03 10:29:27 | 47.44492 | 11.47686 | 135° | 75km/h | 14049m | 4.3m/s | -57.6°C | 8.4% | 150.0hPa | 2.7V | 03:07:00 | 01:01:38 | 00:00:00 | |
| DB0UT-7 | 2026-09-03 10:29:24 | 47.44532 | 11.47625 | 134° | 84km/h | 14035m | 5.3m/s | -57.5°C | 8.1% | 150.3hPa | 2.7V | 00:00:00 | 00:00:00 | 00:00:00 | |
| DO3MHA-11 | 2026-09-03 10:29:22 | 47.44557 | 11.47584 | 132° | 80km/h | 14026m | 3.7m/s | -57.7°C | 8.0% | 150.5hPa | 2.7V | 00:00:00 | 01:01:33 | 00:00:00 | |
| BAUMI2-15 | 2026-09-03 10:29:21 | 47.44570 | 11.47563 | 133° | 77km/h | 14022m | 4.4m/s | -57.9°C | 8.1% | 150.6hPa | 2.7V | 03:08:00 | 01:01:32 | 00:00:00 | |
| IN3HCDX | 2026-09-03 10:29:20 | 47.44570 | 11.47563 | 134° | 73km/h | 14022m | 4.5m/s | -57.9°C | 4.4% | 150.6hPa | 2.7V | 03:08:00 | 00:00:00 | 00:00:00 | |
| DO3MHA-12 | 2026-09-03 10:29:17 | 47.44624 | 11.47484 | 136° | 88km/h | 14003m | 4.8m/s | -57.9°C | 8.3% | 151.1hPa | 2.7V | 00:00:00 | 01:01:28 | 00:00:00 | |
| OE5DRO-10 | 2026-09-03 10:29:16 | 47.44639 | 11.47463 | 137° | 88km/h | 13998m | 4.8m/s | -57.9°C | 8.3% | 151.2hPa | 2.7V | 03:08:00 | 00:00:00 | 00:00:00 | |
| DG1MFX-10 | 2026-09-03 10:29:15 | 47.44639 | 11.47463 | 137° | 84km/h | 13998m | 4.9m/s | -58.0°C | 4.6% | 151.2hPa | 2.7V | 03:08:00 | 00:00:00 | 00:00:00 | |
| DO3MHA-11 | 2026-09-03 10:29:12 | 47.44705 | 11.47375 | 137° | 88km/h | 13977m | 5.1m/s | -57.9°C | 8.5% | 151.7hPa | 2.7V | 00:00:00 | 01:01:23 | 00:00:00 | |
| BAUMI2-15 | 2026-09-03 10:29:11 | 47.44721 | 11.47352 | 138° | 88km/h | 13972m | 5.4m/s | -57.9°C | 8.5% | 151.8hPa | 2.7V | 00:00:00 | 01:01:22 | 00:00:00 | |
| PG1ADW-2 | 2026-09-03 10:29:09 | 47.44755 | 11.47308 | 138° | 88km/h | 13962m | 5.0m/s | -57.9°C | 8.5% | 152.0hPa | 2.7V | 00:00:00 | 01:01:20 | 00:00:00 | |
| DO3MHA-12 | 2026-09-03 10:29:07 | 47.44786 | 11.47264 | 137° | 88km/h | 13953m | 5.1m/s | -57.9°C | 8.6% | 152.3hPa | 2.7V | 00:00:00 | 01:01:18 | 00:00:00 | |
| BAUMI2-15 | 2026-09-03 10:29:06 | 47.44802 | 11.47242 | 138° | 86km/h | 13948m | 4.2m/s | -57.8°C | 8.6% | 152.4hPa | 2.7V | 00:00:00 | 01:01:17 | 00:00:00 | |
| OE5DXL-15 | 2026-09-03 10:29:05 | 47.44818 | 11.47221 | 138° | 84km/h | 13944m | 3.7m/s | -57.8°C | 8.6% | 152.5hPa | 2.7V | 03:08:00 | 00:00:00 | 00:00:00 | |
| OE5WHR-10 | 2026-09-03 10:29:02 | 47.44865 | 11.47155 | 138° | 84km/h | 13930m | 5.8m/s | -57.8°C | 8.7% | 152.9hPa | 2.7V | 00:00:00 | 00:00:00 | 00:00:00 | |
| BAUMI2-15 | 2026-09-03 10:29:01 | 47.44882 | 11.47133 | 138° | 89km/h | 13925m | 4.3m/s | -57.8°C | 8.8% | 152.9hPa | 2.7V | 03:08:00 | 01:01:12 | 00:00:00 | |
| IN3HCDX | 2026-09-03 10:28:59 | 47.44898 | 11.47110 | 137° | 89km/h | 13920m | 5.8m/s | -57.9°C | 5.0% | 153.1hPa | 2.7V | 03:09:00 | 00:00:00 | 00:00:00 | |
| DO3MHA-12 | 2026-09-03 10:28:57 | 47.44946 | 11.47040 | 137° | 86km/h | 13907m | 4.9m/s | -57.8°C | 9.1% | 153.4hPa | 2.7V | 00:00:00 | 01:01:08 | 00:00:00 | |
| BAUMI2-15 | 2026-09-03 10:28:56 | 47.44962 | 11.47018 | 138° | 89km/h | 13902m | 3.6m/s | -57.8°C | 9.1% | 153.5hPa | 2.7V | 00:00:00 | 01:01:07 | 00:00:00 | |
| DG1MFX-10 | 2026-09-03 10:28:55 | 47.44963 | 11.47018 | 138° | 89km/h | 13902m | 3.6m/s | -57.8°C | 5.2% | 153.5hPa | 2.7V | 03:09:00 | 00:00:00 | 00:00:00 | |
| DB0UT-7 | 2026-09-03 10:28:54 | 47.44995 | 11.46971 | 135° | 84km/h | 13893m | 5.1m/s | -57.7°C | 9.1% | 153.7hPa | 2.7V | 03:08:00 | 01:01:05 | 00:00:00 | |
| DO3MHA-11 | 2026-09-03 10:28:52 | 47.45026 | 11.46924 | 135° | 80km/h | 13884m | 5.0m/s | -57.7°C | 9.0% | 153.9hPa | 2.7V | 03:08:00 | 01:01:03 | 00:00:00 | |
| BAUMI2-15 | 2026-09-03 10:28:51 | 47.45041 | 11.46901 | 134° | 78km/h | 13879m | 4.8m/s | -57.7°C | 9.1% | 154.1hPa | 2.7V | 00:00:00 | 01:01:02 | 00:00:00 | |
| PG1ADW-2 | 2026-09-03 10:28:49 | 47.45068 | 11.46857 | 132° | 82km/h | 13869m | 4.0m/s | -57.6°C | 9.1% | 154.3hPa | 2.7V | 00:00:00 | 00:00:00 | 00:00:00 | |
| DO3MHA-12 | 2026-09-03 10:28:47 | 47.45095 | 11.46815 | 135° | 82km/h | 13859m | 4.1m/s | -57.6°C | 9.3% | 154.6hPa | 2.7V | 03:08:00 | 01:00:58 | 00:00:00 | |
| BAUMI2-15 | 2026-09-03 10:28:46 | 47.45109 | 11.46794 | 134° | 82km/h | 13854m | 5.7m/s | 0°C | 0% | 0hPa | 2.7V | 00:00:00 | 01:00:57 | 00:00:00 | |
| DO3MHA-11 | 2026-09-03 10:28:42 | 47.45168 | 11.46709 | 137° | 84km/h | 13835m | 4.4m/s | -57.4°C | 10.0% | 155.1hPa | 2.7V | 00:00:00 | 01:00:53 | 00:00:00 | |
| OE5WHR-10 | 2026-09-03 10:28:41 | 47.45183 | 11.46687 | 136° | 84km/h | 13831m | 4.6m/s | -57.5°C | 10.0% | 155.3hPa | 2.7V | 00:00:00 | 00:00:00 | 00:00:00 | |
| NBG1-10 | 2026-09-03 10:28:40 | 47.45198 | 11.46664 | 135° | 91km/h | 13826m | 4.3m/s | -57.5°C | 10.1% | 155.4hPa | 2.7V | 00:00:00 | 01:00:51 | 00:00:00 | |
| OE5DRO-10 | 2026-09-03 10:28:38 | 47.45229 | 11.46620 | 136° | 84km/h | 13816m | 4.5m/s | -57.7°C | 10.2% | 155.6hPa | 2.7V | 00:00:00 | 00:00:00 | 00:00:00 | |
| DO3MHA-12 | 2026-09-03 10:28:37 | 47.45243 | 11.46598 | 135° | 84km/h | 13811m | 5.3m/s | -57.7°C | 10.3% | 155.7hPa | 2.7V | 00:00:00 | 01:00:48 | 00:00:00 | |
| BAUMI2-15 | 2026-09-03 10:28:36 | 47.45258 | 11.46575 | 134° | 82km/h | 13807m | 3.7m/s | 0°C | 0% | 0hPa | 2.7V | 00:00:00 | 01:00:47 | 00:00:00 | |
| OE5DXL-15 | 2026-09-03 10:28:35 | 47.45273 | 11.46553 | 135° | 86km/h | 13802m | 5.4m/s | -57.8°C | 10.3% | 156.0hPa | 2.7V | 00:00:00 | 00:00:00 | 00:00:00 | |
| DG1MFX-10 | 2026-09-03 10:28:34 | 47.45273 | 11.46553 | 136° | 82km/h | 13802m | 5.4m/s | -57.8°C | 6.3% | 156.0hPa | 2.7V | 03:09:00 | 00:00:00 | 00:00:00 | |
| DO3MHA-11 | 2026-09-03 10:28:32 | 47.45319 | 11.46490 | 138° | 86km/h | 13789m | 5.5m/s | -57.8°C | 10.6% | 156.3hPa | 2.7V | 00:00:00 | 01:00:43 | 00:00:00 | |
| BAUMI2-15 | 2026-09-03 10:28:31 | 47.45334 | 11.46469 | 139° | 86km/h | 13784m | 4.5m/s | 0°C | 0% | 0hPa | 2.7V | 00:00:00 | 01:00:42 | 00:00:00 | |
| PG1ADW-2 | 2026-09-03 10:28:29 | 47.45367 | 11.46428 | 141° | 86km/h | 13774m | 4.0m/s | -57.7°C | 0% | 156.7hPa | 2.7V | 03:08:00 | 00:00:00 | 00:00:00 | |
| DO3MHA-12 | 2026-09-03 10:28:27 | 47.45400 | 11.46387 | 141° | 86km/h | 13764m | 4.0m/s | -57.7°C | 10.9% | 156.9hPa | 2.7V | 00:00:00 | 01:00:38 | 00:00:00 | |
| BAUMI2-15 | 2026-09-03 10:28:26 | 47.45417 | 11.46367 | 141° | 86km/h | 13759m | 5.8m/s | 0°C | 0% | 0hPa | 2.7V | 00:00:00 | 01:00:37 | 00:00:00 | |
| DB0UT-7 | 2026-09-03 10:28:24 | 47.45451 | 11.46326 | 140° | 93km/h | 13750m | 5.6m/s | -57.6°C | 11.3% | 157.3hPa | 2.7V | 00:00:00 | 00:00:00 | 00:00:00 | |
| DO3MHA-11 | 2026-09-03 10:28:22 | 47.45483 | 11.46284 | 140° | 88km/h | 13741m | 5.2m/s | -57.6°C | 11.3% | 157.5hPa | 2.7V | 00:00:00 | 01:00:33 | 00:00:00 | |
| BAUMI2-15 | 2026-09-03 10:28:21 | 47.45500 | 11.46264 | 141° | 86km/h | 13736m | 4.6m/s | 0°C | 0% | 0hPa | 2.7V | 03:09:00 | 01:00:32 | 00:00:00 | |
| OE5WHR-10 | 2026-09-03 10:28:20 | 47.45516 | 11.46243 | 140° | 91km/h | 13731m | 5.0m/s | -57.6°C | 11.5% | 157.7hPa | 2.7V | 00:00:00 | 01:00:31 | 00:00:00 | |
| OE5DRO-10 | 2026-09-03 10:28:19 | 47.45532 | 11.46222 | 139° | 91km/h | 13726m | 4.6m/s | -57.6°C | 11.7% | 157.9hPa | 2.7V | 00:00:00 | 00:00:00 | 00:00:00 | |
| DO3MHA-12 | 2026-09-03 10:28:17 | 47.45566 | 11.46179 | 140° | 89km/h | 13717m | 4.8m/s | -57.7°C | 11.9% | 158.1hPa | 2.7V | 00:00:00 | 01:00:28 | 00:00:00 | |
| BAUMI2-15 | 2026-09-03 10:28:16 | 47.45583 | 11.46158 | 140° | 88km/h | 13712m | 4.8m/s | 0°C | 0% | 0hPa | 2.7V | 00:00:00 | 01:00:27 | 00:00:00 | |
| DG1MFX-10 | 2026-09-03 10:28:13 | 47.45617 | 11.46116 | 142° | 88km/h | 13703m | 4.2m/s | -57.7°C | 7.7% | 158.5hPa | 2.7V | 03:09:00 | 00:00:00 | 00:00:00 | |
| DO3MHA-11 | 2026-09-03 10:28:12 | 47.45652 | 11.46076 | 143° | 91km/h | 13693m | 5.0m/s | -57.6°C | 12.0% | 158.6hPa | 2.7V | 03:09:00 | 01:00:23 | 00:00:00 | |
| BAUMI2-15 | 2026-09-03 10:28:11 | 47.45669 | 11.46056 | 143° | 89km/h | 13689m | 4.1m/s | 0°C | 0% | 0hPa | 2.7V | 00:00:00 | 01:00:22 | 00:00:00 | |
| PG1ADW-2 | 2026-09-03 10:28:09 | 47.45706 | 11.46016 | 144° | 100km/h | 13679m | 5.4m/s | 0°C | 0% | 0hPa | 2.7V | 00:00:00 | 00:00:00 | 00:00:00 | |
| DO3MHA-12 | 2026-09-03 10:28:07 | 47.45742 | 11.45974 | 142° | 97km/h | 13669m | 5.0m/s | -57.8°C | 12.4% | 159.3hPa | 2.7V | 03:09:00 | 01:00:18 | 00:00:00 | |
| BAUMI2-15 | 2026-09-03 10:28:06 | 47.45760 | 11.45952 | 141° | 95km/h | 13665m | 4.1m/s | 0°C | 0% | 0hPa | 2.7V | 00:00:00 | 01:00:17 | 00:00:00 | |
| OE5DXL-15 | 2026-09-03 10:28:05 | 47.45779 | 11.45930 | 141° | 106km/h | 13660m | 6.3m/s | -57.9°C | 12.6% | 159.6hPa | 2.7V | 00:00:00 | 00:00:00 | 00:00:00 | |
| DL6DJ-15 | 2026-09-03 10:28:04 | 47.45797 | 11.45908 | 140° | 95km/h | 13654m | 4.6m/s | -57.9°C | 8.5% | 159.7hPa | 2.7V | 00:00:00 | 00:00:00 | 00:00:00 | |
| OE3JTB-15 | 2026-09-03 10:28:02 | 47.45834 | 11.45861 | 140° | 108km/h | 13645m | 3.9m/s | -58.0°C | 13.5% | 159.9hPa | 2.7V | 00:00:00 | 01:00:13 | 00:00:00 | |
| BAUMI2-15 | 2026-09-03 10:28:01 | 47.45853 | 11.45838 | 140° | 100km/h | 13640m | 6.2m/s | 0°C | 0% | 0hPa | 2.7V | 00:00:00 | 01:00:12 | 00:00:00 | |
| OE5DRO-10 | 2026-09-03 10:28:00 | 47.45873 | 11.45814 | 141° | 108km/h | 13635m | 4.3m/s | -58.1°C | 14.0% | 160.2hPa | 2.7V | 03:09:00 | 00:00:00 | 00:00:00 | |
| OE5WHR-10 | 2026-09-03 10:27:59 | 47.45892 | 11.45789 | 141° | 108km/h | 13630m | 5.6m/s | -58.2°C | 14.1% | 160.3hPa | 2.7V | 03:09:00 | 00:00:00 | 00:00:00 | |
| DF1GD-15 | 2026-09-03 10:27:58 | 47.45892 | 11.45789 | 141° | 102km/h | 13630m | 5.6m/s | -58.2°C | 9.5% | 160.3hPa | 2.7V | 03:10:00 | 00:00:00 | 00:00:00 | |
| DO3MHA-12 | 2026-09-03 10:27:57 | 47.45933 | 11.45742 | 144° | 106km/h | 13620m | 5.9m/s | -58.1°C | 14.2% | 160.5hPa | 2.7V | 00:00:00 | 01:00:08 | 00:00:00 | |
| BAUMI2-15 | 2026-09-03 10:27:56 | 47.45954 | 11.45719 | 145° | 108km/h | 13615m | 4.6m/s | 0°C | 0% | 0hPa | 2.7V | 00:00:00 | 01:00:07 | 00:00:00 | |
| DB0UT-7 | 2026-09-03 10:27:54 | 47.45996 | 11.45673 | 143° | 113km/h | 13605m | 4.1m/s | -58.3°C | 14.2% | 160.9hPa | 2.7V | 00:00:00 | 01:00:05 | 00:00:00 | |
| DO3MHA-11 | 2026-09-03 10:27:52 | 47.46038 | 11.45625 | 142° | 110km/h | 13595m | 6.0m/s | -58.5°C | 14.3% | 161.1hPa | 2.7V | 00:00:00 | 01:00:03 | 00:00:00 | |
| PG1ADW-2 | 2026-09-03 10:27:49 | 47.46099 | 11.45548 | 139° | 113km/h | 13580m | 5.3m/s | 0°C | 0% | 0hPa | 2.7V | 00:00:00 | 01:00:00 | 00:00:00 | |
| DO3MHA-12 | 2026-09-03 10:27:47 | 47.46140 | 11.45496 | 140° | 113km/h | 13569m | 3.8m/s | -58.5°C | 15.2% | 161.8hPa | 2.7V | 00:00:00 | 00:59:58 | 00:00:00 | |
| BAUMI2-15 | 2026-09-03 10:27:44 | 47.46203 | 11.45413 | 137° | 115km/h | 13556m | 4.5m/s | 0°C | 0% | 0hPa | 2.7V | 00:00:00 | 00:59:55 | 00:00:00 | |
| DO3MHA-11 | 2026-09-03 10:27:42 | 47.46246 | 11.45354 | 138° | 115km/h | 13546m | 5.0m/s | -58.5°C | 14.9% | 162.4hPa | 2.7V | 00:00:00 | 00:59:53 | 00:00:00 | |
| OE5DRO-10 | 2026-09-03 10:27:41 | 47.46268 | 11.45325 | 138° | 117km/h | 13540m | 6.4m/s | -58.5°C | 14.9% | 162.6hPa | 2.7V | 00:00:00 | 00:00:00 | 00:00:00 | |
| BAUMI2-15 | 2026-09-03 10:27:39 | 47.46310 | 11.45266 | 138° | 113km/h | 13529m | 5.8m/s | 0°C | 0% | 0hPa | 2.7V | 00:00:00 | 00:59:50 | 00:00:00 | |
| OE5WHR-10 | 2026-09-03 10:27:38 | 47.46332 | 11.45237 | 138° | 117km/h | 13524m | 4.1m/s | -58.6°C | 15.1% | 162.9hPa | 2.7V | 00:00:00 | 00:00:00 | 00:00:00 | |
| DO3MHA-12 | 2026-09-03 10:27:37 | 47.46353 | 11.45208 | 137° | 115km/h | 13520m | 5.3m/s | -58.7°C | 15.1% | 163.0hPa | 2.7V | 00:00:00 | 00:59:48 | 00:00:00 | |
| OE5DXL-15 | 2026-09-03 10:27:35 | 47.46393 | 11.45149 | 135° | 115km/h | 13510m | 4.0m/s | -58.7°C | 15.1% | 163.3hPa | 2.7V | 00:00:00 | 00:00:00 | 00:00:00 | |
| OE3JTB-15 | 2026-09-03 10:27:33 | 47.46433 | 11.45088 | 134° | 115km/h | 13501m | 4.3m/s | -58.7°C | 15.1% | 163.6hPa | 2.7V | 03:09:00 | 00:00:00 | 00:00:00 | |
| DO3MHA-11 | 2026-09-03 10:27:32 | 47.46453 | 11.45057 | 133° | 119km/h | 13495m | 5.8m/s | -58.7°C | 15.1% | 163.7hPa | 2.7V | 03:09:00 | 00:59:43 | 00:00:00 | |
| DG1MFX-10 | 2026-09-03 10:27:31 | 47.46453 | 11.45057 | 133° | 115km/h | 13495m | 5.8m/s | -58.8°C | 10.2% | 163.8hPa | 2.7V | 03:10:00 | 00:00:00 | 00:00:00 | |
| PG1ADW-2 | 2026-09-03 10:27:29 | 47.46512 | 11.44960 | 133° | 117km/h | 13480m | 4.3m/s | 0°C | 0% | 0hPa | 2.7V | 00:00:00 | 00:00:00 | 00:00:00 | |
| DO3MHA-12 | 2026-09-03 10:27:27 | 47.46552 | 11.44893 | 131° | 117km/h | 13470m | 4.5m/s | -58.6°C | 15.1% | 164.3hPa | 2.7V | 03:09:00 | 00:59:38 | 00:00:00 | |
| DL2OL | 2026-09-03 10:27:26 | 47.46552 | 11.44893 | 132° | 119km/h | 13470m | 4.6m/s | -58.6°C | 10.2% | 164.4hPa | 2.7V | 00:00:00 | 00:00:00 | 00:00:00 | |
| DB0UT-7 | 2026-09-03 10:27:24 | 47.46611 | 11.44793 | 131° | 111km/h | 13456m | 3.8m/s | -58.5°C | 15.2% | 164.7hPa | 2.7V | 00:00:00 | 00:00:00 | 00:00:00 | |
| DO3MHA-11 | 2026-09-03 10:27:22 | 47.46649 | 11.44725 | 130° | 113km/h | 13447m | 4.5m/s | -58.4°C | 15.6% | 165.0hPa | 2.7V | 00:00:00 | 00:59:33 | 00:00:00 | |
| DB0NH | 2026-09-03 10:27:20 | 47.46687 | 11.44658 | 130° | 110km/h | 13436m | 3.6m/s | -58.3°C | 15.9% | 165.2hPa | 2.7V | 00:00:00 | 00:59:31 | 00:00:00 | |
| DF1GD-15 | 2026-09-03 10:27:18 | 47.46705 | 11.44625 | 130° | 115km/h | 13432m | 4.9m/s | -58.3°C | 10.9% | 165.5hPa | 2.7V | 03:10:00 | 00:00:00 | 00:00:00 | |
| DO3MHA-12 | 2026-09-03 10:27:17 | 47.46742 | 11.44560 | 132° | 113km/h | 13422m | 5.0m/s | -58.2°C | 15.8% | 165.6hPa | 2.7V | 00:00:00 | 00:59:28 | 00:00:00 | |
| DF7PN | 2026-09-03 10:27:16 | 47.46779 | 11.44499 | 131° | 110km/h | 13414m | 5.2m/s | -58.3°C | -1.0% | -1.0hPa | 2.7V | 00:00:00 | 00:00:00 | 00:00:00 | |
| IN3HCDX | 2026-09-03 10:27:14 | 47.46779 | 11.44499 | 133° | 110km/h | 13414m | 5.2m/s | -58.3°C | 10.8% | 165.9hPa | 2.7V | 03:10:00 | 00:00:00 | 00:00:00 | |
| DG1MFX-10 | 2026-09-03 10:27:10 | 47.46856 | 11.44373 | 133° | 115km/h | 13395m | 4.7m/s | -58.2°C | 10.8% | 166.4hPa | 2.7V | 03:10:00 | 00:00:00 | 00:00:00 | |
| PG1ADW-2 | 2026-09-03 10:27:09 | 47.46894 | 11.44309 | 131° | 111km/h | 13386m | 4.4m/s | 0°C | 0% | 0hPa | 2.7V | 00:00:00 | 00:00:00 | 00:00:00 | |
| DO3MHA-12 | 2026-09-03 10:27:07 | 47.46931 | 11.44245 | 131° | 110km/h | 13377m | 4.0m/s | -58.1°C | 15.6% | 166.9hPa | 2.7V | 00:00:00 | 00:59:18 | 00:00:00 | |
| OE5DXL-15 | 2026-09-03 10:27:05 | 47.46966 | 11.44182 | 129° | 108km/h | 13368m | 3.4m/s | -58.2°C | 16.1% | 167.1hPa | 2.7V | 03:10:00 | 00:00:00 | 00:00:00 | |
| OE3JTB-15 | 2026-09-03 10:27:04 | 47.46984 | 11.44150 | 130° | 108km/h | 13363m | 6.2m/s | -58.2°C | 16.3% | 167.2hPa | 2.7V | 00:00:00 | 00:00:00 | 00:00:00 | |
| OE5DRO-10 | 2026-09-03 10:27:03 | 47.47002 | 11.44118 | 131° | 108km/h | 13358m | 4.0m/s | -58.2°C | 16.6% | 167.3hPa | 2.7V | 00:00:00 | 00:00:00 | 00:00:00 | |
| DO3MHA-11 | 2026-09-03 10:27:02 | 47.47020 | 11.44086 | 130° | 108km/h | 13353m | 5.7m/s | -58.2°C | 16.8% | 167.5hPa | 2.7V | 00:00:00 | 00:59:13 | 00:00:00 | |
| DF7PN | 2026-09-03 10:26:45 | 47.47342 | 11.43552 | 131° | 100km/h | 13270m | 4.8m/s | -59.9°C | -1.0% | -1.0hPa | 2.7V | 00:00:00 | 00:00:00 | 00:00:00 | |
| OE5DRO-10 | 2026-09-03 10:26:44 | 47.47342 | 11.43552 | 132° | 108km/h | 13270m | 4.8m/s | -59.8°C | 24.0% | 169.7hPa | 2.7V | 03:10:00 | 00:00:00 | 00:00:00 | |
| DO3MHA-11 | 2026-09-03 10:26:42 | 47.47375 | 11.43496 | 132° | 113km/h | 13261m | 4.9m/s | -59.9°C | 25.5% | 170.0hPa | 2.7V | 00:00:00 | 00:58:53 | 00:00:00 | |
| DO3MHA-12 | 2026-09-03 10:26:37 | 47.47465 | 11.43340 | 131° | 111km/h | 13237m | 3.7m/s | -59.8°C | 27.0% | 170.6hPa | 2.7V | 00:00:00 | 00:58:48 | 00:00:00 | |
| DF1GD-15 | 2026-09-03 10:26:36 | 47.47466 | 11.43340 | 131° | 117km/h | 13237m | 3.7m/s | -59.9°C | 20.3% | 170.7hPa | 2.7V | 03:10:00 | 00:00:00 | 00:00:00 | |
| OE5DXL-15 | 2026-09-03 10:26:35 | 47.47504 | 11.43272 | 131° | 108km/h | 13228m | 3.6m/s | -59.7°C | 26.9% | 170.9hPa | 2.7V | 00:00:00 | 00:00:00 | 00:00:00 | |
| IN3HCDX | 2026-09-03 10:26:33 | 47.47524 | 11.43239 | 133° | 117km/h | 13224m | 3.8m/s | -59.8°C | 20.2% | 171.0hPa | 2.7V | 03:10:00 | 00:00:00 | 00:00:00 | |
| OE3JTB-15 | 2026-09-03 10:26:32 | 47.47564 | 11.43177 | 136° | 117km/h | 13214m | 4.7m/s | -59.7°C | 26.9% | 171.2hPa | 2.7V | 00:00:00 | 00:58:43 | 00:00:00 | |
| OE5WHR-10 | 2026-09-03 10:26:31 | 47.47583 | 11.43149 | 135° | 108km/h | 13209m | 5.0m/s | -59.6°C | 27.1% | 171.4hPa | 2.7V | 03:10:00 | 00:00:00 | 00:00:00 | |
| DG1MFX-10 | 2026-09-03 10:26:29 | 47.47601 | 11.43121 | 134° | 102km/h | 13205m | 3.8m/s | -59.7°C | 20.8% | 171.5hPa | 2.7V | 03:10:00 | 00:00:00 | 00:00:00 | |
| DO3MHA-12 | 2026-09-03 10:26:27 | 47.47652 | 11.43035 | 130° | 111km/h | 13189m | 5.4m/s | -60.0°C | 29.1% | 171.9hPa | 2.7V | 00:00:00 | 00:58:38 | 00:00:00 | |
| OE5DRO-10 | 2026-09-03 10:26:25 | 47.47685 | 11.42973 | 127° | 108km/h | 13177m | 6.1m/s | -60.1°C | 29.7% | 172.3hPa | 2.7V | 00:00:00 | 00:00:00 | 00:00:00 | |
| DB0UT-7 | 2026-09-03 10:26:24 | 47.47701 | 11.42940 | 126° | 108km/h | 13171m | 5.2m/s | -60.1°C | 29.9% | 172.4hPa | 2.7V | 00:00:00 | 00:00:00 | 00:00:00 | |
| NBG1-10 | 2026-09-03 10:26:23 | 47.47717 | 11.42906 | 127° | 106km/h | 13165m | 7.0m/s | -60.2°C | 30.4% | 172.6hPa | 2.7V | 00:00:00 | 00:58:34 | 00:00:00 | |
| DO3MHA-11 | 2026-09-03 10:26:22 | 47.47734 | 11.42873 | 127° | 110km/h | 13159m | 4.4m/s | -60.4°C | 31.3% | 172.8hPa | 2.7V | 00:00:00 | 00:58:33 | 00:00:00 | |
| DO3MHA-12 | 2026-09-03 10:26:17 | 47.47816 | 11.42698 | 122° | 104km/h | 13137m | 3.5m/s | -60.3°C | 33.4% | 173.4hPa | 2.7V | 00:00:00 | 00:58:28 | 00:00:00 | |
| DB0NH | 2026-09-03 10:26:16 | 47.47830 | 11.42664 | 122° | 102km/h | 13132m | 5.0m/s | -60.4°C | 34.0% | 173.5hPa | 2.7V | 00:00:00 | 00:58:27 | 00:00:00 | |
| DO8TBO-1 | 2026-09-03 10:26:15 | 47.47844 | 11.42630 | 121° | 104km/h | 13127m | 4.1m/s | -60.4°C | 34.8% | 173.6hPa | 2.7V | 00:00:00 | 00:58:26 | 00:00:00 | |
| DO3MHA-11 | 2026-09-03 10:26:12 | 47.47885 | 11.42532 | 124° | 104km/h | 13115m | 4.3m/s | -60.5°C | 36.4% | 174.0hPa | 2.7V | 03:11:00 | 00:58:23 | 00:00:00 | |
| DL2OL | 2026-09-03 10:26:11 | 47.47885 | 11.42532 | 124° | 99km/h | 13115m | 4.4m/s | -60.6°C | 28.4% | 174.1hPa | 2.7V | 03:11:00 | 00:00:00 | 00:00:00 | |
| OE5WHR-10 | 2026-09-03 10:26:10 | 47.47914 | 11.42471 | 126° | 104km/h | 13106m | 5.3m/s | -60.5°C | 36.8% | 174.2hPa | 2.7V | 00:00:00 | 00:58:21 | 00:00:00 | |
| DG1MFX-10 | 2026-09-03 10:26:08 | 47.47930 | 11.42439 | 127° | 108km/h | 13102m | 3.7m/s | -60.5°C | 29.1% | 174.4hPa | 2.7V | 03:11:00 | 00:00:00 | 00:00:00 | |
| DO3MHA-12 | 2026-09-03 10:26:07 | 47.47962 | 11.42373 | 127° | 104km/h | 13093m | 4.5m/s | -60.5°C | 37.9% | 174.6hPa | 2.7V | 03:11:00 | 00:58:18 | 00:00:00 | |
| OE5DRO-10 | 2026-09-03 10:26:06 | 47.47978 | 11.42341 | 127° | 104km/h | 13089m | 3.6m/s | -60.4°C | 37.8% | 174.7hPa | 2.7V | 00:00:00 | 00:00:00 | 00:00:00 | |
| OE5DXL-15 | 2026-09-03 10:26:05 | 47.47995 | 11.42309 | 128° | 104km/h | 13085m | 5.1m/s | -60.5°C | 38.0% | 174.8hPa | 2.7V | 00:00:00 | 00:00:00 | 00:00:00 | |
| DO3MHA-11 | 2026-09-03 10:26:02 | 47.48043 | 11.42218 | 127° | 106km/h | 13069m | 5.1m/s | -60.4°C | 38.9% | 175.3hPa | 2.7V | 00:00:00 | 00:58:13 | 00:00:00 | |
| DL6DJ-15 | 2026-09-03 10:26:00 | 47.48074 | 11.42156 | 125° | 102km/h | 13059m | 5.4m/s | -60.4°C | 31.9% | 175.6hPa | 2.7V | 00:00:00 | 00:00:00 | 00:00:00 | |
| DO3MHA-12 | 2026-09-03 10:25:57 | 47.48121 | 11.42061 | 128° | 102km/h | 13045m | 5.6m/s | -60.4°C | 41.8% | 176.0hPa | 2.7V | 00:00:00 | 00:58:08 | 00:00:00 | |
| DF1GD-15 | 2026-09-03 10:25:55 | 47.48138 | 11.42029 | 129° | 110km/h | 13040m | 4.6m/s | -60.4°C | 33.6% | 176.2hPa | 2.7V | 03:11:00 | 00:00:00 | 00:00:00 | |
| DB0UT-7 | 2026-09-03 10:25:54 | 47.48171 | 11.41964 | 128° | 106km/h | 13030m | 3.7m/s | -60.5°C | 42.6% | 176.4hPa | 2.7V | 00:00:00 | 00:58:05 | 00:00:00 | |
| DO3MHA-11 | 2026-09-03 10:25:52 | 47.48204 | 11.41902 | 130° | 102km/h | 13020m | 3.9m/s | -60.5°C | 42.5% | 176.7hPa | 2.7V | 00:00:00 | 00:58:03 | 00:00:00 | |
| IN3HCDX | 2026-09-03 10:25:51 | 47.48204 | 11.41902 | 130° | 100km/h | 13020m | 4.0m/s | -60.6°C | 34.0% | 176.7hPa | 2.7V | 03:11:00 | 00:00:00 | 00:00:00 | |
| NBG1-10 | 2026-09-03 10:25:50 | 47.48235 | 11.41847 | 130° | 108km/h | 13011m | 5.3m/s | -60.6°C | 42.4% | 176.9hPa | 2.7V | 00:00:00 | 00:58:01 | 00:00:00 | |
| OE5WHR-10 | 2026-09-03 10:25:49 | 47.48250 | 11.41819 | 131° | 104km/h | 13006m | 4.7m/s | -60.6°C | 43.0% | 177.1hPa | 2.7V | 00:00:00 | 00:00:00 | 00:00:00 | |
| DO3MHA-12 | 2026-09-03 10:25:47 | 47.48281 | 11.41764 | 129° | 110km/h | 12997m | 5.9m/s | -60.8°C | 44.8% | 177.3hPa | 2.7V | 00:00:00 | 00:57:58 | 00:00:00 | |
| DB0NH | 2026-09-03 10:25:46 | 47.48297 | 11.41736 | 129° | 111km/h | 12992m | 2.8m/s | -60.7°C | 45.6% | 177.5hPa | 2.7V | 00:00:00 | 00:57:57 | 00:00:00 | |
| DO8TBO-1 | 2026-09-03 10:25:45 | 47.48313 | 11.41706 | 129° | 111km/h | 12988m | 5.5m/s | -60.8°C | 46.7% | 177.6hPa | 2.7V | 00:00:00 | 00:57:56 | 00:00:00 | |
| DO3MHA-11 | 2026-09-03 10:25:42 | 47.48372 | 11.41609 | 136° | 104km/h | 12972m | 4.7m/s | -60.8°C | 50.7% | 178.0hPa | 2.7V | 00:00:00 | 00:57:53 | 00:00:00 | |
| DH7VM-15 | 2026-09-03 10:25:41 | 47.48372 | 11.41609 | 136° | 120km/h | 12972m | 4.7m/s | -60.8°C | 0% | 0hPa | 2.7V | 00:00:00 | 00:00:00 | 00:00:00 | |
| DO3MHA-12 | 2026-09-03 10:25:37 | 47.48469 | 11.41462 | 131° | 102km/h | 12949m | 5.0m/s | -60.7°C | 49.0% | 178.7hPa | 2.7V | 00:00:00 | 00:57:48 | 00:00:00 | |
| DL2OL | 2026-09-03 10:25:36 | 47.48469 | 11.41462 | 131° | 99km/h | 12949m | 5.1m/s | -60.8°C | 39.9% | 178.7hPa | 2.7V | 03:11:00 | 00:00:00 | 00:00:00 | |
| OE5DXL-15 | 2026-09-03 10:25:35 | 47.48501 | 11.41409 | 135° | 117km/h | 12939m | 5.4m/s | -60.7°C | 49.8% | 179.0hPa | 2.7V | 00:00:00 | 00:00:00 | 00:00:00 | |
| DF1GD-15 | 2026-09-03 10:25:33 | 47.48518 | 11.41386 | 142° | 95km/h | 12934m | 3.7m/s | -60.8°C | 41.3% | 179.2hPa | 2.7V | 03:12:00 | 00:00:00 | 00:00:00 | |
| DO3MHA-11 | 2026-09-03 10:25:32 | 47.48558 | 11.41342 | 144° | 111km/h | 12922m | 9.8m/s | -60.9°C | 51.4% | 179.4hPa | 2.7V | 03:11:00 | 00:57:43 | 00:00:00 | |
| IN3HCDX | 2026-09-03 10:25:30 | 47.48579 | 11.41318 | 143° | 106km/h | 12912m | 9.9m/s | -61.0°C | 42.9% | 179.7hPa | 2.7V | 00:00:00 | 00:00:00 | 00:00:00 | |
| DL6DJ-15 | 2026-09-03 10:25:29 | 47.48621 | 11.41265 | 138° | 113km/h | 12895m | 7.3m/s | -61.0°C | 43.2% | 180.2hPa | 2.7V | 00:00:00 | 00:00:00 | 00:00:00 | |
| OE5WHR-10 | 2026-09-03 10:25:28 | 47.48643 | 11.41236 | 138° | 120km/h | 12888m | 7.2m/s | -61.2°C | 53.6% | 180.4hPa | 2.7V | 00:00:00 | 00:00:00 | 00:00:00 | |
| DO3MHA-12 | 2026-09-03 10:25:27 | 47.48665 | 11.41207 | 139° | 117km/h | 12882m | 4.9m/s | -61.6°C | 55.2% | 180.6hPa | 2.7V | 03:11:00 | 00:57:38 | 00:00:00 | |
| DB0UT-7 | 2026-09-03 10:25:24 | 47.48729 | 11.41122 | 139° | 126km/h | 12869m | 3.4m/s | -61.9°C | 55.7% | 181.0hPa | 2.7V | 00:00:00 | 00:00:00 | 00:00:00 | |
| DO3MHA-11 | 2026-09-03 10:25:22 | 47.48772 | 11.41067 | 141° | 124km/h | 12860m | 4.2m/s | -61.9°C | 56.9% | 181.3hPa | 2.7V | 00:00:00 | 00:57:33 | 00:00:00 | |
| DO3MHA-12 | 2026-09-03 10:25:17 | 47.48892 | 11.40925 | 143° | 126km/h | 12836m | 3.0m/s | -62.1°C | 62.0% | 182.0hPa | 2.7V | 00:00:00 | 00:57:28 | 00:00:00 | |
| DB0NH | 2026-09-03 10:25:16 | 47.48918 | 11.40896 | 142° | 120km/h | 12832m | 5.1m/s | -62.1°C | 61.6% | 182.1hPa | 2.7V | 00:00:00 | 00:57:27 | 00:00:00 | |
| DO8TBO-1 | 2026-09-03 10:25:15 | 47.48943 | 11.40866 | 142° | 131km/h | 12827m | 4.2m/s | -62.2°C | 62.1% | 182.3hPa | 2.7V | 00:00:00 | 00:57:26 | 00:00:00 | |
| DO3MHA-11 | 2026-09-03 10:25:12 | 47.49017 | 11.40777 | 141° | 128km/h | 12814m | 5.0m/s | -62.2°C | 62.6% | 182.6hPa | 2.7V | 00:00:00 | 00:57:23 | 00:00:00 | |
| OE5DRO-10 | 2026-09-03 10:25:09 | 47.49090 | 11.40686 | 141° | 131km/h | 12800m | 3.6m/s | -62.1°C | 63.0% | 183.0hPa | 2.7V | 00:00:00 | 00:00:00 | 00:00:00 | |
| DO3MHA-12 | 2026-09-03 10:25:07 | 47.49140 | 11.40625 | 140° | 131km/h | 12791m | 4.0m/s | -62.1°C | 63.3% | 183.3hPa | 2.7V | 00:00:00 | 00:57:18 | 00:00:00 | |
| DG1MFX-10 | 2026-09-03 10:25:06 | 47.49140 | 11.40625 | 141° | 130km/h | 12791m | 4.1m/s | -62.2°C | 52.2% | 183.4hPa | 2.7V | 03:12:00 | 00:00:00 | 00:00:00 | |
| OE5DXL-15 | 2026-09-03 10:25:05 | 47.49190 | 11.40563 | 141° | 133km/h | 12782m | 3.7m/s | -62.3°C | 63.0% | 183.6hPa | 2.7V | 03:12:00 | 00:00:00 | 00:00:00 | |
| DM7RM-13 | 2026-09-03 10:25:04 | 47.49190 | 11.40563 | 142° | 130km/h | 12782m | 3.8m/s | 0°C | 0% | 0hPa | 2.7V | 00:00:00 | 00:00:00 | 00:00:00 | |
| DG1MJG | 2026-09-03 10:25:02 | 47.49266 | 11.40468 | 141° | 130km/h | 12768m | 5.5m/s | -62.4°C | 50.9% | 184.0hPa | 2.7V | 03:12:00 | 00:00:00 | 00:00:00 | |
| DL2OL | 2026-09-03 10:25:01 | 47.49266 | 11.40468 | 141° | 130km/h | 12768m | 5.5m/s | -62.4°C | 50.9% | 184.0hPa | 2.7V | 00:00:00 | 00:00:00 | 00:00:00 | |
| DL6DJ-15 | 2026-09-03 10:24:58 | 47.49366 | 11.40341 | 139° | 131km/h | 12750m | 3.4m/s | -62.3°C | 51.3% | 184.6hPa | 2.7V | 00:00:00 | 00:00:00 | 00:00:00 | |
| DO3MHA-12 | 2026-09-03 10:24:57 | 47.49392 | 11.40309 | 140° | 133km/h | 12746m | 4.3m/s | -62.2°C | 62.4% | 184.7hPa | 2.7V | 00:00:00 | 00:57:08 | 00:00:00 | |
| DB0UT-7 | 2026-09-03 10:24:54 | 47.49468 | 11.40212 | 138° | 135km/h | 12734m | 4.7m/s | -62.1°C | 61.7% | 185.0hPa | 2.7V | 03:12:00 | 00:57:05 | 00:00:00 | |
| DO3MHA-11 | 2026-09-03 10:24:52 | 47.49517 | 11.40145 | 138° | 135km/h | 12725m | 5.3m/s | -62.1°C | 62.6% | 185.3hPa | 2.7V | 03:12:00 | 00:57:03 | 00:00:00 | |
| OE5DRO-10 | 2026-09-03 10:24:50 | 47.49566 | 11.40079 | 137° | 137km/h | 12716m | 5.3m/s | -62.0°C | 63.1% | 185.6hPa | 2.7V | 00:00:00 | 00:00:00 | 00:00:00 | |
| IN3HCDX | 2026-09-03 10:24:48 | 47.49591 | 11.40045 | 138° | 135km/h | 12711m | 3.8m/s | -62.0°C | 51.7% | 185.8hPa | 2.7V | 00:00:00 | 00:00:00 | 00:00:00 | |
| DO3MHA-12 | 2026-09-03 10:24:47 | 47.49642 | 11.39976 | 138° | 137km/h | 12703m | 4.0m/s | -62.1°C | 63.1% | 186.0hPa | 2.7V | 03:12:00 | 00:56:58 | 00:00:00 | |
| OE5WHR-10 | 2026-09-03 10:24:46 | 47.49667 | 11.39941 | 137° | 135km/h | 12698m | 5.0m/s | -62.1°C | 63.0% | 186.1hPa | 2.7V | 00:00:00 | 00:00:00 | 00:00:00 | |
| DO8TBO-1 | 2026-09-03 10:24:45 | 47.49693 | 11.39905 | 137° | 135km/h | 12693m | 3.8m/s | -62.0°C | 62.7% | 186.2hPa | 2.7V | 03:12:00 | 00:56:56 | 00:00:00 | |
| NBG1-10 | 2026-09-03 10:24:44 | 47.49718 | 11.39870 | 138° | 135km/h | 12690m | 3.8m/s | -62.0°C | 61.9% | 186.3hPa | 2.7V | 03:12:00 | 00:56:55 | 00:00:00 | |
| DO3MHA-11 | 2026-09-03 10:24:42 | 47.49769 | 11.39802 | 138° | 137km/h | 12682m | 4.0m/s | -62.1°C | 60.9% | 186.6hPa | 2.7V | 00:00:00 | 00:56:53 | 00:00:00 | |
| DO3MHA-12 | 2026-09-03 10:24:37 | 47.49896 | 11.39630 | 136° | 135km/h | 12660m | 4.4m/s | -62.0°C | 61.1% | 187.2hPa | 2.7V | 00:00:00 | 00:56:48 | 00:00:00 | |
| OE5DXL-15 | 2026-09-03 10:24:35 | 47.49944 | 11.39558 | 135° | 133km/h | 12652m | 4.9m/s | -62.0°C | 60.9% | 187.5hPa | 2.7V | 00:00:00 | 00:00:00 | 00:00:00 | |
| DB0ND-19 | 2026-09-03 10:24:34 | 47.49993 | 11.39485 | 134° | 135km/h | 12643m | 4.0m/s | 0°C | -1.0% | -1.0hPa | 2.7V | 00:00:00 | 00:00:00 | 00:00:00 | |
| DO3MHA-11 | 2026-09-03 10:24:32 | 47.50016 | 11.39449 | 134° | 135km/h | 12639m | 5.0m/s | -62.0°C | 62.2% | 187.9hPa | 2.7V | 00:00:00 | 00:56:43 | 00:00:00 | |
| OE5DRO-10 | 2026-09-03 10:24:31 | 47.50040 | 11.39412 | 134° | 135km/h | 12634m | 4.5m/s | -62.1°C | 62.8% | 188.1hPa | 2.7V | 00:00:00 | 00:00:00 | 00:00:00 | |
| DL2OL | 2026-09-03 10:24:30 | 47.50040 | 11.39412 | 135° | 135km/h | 12634m | 4.6m/s | -62.1°C | 51.7% | 188.1hPa | 2.7V | 00:00:00 | 00:00:00 | 00:00:00 | |
| IN3HCDX | 2026-09-03 10:24:28 | 47.50087 | 11.39340 | 135° | 133km/h | 12626m | 3.9m/s | -62.1°C | 51.4% | 188.3hPa | 2.7V | 00:00:00 | 00:00:00 | 00:00:00 | |
| DO3MHA-12 | 2026-09-03 10:24:27 | 47.50133 | 11.39268 | 134° | 135km/h | 12616m | 4.6m/s | -62.0°C | 62.3% | 188.6hPa | 2.7V | 00:00:00 | 00:56:38 | 00:00:00 | |
| DG1MFX-10 | 2026-09-03 10:24:25 | 47.50156 | 11.39232 | 134° | 135km/h | 12611m | 4.9m/s | -62.1°C | 51.9% | 188.8hPa | 2.7V | 03:13:00 | 00:00:00 | 00:00:00 | |
| DB0UT-7 | 2026-09-03 10:24:24 | 47.50203 | 11.39157 | 133° | 130km/h | 12602m | 3.7m/s | -62.0°C | 64.4% | 189.0hPa | 2.7V | 00:00:00 | 00:00:00 | 00:00:00 | |
| DO3MHA-11 | 2026-09-03 10:24:22 | 47.50250 | 11.39083 | 134° | 135km/h | 12593m | 4.2m/s | -62.0°C | 66.1% | 189.3hPa | 2.7V | 00:00:00 | 00:56:33 | 00:00:00 | |
| DO3MHA-12 | 2026-09-03 10:24:17 | 47.50365 | 11.38901 | 133° | 133km/h | 12573m | 4.2m/s | -61.9°C | 62.4% | 189.9hPa | 2.7V | 00:00:00 | 00:56:28 | 00:00:00 | |
| DO8TBO-1 | 2026-09-03 10:24:15 | 47.50412 | 11.38826 | 132° | 126km/h | 12564m | 5.1m/s | -61.9°C | 61.4% | 190.1hPa | 2.7V | 00:00:00 | 00:56:26 | 00:00:00 | |
| DO3MHA-11 | 2026-09-03 10:24:12 | 47.50482 | 11.38712 | 134° | 128km/h | 12550m | 3.4m/s | -61.8°C | 61.8% | 190.6hPa | 2.7V | 03:13:00 | 00:56:23 | 00:00:00 | |
| NBG1-10 | 2026-09-03 10:24:11 | 47.50505 | 11.38677 | 135° | 122km/h | 12546m | 5.2m/s | -61.8°C | 61.9% | 190.7hPa | 2.7V | 00:00:00 | 00:56:22 | 00:00:00 | |
| DO3MHA-12 | 2026-09-03 10:24:07 | 47.50593 | 11.38537 | 131° | 126km/h | 12527m | 3.8m/s | -61.7°C | 63.9% | 191.4hPa | 2.7V | 03:13:00 | 00:56:18 | 00:00:00 | |
| OE5DXL-15 | 2026-09-03 10:24:05 | 47.50635 | 11.38466 | 131° | 122km/h | 12517m | 6.0m/s | -61.6°C | 63.5% | 191.6hPa | 2.7V | 00:00:00 | 00:00:00 | 00:00:00 | |
| DG1MFX-10 | 2026-09-03 10:24:04 | 47.50635 | 11.38466 | 132° | 124km/h | 12517m | 6.1m/s | -61.7°C | 52.5% | 191.7hPa | 2.7V | 03:13:00 | 00:00:00 | 00:00:00 | |
| DB0ND-19 | 2026-09-03 10:24:03 | 47.50696 | 11.38359 | 129° | 126km/h | 12500m | 4.0m/s | 0°C | -1.0% | -1.0hPa | 2.7V | 00:00:00 | 00:00:00 | 00:00:00 | |
| DO3MHA-11 | 2026-09-03 10:24:02 | 47.50696 | 11.38359 | 130° | 124km/h | 12500m | 4.0m/s | -61.4°C | 63.3% | 192.1hPa | 2.7V | 00:00:00 | 00:56:13 | 00:00:00 | |
| DL6DJ-15 | 2026-09-03 10:23:56 | 47.50842 | 11.38111 | 131° | 119km/h | 12468m | 4.3m/s | -61.2°C | 51.8% | 193.2hPa | 2.7V | 00:00:00 | 00:00:00 | 00:00:00 | |
| OE5WHR-10 | 2026-09-03 10:23:54 | 47.50861 | 11.38078 | 132° | 120km/h | 12463m | 6.0m/s | -61.2°C | 62.2% | 193.3hPa | 2.7V | 00:00:00 | 00:56:05 | 00:00:00 | |
| OE5DRO-10 | 2026-09-03 10:23:53 | 47.50881 | 11.38045 | 131° | 120km/h | 12458m | 4.5m/s | -61.1°C | 61.7% | 193.4hPa | 2.7V | 00:00:00 | 00:00:00 | 00:00:00 | |
| DO3MHA-11 | 2026-09-03 10:23:52 | 47.50900 | 11.38012 | 132° | 120km/h | 12453m | 5.3m/s | -61.1°C | 62.0% | 193.6hPa | 2.7V | 00:00:00 | 00:56:03 | 00:00:00 | |
| DF1GD-15 | 2026-09-03 10:23:51 | 47.50900 | 11.38012 | 132° | 115km/h | 12453m | 5.3m/s | -61.2°C | 0% | 0hPa | 2.7V | 00:00:00 | 00:00:00 | 00:00:00 | |
| DO3MHA-12 | 2026-09-03 10:23:47 | 47.50995 | 11.37840 | 129° | 120km/h | 12431m | 3.7m/s | -60.9°C | 61.6% | 194.3hPa | 2.7V | 00:00:00 | 00:55:58 | 00:00:00 | |
| IN3HCDX | 2026-09-03 10:23:46 | 47.50995 | 11.37840 | 130° | 124km/h | 12431m | 3.8m/s | -60.9°C | 51.1% | 194.3hPa | 2.7V | 00:00:00 | 00:00:00 | 00:00:00 | |
| DO8TBO-1 | 2026-09-03 10:23:45 | 47.51034 | 11.37769 | 130° | 117km/h | 12422m | 4.8m/s | -60.9°C | 61.8% | 194.6hPa | 2.7V | 00:00:00 | 00:55:56 | 00:00:00 | |
| DG1MFX-10 | 2026-09-03 10:23:44 | 47.51034 | 11.37768 | 130° | 122km/h | 12422m | 4.9m/s | -60.9°C | 51.3% | 194.6hPa | 2.7V | 03:14:00 | 00:00:00 | 00:00:00 | |
| DO3MHA-11 | 2026-09-03 10:23:42 | 47.51093 | 11.37666 | 133° | 119km/h | 12408m | 3.8m/s | -60.8°C | 62.0% | 195.0hPa | 2.7V | 00:00:00 | 00:55:53 | 00:00:00 | |
| NBG1-10 | 2026-09-03 10:23:38 | 47.51173 | 11.37530 | 131° | 115km/h | 12389m | 5.3m/s | -60.6°C | 61.9% | 195.5hPa | 2.7V | 00:00:00 | 00:55:49 | 00:00:00 | |
| DO3MHA-12 | 2026-09-03 10:23:37 | 47.51193 | 11.37495 | 130° | 115km/h | 12384m | 4.1m/s | -60.6°C | 62.5% | 195.7hPa | 2.7V | 00:00:00 | 00:55:48 | 00:00:00 | |
| OE5DXL-15 | 2026-09-03 10:23:35 | 47.51232 | 11.37426 | 130° | 115km/h | 12375m | 5.2m/s | -60.5°C | 62.7% | 196.0hPa | 2.7V | 00:00:00 | 00:00:00 | 00:00:00 | |
| OE5DRO-10 | 2026-09-03 10:23:34 | 47.51250 | 11.37392 | 130° | 115km/h | 12370m | 3.9m/s | -60.4°C | 62.7% | 196.2hPa | 2.7V | 00:00:00 | 00:00:00 | 00:00:00 | |
| OE5WHR-10 | 2026-09-03 10:23:33 | 47.51269 | 11.37359 | 131° | 115km/h | 12365m | 6.1m/s | 0°C | 0% | 0hPa | 2.7V | 03:13:00 | 00:00:00 | 00:00:00 | |
| DO3MHA-11 | 2026-09-03 10:23:32 | 47.51288 | 11.37327 | 131° | 115km/h | 12360m | 3.4m/s | -60.3°C | 62.0% | 196.4hPa | 2.7V | 03:13:00 | 00:55:43 | 00:00:00 | |
| DF1GD-15 | 2026-09-03 10:23:30 | 47.51306 | 11.37295 | 132° | 111km/h | 12356m | 6.0m/s | -60.4°C | 0% | 0hPa | 2.7V | 00:00:00 | 00:00:00 | 00:00:00 | |
| DG1MJG | 2026-09-03 10:23:29 | 47.51325 | 11.37263 | 132° | 111km/h | 12350m | 4.0m/s | -60.3°C | 50.0% | 196.8hPa | 2.7V | 03:14:00 | 00:00:00 | 00:00:00 | |
| DO3MHA-12 | 2026-09-03 10:23:27 | 47.51382 | 11.37168 | 131° | 115km/h | 12336m | 5.3m/s | -60.2°C | 59.5% | 197.2hPa | 2.7V | 03:13:00 | 00:55:38 | 00:00:00 | |
| DL6DJ-15 | 2026-09-03 10:23:25 | 47.51439 | 11.37070 | 129° | 117km/h | 12323m | 3.8m/s | -60.1°C | 49.0% | 197.7hPa | 2.7V | 00:00:00 | 00:00:00 | 00:00:00 | |
| DB0UT-7 | 2026-09-03 10:23:24 | 47.51439 | 11.37070 | 130° | 115km/h | 12323m | 3.7m/s | -60.1°C | 59.0% | 197.7hPa | 2.7V | 00:00:00 | 00:00:00 | 00:00:00 | |
| DO3MHA-11 | 2026-09-03 10:23:22 | 47.51476 | 11.37003 | 129° | 113km/h | 12314m | 4.6m/s | -60.0°C | 60.4% | 197.9hPa | 2.7V | 00:00:00 | 00:55:33 | 00:00:00 | |
| DL2OL | 2026-09-03 10:23:21 | 47.51476 | 11.37003 | 130° | 117km/h | 12314m | 4.7m/s | 0°C | 0% | 198.0hPa | 2.7V | 00:00:00 | 00:00:00 | 00:00:00 | |
| DO3MHA-12 | 2026-09-03 10:23:17 | 47.51569 | 11.36839 | 132° | 113km/h | 12292m | 4.8m/s | -59.9°C | 60.6% | 198.7hPa | 2.7V | 00:00:00 | 00:55:28 | 00:00:00 | |
| DO8TBO-1 | 2026-09-03 10:23:15 | 47.51606 | 11.36776 | 132° | 115km/h | 12282m | 5.2m/s | -59.8°C | 59.8% | 198.9hPa | 2.7V | 00:00:00 | 00:55:26 | 00:00:00 | |
| DO3MHA-11 | 2026-09-03 10:23:12 | 47.51664 | 11.36682 | 134° | 115km/h | 12269m | 2.8m/s | -59.7°C | 59.8% | 199.4hPa | 2.7V | 00:00:00 | 00:55:23 | 00:00:00 | |
| DO3MHA-12 | 2026-09-03 10:23:07 | 47.51762 | 11.36524 | 133° | 115km/h | 12246m | 4.6m/s | -59.6°C | 58.0% | 200.1hPa | 2.7V | 00:00:00 | 00:55:18 | 00:00:00 | |
| NBG1-10 | 2026-09-03 10:23:05 | 47.51800 | 11.36461 | 132° | 113km/h | 12237m | 3.1m/s | -59.5°C | 58.2% | 200.4hPa | 2.7V | 00:00:00 | 00:55:16 | 00:00:00 | |
| DG1MFX-10 | 2026-09-03 10:23:04 | 47.51800 | 11.36461 | 132° | 113km/h | 12237m | 3.2m/s | -59.6°C | 48.5% | 200.5hPa | 2.7V | 03:14:00 | 00:00:00 | 00:00:00 | |
| DO3MHA-11 | 2026-09-03 10:23:02 | 47.51858 | 11.36366 | 133° | 115km/h | 12222m | 5.6m/s | -59.5°C | 59.5% | 200.8hPa | 2.7V | 00:00:00 | 00:55:13 | 00:00:00 | |
| DL6DJ-15 | 2026-09-03 10:22:54 | 47.52042 | 11.36085 | 129° | 111km/h | 12180m | 4.2m/s | -59.3°C | 49.8% | 202.2hPa | 2.7V | 00:00:00 | 00:00:00 | 00:00:00 | |
| DO3MHA-11 | 2026-09-03 10:22:52 | 47.52060 | 11.36053 | 130° | 115km/h | 12176m | 4.4m/s | -59.3°C | 60.0% | 202.3hPa | 2.7V | 03:14:00 | 00:55:03 | 00:00:00 | |
| DO3MHA-12 | 2026-09-03 10:22:47 | 47.52161 | 11.35908 | 145° | 115km/h | 12155m | 4.8m/s | -59.1°C | 60.0% | 203.1hPa | 2.7V | 03:14:00 | 00:54:58 | 00:00:00 | |
| OE5WHR-10 | 2026-09-03 10:22:46 | 47.52186 | 11.35882 | 147° | 111km/h | 12150m | 4.9m/s | 0°C | 0% | 0hPa | 2.7V | 00:00:00 | 00:54:57 | 00:00:00 | |
| DO8TBO-1 | 2026-09-03 10:22:45 | 47.52212 | 11.35856 | 146° | 110km/h | 12145m | 4.8m/s | -59.0°C | 62.0% | 203.4hPa | 2.7V | 03:14:00 | 00:54:56 | 00:00:00 | |
| IN3HCDX | 2026-09-03 10:22:43 | 47.52236 | 11.35829 | 143° | 119km/h | 12140m | 4.2m/s | 0°C | 0% | 203.6hPa | 2.7V | 03:15:00 | 00:00:00 | 00:00:00 | |
| DO3MHA-11 | 2026-09-03 10:22:42 | 47.52281 | 11.35773 | 137° | 106km/h | 12129m | 7.8m/s | -58.9°C | 59.8% | 204.0hPa | 2.7V | 00:00:00 | 00:54:53 | 00:00:00 | |
| DO3MHA-12 | 2026-09-03 10:22:37 | 47.52375 | 11.35621 | 131° | 106km/h | 12088m | 6.8m/s | -58.8°C | 59.3% | 205.3hPa | 2.7V | 00:00:00 | 00:54:48 | 00:00:00 | |
| OE5DXL-15 | 2026-09-03 10:22:35 | 47.52410 | 11.35568 | 138° | 111km/h | 12077m | 5.6m/s | -58.8°C | 60.1% | 205.6hPa | 2.7V | 00:00:00 | 00:00:00 | 00:00:00 | |
| DO3MHA-11 | 2026-09-03 10:22:32 | 47.52470 | 11.35495 | 143° | 113km/h | 12058m | 8.0m/s | -58.7°C | 56.9% | 206.3hPa | 2.7V | 00:00:00 | 00:54:43 | 00:00:00 | |
| DG1MJG | 2026-09-03 10:22:28 | 47.52536 | 11.35416 | 141° | 111km/h | 12037m | 5.1m/s | -58.6°C | 46.8% | 207.0hPa | 2.7V | 03:15:00 | 00:00:00 | 00:00:00 | |
| DO3MHA-12 | 2026-09-03 10:22:27 | 47.52580 | 11.35364 | 143° | 113km/h | 12025m | 4.8m/s | -58.5°C | 57.0% | 207.4hPa | 2.7V | 00:00:00 | 00:54:38 | 00:00:00 | |
| OE5WHR-10 | 2026-09-03 10:22:25 | 47.52627 | 11.35312 | 143° | 111km/h | 12015m | 3.9m/s | 0°C | 0% | 0hPa | 2.7V | 00:00:00 | 00:00:00 | 00:00:00 | |
| DB0UT-7 | 2026-09-03 10:22:24 | 47.52651 | 11.35285 | 144° | 115km/h | 12010m | 6.0m/s | -58.3°C | 57.7% | 207.9hPa | 2.7V | 00:00:00 | 00:00:00 | 00:00:00 | |
| DG1MFX-10 | 2026-09-03 10:22:23 | 47.52651 | 11.35285 | 144° | 117km/h | 12010m | 6.1m/s | -58.3°C | 48.4% | 208.0hPa | 2.7V | 03:15:00 | 00:00:00 | 00:00:00 | |
| DO3MHA-11 | 2026-09-03 10:22:22 | 47.52698 | 11.35235 | 145° | 108km/h | 12000m | 4.5m/s | -58.2°C | 59.5% | 208.2hPa | 2.7V | 00:00:00 | 00:54:33 | 00:00:00 | |
| OE5DRO-10 | 2026-09-03 10:22:18 | 47.52787 | 11.35136 | 141° | 115km/h | 11982m | 4.4m/s | -58.0°C | 58.9% | 208.9hPa | 2.7V | 00:00:00 | 00:00:00 | 00:00:00 | |
| DO3MHA-12 | 2026-09-03 10:22:17 | 47.52806 | 11.35111 | 140° | 113km/h | 11978m | 2.9m/s | -58.1°C | 58.8% | 209.0hPa | 2.7V | 00:00:00 | 00:54:28 | 00:00:00 | |
| DO8TBO-1 | 2026-09-03 10:22:15 | 47.52892 | 11.35014 | 146° | 124km/h | 11959m | 6.6m/s | -58.1°C | 58.1% | 209.6hPa | 2.7V | 00:00:00 | 00:54:24 | 00:00:00 | |
| DO3MHA-11 | 2026-09-03 10:22:12 | 47.52916 | 11.34989 | 146° | 119km/h | 11951m | 9.2m/s | -58.0°C | 57.2% | 209.9hPa | 2.7V | 03:15:00 | 00:54:23 | 00:00:00 | |
| OE5DXL-15 | 2026-09-03 10:22:05 | 47.53087 | 11.34806 | 147° | 126km/h | 11907m | 5.2m/s | -57.8°C | 58.3% | 211.3hPa | 2.7V | 00:00:00 | 00:00:00 | 00:00:00 | |
| DF1GD-15 | 2026-09-03 10:22:04 | 47.53087 | 11.34806 | 147° | 117km/h | 11907m | 5.3m/s | 0°C | 0% | 0hPa | 2.7V | 03:15:00 | 00:00:00 | 00:00:00 | |
| DL2OL | 2026-09-03 10:22:03 | 47.53111 | 11.34781 | 147° | 117km/h | 11902m | 6.0m/s | 0°C | 0% | 0hPa | 2.7V | 00:00:00 | 00:00:00 | 00:00:00 | |
| DO3MHA-11 | 2026-09-03 10:22:02 | 47.53161 | 11.34732 | 147° | 122km/h | 11891m | 5.5m/s | -57.8°C | 59.5% | 211.8hPa | 2.7V | 00:00:00 | 00:54:13 | 00:00:00 | |
| IN3HCDX | 2026-09-03 10:22:01 | 47.53161 | 11.34732 | 148° | 119km/h | 11891m | 5.6m/s | 0°C | 0% | 211.9hPa | 2.7V | 00:00:00 | 00:00:00 | 00:00:00 | |
| DL6DJ-15 | 2026-09-03 10:21:51 | 47.53447 | 11.34461 | 147° | 122km/h | 11844m | 3.8m/s | -57.7°C | 50.3% | 213.5hPa | 2.7V | 00:00:00 | 00:00:00 | 00:00:00 | |
| DO3MHA-12 | 2026-09-03 10:21:47 | 47.53556 | 11.34360 | 149° | 130km/h | 11826m | 5.6m/s | -57.5°C | 59.1% | 214.1hPa | 2.7V | 00:00:00 | 00:53:58 | 00:00:00 | |
| DO3MHA-11 | 2026-09-03 10:21:42 | 47.53697 | 11.34240 | 151° | 131km/h | 11801m | 5.6m/s | -57.3°C | 59.3% | 214.9hPa | 2.7V | 00:00:00 | 00:53:53 | 00:00:00 | |
| OE5WHR-10 | 2026-09-03 10:21:40 | 47.53754 | 11.34192 | 150° | 133km/h | 11791m | 3.8m/s | 0°C | 0% | 0hPa | 2.7V | 00:00:00 | 00:53:51 | 00:00:00 | |
| DF1GD-15 | 2026-09-03 10:21:38 | 47.53783 | 11.34167 | 150° | 131km/h | 11786m | 5.3m/s | 0°C | 0% | 0hPa | 2.7V | 03:15:00 | 00:00:00 | 00:00:00 | |
| DO3MHA-12 | 2026-09-03 10:21:37 | 47.53840 | 11.34116 | 149° | 133km/h | 11776m | 6.0m/s | -57.1°C | 59.1% | 215.8hPa | 2.7V | 00:00:00 | 00:53:48 | 00:00:00 | |
| OE5DXL-15 | 2026-09-03 10:21:35 | 47.53896 | 11.34064 | 149° | 137km/h | 11766m | 5.1m/s | -57.0°C | 58.7% | 216.1hPa | 2.7V | 00:00:00 | 00:00:00 | 00:00:00 | |
| DO3MHA-11 | 2026-09-03 10:21:32 | 47.53982 | 11.33989 | 151° | 133km/h | 11752m | 3.6m/s | -56.9°C | 59.1% | 216.6hPa | 2.7V | 03:15:00 | 00:53:43 | 00:00:00 | |
| DL2OL | 2026-09-03 10:21:29 | 47.54042 | 11.33940 | 152° | 137km/h | 11743m | 4.0m/s | 0°C | 0% | 0hPa | 2.7V | 00:00:00 | 00:00:00 | 00:00:00 | |
| DO3MHA-12 | 2026-09-03 10:21:27 | 47.54131 | 11.33866 | 151° | 133km/h | 11727m | 5.8m/s | -56.8°C | 57.8% | 217.4hPa | 2.7V | 03:15:00 | 00:53:38 | 00:00:00 | |
| NBG1-10 | 2026-09-03 10:21:26 | 47.54160 | 11.33842 | 152° | 139km/h | 11722m | 4.2m/s | -56.8°C | 57.9% | 217.5hPa | 2.7V | 00:00:00 | 00:53:37 | 00:00:00 | |
| OE3JTB-15 | 2026-09-03 10:21:25 | 47.54190 | 11.33817 | 151° | 137km/h | 11717m | 5.6m/s | -56.8°C | 58.1% | 217.7hPa | 2.7V | 03:15:00 | 00:00:00 | 00:00:00 | |
| DB0UT-7 | 2026-09-03 10:21:24 | 47.54220 | 11.33793 | 151° | 139km/h | 11713m | 3.8m/s | -56.8°C | 58.3% | 217.9hPa | 2.7V | 00:00:00 | 00:00:00 | 00:00:00 | |
| DO3MHA-11 | 2026-09-03 10:21:22 | 47.54279 | 11.33745 | 152° | 137km/h | 11704m | 3.8m/s | -56.8°C | 58.5% | 218.2hPa | 2.7V | 00:00:00 | 00:53:33 | 00:00:00 | |
| OE5DRO-10 | 2026-09-03 10:21:21 | 47.54309 | 11.33722 | 152° | 139km/h | 11699m | 5.1m/s | -56.9°C | 58.2% | 218.4hPa | 2.7V | 00:00:00 | 00:00:00 | 00:00:00 | |
| IN3HCDX | 2026-09-03 10:21:20 | 47.54309 | 11.33721 | 153° | 133km/h | 11699m | 5.2m/s | 0°C | 0% | 218.4hPa | 2.7V | 03:16:00 | 00:00:00 | 00:00:00 | |
| OE5WHR-10 | 2026-09-03 10:21:19 | 47.54368 | 11.33674 | 152° | 135km/h | 11689m | 4.4m/s | 0°C | 0% | 0hPa | 2.7V | 00:00:00 | 00:00:00 | 00:00:00 | |
| DO3MHA-12 | 2026-09-03 10:21:17 | 47.54427 | 11.33625 | 151° | 142km/h | 11680m | 5.1m/s | -56.7°C | 60.2% | 219.0hPa | 2.7V | 00:00:00 | 00:53:28 | 00:00:00 | |
| DO8TBO-1 | 2026-09-03 10:21:15 | 47.54551 | 11.33519 | 151° | 137km/h | 11660m | 4.9m/s | -56.6°C | 59.5% | 219.7hPa | 2.7V | 00:00:00 | 00:53:24 | 00:00:00 | |
| DO3MHA-11 | 2026-09-03 10:21:12 | 47.54584 | 11.33492 | 150° | 139km/h | 11655m | 4.3m/s | -56.6°C | 59.8% | 219.9hPa | 2.7V | 00:00:00 | 00:53:23 | 00:00:00 | |
| DO3MHA-12 | 2026-09-03 10:21:07 | 47.54739 | 11.33364 | 152° | 139km/h | 11632m | 4.4m/s | -56.3°C | 58.3% | 220.6hPa | 2.7V | 00:00:00 | 00:53:18 | 00:00:00 | |
| OE5DXL-15 | 2026-09-03 10:21:05 | 47.54797 | 11.33315 | 150° | 137km/h | 11622m | 3.5m/s | -56.2°C | 58.6% | 221.0hPa | 2.7V | 03:16:00 | 00:00:00 | 00:00:00 | |
| DO3MHA-11 | 2026-09-03 10:21:02 | 47.54887 | 11.33239 | 152° | 141km/h | 11606m | 4.4m/s | -56.1°C | 57.0% | 221.5hPa | 2.7V | 00:00:00 | 00:53:13 | 00:00:00 | |
| DG1MFX-10 | 2026-09-03 10:21:00 | 47.54919 | 11.33213 | 151° | 142km/h | 11602m | 4.9m/s | -56.1°C | 47.9% | 221.7hPa | 2.7V | 03:16:00 | 00:00:00 | 00:00:00 | |
| IN3HCDX | 2026-09-03 10:20:59 | 47.54950 | 11.33186 | 150° | 144km/h | 11596m | 5.5m/s | 0°C | 0% | 221.9hPa | 2.7V | 03:16:00 | 00:00:00 | 00:00:00 | |
| DO3MHA-12 | 2026-09-03 10:20:57 | 47.55044 | 11.33102 | 150° | 137km/h | 11583m | 6.1m/s | -55.9°C | 56.6% | 222.3hPa | 2.7V | 00:00:00 | 00:53:08 | 00:00:00 | |
| DG1MJG | 2026-09-03 10:20:56 | 47.55044 | 11.33102 | 151° | 146km/h | 11583m | 6.1m/s | -55.9°C | 48.1% | 222.4hPa | 2.7V | 03:16:00 | 00:00:00 | 00:00:00 | |
| DL2OL | 2026-09-03 10:20:55 | 47.55076 | 11.33075 | 152° | 142km/h | 11578m | 4.8m/s | 0°C | 0% | 0hPa | 2.7V | 03:16:00 | 00:00:00 | 00:00:00 | |
| DB0UT-7 | 2026-09-03 10:20:54 | 47.55137 | 11.33025 | 151° | 133km/h | 11568m | 3.9m/s | -55.7°C | 56.6% | 222.9hPa | 2.7V | 03:16:00 | 00:53:05 | 00:00:00 | |
| DO3MHA-11 | 2026-09-03 10:20:52 | 47.55196 | 11.32975 | 150° | 137km/h | 11559m | 6.3m/s | -55.6°C | 56.4% | 223.2hPa | 2.7V | 03:16:00 | 00:53:03 | 00:00:00 | |
| NBG1-10 | 2026-09-03 10:20:49 | 47.55284 | 11.32895 | 148° | 133km/h | 11544m | 4.1m/s | -55.5°C | 56.8% | 223.7hPa | 2.7V | 00:00:00 | 00:53:00 | 00:00:00 | |
| DO3MHA-12 | 2026-09-03 10:20:47 | 47.55342 | 11.32840 | 148° | 133km/h | 11533m | 4.8m/s | -55.4°C | 56.8% | 224.1hPa | 2.7V | 03:16:00 | 00:52:58 | 00:00:00 | |
| OE5DRO-10 | 2026-09-03 10:20:43 | 47.55463 | 11.32736 | 152° | 133km/h | 11514m | 5.3m/s | -55.2°C | 54.5% | 224.8hPa | 2.7V | 00:00:00 | 00:00:00 | 00:00:00 | |
| DO3MHA-11 | 2026-09-03 10:20:42 | 47.55493 | 11.32713 | 153° | 131km/h | 11508m | 5.8m/s | -55.2°C | 54.6% | 225.0hPa | 2.7V | 00:00:00 | 00:52:53 | 00:00:00 | |
| DG1MFX-10 | 2026-09-03 10:20:40 | 47.55523 | 11.32691 | 154° | 128km/h | 11504m | 3.3m/s | -55.2°C | 46.5% | 225.2hPa | 2.7V | 03:16:00 | 00:00:00 | 00:00:00 | |
| OE3JTB-15 | 2026-09-03 10:20:38 | 47.55608 | 11.32624 | 151° | 133km/h | 11491m | 3.0m/s | -55.0°C | 55.7% | 225.6hPa | 2.7V | 00:00:00 | 00:52:49 | 00:00:00 | |
| DO3MHA-12 | 2026-09-03 10:20:37 | 47.55637 | 11.32600 | 151° | 133km/h | 11487m | 5.1m/s | -55.0°C | 55.2% | 225.7hPa | 2.7V | 00:00:00 | 00:52:48 | 00:00:00 | |
| OE5DXL-15 | 2026-09-03 10:20:35 | 47.55696 | 11.32550 | 151° | 131km/h | 11476m | 5.9m/s | -54.9°C | 54.4% | 226.1hPa | 2.7V | 00:00:00 | 00:00:00 | 00:00:00 | |
| DO3MHA-11 | 2026-09-03 10:20:32 | 47.55787 | 11.32474 | 150° | 131km/h | 11459m | 4.8m/s | -54.7°C | 55.4% | 226.7hPa | 2.7V | 00:00:00 | 00:52:43 | 00:00:00 | |
| OE5WHR-10 | 2026-09-03 10:20:29 | 47.55872 | 11.32398 | 149° | 131km/h | 11443m | 5.4m/s | 0°C | 0% | 0hPa | 2.7V | 00:00:00 | 00:00:00 | 00:00:00 | |
| DO3MHA-12 | 2026-09-03 10:20:27 | 47.55929 | 11.32347 | 149° | 131km/h | 11433m | 3.0m/s | -54.5°C | 55.5% | 227.6hPa | 2.7V | 00:00:00 | 00:52:38 | 00:00:00 | |
| DB0ND-19 | 2026-09-03 10:20:25 | 47.56016 | 11.32271 | 149° | 130km/h | 11420m | 5.1m/s | 0°C | -1.0% | 228.1hPa | 2.7V | 00:00:00 | 00:00:00 | 00:00:00 | |
| DB0UT-7 | 2026-09-03 10:20:24 | 47.56016 | 11.32271 | 150° | 131km/h | 11420m | 5.0m/s | -54.4°C | 54.6% | 228.1hPa | 2.7V | 00:00:00 | 00:00:00 | 00:00:00 | |
| DO3MHA-11 | 2026-09-03 10:20:22 | 47.56073 | 11.32222 | 151° | 130km/h | 11410m | 4.8m/s | -54.4°C | 53.9% | 228.4hPa | 2.7V | 00:00:00 | 00:52:33 | 00:00:00 | |
| DL2OL | 2026-09-03 10:20:21 | 47.56073 | 11.32222 | 151° | 131km/h | 11410m | 4.9m/s | 0°C | 0% | 0hPa | 2.7V | 00:00:00 | 00:00:00 | 00:00:00 | |
| DG1MFX-10 | 2026-09-03 10:20:19 | 47.56130 | 11.32173 | 151° | 131km/h | 11402m | 4.5m/s | -54.3°C | 45.6% | 228.8hPa | 2.7V | 03:17:00 | 00:00:00 | 00:00:00 | |
| DL6DJ-15 | 2026-09-03 10:20:18 | 47.56187 | 11.32124 | 148° | 128km/h | 11393m | 3.9m/s | -54.2°C | 45.0% | 229.1hPa | 2.7V | 00:00:00 | 00:00:00 | 00:00:00 | |
| DO3MHA-11 | 2026-09-03 10:20:12 | 47.56353 | 11.31973 | 149° | 131km/h | 11367m | 4.9m/s | -53.9°C | 52.5% | 230.0hPa | 2.7V | 03:17:00 | 00:52:23 | 00:00:00 | |
| DO8TBO-1 | 2026-09-03 10:20:08 | 47.56468 | 11.31872 | 150° | 133km/h | 11350m | 4.8m/s | -53.8°C | 54.1% | 230.6hPa | 2.7V | 03:17:00 | 00:52:19 | 00:00:00 | |
| DO3MHA-12 | 2026-09-03 10:20:07 | 47.56497 | 11.31847 | 150° | 131km/h | 11345m | 3.6m/s | -53.7°C | 53.8% | 230.8hPa | 2.7V | 03:17:00 | 00:52:18 | 00:00:00 | |
| OE5DXL-15 | 2026-09-03 10:20:05 | 47.56554 | 11.31797 | 150° | 135km/h | 11336m | 3.4m/s | -53.7°C | 53.9% | 231.1hPa | 2.9V | 00:00:00 | 00:00:00 | 00:00:00 | |
| DO3MHA-11 | 2026-09-03 10:20:02 | 47.56640 | 11.31722 | 149° | 133km/h | 11322m | 5.0m/s | -53.6°C | 53.1% | 231.6hPa | 2.7V | 00:00:00 | 00:52:13 | 00:00:00 | |
| DG1MFX-10 | 2026-09-03 10:19:59 | 47.56697 | 11.31670 | 150° | 131km/h | 11313m | 5.5m/s | -53.5°C | 44.5% | 232.0hPa | 2.9V | 03:17:00 | 00:00:00 | 00:00:00 | |
| DO3MHA-12 | 2026-09-03 10:19:57 | 47.56784 | 11.31594 | 149° | 135km/h | 11299m | 4.3m/s | -53.4°C | 51.0% | 232.4hPa | 2.9V | 00:00:00 | 00:52:08 | 00:00:00 | |
| IN3HCDX | 2026-09-03 10:19:56 | 47.56784 | 11.31594 | 150° | 131km/h | 11299m | 4.3m/s | 0°C | 0% | 232.5hPa | 2.9V | 00:00:00 | 00:00:00 | 00:00:00 | |
| DB0UT-7 | 2026-09-03 10:19:54 | 47.56870 | 11.31518 | 149° | 135km/h | 11286m | 4.8m/s | -53.2°C | 50.5% | 232.9hPa | 2.9V | 00:00:00 | 00:52:05 | 00:00:00 | |
| DO3MHA-11 | 2026-09-03 10:19:52 | 47.56930 | 11.31466 | 151° | 135km/h | 11276m | 4.6m/s | -53.2°C | 51.4% | 233.3hPa | 2.9V | 00:00:00 | 00:52:03 | 00:00:00 | |
| DO3MHA-12 | 2026-09-03 10:19:47 | 47.57077 | 11.31339 | 151° | 135km/h | 11255m | 4.0m/s | -52.9°C | 53.9% | 234.1hPa | 2.9V | 00:00:00 | 00:51:58 | 00:00:00 | |
| OE5DRO-10 | 2026-09-03 10:19:46 | 47.57107 | 11.31314 | 151° | 135km/h | 11250m | 4.4m/s | -52.9°C | 53.8% | 234.2hPa | 2.9V | 00:00:00 | 00:00:00 | 00:00:00 | |
| OE5WHR-10 | 2026-09-03 10:19:44 | 47.57165 | 11.31263 | 149° | 137km/h | 11243m | 3.9m/s | 0°C | 0% | 0hPa | 2.9V | 00:00:00 | 00:00:00 | 00:00:00 | |
| NBG1-10 | 2026-09-03 10:19:43 | 47.57194 | 11.31237 | 150° | 137km/h | 11237m | 6.0m/s | -52.9°C | 52.7% | 234.7hPa | 2.9V | 00:00:00 | 00:51:54 | 00:00:00 | |
| DO3MHA-11 | 2026-09-03 10:19:42 | 47.57223 | 11.31212 | 150° | 137km/h | 11232m | 4.0m/s | -52.8°C | 52.5% | 234.9hPa | 2.9V | 00:00:00 | 00:51:53 | 00:00:00 | |
| DG1MFX-10 | 2026-09-03 10:19:38 | 47.57311 | 11.31135 | 151° | 137km/h | 11218m | 5.4m/s | -52.8°C | 44.9% | 235.4hPa | 2.9V | 03:18:00 | 00:00:00 | 00:00:00 | |
| DO3MHA-12 | 2026-09-03 10:19:37 | 47.57372 | 11.31083 | 151° | 135km/h | 11209m | 5.2m/s | -52.8°C | 53.7% | 235.7hPa | 2.9V | 00:00:00 | 00:51:48 | 00:00:00 | |
| OE5DXL-15 | 2026-09-03 10:19:35 | 47.57434 | 11.31031 | 151° | 137km/h | 11200m | 4.9m/s | -52.7°C | 55.5% | 236.0hPa | 2.9V | 00:00:00 | 00:00:00 | 00:00:00 | |
| IN3HCDX | 2026-09-03 10:19:33 | 47.57465 | 11.31006 | 152° | 139km/h | 11196m | 4.3m/s | 0°C | 0% | 236.2hPa | 2.9V | 00:00:00 | 00:00:00 | 00:00:00 | |
| DO3MHA-11 | 2026-09-03 10:19:32 | 47.57524 | 11.30954 | 149° | 135km/h | 11187m | 5.4m/s | -52.6°C | 57.2% | 236.5hPa | 2.9V | 03:17:00 | 00:51:43 | 00:00:00 | |
| DM7RM-13 | 2026-09-03 10:19:29 | 47.57580 | 11.30901 | 149° | 130km/h | 11177m | 4.9m/s | 0°C | 0% | 0hPa | 2.7V | 00:00:00 | 00:00:00 | 00:00:00 | |
| DO3MHA-12 | 2026-09-03 10:19:27 | 47.57665 | 11.30822 | 149° | 137km/h | 11164m | 4.2m/s | -52.4°C | 57.5% | 237.4hPa | 2.7V | 03:17:00 | 00:51:38 | 00:00:00 | |
| DO8TBO-1 | 2026-09-03 10:19:26 | 47.57694 | 11.30796 | 149° | 139km/h | 11159m | 4.2m/s | -52.4°C | 57.5% | 237.5hPa | 2.7V | 00:00:00 | 00:51:37 | 00:00:00 | |
| DB0UT-7 | 2026-09-03 10:19:24 | 47.57753 | 11.30742 | 149° | 139km/h | 11151m | 4.7m/s | -52.3°C | 57.3% | 237.9hPa | 2.7V | 00:00:00 | 00:00:00 | 00:00:00 | |
| OE5WHR-10 | 2026-09-03 10:19:23 | 47.57783 | 11.30715 | 149° | 135km/h | 11146m | 4.5m/s | 0°C | 0% | 0hPa | 2.9V | 00:00:00 | 00:00:00 | 00:00:00 | |
| DO3MHA-11 | 2026-09-03 10:19:22 | 47.57812 | 11.30688 | 149° | 137km/h | 11142m | 4.2m/s | -52.2°C | 56.7% | 238.2hPa | 2.9V | 00:00:00 | 00:51:33 | 00:00:00 | |
| DO3MHA-12 | 2026-09-03 10:19:17 | 47.57957 | 11.30552 | 149° | 141km/h | 11119m | 3.8m/s | -52.0°C | 56.6% | 239.0hPa | 2.9V | 00:00:00 | 00:51:28 | 00:00:00 | |
| DL6DJ-15 | 2026-09-03 10:19:16 | 47.57987 | 11.30525 | 149° | 139km/h | 11114m | 4.8m/s | -52.0°C | 49.0% | 239.2hPa | 2.9V | 00:00:00 | 00:00:00 | 00:00:00 | |
| DL2OL | 2026-09-03 10:19:13 | 47.58049 | 11.30473 | 152° | 141km/h | 11105m | 5.2m/s | 0°C | 0% | 0hPa | 2.9V | 03:18:00 | 00:00:00 | 00:00:00 | |
| DO3MHA-11 | 2026-09-03 10:19:12 | 47.58112 | 11.30421 | 151° | 139km/h | 11096m | 4.5m/s | -51.8°C | 56.9% | 239.9hPa | 2.9V | 00:00:00 | 00:51:23 | 00:00:00 | |
| NBG1-10 | 2026-09-03 10:19:10 | 47.58173 | 11.30368 | 150° | 139km/h | 11088m | 5.2m/s | -51.8°C | 56.6% | 240.2hPa | 2.9V | 00:00:00 | 00:51:21 | 00:00:00 | |
| DO3MHA-12 | 2026-09-03 10:19:07 | 47.58262 | 11.30287 | 148° | 139km/h | 11075m | 4.6m/s | -51.6°C | 56.3% | 240.7hPa | 2.9V | 00:00:00 | 00:51:18 | 00:00:00 | |
| OE5DXL-15 | 2026-09-03 10:19:05 | 47.58321 | 11.30232 | 148° | 141km/h | 11067m | 4.6m/s | -51.6°C | 56.3% | 241.0hPa | 2.9V | 03:18:00 | 00:00:00 | 00:00:00 | |
| DO3MHA-11 | 2026-09-03 10:19:02 | 47.58409 | 11.30151 | 149° | 142km/h | 11053m | 4.4m/s | -51.4°C | 56.8% | 241.5hPa | 2.9V | 00:00:00 | 00:51:13 | 00:00:00 | |
| DB0ND-19 | 2026-09-03 10:18:52 | 47.58717 | 11.29876 | 148° | 135km/h | 11006m | 4.2m/s | 0°C | -1.0% | -1.0hPa | 2.7V | 00:00:00 | 00:00:00 | 00:00:00 | |
| DL6DJ-15 | 2026-09-03 10:18:45 | 47.58924 | 11.29687 | 148° | 141km/h | 10974m | 4.6m/s | -50.7°C | 48.9% | 244.5hPa | 2.7V | 00:00:00 | 00:00:00 | 00:00:00 | |
| DO3MHA-11 | 2026-09-03 10:18:42 | 47.59018 | 11.29606 | 150° | 139km/h | 10960m | 5.2m/s | -50.6°C | 56.7% | 244.9hPa | 2.7V | 00:00:00 | 00:50:53 | 00:00:00 | |
| DO3MHA-12 | 2026-09-03 10:18:37 | 47.59168 | 11.29468 | 148° | 139km/h | 10938m | 4.0m/s | -50.3°C | 59.1% | 245.8hPa | 2.7V | 00:00:00 | 00:50:48 | 00:00:00 | |
| DG1MFX-10 | 2026-09-03 10:18:36 | 47.59167 | 11.29468 | 148° | 137km/h | 10938m | 4.1m/s | -50.4°C | 51.7% | 245.9hPa | 2.9V | 03:19:00 | 00:00:00 | 00:00:00 | |
| OE5DXL-15 | 2026-09-03 10:18:35 | 47.59226 | 11.29413 | 149° | 139km/h | 10928m | 3.5m/s | -50.2°C | 59.3% | 246.2hPa | 2.9V | 00:00:00 | 00:00:00 | 00:00:00 | |
| DO3MHA-11 | 2026-09-03 10:18:32 | 47.59315 | 11.29332 | 149° | 139km/h | 10916m | 3.4m/s | -50.2°C | 58.7% | 246.7hPa | 2.7V | 00:00:00 | 00:50:43 | 00:00:00 | |
| DO3MHA-12 | 2026-09-03 10:18:27 | 47.59467 | 11.29199 | 149° | 139km/h | 10894m | 4.0m/s | -50.0°C | 57.3% | 247.5hPa | 2.7V | 00:00:00 | 00:50:38 | 00:00:00 | |
| DB0UT-7 | 2026-09-03 10:18:24 | 47.59557 | 11.29118 | 148° | 137km/h | 10880m | 5.9m/s | -49.9°C | 56.4% | 248.0hPa | 2.7V | 00:00:00 | 00:00:00 | 00:00:00 | |
| DG1MJG | 2026-09-03 10:18:23 | 47.59557 | 11.29118 | 148° | 141km/h | 10880m | 5.9m/s | -49.9°C | 49.3% | 248.0hPa | 2.7V | 03:19:00 | 00:00:00 | 00:00:00 | |
| DO3MHA-11 | 2026-09-03 10:18:22 | 47.59616 | 11.29060 | 147° | 137km/h | 10871m | 4.2m/s | -49.7°C | 55.9% | 248.4hPa | 2.7V | 00:00:00 | 00:50:33 | 00:00:00 | |
| DO3MHA-12 | 2026-09-03 10:18:17 | 47.59764 | 11.28928 | 149° | 137km/h | 10847m | 5.9m/s | -49.5°C | 54.7% | 249.2hPa | 2.7V | 00:00:00 | 00:50:28 | 00:00:00 | |
| DG1MFX-10 | 2026-09-03 10:18:15 | 47.59794 | 11.28901 | 149° | 141km/h | 10842m | 3.8m/s | -49.5°C | 47.9% | 249.5hPa | 2.7V | 03:19:00 | 00:00:00 | 00:00:00 | |
| DL6DJ-15 | 2026-09-03 10:18:14 | 47.59854 | 11.28843 | 146° | 137km/h | 10833m | 3.9m/s | -49.4°C | 48.1% | 249.8hPa | 2.7V | 00:00:00 | 00:00:00 | 00:00:00 | |
| DO3MHA-11 | 2026-09-03 10:18:12 | 47.59911 | 11.28788 | 148° | 137km/h | 10825m | 5.0m/s | -49.3°C | 54.6% | 250.1hPa | 2.7V | 03:19:00 | 00:50:23 | 00:00:00 | |
| DO3MHA-12 | 2026-09-03 10:18:07 | 47.60061 | 11.28660 | 151° | 137km/h | 10802m | 4.4m/s | -49.1°C | 52.5% | 251.0hPa | 2.7V | 03:19:00 | 00:50:18 | 00:00:00 | |
| OE5DXL-15 | 2026-09-03 10:18:05 | 47.60122 | 11.28608 | 150° | 131km/h | 10791m | 4.7m/s | -49.0°C | 51.9% | 251.4hPa | 2.9V | 00:00:00 | 00:00:00 | 00:00:00 | |
| NBG1-10 | 2026-09-03 10:18:02 | 47.60210 | 11.28525 | 147° | 130km/h | 10776m | 6.4m/s | -48.9°C | 49.7% | 252.0hPa | 2.9V | 03:19:00 | 00:50:13 | 00:00:00 | |
| DO3MHA-12 | 2026-09-03 10:17:57 | 47.60352 | 11.28385 | 147° | 131km/h | 10751m | 5.0m/s | -48.7°C | 46.2% | 253.0hPa | 2.9V | 00:00:00 | 00:50:08 | 00:00:00 | |
| DB0UT-7 | 2026-09-03 10:17:54 | 47.60436 | 11.28306 | 149° | 130km/h | 10737m | 6.0m/s | -48.5°C | 46.2% | 253.6hPa | 2.9V | 00:00:00 | 00:50:05 | 00:00:00 | |
| DO3MHA-11 | 2026-09-03 10:17:52 | 47.60492 | 11.28257 | 150° | 130km/h | 10727m | 5.5m/s | -48.4°C | 46.9% | 253.9hPa | 2.7V | 00:00:00 | 00:50:03 | 00:00:00 | |
| IN3HCDX | 2026-09-03 10:17:49 | 47.60548 | 11.28207 | 150° | 131km/h | 10717m | 4.2m/s | 0°C | 0% | 254.3hPa | 2.7V | 00:00:00 | 00:00:00 | 00:00:00 | |
| DO3MHA-12 | 2026-09-03 10:17:47 | 47.60633 | 11.28129 | 149° | 128km/h | 10704m | 5.8m/s | -48.3°C | 47.2% | 254.8hPa | 2.7V | 00:00:00 | 00:49:58 | 00:00:00 | |
| DL6DJ-15 | 2026-09-03 10:17:43 | 47.60743 | 11.28026 | 146° | 124km/h | 10686m | 4.5m/s | -48.2°C | 41.7% | 255.6hPa | 2.7V | 00:00:00 | 00:00:00 | 00:00:00 | |
| DO3MHA-11 | 2026-09-03 10:17:42 | 47.60769 | 11.28000 | 147° | 130km/h | 10683m | 2.8m/s | -48.1°C | 48.4% | 255.7hPa | 2.7V | 00:00:00 | 00:49:53 | 00:00:00 | |
| OE5WHR-10 | 2026-09-03 10:17:39 | 47.60850 | 11.27920 | 147° | 130km/h | 10671m | 4.4m/s | 0°C | 0% | 0hPa | 2.7V | 00:00:00 | 00:49:50 | 00:00:00 | |
| DO3MHA-12 | 2026-09-03 10:17:37 | 47.60905 | 11.27867 | 148° | 130km/h | 10662m | 4.2m/s | -47.9°C | 48.0% | 256.5hPa | 2.7V | 00:00:00 | 00:49:48 | 00:00:00 | |
| OE5DXL-15 | 2026-09-03 10:17:35 | 47.60961 | 11.27814 | 149° | 128km/h | 10653m | 5.3m/s | -47.8°C | 47.7% | 256.8hPa | 2.7V | 00:00:00 | 00:00:00 | 00:00:00 | |
| DG1MFX-10 | 2026-09-03 10:17:33 | 47.60990 | 11.27788 | 150° | 131km/h | 10649m | 2.9m/s | -47.8°C | 42.0% | 257.0hPa | 2.7V | 03:20:00 | 00:00:00 | 00:00:00 | |
| DO3MHA-11 | 2026-09-03 10:17:32 | 47.61047 | 11.27739 | 150° | 128km/h | 10641m | 3.7m/s | -47.7°C | 48.4% | 257.3hPa | 2.7V | 03:19:00 | 00:49:43 | 00:00:00 | |
| NBG1-10 | 2026-09-03 10:17:29 | 47.61130 | 11.27665 | 148° | 128km/h | 10624m | 5.8m/s | -47.6°C | 48.9% | 257.8hPa | 2.9V | 00:00:00 | 00:49:40 | 00:00:00 | |
| DO3MHA-12 | 2026-09-03 10:17:27 | 47.61184 | 11.27614 | 147° | 128km/h | 10615m | 5.4m/s | -47.5°C | 48.6% | 258.2hPa | 2.7V | 03:19:00 | 00:49:38 | 00:00:00 | |
| IN3HCDX | 2026-09-03 10:17:26 | 47.61184 | 11.27614 | 147° | 124km/h | 10615m | 5.5m/s | 0°C | 0% | 0hPa | 2.7V | 00:00:00 | 00:00:00 | 00:00:00 | |
| DB0UT-7 | 2026-09-03 10:17:24 | 47.61262 | 11.27533 | 145° | 128km/h | 10602m | 4.1m/s | -47.4°C | 48.0% | 258.7hPa | 2.7V | 00:00:00 | 00:00:00 | 00:00:00 | |
| DO3MHA-11 | 2026-09-03 10:17:22 | 47.61315 | 11.27477 | 146° | 128km/h | 10595m | 5.1m/s | -47.4°C | 48.3% | 259.0hPa | 2.7V | 00:00:00 | 00:49:33 | 00:00:00 | |
| DG1MJG | 2026-09-03 10:17:21 | 47.61315 | 11.27477 | 146° | 130km/h | 10595m | 5.2m/s | -47.4°C | 42.4% | 259.0hPa | 2.7V | 03:20:00 | 00:00:00 | 00:00:00 | |
| OE3JTB-15 | 2026-09-03 10:17:18 | 47.61425 | 11.27371 | 149° | 128km/h | 10577m | 4.9m/s | -47.2°C | 49.6% | 259.6hPa | 2.7V | 00:00:00 | 00:00:00 | 00:00:00 | |
| OE5WHR-10 | 2026-09-03 10:17:17 | 47.61453 | 11.27346 | 150° | 122km/h | 10573m | 3.5m/s | 0°C | 0% | 0hPa | 2.7V | 00:00:00 | 00:00:00 | 00:00:00 | |
| OE5DRO-10 | 2026-09-03 10:17:16 | 47.61480 | 11.27322 | 150° | 128km/h | 10569m | 3.7m/s | -47.1°C | 50.7% | 260.0hPa | 2.7V | 00:00:00 | 00:00:00 | 00:00:00 | |
| DG1MFX-10 | 2026-09-03 10:17:13 | 47.61534 | 11.27273 | 148° | 126km/h | 10561m | 4.2m/s | -47.1°C | 45.2% | 260.4hPa | 2.7V | 03:20:00 | 00:00:00 | 00:00:00 | |
| DO3MHA-11 | 2026-09-03 10:17:12 | 47.61587 | 11.27221 | 146° | 128km/h | 10552m | 3.0m/s | -47.0°C | 50.5% | 260.6hPa | 2.7V | 00:00:00 | 00:49:23 | 00:00:00 | |
| DN1GJH-1 | 2026-09-03 10:17:11 | 47.61587 | 11.27221 | 147° | 124km/h | 10552m | 3.1m/s | 0°C | 0% | 0hPa | 2.7V | 03:20:00 | 00:00:00 | 00:00:00 | |
| DO3MHA-12 | 2026-09-03 10:17:07 | 47.61721 | 11.27082 | 146° | 128km/h | 10528m | 3.4m/s | -46.7°C | 51.2% | 261.6hPa | 2.7V | 00:00:00 | 00:49:18 | 00:00:00 | |
| OE5DXL-15 | 2026-09-03 10:17:05 | 47.61776 | 11.27028 | 148° | 128km/h | 10519m | 4.0m/s | -46.6°C | 50.6% | 262.0hPa | 2.9V | 03:20:00 | 00:00:00 | 00:00:00 | |
| DO3MHA-12 | 2026-09-03 10:16:57 | 47.61990 | 11.26820 | 144° | 128km/h | 10476m | 5.9m/s | -46.3°C | 49.1% | 263.7hPa | 2.9V | 00:00:00 | 00:49:08 | 00:00:00 | |
| NBG1-10 | 2026-09-03 10:16:56 | 47.62017 | 11.26791 | 144° | 128km/h | 10470m | 6.4m/s | -46.3°C | 49.0% | 263.9hPa | 2.9V | 00:00:00 | 00:49:07 | 00:00:00 | |
| DB0UT-7 | 2026-09-03 10:16:54 | 47.62069 | 11.26733 | 144° | 128km/h | 10458m | 7.3m/s | -46.2°C | 48.9% | 264.4hPa | 2.9V | 03:20:00 | 00:49:05 | 00:00:00 | |
| DO3MHA-11 | 2026-09-03 10:16:52 | 47.62122 | 11.26677 | 145° | 126km/h | 10445m | 4.8m/s | -46.0°C | 48.5% | 264.9hPa | 2.9V | 03:20:00 | 00:49:03 | 00:00:00 | |
| DN1GJH-1 | 2026-09-03 10:16:50 | 47.62149 | 11.26649 | 147° | 128km/h | 10439m | 7.1m/s | 0°C | 0% | 0hPa | 2.9V | 00:00:00 | 00:00:00 | 00:00:00 | |
| OE3JTB-15 | 2026-09-03 10:16:49 | 47.62202 | 11.26598 | 148° | 128km/h | 10428m | 4.8m/s | -45.9°C | 48.0% | 265.6hPa | 2.9V | 03:20:00 | 00:49:00 | 00:00:00 | |
| DO3MHA-12 | 2026-09-03 10:16:47 | 47.62255 | 11.26548 | 148° | 128km/h | 10417m | 4.5m/s | -45.8°C | 48.8% | 266.1hPa | 2.9V | 03:20:00 | 00:48:58 | 00:00:00 | |
| DO3MHA-11 | 2026-09-03 10:16:42 | 47.62388 | 11.26412 | 144° | 126km/h | 10394m | 5.3m/s | -45.6°C | 49.5% | 266.9hPa | 2.9V | 00:00:00 | 00:48:53 | 00:00:00 | |
| DL6DJ-15 | 2026-09-03 10:16:41 | 47.62440 | 11.26355 | 143° | 126km/h | 10384m | 3.4m/s | -45.5°C | 43.6% | 267.5hPa | 2.9V | 00:00:00 | 00:00:00 | 00:00:00 | |
| OE5DRO-10 | 2026-09-03 10:16:38 | 47.62490 | 11.26299 | 144° | 128km/h | 10375m | 4.6m/s | -45.4°C | 47.5% | 267.8hPa | 2.9V | 00:00:00 | 00:00:00 | 00:00:00 | |
| DO3MHA-12 | 2026-09-03 10:16:37 | 47.62516 | 11.26271 | 145° | 126km/h | 10370m | 5.3m/s | -45.3°C | 47.2% | 267.9hPa | 2.9V | 00:00:00 | 00:48:48 | 00:00:00 | |
| OE5DXL-15 | 2026-09-03 10:16:35 | 47.62568 | 11.26217 | 145° | 128km/h | 10361m | 5.0m/s | -45.3°C | 47.1% | 268.3hPa | 2.9V | 00:00:00 | 00:00:00 | 00:00:00 | |
| DO3MHA-11 | 2026-09-03 10:16:32 | 47.62645 | 11.26135 | 146° | 128km/h | 10348m | 4.7m/s | -45.1°C | 47.5% | 268.8hPa | 2.9V | 00:00:00 | 00:48:43 | 00:00:00 | |
| DO3MHA-12 | 2026-09-03 10:16:27 | 47.62778 | 11.25995 | 145° | 128km/h | 10328m | 4.7m/s | -44.9°C | 47.5% | 269.6hPa | 2.9V | 00:00:00 | 00:48:38 | 00:00:00 | |
| DB0UT-7 | 2026-09-03 10:16:24 | 47.62857 | 11.25910 | 143° | 128km/h | 10315m | 3.8m/s | -44.8°C | 46.2% | 270.2hPa | 2.9V | 00:00:00 | 00:00:00 | 00:00:00 | |
| DO3MHA-11 | 2026-09-03 10:16:22 | 47.62909 | 11.25851 | 143° | 128km/h | 10306m | 4.1m/s | -44.8°C | 46.3% | 270.5hPa | 2.7V | 00:00:00 | 00:48:33 | 00:00:00 | |
| OE3JTB-15 | 2026-09-03 10:16:20 | 47.62959 | 11.25794 | 143° | 124km/h | 10296m | 3.9m/s | -44.6°C | 46.5% | 270.9hPa | 2.7V | 00:00:00 | 00:00:00 | 00:00:00 | |
| NBG1-10 | 2026-09-03 10:16:19 | 47.62985 | 11.25765 | 144° | 119km/h | 10292m | 5.4m/s | -44.6°C | 46.6% | 271.1hPa | 2.7V | 00:00:00 | 00:48:30 | 00:00:00 | |
| DO3MHA-12 | 2026-09-03 10:16:17 | 47.63037 | 11.25708 | 144° | 128km/h | 10282m | 4.7m/s | -44.5°C | 46.6% | 271.5hPa | 2.7V | 00:00:00 | 00:48:28 | 00:00:00 | |
| DO8TBO-1 | 2026-09-03 10:16:16 | 47.63116 | 11.25623 | 144° | 128km/h | 10269m | 3.7m/s | 0°C | 0% | 0hPa | 2.7V | 00:00:00 | 00:48:25 | 00:00:00 | |
| DO3MHA-11 | 2026-09-03 10:16:12 | 47.63169 | 11.25565 | 144° | 126km/h | 10261m | 4.2m/s | -44.3°C | 48.3% | 272.3hPa | 2.7V | 03:21:00 | 00:48:23 | 00:00:00 | |
| DM7RM-13 | 2026-09-03 10:16:11 | 47.63169 | 11.25565 | 145° | 128km/h | 10261m | 4.2m/s | 0°C | 0% | 0hPa | 2.7V | 00:00:00 | 00:00:00 | 00:00:00 | |
| DL6DJ-15 | 2026-09-03 10:16:10 | 47.63247 | 11.25482 | 143° | 124km/h | 10247m | 3.9m/s | -44.2°C | 42.7% | 273.0hPa | 2.7V | 00:00:00 | 00:00:00 | 00:00:00 | |
| DO3MHA-12 | 2026-09-03 10:16:07 | 47.63297 | 11.25428 | 145° | 128km/h | 10238m | 5.2m/s | -44.1°C | 46.9% | 273.3hPa | 2.7V | 03:21:00 | 00:48:18 | 00:00:00 | |
| OE5DXL-15 | 2026-09-03 10:16:05 | 47.63348 | 11.25373 | 144° | 126km/h | 10228m | 5.8m/s | -44.0°C | 45.4% | 273.6hPa | 2.7V | 00:00:00 | 00:00:00 | 00:00:00 | |
| OE5DRO-10 | 2026-09-03 10:16:00 | 47.63478 | 11.25230 | 144° | 128km/h | 10207m | 3.8m/s | -43.8°C | 45.9% | 274.6hPa | 2.7V | 00:00:00 | 00:00:00 | 00:00:00 | |
| DO3MHA-12 | 2026-09-03 10:15:57 | 47.63557 | 11.25145 | 145° | 126km/h | 10193m | 4.3m/s | -43.7°C | 45.9% | 275.1hPa | 2.9V | 00:00:00 | 00:48:08 | 00:00:00 | |
| DB0UT-7 | 2026-09-03 10:15:54 | 47.63637 | 11.25065 | 147° | 124km/h | 10179m | 3.4m/s | -43.5°C | 46.2% | 275.7hPa | 2.9V | 00:00:00 | 00:48:05 | 00:00:00 | |
| DO3MHA-11 | 2026-09-03 10:15:52 | 47.63690 | 11.25012 | 146° | 128km/h | 10171m | 3.6m/s | -43.5°C | 46.9% | 276.1hPa | 2.9V | 00:00:00 | 00:48:03 | 00:00:00 | |
| DG1MFX-10 | 2026-09-03 10:15:51 | 47.63690 | 11.25012 | 146° | 128km/h | 10171m | 3.7m/s | -43.5°C | 41.8% | 276.1hPa | 2.9V | 03:21:00 | 00:00:00 | 00:00:00 | |
| DG1MJG | 2026-09-03 10:15:48 | 47.63767 | 11.24929 | 143° | 126km/h | 10157m | 4.4m/s | -43.4°C | 41.2% | 276.7hPa | 2.9V | 03:21:00 | 00:00:00 | 00:00:00 | |
| DO3MHA-12 | 2026-09-03 10:15:47 | 47.63818 | 11.24871 | 143° | 126km/h | 10149m | 4.1m/s | -43.3°C | 47.1% | 277.0hPa | 2.9V | 00:00:00 | 00:47:58 | 00:00:00 | |
| DO8TBO-1 | 2026-09-03 10:15:46 | 47.63895 | 11.24786 | 145° | 124km/h | 10136m | 4.1m/s | 0°C | 0% | 0hPa | 2.9V | 03:21:00 | 00:47:55 | 00:00:00 | |
| DO3MHA-11 | 2026-09-03 10:15:42 | 47.63948 | 11.24730 | 145° | 124km/h | 10127m | 3.5m/s | -43.1°C | 48.0% | 277.9hPa | 2.9V | 00:00:00 | 00:47:53 | 00:00:00 | |
| OE5DRO-10 | 2026-09-03 10:15:41 | 47.63974 | 11.24702 | 145° | 124km/h | 10122m | 5.2m/s | -43.1°C | 47.9% | 278.1hPa | 2.9V | 00:00:00 | 00:00:00 | 00:00:00 | |
| DL6DJ-15 | 2026-09-03 10:15:39 | 47.64051 | 11.24621 | 145° | 119km/h | 10110m | 4.2m/s | -43.0°C | 42.9% | 278.7hPa | 2.9V | 00:00:00 | 00:00:00 | 00:00:00 | |
| DO3MHA-12 | 2026-09-03 10:15:37 | 47.64075 | 11.24596 | 146° | 122km/h | 10106m | 4.2m/s | -42.9°C | 48.0% | 278.8hPa | 2.9V | 00:00:00 | 00:47:48 | 00:00:00 | |
| OE5DXL-15 | 2026-09-03 10:15:35 | 47.64126 | 11.24545 | 147° | 124km/h | 10096m | 4.4m/s | -42.8°C | 48.4% | 279.2hPa | 2.9V | 00:00:00 | 00:47:46 | 00:00:00 | |
| DO3MHA-11 | 2026-09-03 10:15:32 | 47.64203 | 11.24466 | 145° | 124km/h | 10082m | 4.2m/s | -42.7°C | 49.0% | 279.8hPa | 2.7V | 03:21:00 | 00:47:43 | 00:00:00 | |
| DG1MFX-10 | 2026-09-03 10:15:31 | 47.64203 | 11.24466 | 145° | 122km/h | 10082m | 4.2m/s | -42.7°C | 43.9% | 279.8hPa | 2.9V | 03:21:00 | 00:00:00 | 00:00:00 | |
| DO3MHA-12 | 2026-09-03 10:15:27 | 47.64329 | 11.24330 | 144° | 122km/h | 10059m | 5.7m/s | -42.5°C | 49.7% | 280.7hPa | 2.9V | 03:21:00 | 00:47:38 | 00:00:00 | |
| OE3JTB-15 | 2026-09-03 10:15:24 | 47.64405 | 11.24247 | 145° | 122km/h | 10046m | 4.2m/s | -42.4°C | 50.7% | 281.3hPa | 2.9V | 00:00:00 | 00:00:00 | 00:00:00 | |
| DO3MHA-11 | 2026-09-03 10:15:22 | 47.64456 | 11.24194 | 146° | 122km/h | 10036m | 3.9m/s | -42.3°C | 50.7% | 281.7hPa | 2.9V | 00:00:00 | 00:47:33 | 00:00:00 | |
| DG1MJG | 2026-09-03 10:15:18 | 47.64532 | 11.24117 | 146° | 120km/h | 10025m | 3.8m/s | -42.2°C | 45.2% | 282.2hPa | 2.9V | 03:22:00 | 00:00:00 | 00:00:00 | |
| DO3MHA-12 | 2026-09-03 10:15:17 | 47.64582 | 11.24064 | 146° | 124km/h | 10015m | 5.4m/s | -42.1°C | 50.4% | 282.5hPa | 2.9V | 00:00:00 | 00:47:28 | 00:00:00 | |
| DB0ND-19 | 2026-09-03 10:15:15 | 47.64634 | 11.24013 | 146° | 122km/h | 10005m | 3.4m/s | -42.0°C | 46.1% | 283.0hPa | 2.9V | 00:00:00 | 00:00:00 | 00:00:00 | |
| IN3HCDX | 2026-09-03 10:15:13 | 47.64660 | 11.23987 | 147° | 124km/h | 10000m | 5.2m/s | 0°C | 0% | 0hPa | 2.9V | 00:00:00 | 00:00:00 | 00:00:00 | |
| DO3MHA-11 | 2026-09-03 10:15:12 | 47.64713 | 11.23934 | 147° | 124km/h | 9991m | 5.3m/s | -41.9°C | 51.9% | 283.5hPa | 2.9V | 00:00:00 | 00:47:23 | 00:00:00 | |
| DG1MFX-10 | 2026-09-03 10:15:10 | 47.64739 | 11.23908 | 147° | 124km/h | 9986m | 5.0m/s | -41.9°C | 46.7% | 283.8hPa | 2.9V | 03:22:00 | 00:00:00 | 00:00:00 | |
| DL6DJ-15 | 2026-09-03 10:15:08 | 47.64839 | 11.23799 | 142° | 122km/h | 9961m | 5.5m/s | -41.7°C | 46.9% | 284.8hPa | 2.9V | 00:00:00 | 00:00:00 | 00:00:00 | |
| DO3MHA-12 | 2026-09-03 10:15:07 | 47.64839 | 11.23799 | 143° | 120km/h | 9961m | 5.4m/s | -41.6°C | 52.0% | 284.7hPa | 2.9V | 00:00:00 | 00:47:18 | 00:00:00 | |
| OE5DXL-15 | 2026-09-03 10:15:05 | 47.64888 | 11.23741 | 143° | 120km/h | 9949m | 5.6m/s | -41.5°C | 52.4% | 285.2hPa | 2.9V | 03:22:00 | 00:00:00 | 00:00:00 | |
| DO3MHA-11 | 2026-09-03 10:15:02 | 47.64963 | 11.23661 | 147° | 124km/h | 9931m | 6.8m/s | -41.4°C | 51.8% | 286.0hPa | 2.9V | 00:00:00 | 00:47:13 | 00:00:00 | |
| DO3MHA-12 | 2026-09-03 10:14:57 | 47.65092 | 11.23546 | 149° | 126km/h | 9902m | 4.2m/s | -41.1°C | 51.2% | 287.2hPa | 2.9V | 00:00:00 | 00:47:08 | 00:00:00 | |
| DB0UT-7 | 2026-09-03 10:14:54 | 47.65174 | 11.23469 | 147° | 119km/h | 9886m | 6.3m/s | -41.0°C | 50.5% | 287.9hPa | 2.9V | 03:22:00 | 00:47:05 | 00:00:00 | |
| DO3MHA-11 | 2026-09-03 10:14:52 | 47.65229 | 11.23416 | 146° | 122km/h | 9873m | 5.3m/s | -40.9°C | 51.6% | 288.4hPa | 2.9V | 03:22:00 | 00:47:03 | 00:00:00 | |
| DG1MFX-10 | 2026-09-03 10:14:49 | 47.65279 | 11.23361 | 143° | 119km/h | 9863m | 3.9m/s | -40.8°C | 45.8% | 288.8hPa | 2.9V | 03:22:00 | 00:00:00 | 00:00:00 | |
| DG1MJG | 2026-09-03 10:14:48 | 47.65303 | 11.23334 | 144° | 120km/h | 9859m | 5.3m/s | -40.8°C | 44.8% | 289.0hPa | 2.9V | 03:22:00 | 00:00:00 | 00:00:00 | |
| DO3MHA-12 | 2026-09-03 10:14:47 | 47.65353 | 11.23277 | 143° | 117km/h | 9842m | 8.7m/s | -40.6°C | 49.1% | 289.6hPa | 2.9V | 03:22:00 | 00:46:58 | 00:00:00 | |
| DO8TBO-1 | 2026-09-03 10:14:45 | 47.65431 | 11.23193 | 144° | 113km/h | 9822m | 7.0m/s | 0°C | 0% | 0hPa | 2.9V | 00:00:00 | 00:46:55 | 00:00:00 | |
| OE5DRO-10 | 2026-09-03 10:14:44 | 47.65431 | 11.23193 | 144° | 115km/h | 9822m | 7.0m/s | -40.4°C | 49.4% | 290.4hPa | 2.9V | 00:00:00 | 00:00:00 | 00:00:00 | |
| DL2OL | 2026-09-03 10:14:43 | 47.65431 | 11.23193 | 144° | 120km/h | 9822m | 7.1m/s | 0°C | 0% | 0hPa | 2.9V | 00:00:00 | 00:00:00 | 00:00:00 | |
| DO3MHA-11 | 2026-09-03 10:14:42 | 47.65476 | 11.23141 | 141° | 111km/h | 9807m | 7.5m/s | -40.3°C | 49.0% | 291.1hPa | 2.9V | 00:00:00 | 00:46:53 | 00:00:00 | |
| DO3MHA-12 | 2026-09-03 10:14:37 | 47.65590 | 11.23018 | 145° | 117km/h | 9773m | 10.6m/s | -40.0°C | 46.5% | 292.5hPa | 2.9V | 00:00:00 | 00:46:48 | 00:00:00 | |
| DL6DJ-15 | 2026-09-03 10:14:36 | 47.65612 | 11.22993 | 141° | 111km/h | 9763m | 9.2m/s | -39.9°C | 41.9% | 293.0hPa | 2.9V | 00:00:00 | 00:00:00 | 00:00:00 | |
| OE5DXL-15 | 2026-09-03 10:14:35 | 47.65634 | 11.22966 | 141° | 119km/h | 9756m | 4.9m/s | -39.8°C | 46.5% | 293.2hPa | 2.9V | 00:00:00 | 00:00:00 | 00:00:00 | |
| DO3MHA-11 | 2026-09-03 10:14:32 | 47.65703 | 11.22888 | 145° | 120km/h | 9739m | 5.1m/s | -39.6°C | 45.4% | 294.1hPa | 2.9V | 00:00:00 | 00:46:43 | 00:00:00 | |
| DG1MFX-10 | 2026-09-03 10:14:28 | 47.65780 | 11.22810 | 149° | 122km/h | 9721m | 5.6m/s | -39.5°C | 41.3% | 294.9hPa | 2.9V | 03:23:00 | 00:00:00 | 00:00:00 | |
| DO3MHA-12 | 2026-09-03 10:14:27 | 47.65832 | 11.22762 | 147° | 120km/h | 9712m | 5.4m/s | -39.4°C | 45.8% | 295.2hPa | 2.9V | 00:00:00 | 00:46:38 | 00:00:00 | |
| OE3JTB-15 | 2026-09-03 10:14:25 | 47.65880 | 11.22713 | 145° | 117km/h | 9701m | 6.4m/s | -39.3°C | 46.1% | 295.7hPa | 2.9V | 03:22:00 | 00:00:00 | 00:00:00 | |
| DB0UT-7 | 2026-09-03 10:14:24 | 47.65905 | 11.22686 | 142° | 117km/h | 9695m | 4.5m/s | -39.2°C | 46.8% | 295.9hPa | 2.9V | 00:00:00 | 00:00:00 | 00:00:00 | |
| IN3HCDX | 2026-09-03 10:14:23 | 47.65905 | 11.22686 | 143° | 119km/h | 9695m | 4.6m/s | 0°C | 0% | 0hPa | 2.9V | 00:00:00 | 00:00:00 | 00:00:00 | |
| DO3MHA-11 | 2026-09-03 10:14:22 | 47.65951 | 11.22631 | 141° | 126km/h | 9684m | 4.1m/s | -39.1°C | 47.4% | 296.5hPa | 2.9V | 00:00:00 | 00:46:33 | 00:00:00 | |
| DB0NH | 2026-09-03 10:14:20 | 47.65998 | 11.22573 | 140° | 117km/h | 9673m | 6.1m/s | -39.0°C | 46.8% | 296.9hPa | 2.9V | 03:23:00 | 00:46:31 | 00:00:00 | |
| NBG1-10 | 2026-09-03 10:14:18 | 47.66047 | 11.22515 | 143° | 113km/h | 9663m | 4.7m/s | -38.9°C | 46.5% | 297.3hPa | 2.9V | 03:23:00 | 00:46:29 | 00:00:00 | |
| DO3MHA-12 | 2026-09-03 10:14:17 | 47.66073 | 11.22486 | 142° | 122km/h | 9658m | 6.6m/s | -38.9°C | 45.9% | 297.5hPa | 2.9V | 00:00:00 | 00:46:28 | 00:00:00 | |
| DB0ND-19 | 2026-09-03 10:14:13 | 47.66174 | 11.22362 | 141° | 128km/h | 9633m | 4.9m/s | -38.7°C | 41.6% | 298.6hPa | 2.9V | 00:00:00 | 00:00:00 | 00:00:00 | |
| DO3MHA-11 | 2026-09-03 10:14:12 | 47.66199 | 11.22332 | 142° | 111km/h | 9627m | 5.9m/s | -38.6°C | 46.2% | 298.8hPa | 2.9V | 03:23:00 | 00:46:23 | 00:00:00 | |
| DG1MFX-10 | 2026-09-03 10:14:08 | 47.66268 | 11.22253 | 146° | 108km/h | 9609m | 7.7m/s | -38.5°C | 42.2% | 299.6hPa | 2.9V | 03:23:00 | 00:00:00 | 00:00:00 | |
| DO3MHA-12 | 2026-09-03 10:14:07 | 47.66314 | 11.22207 | 145° | 108km/h | 9593m | 5.9m/s | -38.3°C | 47.6% | 300.3hPa | 2.9V | 03:23:00 | 00:46:18 | 00:00:00 | |
| OE5DRO-10 | 2026-09-03 10:14:06 | 47.66336 | 11.22182 | 142° | 110km/h | 9587m | 6.2m/s | -38.2°C | 47.7% | 300.6hPa | 2.9V | 00:00:00 | 00:00:00 | 00:00:00 | |
| OE5DXL-15 | 2026-09-03 10:14:05 | 47.66358 | 11.22156 | 140° | 110km/h | 9582m | 4.2m/s | -38.1°C | 47.8% | 300.9hPa | 2.9V | 00:00:00 | 00:00:00 | 00:00:00 | |
| DO3MHA-11 | 2026-09-03 10:14:02 | 47.66419 | 11.22074 | 139° | 110km/h | 9566m | 4.8m/s | -38.0°C | 48.0% | 301.6hPa | 2.7V | 00:00:00 | 00:46:13 | 00:00:00 | |
| IN3HCDX | 2026-09-03 10:14:01 | 47.66419 | 11.22074 | 139° | 106km/h | 9566m | 4.9m/s | 0°C | 0% | 0hPa | 2.9V | 00:00:00 | 00:00:00 | 00:00:00 | |
| DO3MHA-12 | 2026-09-03 10:13:57 | 47.66526 | 11.21950 | 143° | 111km/h | 9537m | 6.0m/s | -37.7°C | 47.7% | 302.9hPa | 2.9V | 00:00:00 | 00:46:08 | 00:00:00 | |
| OE3JTB-15 | 2026-09-03 10:13:56 | 47.66547 | 11.21925 | 142° | 113km/h | 9532m | 4.1m/s | -37.7°C | 48.1% | 303.1hPa | 2.9V | 00:00:00 | 00:00:00 | 00:00:00 | |
| DB0UT-7 | 2026-09-03 10:13:54 | 47.66591 | 11.21873 | 142° | 111km/h | 9521m | 6.0m/s | -37.7°C | 48.1% | 303.6hPa | 2.9V | 00:00:00 | 00:46:05 | 00:00:00 | |
| DO3MHA-11 | 2026-09-03 10:13:52 | 47.66638 | 11.21821 | 144° | 108km/h | 9510m | 5.2m/s | -37.5°C | 48.6% | 304.0hPa | 2.9V | 00:00:00 | 00:46:03 | 00:00:00 | |
| DB0NH | 2026-09-03 10:13:50 | 47.66683 | 11.21772 | 144° | 111km/h | 9502m | 5.5m/s | -37.5°C | 49.2% | 304.4hPa | 2.9V | 00:00:00 | 00:46:01 | 00:00:00 | |
| DO3MHA-12 | 2026-09-03 10:13:47 | 47.66748 | 11.21698 | 142° | 110km/h | 9488m | 4.2m/s | -37.4°C | 50.3% | 305.0hPa | 2.7V | 00:00:00 | 00:45:58 | 00:00:00 | |
| DG1MJG | 2026-09-03 10:13:46 | 47.66748 | 11.21698 | 143° | 108km/h | 9488m | 4.3m/s | -37.5°C | 45.9% | 305.1hPa | 2.7V | 03:23:00 | 00:00:00 | 00:00:00 | |
| DL2OL | 2026-09-03 10:13:44 | 47.66790 | 11.21649 | 142° | 106km/h | 9479m | 4.6m/s | 0°C | 0% | 0hPa | 2.7V | 00:00:00 | 00:00:00 | 00:00:00 | |
| DO3MHA-11 | 2026-09-03 10:13:42 | 47.66853 | 11.21573 | 142° | 113km/h | 9465m | 5.7m/s | -37.2°C | 51.0% | 306.1hPa | 2.7V | 00:00:00 | 00:45:53 | 00:00:00 | |
| DH7VM-15 | 2026-09-03 10:13:40 | 47.66876 | 11.21547 | 144° | 113km/h | 9460m | 4.2m/s | -37.2°C | 0% | 0hPa | 2.7V | 00:00:00 | 00:00:00 | 00:00:00 | |
| DO3MHA-12 | 2026-09-03 10:13:37 | 47.66969 | 11.21443 | 144° | 111km/h | 9439m | 5.6m/s | -37.0°C | 55.8% | 307.2hPa | 2.7V | 00:00:00 | 00:45:48 | 00:00:00 | |
| OE5DXL-15 | 2026-09-03 10:13:35 | 47.67014 | 11.21394 | 144° | 113km/h | 9428m | 4.0m/s | -36.9°C | 58.1% | 307.6hPa | 2.9V | 00:00:00 | 00:00:00 | 00:00:00 | |
| DL6DJ-15 | 2026-09-03 10:13:34 | 47.67036 | 11.21369 | 143° | 108km/h | 9424m | 5.1m/s | -36.9°C | 52.9% | 307.9hPa | 2.9V | 00:00:00 | 00:00:00 | 00:00:00 | |
| DO3MHA-11 | 2026-09-03 10:13:32 | 47.67081 | 11.21321 | 144° | 113km/h | 9412m | 5.5m/s | -36.8°C | 57.3% | 308.4hPa | 2.9V | 03:23:00 | 00:45:43 | 00:00:00 | |
| DO8TBO-1 | 2026-09-03 10:13:28 | 47.67171 | 11.21218 | 140° | 113km/h | 9387m | 6.3m/s | 0°C | 0% | 0hPa | 2.9V | 00:00:00 | 00:45:39 | 00:00:00 | |
| DO3MHA-12 | 2026-09-03 10:13:27 | 47.67194 | 11.21190 | 139° | 111km/h | 9381m | 6.0m/s | -36.5°C | 57.0% | 309.7hPa | 2.9V | 03:23:00 | 00:45:38 | 00:00:00 | |
| DB0UT-7 | 2026-09-03 10:13:24 | 47.67259 | 11.21103 | 139° | 113km/h | 9362m | 5.0m/s | -36.3°C | 60.3% | 310.6hPa | 2.9V | 00:00:00 | 00:00:00 | 00:00:00 | |
| DO3MHA-11 | 2026-09-03 10:13:22 | 47.67301 | 11.21049 | 142° | 113km/h | 9350m | 6.0m/s | -36.2°C | 61.3% | 311.1hPa | 2.9V | 00:00:00 | 00:45:33 | 00:00:00 | |
| DB0NH | 2026-09-03 10:13:20 | 47.67345 | 11.21001 | 144° | 113km/h | 9338m | 6.2m/s | -36.1°C | 60.9% | 311.6hPa | 2.9V | 00:00:00 | 00:45:31 | 00:00:00 | |
| DO3MHA-12 | 2026-09-03 10:13:17 | 47.67412 | 11.20930 | 144° | 117km/h | 9321m | 5.6m/s | -36.0°C | 62.3% | 312.4hPa | 2.9V | 00:00:00 | 00:45:28 | 00:00:00 | |
| DG1MJG | 2026-09-03 10:13:16 | 47.67412 | 11.20930 | 145° | 113km/h | 9321m | 5.7m/s | -36.0°C | 57.5% | 312.4hPa | 2.9V | 03:24:00 | 00:00:00 | 00:00:00 | |
| DO3MHA-11 | 2026-09-03 10:13:12 | 47.67530 | 11.20791 | 141° | 111km/h | 9296m | 5.8m/s | -35.8°C | 67.6% | 313.5hPa | 2.9V | 00:00:00 | 00:45:23 | 00:00:00 | |
| DB0ND-19 | 2026-09-03 10:13:11 | 47.67553 | 11.20762 | 139° | 119km/h | 9290m | 5.1m/s | -35.8°C | 64.1% | 313.8hPa | 2.9V | 00:00:00 | 00:00:00 | 00:00:00 | |
| OE5DRO-10 | 2026-09-03 10:13:09 | 47.67597 | 11.20705 | 138° | 113km/h | 9281m | 4.5m/s | -35.7°C | 68.9% | 314.2hPa | 2.9V | 00:00:00 | 00:00:00 | 00:00:00 | |
| DO3MHA-12 | 2026-09-03 10:13:07 | 47.67636 | 11.20651 | 138° | 113km/h | 9271m | 5.3m/s | -35.7°C | 69.7% | 314.6hPa | 2.9V | 00:00:00 | 00:45:18 | 00:00:00 | |
| DG1MFX-10 | 2026-09-03 10:13:06 | 47.67636 | 11.20651 | 139° | 106km/h | 9271m | 5.4m/s | -35.7°C | 64.6% | 314.6hPa | 2.9V | 03:24:00 | 00:00:00 | 00:00:00 | |
| OE5DXL-15 | 2026-09-03 10:13:05 | 47.67678 | 11.20598 | 142° | 115km/h | 9262m | 2.4m/s | -35.6°C | 70.8% | 315.1hPa | 2.9V | 03:24:00 | 00:00:00 | 00:00:00 | |
| DL6DJ-15 | 2026-09-03 10:13:03 | 47.67722 | 11.20546 | 141° | 113km/h | 9252m | 5.1m/s | -35.6°C | 65.6% | 315.6hPa | 2.9V | 00:00:00 | 00:00:00 | 00:00:00 | |
| DO3MHA-11 | 2026-09-03 10:13:02 | 47.67744 | 11.20519 | 142° | 115km/h | 9246m | 5.3m/s | -35.4°C | 70.5% | 315.8hPa | 2.9V | 00:00:00 | 00:45:13 | 00:00:00 | |
| NBG1-10 | 2026-09-03 10:12:59 | 47.67814 | 11.20439 | 143° | 115km/h | 9233m | 3.5m/s | -35.3°C | 71.2% | 316.5hPa | 2.9V | 00:00:00 | 00:45:10 | 00:00:00 | |
| DO3MHA-12 | 2026-09-03 10:12:57 | 47.67861 | 11.20384 | 140° | 113km/h | 9224m | 3.7m/s | -35.2°C | 71.9% | 316.8hPa | 2.9V | 00:00:00 | 00:45:08 | 00:00:00 | |
| DO8TBO-1 | 2026-09-03 10:12:56 | 47.67883 | 11.20356 | 139° | 113km/h | 9220m | 4.8m/s | 0°C | 0% | 0hPa | 2.9V | 00:00:00 | 00:45:07 | 00:00:00 | |
| DB0UT-7 | 2026-09-03 10:12:54 | 47.67926 | 11.20299 | 138° | 115km/h | 9211m | 3.3m/s | -35.1°C | 71.3% | 317.4hPa | 2.9V | 03:24:00 | 00:45:05 | 00:00:00 | |
| DO3MHA-11 | 2026-09-03 10:12:52 | 47.67968 | 11.20242 | 139° | 115km/h | 9203m | 4.8m/s | -35.1°C | 71.0% | 317.8hPa | 2.9V | 03:24:00 | 00:45:03 | 00:00:00 | |
| DB0NH | 2026-09-03 10:12:50 | 47.68010 | 11.20186 | 139° | 113km/h | 9193m | 5.5m/s | -34.9°C | 68.8% | 318.3hPa | 2.9V | 00:00:00 | 00:45:01 | 00:00:00 | |
| DO3MHA-12 | 2026-09-03 10:12:47 | 47.68077 | 11.20104 | 143° | 115km/h | 9180m | 4.4m/s | -34.8°C | 68.4% | 318.8hPa | 2.9V | 03:24:00 | 00:44:58 | 00:00:00 | |
| DG1MJG | 2026-09-03 10:12:45 | 47.68100 | 11.20077 | 143° | 117km/h | 9176m | 4.3m/s | -34.8°C | 63.8% | 319.1hPa | 2.9V | 03:25:00 | 00:00:00 | 00:00:00 | |
| DO3MHA-11 | 2026-09-03 10:12:42 | 47.68190 | 11.19966 | 139° | 113km/h | 9160m | 4.3m/s | -34.6°C | 68.4% | 319.8hPa | 2.9V | 00:00:00 | 00:44:53 | 00:00:00 | |
| OE3JTB-15 | 2026-09-03 10:12:40 | 47.68234 | 11.19909 | 139° | 111km/h | 9150m | 5.6m/s | -34.5°C | 68.6% | 320.2hPa | 2.9V | 00:00:00 | 00:44:51 | 00:00:00 | |
| DG1MFX-10 | 2026-09-03 10:12:39 | 47.68234 | 11.19909 | 139° | 117km/h | 9150m | 5.7m/s | -34.6°C | 63.8% | 320.3hPa | 2.9V | 03:25:00 | 00:00:00 | 00:00:00 | |
| DO3MHA-12 | 2026-09-03 10:12:37 | 47.68299 | 11.19822 | 139° | 115km/h | 9135m | 2.8m/s | -34.4°C | 69.9% | 320.9hPa | 2.9V | 00:00:00 | 00:44:48 | 00:00:00 | |
| OE5DXL-15 | 2026-09-03 10:12:35 | 47.68342 | 11.19767 | 140° | 113km/h | 9125m | 4.2m/s | -34.3°C | 70.5% | 321.4hPa | 2.9V | 00:00:00 | 00:00:00 | 00:00:00 | |
| DO3MHA-11 | 2026-09-03 10:12:32 | 47.68405 | 11.19682 | 137° | 113km/h | 9111m | 4.3m/s | -34.2°C | 71.1% | 322.1hPa | 2.7V | 00:00:00 | 00:44:43 | 00:00:00 | |
| OE5DRO-10 | 2026-09-03 10:12:31 | 47.68426 | 11.19653 | 137° | 113km/h | 9106m | 5.4m/s | -34.2°C | 70.9% | 322.3hPa | 2.9V | 03:24:00 | 00:00:00 | 00:00:00 | |
| DO3MHA-12 | 2026-09-03 10:12:27 | 47.68514 | 11.19535 | 141° | 113km/h | 9087m | 5.8m/s | -34.0°C | 70.8% | 323.1hPa | 2.9V | 00:00:00 | 00:44:38 | 00:00:00 | |
| NBG1-10 | 2026-09-03 10:12:26 | 47.68537 | 11.19508 | 143° | 110km/h | 9082m | 3.4m/s | -33.9°C | 71.2% | 323.4hPa | 2.9V | 00:00:00 | 00:44:37 | 00:00:00 | |
| DB0UT-7 | 2026-09-03 10:12:24 | 47.68581 | 11.19457 | 142° | 111km/h | 9073m | 3.9m/s | -33.8°C | 71.2% | 323.8hPa | 2.9V | 00:00:00 | 00:00:00 | 00:00:00 | |
| DO3MHA-11 | 2026-09-03 10:12:22 | 47.68622 | 11.19404 | 137° | 115km/h | 9063m | 5.9m/s | -33.7°C | 69.7% | 324.2hPa | 2.9V | 00:00:00 | 00:44:33 | 00:00:00 | |
| DB0NH | 2026-09-03 10:12:20 | 47.68662 | 11.19345 | 134° | 113km/h | 9053m | 3.7m/s | -33.7°C | 68.6% | 324.7hPa | 2.9V | 03:25:00 | 00:44:31 | 00:00:00 | |
| DG1MFX-10 | 2026-09-03 10:12:18 | 47.68682 | 11.19314 | 135° | 115km/h | 9048m | 6.6m/s | -33.7°C | 63.3% | 325.0hPa | 2.9V | 03:25:00 | 00:00:00 | 00:00:00 | |
| DO3MHA-12 | 2026-09-03 10:12:17 | 47.68725 | 11.19255 | 141° | 113km/h | 9036m | 5.0m/s | -33.5°C | 66.1% | 325.5hPa | 2.9V | 00:00:00 | 00:44:28 | 00:00:00 | |
| DG1MJG | 2026-09-03 10:12:14 | 47.68772 | 11.19201 | 143° | 115km/h | 9024m | 5.7m/s | -33.5°C | 61.1% | 326.1hPa | 2.9V | 03:25:00 | 00:00:00 | 00:00:00 | |
| DO3MHA-11 | 2026-09-03 10:12:12 | 47.68838 | 11.19120 | 140° | 108km/h | 9007m | 5.5m/s | -33.2°C | 65.2% | 326.9hPa | 2.9V | 03:25:00 | 00:44:23 | 00:00:00 | |
| DB0ND-19 | 2026-09-03 10:12:09 | 47.68922 | 11.19011 | 137° | 108km/h | 8985m | 5.1m/s | -33.1°C | 60.5% | 327.9hPa | 2.9V | 00:00:00 | 00:00:00 | 00:00:00 | |
| DO3MHA-12 | 2026-09-03 10:12:07 | 47.68942 | 11.18984 | 138° | 110km/h | 8980m | 5.3m/s | -33.0°C | 65.1% | 328.1hPa | 2.9V | 03:25:00 | 00:44:18 | 00:00:00 | |
| OE5DXL-15 | 2026-09-03 10:12:05 | 47.68981 | 11.18930 | 137° | 110km/h | 8970m | 5.8m/s | -32.9°C | 66.4% | 328.6hPa | 2.9V | 00:00:00 | 00:00:00 | 00:00:00 | |
| DO3MHA-11 | 2026-09-03 10:12:02 | 47.69041 | 11.18848 | 139° | 110km/h | 8957m | 3.3m/s | -32.8°C | 66.0% | 329.2hPa | 2.9V | 00:00:00 | 00:44:13 | 00:00:00 | |
| DL6DJ-15 | 2026-09-03 10:12:01 | 47.69062 | 11.18821 | 139° | 111km/h | 8953m | 4.5m/s | -32.8°C | 61.6% | 329.5hPa | 2.9V | 00:00:00 | 00:00:00 | 00:00:00 | |
| DG1MFX-10 | 2026-09-03 10:11:58 | 47.69106 | 11.18766 | 141° | 111km/h | 8945m | 4.1m/s | -32.7°C | 61.0% | 329.8hPa | 2.9V | 03:26:00 | 00:00:00 | 00:00:00 | |
| DO3MHA-12 | 2026-09-03 10:11:57 | 47.69149 | 11.18714 | 142° | 108km/h | 8936m | 3.4m/s | -32.6°C | 64.9% | 330.1hPa | 2.9V | 00:00:00 | 00:44:08 | 00:00:00 | |
| DB0UT-7 | 2026-09-03 10:11:54 | 47.69213 | 11.18638 | 141° | 108km/h | 8923m | 5.4m/s | -32.5°C | 64.7% | 330.8hPa | 2.9V | 00:00:00 | 00:44:05 | 00:00:00 | |
| OE5DRO-10 | 2026-09-03 10:11:53 | 47.69234 | 11.18612 | 140° | 108km/h | 8919m | 3.3m/s | -32.4°C | 64.8% | 331.1hPa | 2.9V | 00:00:00 | 00:00:00 | 00:00:00 | |
| DO3MHA-11 | 2026-09-03 10:11:52 | 47.69255 | 11.18586 | 140° | 110km/h | 8915m | 4.3m/s | -32.4°C | 64.4% | 331.2hPa | 2.9V | 00:00:00 | 00:44:03 | 00:00:00 | |
| NBG1-10 | 2026-09-03 10:11:50 | 47.69296 | 11.18532 | 139° | 108km/h | 8907m | 3.5m/s | -32.4°C | 64.4% | 331.6hPa | 2.9V | 03:25:00 | 00:44:01 | 00:00:00 | |
| DO3MHA-12 | 2026-09-03 10:11:47 | 47.69358 | 11.18453 | 139° | 110km/h | 8893m | 4.8m/s | -32.3°C | 63.8% | 332.2hPa | 2.9V | 00:00:00 | 00:43:58 | 00:00:00 | |
| DG1MJG | 2026-09-03 10:11:43 | 47.69421 | 11.18371 | 139° | 110km/h | 8881m | 3.0m/s | -32.2°C | 59.5% | 332.8hPa | 2.9V | 03:26:00 | 00:00:00 | 00:00:00 | |
| DO3MHA-11 | 2026-09-03 10:11:42 | 47.69462 | 11.18316 | 139° | 108km/h | 8873m | 3.9m/s | -32.1°C | 63.1% | 333.2hPa | 2.9V | 00:00:00 | 00:43:53 | 00:00:00 | |
| DB0ND-19 | 2026-09-03 10:11:38 | 47.69567 | 11.18179 | 138° | 106km/h | 8852m | 3.4m/s | -32.0°C | 57.9% | 334.2hPa | 2.9V | 00:00:00 | 00:00:00 | 00:00:00 | |
| DO3MHA-12 | 2026-09-03 10:11:37 | 47.69567 | 11.18179 | 139° | 108km/h | 8852m | 3.3m/s | -31.9°C | 62.0% | 334.1hPa | 2.9V | 00:00:00 | 00:43:48 | 00:00:00 | |
| OE5DXL-15 | 2026-09-03 10:11:35 | 47.69607 | 11.18128 | 140° | 106km/h | 8843m | 3.7m/s | -31.8°C | 61.4% | 334.6hPa | 2.9V | 00:00:00 | 00:00:00 | 00:00:00 | |
| OE5DRO-10 | 2026-09-03 10:11:34 | 47.69627 | 11.18103 | 140° | 108km/h | 8839m | 4.5m/s | -31.8°C | 61.1% | 334.8hPa | 2.9V | 00:00:00 | 00:00:00 | 00:00:00 | |
| DO3MHA-11 | 2026-09-03 10:11:32 | 47.69668 | 11.18051 | 139° | 108km/h | 8830m | 4.2m/s | -31.7°C | 60.6% | 335.1hPa | 2.9V | 03:25:00 | 00:43:43 | 00:00:00 | |
| DL6DJ-15 | 2026-09-03 10:11:30 | 47.69709 | 11.17996 | 138° | 108km/h | 8822m | 4.7m/s | -31.7°C | 56.3% | 335.6hPa | 2.9V | 00:00:00 | 00:00:00 | 00:00:00 | |
| DO3MHA-12 | 2026-09-03 10:11:27 | 47.69772 | 11.17916 | 139° | 106km/h | 8809m | 4.1m/s | -31.5°C | 60.0% | 336.1hPa | 2.9V | 03:25:00 | 00:43:38 | 00:00:00 | |
| DB0UT-7 | 2026-09-03 10:11:24 | 47.69833 | 11.17837 | 139° | 106km/h | 8798m | 4.2m/s | -31.4°C | 59.2% | 336.6hPa | 2.9V | 00:00:00 | 00:00:00 | 00:00:00 | |
| DO3MHA-11 | 2026-09-03 10:11:22 | 47.69873 | 11.17783 | 138° | 108km/h | 8790m | 3.7m/s | -31.4°C | 58.9% | 337.1hPa | 2.9V | 00:00:00 | 00:43:33 | 00:00:00 | |
| OE3JTB-15 | 2026-09-03 10:11:19 | 47.69933 | 11.17704 | 139° | 106km/h | 8777m | 5.4m/s | -31.3°C | 58.7% | 337.7hPa | 2.9V | 00:00:00 | 00:00:00 | 00:00:00 | |
| NBG1-10 | 2026-09-03 10:11:17 | 47.69973 | 11.17651 | 139° | 106km/h | 8768m | 4.8m/s | -31.2°C | 59.6% | 338.1hPa | 2.9V | 00:00:00 | 00:43:28 | 00:00:00 | |
| OE5DRO-10 | 2026-09-03 10:11:15 | 47.70014 | 11.17597 | 138° | 108km/h | 8760m | 4.2m/s | -31.1°C | 60.4% | 338.5hPa | 2.9V | 03:26:00 | 00:00:00 | 00:00:00 | |
| DO3MHA-11 | 2026-09-03 10:11:12 | 47.70075 | 11.17516 | 139° | 106km/h | 8748m | 2.6m/s | -31.0°C | 60.9% | 339.0hPa | 2.9V | 00:00:00 | 00:43:23 | 00:00:00 | |
| DO3MHA-12 | 2026-09-03 10:11:07 | 47.70171 | 11.17385 | 139° | 108km/h | 8728m | 2.7m/s | -30.8°C | 60.9% | 340.0hPa | 2.9V | 00:00:00 | 00:43:18 | 00:00:00 | |
| OE5DXL-15 | 2026-09-03 10:11:05 | 47.70211 | 11.17332 | 138° | 106km/h | 8720m | 4.1m/s | -30.8°C | 60.5% | 340.4hPa | 2.9V | 03:26:00 | 00:00:00 | 00:00:00 | |
| DO3MHA-11 | 2026-09-03 10:11:02 | 47.70272 | 11.17249 | 139° | 108km/h | 8707m | 5.6m/s | -30.7°C | 59.4% | 340.9hPa | 2.9V | 00:00:00 | 00:43:13 | 00:00:00 | |
| DL6DJ-15 | 2026-09-03 10:10:59 | 47.70356 | 11.17140 | 138° | 108km/h | 8691m | 4.9m/s | -30.6°C | 56.1% | 341.8hPa | 2.9V | 00:00:00 | 00:00:00 | 00:00:00 | |
| DO3MHA-12 | 2026-09-03 10:10:57 | 47.70377 | 11.17114 | 140° | 102km/h | 8687m | 2.7m/s | -30.5°C | 60.4% | 341.9hPa | 2.9V | 00:00:00 | 00:43:08 | 00:00:00 | |
| OE5DRO-10 | 2026-09-03 10:10:56 | 47.70397 | 11.17088 | 139° | 104km/h | 8683m | 4.3m/s | -30.5°C | 60.1% | 342.1hPa | 2.9V | 00:00:00 | 00:00:00 | 00:00:00 | |
| DO3MHA-11 | 2026-09-03 10:10:52 | 47.70474 | 11.16981 | 137° | 104km/h | 8663m | 7.5m/s | -30.3°C | 58.4% | 343.1hPa | 2.9V | 03:26:00 | 00:43:03 | 00:00:00 | |
| OE3JTB-15 | 2026-09-03 10:10:50 | 47.70511 | 11.16930 | 138° | 102km/h | 8650m | 4.8m/s | -30.2°C | 58.0% | 343.8hPa | 2.9V | 03:26:00 | 00:00:00 | 00:00:00 | |
| DO3MHA-12 | 2026-09-03 10:10:47 | 47.70566 | 11.16852 | 136° | 106km/h | 8633m | 6.0m/s | -30.0°C | 57.5% | 344.6hPa | 2.9V | 03:26:00 | 00:42:58 | 00:00:00 | |
| DL2OL | 2026-09-03 10:10:44 | 47.70604 | 11.16798 | 138° | 108km/h | 8621m | 5.4m/s | 0°C | 0% | 0hPa | 2.9V | 03:27:00 | 00:00:00 | 00:00:00 | |
| DO3MHA-11 | 2026-09-03 10:10:42 | 47.70665 | 11.16714 | 137° | 108km/h | 8604m | 6.2m/s | -29.7°C | 56.9% | 345.9hPa | 2.9V | 00:00:00 | 00:42:53 | 00:00:00 | |
| DG1MJG | 2026-09-03 10:10:41 | 47.70664 | 11.16714 | 138° | 108km/h | 8604m | 6.2m/s | -29.8°C | 53.3% | 346.0hPa | 2.9V | 03:27:00 | 00:00:00 | 00:00:00 | |
| DB0UT-7 | 2026-09-03 10:10:38 | 47.70740 | 11.16603 | 134° | 106km/h | 8580m | 5.3m/s | -29.5°C | 56.3% | 347.1hPa | 2.9V | 03:26:00 | 00:42:49 | 00:00:00 | |
| DO3MHA-12 | 2026-09-03 10:10:37 | 47.70758 | 11.16574 | 135° | 110km/h | 8574m | 6.3m/s | -29.5°C | 56.4% | 347.4hPa | 2.9V | 00:00:00 | 00:42:48 | 00:00:00 | |
| DB0ND-19 | 2026-09-03 10:10:36 | 47.70798 | 11.16518 | 137° | 110km/h | 8563m | 6.2m/s | -29.5°C | 53.6% | 348.0hPa | 2.9V | 00:00:00 | 00:00:00 | 00:00:00 | |
| OE5DXL-15 | 2026-09-03 10:10:35 | 47.70798 | 11.16518 | 138° | 106km/h | 8563m | 6.1m/s | -29.4°C | 57.1% | 347.9hPa | 2.9V | 00:00:00 | 00:00:00 | 00:00:00 | |
| DO3MHA-11 | 2026-09-03 10:10:32 | 47.70860 | 11.16436 | 140° | 108km/h | 8549m | 5.0m/s | -29.3°C | 56.8% | 348.6hPa | 2.9V | 00:00:00 | 00:42:43 | 00:00:00 | |
| DL6DJ-15 | 2026-09-03 10:10:28 | 47.70944 | 11.16328 | 139° | 106km/h | 8532m | 4.1m/s | -29.2°C | 53.8% | 349.5hPa | 2.9V | 00:00:00 | 00:00:00 | 00:00:00 | |
| DO3MHA-12 | 2026-09-03 10:10:27 | 47.70964 | 11.16302 | 140° | 106km/h | 8528m | 3.9m/s | -29.1°C | 57.9% | 349.7hPa | 2.9V | 00:00:00 | 00:42:38 | 00:00:00 | |
| DO3MHA-11 | 2026-09-03 10:10:22 | 47.71062 | 11.16168 | 137° | 108km/h | 8509m | 4.2m/s | -29.0°C | 59.4% | 350.6hPa | 2.9V | 00:00:00 | 00:42:33 | 00:00:00 | |
| OE5DRO-10 | 2026-09-03 10:10:18 | 47.71141 | 11.16060 | 139° | 106km/h | 8494m | 3.3m/s | -28.8°C | 59.7% | 351.3hPa | 2.9V | 00:00:00 | 00:00:00 | 00:00:00 | |
| DO3MHA-12 | 2026-09-03 10:10:17 | 47.71162 | 11.16032 | 139° | 106km/h | 8489m | 5.3m/s | -28.8°C | 59.5% | 351.5hPa | 2.9V | 00:00:00 | 00:42:28 | 00:00:00 | |
| DG1MFX-10 | 2026-09-03 10:10:15 | 47.71182 | 11.16005 | 140° | 108km/h | 8485m | 3.2m/s | -28.8°C | 56.3% | 351.9hPa | 2.9V | 03:27:00 | 00:00:00 | 00:00:00 | |
| DL2OL | 2026-09-03 10:10:13 | 47.71223 | 11.15951 | 139° | 108km/h | 8476m | 5.0m/s | 0°C | 0% | 0hPa | 2.9V | 00:00:00 | 00:00:00 | 00:00:00 | |
| DO3MHA-11 | 2026-09-03 10:10:12 | 47.71264 | 11.15897 | 138° | 104km/h | 8466m | 3.8m/s | -28.6°C | 60.9% | 352.7hPa | 2.9V | 03:27:00 | 00:42:23 | 00:00:00 | |
| DG1MJG | 2026-09-03 10:10:10 | 47.71283 | 11.15869 | 137° | 106km/h | 8462m | 4.7m/s | -28.6°C | 57.5% | 353.0hPa | 2.9V | 03:27:00 | 00:00:00 | 00:00:00 | |
| DO3MHA-12 | 2026-09-03 10:10:07 | 47.71357 | 11.15761 | 138° | 104km/h | 8445m | 4.6m/s | -28.5°C | 61.5% | 353.8hPa | 2.9V | 03:27:00 | 00:42:18 | 00:00:00 | |
| OE5DXL-15 | 2026-09-03 10:10:05 | 47.71395 | 11.15712 | 141° | 106km/h | 8438m | 3.1m/s | -28.4°C | 61.3% | 354.1hPa | 2.9V | 00:00:00 | 00:00:00 | 00:00:00 | |
| NBG1-10 | 2026-09-03 10:10:04 | 47.71415 | 11.15687 | 140° | 106km/h | 8434m | 4.9m/s | -28.4°C | 61.2% | 354.3hPa | 2.9V | 00:00:00 | 00:42:15 | 00:00:00 | |
| DO3MHA-11 | 2026-09-03 10:10:02 | 47.71455 | 11.15634 | 138° | 106km/h | 8425m | 5.1m/s | -28.3°C | 60.4% | 354.7hPa | 2.9V | 00:00:00 | 00:42:13 | 00:00:00 | |
| OE5DRO-10 | 2026-09-03 10:09:59 | 47.71514 | 11.15549 | 136° | 106km/h | 8411m | 4.4m/s | -28.2°C | 59.8% | 355.4hPa | 2.9V | 03:27:00 | 00:00:00 | 00:00:00 | |
| DO3MHA-12 | 2026-09-03 10:09:57 | 47.71554 | 11.15494 | 137° | 106km/h | 8403m | 4.0m/s | -28.1°C | 60.3% | 355.8hPa | 2.9V | 00:00:00 | 00:42:08 | 00:00:00 | |
| DG1MFX-10 | 2026-09-03 10:09:55 | 47.71573 | 11.15467 | 138° | 104km/h | 8399m | 4.3m/s | -28.1°C | 56.8% | 356.1hPa | 2.9V | 03:27:00 | 00:00:00 | 00:00:00 | |
| DO3MHA-11 | 2026-09-03 10:09:52 | 47.71651 | 11.15360 | 139° | 106km/h | 8384m | 4.4m/s | -28.0°C | 60.9% | 356.7hPa | 2.9V | 00:00:00 | 00:42:03 | 00:00:00 | |
| DO3MHA-12 | 2026-09-03 10:09:47 | 47.71752 | 11.15231 | 139° | 104km/h | 8365m | 4.3m/s | -27.8°C | 64.7% | 357.8hPa | 2.9V | 00:00:00 | 00:41:58 | 00:00:00 | |
| DH7VM-15 | 2026-09-03 10:09:43 | 47.71812 | 11.15150 | 139° | 108km/h | 8354m | 3.2m/s | -27.8°C | 0% | 0hPa | 2.9V | 00:00:00 | 00:00:00 | 00:00:00 | |
| DO3MHA-11 | 2026-09-03 10:09:41 | 47.71871 | 11.15069 | 137° | 104km/h | 8342m | 3.9m/s | -27.7°C | 68.1% | 358.9hPa | 2.9V | 00:00:00 | 00:41:52 | 00:00:00 | |
| OE5DRO-10 | 2026-09-03 10:09:40 | 47.71890 | 11.15041 | 136° | 104km/h | 8338m | 3.5m/s | -27.7°C | 68.9% | 359.0hPa | 2.9V | 00:00:00 | 00:00:00 | 00:00:00 | |
| DB0NH | 2026-09-03 10:09:39 | 47.71909 | 11.15014 | 135° | 102km/h | 8334m | 3.5m/s | -27.6°C | 70.0% | 359.2hPa | 2.9V | 00:00:00 | 00:41:50 | 00:00:00 | |
| OE3JTB-15 | 2026-09-03 10:09:36 | 47.71965 | 11.14932 | 137° | 104km/h | 8324m | 3.8m/s | -27.6°C | 70.5% | 359.7hPa | 2.9V | 00:00:00 | 00:41:47 | 00:00:00 | |
| OE5DXL-15 | 2026-09-03 10:09:35 | 47.71984 | 11.14905 | 137° | 104km/h | 8320m | 3.9m/s | -27.5°C | 70.9% | 360.0hPa | 2.9V | 00:00:00 | 00:00:00 | 00:00:00 | |
| DB0ND-19 | 2026-09-03 10:09:34 | 47.72023 | 11.14853 | 137° | 104km/h | 8312m | 3.7m/s | -27.5°C | 67.8% | 360.3hPa | 2.9V | 00:00:00 | 00:00:00 | 00:00:00 | |
| NBG1-10 | 2026-09-03 10:09:31 | 47.72062 | 11.14800 | 139° | 104km/h | 8305m | 3.7m/s | -27.5°C | 73.8% | 360.7hPa | 2.9V | 03:27:00 | 00:41:42 | 00:00:00 | |
| DO3MHA-11 | 2026-09-03 10:09:30 | 47.72082 | 11.14774 | 138° | 102km/h | 8301m | 3.4m/s | -27.4°C | 74.6% | 360.9hPa | 2.9V | 03:27:00 | 00:41:41 | 00:00:00 | |
| DL6DJ-15 | 2026-09-03 10:09:26 | 47.72253 | 11.14533 | 135° | 102km/h | 8269m | 3.3m/s | -27.3°C | 72.9% | 362.6hPa | 2.7V | 00:00:00 | 00:00:00 | 00:00:00 | |
| OE5DRO-10 | 2026-09-03 10:09:21 | 47.72253 | 11.14532 | 136° | 104km/h | 8269m | 3.3m/s | -27.2°C | 77.0% | 362.5hPa | 2.7V | 00:00:00 | 00:00:00 | 00:00:00 | |
| DO3MHA-11 | 2026-09-03 10:09:19 | 47.72290 | 11.14478 | 135° | 102km/h | 8262m | 4.6m/s | -27.2°C | 76.2% | 362.9hPa | 2.9V | 00:00:00 | 00:41:30 | 00:00:00 | |
| DG1MFX-10 | 2026-09-03 10:09:12 | 47.72403 | 11.14312 | 138° | 106km/h | 8239m | 4.6m/s | -27.1°C | 73.8% | 364.1hPa | 2.9V | 03:28:00 | 00:00:00 | 00:00:00 | |
| DG1MJG | 2026-09-03 10:09:10 | 47.72441 | 11.14259 | 137° | 102km/h | 8232m | 4.0m/s | -27.0°C | 75.2% | 364.4hPa | 2.9V | 03:28:00 | 00:00:00 | 00:00:00 | |
| DB0NH | 2026-09-03 10:09:08 | 47.72495 | 11.14178 | 134° | 104km/h | 8221m | 5.0m/s | -26.9°C | 78.8% | 364.9hPa | 2.9V | 00:00:00 | 00:41:19 | 00:00:00 | |
| OE3JTB-15 | 2026-09-03 10:09:07 | 47.72512 | 11.14151 | 134° | 104km/h | 8217m | 3.2m/s | -26.8°C | 78.9% | 365.2hPa | 2.9V | 00:00:00 | 00:00:00 | 00:00:00 | |
| DO3MHA-12 | 2026-09-03 10:09:06 | 47.72530 | 11.14122 | 133° | 108km/h | 8213m | 4.6m/s | -26.8°C | 78.1% | 365.3hPa | 2.9V | 00:00:00 | 00:41:17 | 00:00:00 | |
| OE5DXL-15 | 2026-09-03 10:09:05 | 47.72548 | 11.14093 | 132° | 104km/h | 8209m | 3.7m/s | -26.8°C | 77.3% | 365.6hPa | 2.9V | 03:28:00 | 00:00:00 | 00:00:00 | |
| DB0UT-7 | 2026-09-03 10:09:04 | 47.72566 | 11.14064 | 133° | 104km/h | 8206m | 3.5m/s | -26.7°C | 76.7% | 365.7hPa | 2.9V | 00:00:00 | 00:41:15 | 00:00:00 | |
| DB0ND-19 | 2026-09-03 10:09:03 | 47.72604 | 11.14007 | 135° | 108km/h | 8197m | 3.1m/s | -26.7°C | 72.2% | 366.2hPa | 2.9V | 00:00:00 | 00:00:00 | 00:00:00 | |
| OE5DRO-10 | 2026-09-03 10:09:02 | 47.72604 | 11.14006 | 136° | 102km/h | 8197m | 3.1m/s | -26.7°C | 76.1% | 366.1hPa | 2.9V | 00:00:00 | 00:00:00 | 00:00:00 | |
| DL6DJ-15 | 2026-09-03 10:08:55 | 47.72757 | 11.13780 | 129° | 104km/h | 8167m | 4.6m/s | -26.4°C | 70.1% | 367.7hPa | 2.9V | 00:00:00 | 00:00:00 | 00:00:00 | |
| DG1MFX-10 | 2026-09-03 10:08:51 | 47.72791 | 11.13720 | 132° | 104km/h | 8160m | 2.7m/s | -26.4°C | 70.8% | 368.1hPa | 2.9V | 03:28:00 | 00:00:00 | 00:00:00 | |
| DO3MHA-12 | 2026-09-03 10:08:46 | 47.72899 | 11.13569 | 140° | 102km/h | 8137m | 2.8m/s | -26.1°C | 72.9% | 369.3hPa | 2.9V | 00:00:00 | 00:40:57 | 00:00:00 | |
| OE5DRO-10 | 2026-09-03 10:08:43 | 47.72954 | 11.13492 | 135° | 100km/h | 8124m | 5.0m/s | -26.0°C | 72.1% | 369.9hPa | 2.9V | 03:28:00 | 00:00:00 | 00:00:00 | |
| DH7VM-15 | 2026-09-03 10:08:39 | 47.73008 | 11.13407 | 135° | 108km/h | 8108m | 5.5m/s | 0°C | 0% | 0hPa | 2.9V | 00:00:00 | 00:00:00 | 00:00:00 | |
| OE3JTB-15 | 2026-09-03 10:08:38 | 47.73045 | 11.13349 | 134° | 100km/h | 8098m | 5.8m/s | 0°C | 0% | 0hPa | 2.9V | 00:00:00 | 00:00:00 | 00:00:00 | |
| DO3MHA-12 | 2026-09-03 10:08:36 | 47.73081 | 11.13293 | 134° | 99km/h | 8089m | 2.6m/s | -25.7°C | 72.0% | 371.7hPa | 2.9V | 00:00:00 | 00:40:47 | 00:00:00 | |
| OE5DXL-15 | 2026-09-03 10:08:35 | 47.73099 | 11.13266 | 135° | 100km/h | 8085m | 5.5m/s | -25.7°C | 71.4% | 371.9hPa | 2.9V | 00:00:00 | 00:00:00 | 00:00:00 | |
| DB0UT-7 | 2026-09-03 10:08:34 | 47.73117 | 11.13240 | 137° | 100km/h | 8080m | 4.5m/s | -25.7°C | 71.7% | 372.2hPa | 2.9V | 00:00:00 | 00:00:00 | 00:00:00 | |
| DG1MFX-10 | 2026-09-03 10:08:31 | 47.73154 | 11.13187 | 136° | 99km/h | 8071m | 5.5m/s | -25.6°C | 67.6% | 372.6hPa | 2.9V | 03:29:00 | 00:00:00 | 00:00:00 | |
| DO3MHA-12 | 2026-09-03 10:08:26 | 47.73256 | 11.13027 | 132° | 102km/h | 8048m | 3.0m/s | -25.4°C | 70.1% | 373.7hPa | 2.9V | 00:00:00 | 00:40:37 | 00:00:00 | |
| NBG1-10 | 2026-09-03 10:08:25 | 47.73273 | 11.12998 | 133° | 100km/h | 8044m | 4.6m/s | -25.4°C | 69.9% | 373.9hPa | 2.9V | 00:00:00 | 00:40:36 | 00:00:00 | |
| OE5DRO-10 | 2026-09-03 10:08:24 | 47.73291 | 11.12970 | 134° | 100km/h | 8040m | 3.4m/s | -25.3°C | 69.8% | 374.1hPa | 2.9V | 00:00:00 | 00:00:00 | 00:00:00 | |
| DO3MHA-12 | 2026-09-03 10:08:16 | 47.73434 | 11.12752 | 132° | 97km/h | 8011m | 3.4m/s | -25.1°C | 68.6% | 375.6hPa | 2.9V | 03:29:00 | 00:40:27 | 00:00:00 | |
| DG1MFX-10 | 2026-09-03 10:08:10 | 47.73515 | 11.12612 | 133° | 93km/h | 7992m | 3.7m/s | -25.2°C | 63.2% | 376.6hPa | 2.9V | 03:29:00 | 00:00:00 | 00:00:00 | |
| DG1MJG | 2026-09-03 10:08:08 | 47.73548 | 11.12561 | 137° | 95km/h | 7983m | 4.4m/s | -25.2°C | 61.7% | 377.1hPa | 2.9V | 03:29:00 | 00:00:00 | 00:00:00 | |
| DO3MHA-12 | 2026-09-03 10:08:06 | 47.73604 | 11.12485 | 138° | 104km/h | 7971m | 4.2m/s | -25.1°C | 64.2% | 377.6hPa | 2.9V | 00:00:00 | 00:40:17 | 00:00:00 | |
| OE5DXL-15 | 2026-09-03 10:08:05 | 47.73623 | 11.12458 | 138° | 100km/h | 7967m | 3.4m/s | -25.1°C | 64.2% | 377.9hPa | 2.9V | 00:00:00 | 00:00:00 | 00:00:00 | |
| DB0UT-7 | 2026-09-03 10:08:04 | 47.73643 | 11.12430 | 136° | 100km/h | 7963m | 4.7m/s | -25.0°C | 64.4% | 378.1hPa | 2.9V | 03:29:00 | 00:40:15 | 00:00:00 | |
| DB0ND-19 | 2026-09-03 10:08:01 | 47.73838 | 11.12123 | 137° | 100km/h | 7913m | 4.4m/s | -24.6°C | 59.5% | 380.7hPa | 2.9V | 00:00:00 | 00:00:00 | 00:00:00 | |
| DL6DJ-15 | 2026-09-03 10:07:53 | 47.73857 | 11.12097 | 135° | 104km/h | 7910m | 3.0m/s | -24.6°C | 59.2% | 381.0hPa | 2.9V | 00:00:00 | 00:00:00 | 00:00:00 | |
| NBG1-10 | 2026-09-03 10:07:52 | 47.73856 | 11.12097 | 136° | 95km/h | 7910m | 3.0m/s | -24.5°C | 62.3% | 381.0hPa | 2.9V | 00:00:00 | 00:40:03 | 00:00:00 | |
| DG1MFX-10 | 2026-09-03 10:07:47 | 47.73928 | 11.11977 | 129° | 102km/h | 7892m | 3.5m/s | -24.4°C | 58.4% | 381.9hPa | 2.9V | 03:29:00 | 00:00:00 | 00:00:00 | |
| DO3MHA-12 | 2026-09-03 10:07:46 | 47.73959 | 11.11920 | 130° | 95km/h | 7884m | 2.9m/s | -24.3°C | 60.8% | 382.3hPa | 2.9V | 00:00:00 | 00:39:57 | 00:00:00 | |
| DG1MJG | 2026-09-03 10:07:38 | 47.74087 | 11.11708 | 133° | 91km/h | 7849m | 3.2m/s | -24.0°C | 56.0% | 384.2hPa | 2.9V | 03:30:00 | 00:00:00 | 00:00:00 | |
| DO3MHA-12 | 2026-09-03 10:07:36 | 47.74119 | 11.11655 | 132° | 104km/h | 7841m | 5.0m/s | -23.8°C | 58.9% | 384.6hPa | 2.9V | 03:29:00 | 00:39:47 | 00:00:00 | |
| OE5DXL-15 | 2026-09-03 10:07:35 | 47.74136 | 11.11628 | 134° | 99km/h | 7836m | 4.0m/s | -23.8°C | 59.2% | 384.8hPa | 2.7V | 00:00:00 | 00:00:00 | 00:00:00 | |
| DB0UT-7 | 2026-09-03 10:07:34 | 47.74153 | 11.11600 | 133° | 99km/h | 7832m | 3.9m/s | -23.8°C | 59.4% | 385.1hPa | 2.7V | 00:00:00 | 00:00:00 | 00:00:00 | |
| OE5DRO-10 | 2026-09-03 10:07:27 | 47.74271 | 11.11389 | 132° | 97km/h | 7803m | 3.4m/s | -23.5°C | 58.1% | 386.6hPa | 2.7V | 03:29:00 | 00:00:00 | 00:00:00 | |
| DO3MHA-12 | 2026-09-03 10:07:26 | 47.74290 | 11.11359 | 134° | 99km/h | 7799m | 5.3m/s | -23.5°C | 57.5% | 386.7hPa | 2.9V | 00:00:00 | 00:39:37 | 00:00:00 | |
| DL6DJ-15 | 2026-09-03 10:07:22 | 47.74382 | 11.11230 | 131° | 93km/h | 7774m | 3.1m/s | -23.3°C | 54.8% | 388.1hPa | 2.9V | 00:00:00 | 00:00:00 | 00:00:00 | |
| DO3MHA-12 | 2026-09-03 10:07:16 | 47.74457 | 11.11092 | 129° | 95km/h | 7754m | 4.2m/s | -23.1°C | 56.2% | 389.1hPa | 2.9V | 00:00:00 | 00:39:27 | 00:00:00 | |
| OE5DRO-10 | 2026-09-03 10:07:08 | 47.74583 | 11.10881 | 133° | 93km/h | 7722m | 3.9m/s | -22.9°C | 56.2% | 390.9hPa | 2.9V | 00:00:00 | 00:00:00 | 00:00:00 | |
| DG1MFX-10 | 2026-09-03 10:07:07 | 47.74583 | 11.10881 | 134° | 97km/h | 7722m | 4.0m/s | -22.9°C | 53.5% | 391.0hPa | 2.9V | 03:30:00 | 00:00:00 | 00:00:00 | |
| DO3MHA-12 | 2026-09-03 10:07:06 | 47.74618 | 11.10827 | 135° | 91km/h | 7714m | 5.0m/s | -22.8°C | 55.7% | 391.3hPa | 2.9V | 00:00:00 | 00:39:17 | 00:00:00 | |
| OE5DXL-15 | 2026-09-03 10:07:05 | 47.74636 | 11.10801 | 136° | 91km/h | 7710m | 3.3m/s | -22.7°C | 55.7% | 391.6hPa | 2.9V | 03:30:00 | 00:00:00 | 00:00:00 | |
| DB0UT-7 | 2026-09-03 10:07:04 | 47.74653 | 11.10775 | 134° | 91km/h | 7706m | 5.6m/s | -22.7°C | 55.5% | 391.8hPa | 2.9V | 00:00:00 | 00:39:15 | 00:00:00 | |
| DB0ND-19 | 2026-09-03 10:06:58 | 47.74742 | 11.10625 | 130° | 91km/h | 7678m | 5.5m/s | -22.5°C | 51.4% | 393.4hPa | 2.9V | 00:00:00 | 00:00:00 | 00:00:00 | |
| DO3MHA-11 | 2026-09-03 10:06:56 | 47.74775 | 11.10575 | 137° | 93km/h | 7668m | 3.4m/s | -22.4°C | 53.3% | 393.8hPa | 2.9V | 00:00:00 | 00:39:07 | 00:00:00 | |
| NBG1-10 | 2026-09-03 10:06:50 | 47.74879 | 11.10430 | 137° | 88km/h | 7638m | 5.5m/s | -22.1°C | 51.2% | 395.4hPa | 2.7V | 03:30:00 | 00:39:01 | 00:00:00 | |
| OE5DRO-10 | 2026-09-03 10:06:49 | 47.74896 | 11.10406 | 137° | 91km/h | 7633m | 5.0m/s | -22.1°C | 51.2% | 395.7hPa | 2.9V | 00:00:00 | 00:00:00 | 00:00:00 | |
| DG1MFX-10 | 2026-09-03 10:06:47 | 47.74912 | 11.10383 | 136° | 89km/h | 7628m | 5.3m/s | -22.1°C | 48.6% | 396.0hPa | 2.9V | 03:31:00 | 00:00:00 | 00:00:00 | |
| DO3MHA-12 | 2026-09-03 10:06:46 | 47.74943 | 11.10334 | 132° | 91km/h | 7618m | 4.1m/s | -21.9°C | 50.7% | 396.5hPa | 2.9V | 00:00:00 | 00:38:57 | 00:00:00 | |
| DO3MHA-12 | 2026-09-03 10:06:36 | 47.75097 | 11.10074 | 132° | 89km/h | 7567m | 6.2m/s | -21.5°C | 47.3% | 399.1hPa | 2.9V | 00:00:00 | 00:38:47 | 00:00:00 | |
| OE3JTB-15 | 2026-09-03 10:06:35 | 47.75113 | 11.10047 | 131° | 88km/h | 7561m | 5.5m/s | 0°C | 0% | 0hPa | 2.9V | 00:00:00 | 00:00:00 | 00:00:00 | |
| DB0UT-7 | 2026-09-03 10:06:34 | 47.75128 | 11.10021 | 131° | 88km/h | 7556m | 5.2m/s | -21.4°C | 47.3% | 399.8hPa | 2.9V | 00:00:00 | 00:00:00 | 00:00:00 | |
| OE5DRO-10 | 2026-09-03 10:06:30 | 47.75186 | 11.09921 | 130° | 89km/h | 7535m | 5.6m/s | -21.2°C | 45.8% | 400.8hPa | 2.9V | 00:00:00 | 00:00:00 | 00:00:00 | |
| DB0ND-19 | 2026-09-03 10:06:27 | 47.75231 | 11.09845 | 130° | 89km/h | 7519m | 6.1m/s | -21.2°C | 40.6% | 401.8hPa | 2.9V | 00:00:00 | 00:00:00 | 00:00:00 | |
| DO3MHA-12 | 2026-09-03 10:06:26 | 47.75246 | 11.09819 | 132° | 91km/h | 7514m | 4.7m/s | -21.1°C | 42.1% | 402.1hPa | 2.9V | 00:00:00 | 00:38:37 | 00:00:00 | |
| DG1MFX-10 | 2026-09-03 10:06:19 | 47.75343 | 11.09663 | 134° | 91km/h | 7483m | 4.6m/s | -20.8°C | 37.5% | 403.8hPa | 2.9V | 03:31:00 | 00:00:00 | 00:00:00 | |
| DO3MHA-12 | 2026-09-03 10:06:16 | 47.75404 | 11.09576 | 140° | 88km/h | 7458m | 5.3m/s | -20.6°C | 37.7% | 405.1hPa | 2.9V | 03:31:00 | 00:38:27 | 00:00:00 | |
| OE5DRO-10 | 2026-09-03 10:06:11 | 47.75472 | 11.09454 | 125° | 84km/h | 7422m | 7.6m/s | -20.3°C | 34.2% | 407.0hPa | 2.9V | 03:31:00 | 00:00:00 | 00:00:00 | |
| DO3MHA-12 | 2026-09-03 10:06:06 | 47.75549 | 11.09327 | 134° | 78km/h | 7385m | 5.0m/s | -20.0°C | 29.8% | 409.0hPa | 2.9V | 00:00:00 | 00:38:17 | 00:00:00 | |
| OE5DXL-15 | 2026-09-03 10:06:05 | 47.75562 | 11.09305 | 130° | 80km/h | 7380m | 4.3m/s | -20.0°C | 29.3% | 409.2hPa | 2.9V | 00:00:00 | 00:00:00 | 00:00:00 | |
| DB0UT-7 | 2026-09-03 10:06:04 | 47.75573 | 11.09283 | 126° | 80km/h | 7375m | 5.1m/s | -19.9°C | 29.0% | 409.5hPa | 2.9V | 03:31:00 | 00:38:15 | 00:00:00 | |
| NBG1-10 | 2026-09-03 10:06:03 | 47.75584 | 11.09261 | 125° | 80km/h | 7370m | 5.2m/s | -19.9°C | 28.7% | 409.8hPa | 2.9V | 00:00:00 | 00:38:14 | 00:00:00 | |
| DB0ND-19 | 2026-09-03 10:05:56 | 47.75747 | 11.08980 | 129° | 82km/h | 7303m | 5.1m/s | -19.3°C | 25.7% | 413.6hPa | 2.9V | 00:00:00 | 00:00:00 | 00:00:00 | |
| DL6DJ-15 | 2026-09-03 10:05:48 | 47.75783 | 11.08907 | 124° | 78km/h | 7288m | 5.2m/s | -19.2°C | 25.4% | 414.4hPa | 2.9V | 00:00:00 | 00:00:00 | 00:00:00 | |
| DO3MHA-12 | 2026-09-03 10:05:46 | 47.75806 | 11.08858 | 128° | 80km/h | 7279m | 5.7m/s | -19.1°C | 26.6% | 414.9hPa | 2.9V | 00:00:00 | 00:37:57 | 00:00:00 | |
| OE3JTB-15 | 2026-09-03 10:05:40 | 47.75883 | 11.08718 | 129° | 78km/h | 7252m | 3.9m/s | 0°C | 0% | 0hPa | 2.9V | 00:00:00 | 00:00:00 | 00:00:00 | |
| DO3MHA-11 | 2026-09-03 10:05:36 | 47.75933 | 11.08621 | 127° | 80km/h | 7235m | 3.8m/s | -18.6°C | 24.8% | 417.3hPa | 2.9V | 00:00:00 | 00:37:47 | 00:00:00 | |
| OE5DXL-15 | 2026-09-03 10:05:35 | 47.75945 | 11.08596 | 126° | 80km/h | 7231m | 4.4m/s | -18.6°C | 24.6% | 417.6hPa | 2.9V | 00:00:00 | 00:00:00 | 00:00:00 | |
| DB0UT-7 | 2026-09-03 10:05:34 | 47.75956 | 11.08572 | 126° | 80km/h | 7227m | 3.9m/s | -18.6°C | 24.3% | 417.8hPa | 2.9V | 00:00:00 | 00:00:00 | 00:00:00 | |
| NBG1-10 | 2026-09-03 10:05:30 | 47.76002 | 11.08477 | 126° | 82km/h | 7210m | 4.9m/s | -18.4°C | 24.1% | 418.8hPa | 2.9V | 00:00:00 | 00:37:41 | 00:00:00 | |
| DO3MHA-12 | 2026-09-03 10:05:26 | 47.76051 | 11.08379 | 127° | 78km/h | 7194m | 3.1m/s | -18.3°C | 24.0% | 419.6hPa | 2.9V | 00:00:00 | 00:37:37 | 00:00:00 | |
| DB0ND-19 | 2026-09-03 10:05:25 | 47.76063 | 11.08354 | 127° | 82km/h | 7190m | 5.2m/s | -18.3°C | 22.6% | 419.9hPa | 2.9V | 00:00:00 | 00:00:00 | 00:00:00 | |
| DL6DJ-15 | 2026-09-03 10:05:17 | 47.76155 | 11.08165 | 126° | 73km/h | 7157m | 3.9m/s | -18.0°C | 20.5% | 421.8hPa | 2.9V | 00:00:00 | 00:00:00 | 00:00:00 | |
| DO3MHA-12 | 2026-09-03 10:05:16 | 47.76183 | 11.08142 | 127° | 82km/h | 7153m | 3.0m/s | -18.0°C | 21.9% | 422.0hPa | 2.9V | 00:00:00 | 00:37:27 | 00:00:00 | |
| DG1MFX-10 | 2026-09-03 10:05:15 | 47.76167 | 11.08142 | 128° | 75km/h | 7153m | 3.0m/s | -18.0°C | 20.7% | 422.0hPa | 2.9V | 03:32:00 | 00:00:00 | 00:00:00 | |
| OE3JTB-15 | 2026-09-03 10:05:11 | 47.76226 | 11.08023 | 124° | 80km/h | 7131m | 4.5m/s | 0°C | 0% | 0hPa | 2.9V | 00:00:00 | 00:37:22 | 00:00:00 | |
| DO3MHA-12 | 2026-09-03 10:05:06 | 47.76293 | 11.07890 | 131° | 84km/h | 7110m | 5.5m/s | -17.7°C | 18.5% | 424.3hPa | 2.9V | 00:00:00 | 00:37:17 | 00:00:00 | |
| OE5DXL-15 | 2026-09-03 10:05:05 | 47.76307 | 11.07864 | 128° | 82km/h | 7105m | 3.3m/s | -17.7°C | 18.7% | 424.6hPa | 2.9V | 03:32:00 | 00:00:00 | 00:00:00 | |
| DB0UT-7 | 2026-09-03 10:05:04 | 47.76320 | 11.07836 | 124° | 84km/h | 7101m | 6.2m/s | -17.7°C | 18.6% | 424.9hPa | 2.9V | 00:00:00 | 00:37:15 | 00:00:00 | |
| NBG1-10 | 2026-09-03 10:04:57 | 47.76401 | 11.07660 | 127° | 82km/h | 7049m | 7.8m/s | -17.4°C | 14.0% | 428.0hPa | 2.9V | 00:00:00 | 00:37:08 | 00:00:00 | |
| DO3MHA-12 | 2026-09-03 10:04:56 | 47.76413 | 11.07636 | 128° | 82km/h | 7041m | 6.0m/s | -17.3°C | 13.3% | 428.4hPa | 2.9V | 03:32:00 | 00:37:07 | 00:00:00 | |
| OE5DRO-10 | 2026-09-03 10:04:54 | 47.76440 | 11.07586 | 128° | 82km/h | 7030m | 5.9m/s | -17.2°C | 10.9% | 429.0hPa | 2.9V | 00:00:00 | 00:00:00 | 00:00:00 | |
| DO3MHA-12 | 2026-09-03 10:04:46 | 47.76544 | 11.07394 | 126° | 84km/h | 6992m | 3.6m/s | -17.1°C | 9.7% | 431.3hPa | 2.9V | 00:00:00 | 00:36:57 | 00:00:00 | |
| DO3MHA-12 | 2026-09-03 10:04:36 | 47.76677 | 11.07151 | 130° | 80km/h | 6947m | 3.9m/s | -17.1°C | 12.7% | 433.9hPa | 2.9V | 00:00:00 | 00:36:47 | 00:00:00 | |
| OE5DXL-15 | 2026-09-03 10:04:35 | 47.76690 | 11.07128 | 131° | 78km/h | 6942m | 4.9m/s | -17.2°C | 14.9% | 434.1hPa | 2.9V | 00:00:00 | 00:00:00 | 00:00:00 | |
| DB0UT-7 | 2026-09-03 10:04:34 | 47.76703 | 11.07105 | 131° | 78km/h | 6938m | 2.9m/s | -17.2°C | 16.7% | 434.4hPa | 2.9V | 00:00:00 | 00:00:00 | 00:00:00 | |
| DG1MFX-10 | 2026-09-03 10:04:33 | 47.76703 | 11.07105 | 131° | 78km/h | 6938m | 3.0m/s | -17.3°C | 15.7% | 434.4hPa | 2.9V | 03:32:00 | 00:00:00 | 00:00:00 | |
| DO3MHA-12 | 2026-09-03 10:04:26 | 47.76801 | 11.06916 | 128° | 77km/h | 6903m | 4.5m/s | -17.3°C | 27.5% | 436.5hPa | 2.9V | 00:00:00 | 00:36:37 | 00:00:00 | |
| NBG1-10 | 2026-09-03 10:04:24 | 47.76827 | 11.06869 | 131° | 77km/h | 6895m | 4.8m/s | -17.3°C | 29.4% | 436.8hPa | 2.9V | 03:32:00 | 00:36:35 | 00:00:00 | |
| DO3MHA-12 | 2026-09-03 10:04:16 | 47.76920 | 11.06695 | 126° | 78km/h | 6858m | 3.9m/s | -17.3°C | 26.2% | 439.0hPa | 2.9V | 03:33:00 | 00:36:27 | 00:00:00 | |
| DL6DJ-15 | 2026-09-03 10:04:15 | 47.76944 | 11.06650 | 128° | 78km/h | 6847m | 7.1m/s | -17.3°C | 26.7% | 439.6hPa | 2.9V | 00:00:00 | 00:00:00 | 00:00:00 | |
| DG1MFX-10 | 2026-09-03 10:04:12 | 47.76956 | 11.06627 | 131° | 78km/h | 6841m | 4.8m/s | -17.4°C | 29.2% | 440.0hPa | 2.9V | 00:00:00 | 00:00:00 | 00:00:00 | |
| DO3MHA-12 | 2026-09-03 10:04:06 | 47.77050 | 11.06475 | 136° | 77km/h | 6801m | 7.2m/s | -17.3°C | 36.9% | 442.3hPa | 2.9V | 00:00:00 | 00:36:17 | 00:00:00 | |
| OE5DXL-15 | 2026-09-03 10:04:05 | 47.77064 | 11.06453 | 134° | 77km/h | 6793m | 8.3m/s | -17.2°C | 37.4% | 442.7hPa | 2.9V | 00:00:00 | 00:00:00 | 00:00:00 | |
| DB0UT-7 | 2026-09-03 10:04:04 | 47.77078 | 11.06431 | 131° | 77km/h | 6786m | 6.5m/s | -17.2°C | 37.9% | 443.0hPa | 2.9V | 03:33:00 | 00:36:15 | 00:00:00 | |
| DL6DJ-15 | 2026-09-03 10:03:44 | 47.77337 | 11.05993 | 124° | 60km/h | 6674m | 6.6m/s | -16.4°C | 36.1% | 449.6hPa | 2.9V | 00:00:00 | 00:00:00 | 00:00:00 | |
| DG1MFX-10 | 2026-09-03 10:03:38 | 47.77393 | 11.05885 | 132° | 82km/h | 6639m | 8.4m/s | -16.1°C | 40.6% | 451.7hPa | 2.9V | 00:00:00 | 00:00:00 | 00:00:00 | |
| DO3MHA-12 | 2026-09-03 10:03:36 | 47.77433 | 11.05817 | 132° | 84km/h | 6616m | 7.9m/s | -15.9°C | 43.1% | 453.1hPa | 2.9V | 03:33:00 | 00:35:47 | 00:00:00 | |
| OE5DXL-15 | 2026-09-03 10:03:35 | 47.77446 | 11.05795 | 130° | 84km/h | 6609m | 5.7m/s | -15.8°C | 43.4% | 453.5hPa | 2.9V | 00:00:00 | 00:00:00 | 00:00:00 | |
| DG1MJG | 2026-09-03 10:03:34 | 47.77446 | 11.05795 | 130° | 80km/h | 6609m | 5.8m/s | -15.9°C | 41.8% | 453.6hPa | 2.9V | 03:33:00 | 00:00:00 | 00:00:00 | |
| OE5DRO-10 | 2026-09-03 10:03:29 | 47.77525 | 11.05644 | 129° | 82km/h | 6567m | 6.0m/s | 0°C | 0% | 0hPa | 2.9V | 00:00:00 | 00:00:00 | 00:00:00 | |
| DO3MHA-12 | 2026-09-03 10:03:26 | 47.77566 | 11.05566 | 128° | 80km/h | 6550m | 6.1m/s | -15.6°C | 50.3% | 457.2hPa | 2.9V | 00:00:00 | 00:35:37 | 00:00:00 | |
| OE3JTB-15 | 2026-09-03 10:03:21 | 47.77630 | 11.05445 | 128° | 77km/h | 6522m | 5.1m/s | 0°C | 0% | 0hPa | 2.9V | 00:00:00 | 00:00:00 | 00:00:00 | |
| NBG1-10 | 2026-09-03 10:03:18 | 47.77667 | 11.05377 | 131° | 86km/h | 6510m | 2.3m/s | -15.4°C | 60.8% | 459.7hPa | 2.9V | 00:00:00 | 00:35:29 | 00:00:00 | |
| DO3MHA-12 | 2026-09-03 10:03:16 | 47.77694 | 11.05330 | 133° | 84km/h | 6498m | 7.0m/s | -15.4°C | 60.9% | 460.4hPa | 2.9V | 00:00:00 | 00:35:27 | 00:00:00 | |
| DL6DJ-15 | 2026-09-03 10:03:13 | 47.77765 | 11.05218 | 133° | 84km/h | 6470m | 5.8m/s | -15.3°C | 65.1% | 462.0hPa | 2.9V | 00:00:00 | 00:00:00 | 00:00:00 | |
| OE5DRO-10 | 2026-09-03 10:03:10 | 47.77780 | 11.05195 | 134° | 86km/h | 6466m | 3.1m/s | 0°C | 0% | 0hPa | 2.9V | 00:00:00 | 00:00:00 | 00:00:00 | |
| DG1MFX-10 | 2026-09-03 10:03:08 | 47.77795 | 11.05171 | 134° | 89km/h | 6461m | 5.2m/s | -15.3°C | 66.3% | 463.0hPa | 2.9V | 00:00:00 | 00:00:00 | 00:00:00 | |
| DO3MHA-12 | 2026-09-03 10:03:06 | 47.77840 | 11.05096 | 132° | 84km/h | 6447m | 5.4m/s | -15.1°C | 68.5% | 463.5hPa | 2.9V | 00:00:00 | 00:35:17 | 00:00:00 | |
| OE5DXL-15 | 2026-09-03 10:03:05 | 47.77854 | 11.05073 | 133° | 86km/h | 6442m | 5.0m/s | -15.1°C | 68.3% | 463.8hPa | 2.7V | 03:34:00 | 00:00:00 | 00:00:00 | |
| DB0UT-7 | 2026-09-03 10:03:04 | 47.77869 | 11.05049 | 133° | 86km/h | 6437m | 5.7m/s | -15.1°C | 67.9% | 464.2hPa | 2.7V | 00:00:00 | 00:35:15 | 00:00:00 | |
| DG1MJG | 2026-09-03 10:03:03 | 47.77869 | 11.05049 | 134° | 84km/h | 6437m | 5.7m/s | -15.1°C | 65.7% | 464.2hPa | 2.7V | 03:34:00 | 00:00:00 | 00:00:00 | |
| DO3MHA-12 | 2026-09-03 10:02:56 | 47.77983 | 11.04860 | 128° | 89km/h | 6399m | 5.6m/s | -14.9°C | 64.5% | 466.5hPa | 2.7V | 03:34:00 | 00:35:07 | 00:00:00 | |
| OE5DRO-10 | 2026-09-03 10:02:51 | 47.78058 | 11.04734 | 135° | 89km/h | 6375m | 6.8m/s | 0°C | 0% | 0hPa | 2.7V | 00:00:00 | 00:00:00 | 00:00:00 | |
| DG1MFX-10 | 2026-09-03 10:02:47 | 47.78106 | 11.04663 | 139° | 86km/h | 6359m | 4.5m/s | -15.2°C | 77.3% | 469.1hPa | 2.7V | 00:00:00 | 00:00:00 | 00:00:00 | |
| DO3MHA-12 | 2026-09-03 10:02:46 | 47.78140 | 11.04620 | 140° | 84km/h | 6349m | 6.0m/s | -15.2°C | 80.4% | 469.7hPa | 2.7V | 00:00:00 | 00:34:57 | 00:00:00 | |
| NBG1-10 | 2026-09-03 10:02:45 | 47.78156 | 11.04598 | 139° | 77km/h | 6343m | 4.9m/s | -15.1°C | 80.6% | 470.0hPa | 2.7V | 00:00:00 | 00:34:56 | 00:00:00 | |
| DL6DJ-15 | 2026-09-03 10:02:42 | 47.78220 | 11.04510 | 137° | 82km/h | 6323m | 4.9m/s | -15.1°C | 78.0% | 471.4hPa | 2.7V | 00:00:00 | 00:00:00 | 00:00:00 | |
| DO3MHA-12 | 2026-09-03 10:02:36 | 47.78293 | 11.04407 | 138° | 80km/h | 6297m | 6.3m/s | -14.8°C | 78.9% | 472.9hPa | 2.7V | 00:00:00 | 00:34:47 | 00:00:00 | |
| OE5DXL-15 | 2026-09-03 10:02:35 | 47.78308 | 11.04387 | 138° | 77km/h | 6293m | 3.4m/s | -14.8°C | 78.9% | 473.3hPa | 2.7V | 00:00:00 | 00:00:00 | 00:00:00 | |
| DB0UT-7 | 2026-09-03 10:02:34 | 47.78323 | 11.04367 | 139° | 77km/h | 6289m | 4.9m/s | 0°C | 0% | 0hPa | 2.7V | 00:00:00 | 00:00:00 | 00:00:00 | |
| DG1MJG | 2026-09-03 10:02:33 | 47.78323 | 11.04367 | 140° | 80km/h | 6289m | 5.0m/s | -14.8°C | 76.1% | 473.5hPa | 2.7V | 03:35:00 | 00:00:00 | 00:00:00 | |
| DO3MHA-12 | 2026-09-03 10:02:26 | 47.78436 | 11.04191 | 131° | 75km/h | 6248m | 5.5m/s | -14.4°C | 76.6% | 475.9hPa | 2.7V | 00:00:00 | 00:34:37 | 00:00:00 | |
| DB0ND-19 | 2026-09-03 10:02:19 | 47.78523 | 11.04044 | 131° | 73km/h | 6212m | 5.5m/s | -14.3°C | 73.9% | 478.2hPa | 2.7V | 00:00:00 | 00:00:00 | 00:00:00 | |
| DO3MHA-12 | 2026-09-03 10:02:16 | 47.78561 | 11.03984 | 136° | 77km/h | 6192m | 6.2m/s | -14.1°C | 75.3% | 479.5hPa | 2.7V | 03:35:00 | 00:34:27 | 00:00:00 | |
| DL6DJ-15 | 2026-09-03 10:02:11 | 47.78632 | 11.03887 | 133° | 75km/h | 6165m | 5.0m/s | -13.9°C | 74.3% | 481.2hPa | 2.7V | 00:00:00 | 00:00:00 | 00:00:00 | |
| DO3MHA-12 | 2026-09-03 10:02:06 | 47.78697 | 11.03777 | 130° | 73km/h | 6131m | 5.5m/s | -13.6°C | 77.4% | 483.4hPa | 2.7V | 00:00:00 | 00:34:17 | 00:00:00 | |
| OE5DXL-15 | 2026-09-03 10:02:05 | 47.78710 | 11.03754 | 130° | 69km/h | 6126m | 5.0m/s | -13.6°C | 77.9% | 483.7hPa | 2.9V | 00:00:00 | 00:00:00 | 00:00:00 | |
| NBG1-10 | 2026-09-03 10:02:04 | 47.78722 | 11.03732 | 131° | 71km/h | 6120m | 7.2m/s | -13.6°C | 78.9% | 484.0hPa | 2.9V | 03:35:00 | 00:34:15 | 00:00:00 | |
| DG1MJG | 2026-09-03 10:02:02 | 47.78734 | 11.03712 | 135° | 71km/h | 6113m | 7.0m/s | -13.6°C | 77.1% | 484.5hPa | 2.9V | 03:35:00 | 00:00:00 | 00:00:00 | |
| DB0ND-19 | 2026-09-03 10:01:48 | 47.78896 | 11.03402 | 126° | 69km/h | 6025m | 4.1m/s | -12.9°C | -1.0% | 490.2hPa | 2.9V | 00:00:00 | 00:00:00 | 00:00:00 | |
| DO3MHA-12 | 2026-09-03 10:01:46 | 47.78917 | 11.03360 | 129° | 66km/h | 6015m | 4.4m/s | -12.7°C | 75.3% | 490.8hPa | 2.9V | 00:00:00 | 00:33:57 | 00:00:00 | |
| DG1MFX-10 | 2026-09-03 10:01:40 | 47.78968 | 11.03265 | 128° | 60km/h | 5991m | 4.6m/s | -12.6°C | 0% | 0hPa | 2.9V | 00:00:00 | 00:00:00 | 00:00:00 | |
| DO3MHA-12 | 2026-09-03 10:01:36 | 47.79015 | 11.03164 | 127° | 71km/h | 5962m | 5.4m/s | -12.3°C | 80.7% | 494.0hPa | 2.9V | 03:35:00 | 00:33:47 | 00:00:00 | |
| OE5DXL-15 | 2026-09-03 10:01:35 | 47.79026 | 11.03142 | 129° | 71km/h | 5957m | 6.3m/s | -12.3°C | 79.2% | 494.4hPa | 2.9V | 00:00:00 | 00:00:00 | 00:00:00 | |
| DG1MJG | 2026-09-03 10:01:31 | 47.79061 | 11.03077 | 129° | 73km/h | 5941m | 6.3m/s | -12.2°C | 73.6% | 495.6hPa | 2.9V | 03:36:00 | 00:00:00 | 00:00:00 | |
| DO3MHA-12 | 2026-09-03 10:01:26 | 47.79123 | 11.02955 | 135° | 71km/h | 5906m | 5.9m/s | -11.8°C | 72.9% | 498.0hPa | 2.9V | 00:00:00 | 00:33:37 | 00:00:00 | |
| DB0ND-19 | 2026-09-03 10:01:17 | 47.79228 | 11.02775 | 124° | 75km/h | 5851m | 8.7m/s | -11.4°C | -1.0% | 501.5hPa | 2.9V | 00:00:00 | 00:00:00 | 00:00:00 | |
| DO3MHA-12 | 2026-09-03 10:01:16 | 47.79239 | 11.02752 | 126° | 71km/h | 5842m | 8.1m/s | -11.2°C | 68.7% | 502.0hPa | 2.9V | 00:00:00 | 00:33:27 | 00:00:00 | |
| DG1MFX-10 | 2026-09-03 10:01:15 | 47.79239 | 11.02752 | 127° | 77km/h | 5842m | 8.1m/s | -11.3°C | 0% | 0hPa | 2.9V | 00:00:00 | 00:00:00 | 00:00:00 | |
| NBG1-10 | 2026-09-03 10:01:11 | 47.79296 | 11.02642 | 131° | 68km/h | 5808m | 6.2m/s | -10.9°C | 64.1% | 504.4hPa | 2.9V | 00:00:00 | 00:33:22 | 00:00:00 | |
| DO3MHA-12 | 2026-09-03 10:01:06 | 47.79352 | 11.02548 | 133° | 71km/h | 5778m | 4.9m/s | -10.8°C | 67.3% | 506.4hPa | 2.9V | 00:00:00 | 00:33:17 | 00:00:00 | |
| OE5DXL-15 | 2026-09-03 10:01:05 | 47.79364 | 11.02529 | 131° | 69km/h | 5774m | 4.4m/s | -10.8°C | 68.6% | 506.8hPa | 2.9V | 03:36:00 | 00:00:00 | 00:00:00 | |
| DG1MJG | 2026-09-03 10:01:00 | 47.79408 | 11.02446 | 130° | 73km/h | 5755m | 5.2m/s | -10.7°C | 70.2% | 508.0hPa | 2.9V | 03:36:00 | 00:00:00 | 00:00:00 | |
| DO3MHA-12 | 2026-09-03 10:00:56 | 47.79466 | 11.02342 | 129° | 71km/h | 5732m | 4.2m/s | -10.6°C | 78.3% | 509.5hPa | 2.9V | 03:36:00 | 00:33:07 | 00:00:00 | |
| DG1MFX-10 | 2026-09-03 10:00:54 | 47.79478 | 11.02322 | 133° | 71km/h | 5727m | 5.7m/s | -10.7°C | 0% | 0hPa | 2.9V | 00:00:00 | 00:00:00 | 00:00:00 | |
| DO3MHA-12 | 2026-09-03 10:00:46 | 47.79593 | 11.02154 | 137° | 68km/h | 5678m | 7.4m/s | -10.4°C | 79.5% | 513.0hPa | 2.9V | 00:00:00 | 00:32:57 | 00:00:00 | |
| DL6DJ-15 | 2026-09-03 10:00:38 | 47.79687 | 11.02011 | 129° | 69km/h | 5630m | 5.1m/s | -10.0°C | 79.9% | 516.2hPa | 2.9V | 00:00:00 | 00:00:00 | 00:00:00 | |
| DO3MHA-12 | 2026-09-03 10:00:36 | 47.79709 | 11.01969 | 125° | 68km/h | 5621m | 3.1m/s | -9.9°C | 82.3% | 516.7hPa | 2.9V | 00:00:00 | 00:32:47 | 00:00:00 | |
| OE5DXL-15 | 2026-09-03 10:00:35 | 47.79719 | 11.01947 | 126° | 69km/h | 5617m | 5.0m/s | -9.9°C | 82.6% | 517.0hPa | 2.9V | 00:00:00 | 00:00:00 | 00:00:00 | |
| DG1MJG | 2026-09-03 10:00:30 | 47.79764 | 11.01868 | 134° | 68km/h | 5596m | 5.6m/s | -9.8°C | 81.1% | 518.4hPa | 2.9V | 03:37:00 | 00:00:00 | 00:00:00 | |
| DO3MHA-12 | 2026-09-03 10:00:26 | 47.79823 | 11.01784 | 131° | 69km/h | 5575m | 4.8m/s | -9.6°C | 84.8% | 519.8hPa | 2.9V | 00:00:00 | 00:32:37 | 00:00:00 | |
| NBG1-10 | 2026-09-03 10:00:22 | 47.79860 | 11.01699 | 122° | 71km/h | 5557m | 6.0m/s | -9.6°C | 86.0% | 520.9hPa | 2.9V | 00:00:00 | 00:32:33 | 00:00:00 | |
| DO3MHA-11 | 2026-09-03 10:00:16 | 47.79922 | 11.01571 | 131° | 73km/h | 5512m | 7.6m/s | -9.4°C | 78.0% | 523.8hPa | 2.9V | 00:00:00 | 00:32:27 | 00:00:00 | |
| DL6DJ-15 | 2026-09-03 10:00:07 | 47.80037 | 11.01356 | 129° | 66km/h | 5456m | 5.6m/s | -9.2°C | 50.5% | 527.6hPa | 2.9V | 00:00:00 | 00:00:00 | 00:00:00 | |
| DO3MHA-11 | 2026-09-03 10:00:06 | 47.80037 | 11.01356 | 130° | 68km/h | 5456m | 5.6m/s | -9.1°C | 51.8% | 527.5hPa | 2.9V | 03:37:00 | 00:32:17 | 00:00:00 | |
| OE5DXL-15 | 2026-09-03 10:00:05 | 47.80048 | 11.01337 | 132° | 69km/h | 5449m | 7.1m/s | -9.1°C | 50.4% | 528.1hPa | 2.9V | 00:00:00 | 00:00:00 | 00:00:00 | |
| DB0ND-19 | 2026-09-03 09:59:44 | 47.80299 | 11.00933 | 135° | 58km/h | 5348m | 6.0m/s | -8.2°C | -1.0% | 534.9hPa | 2.9V | 00:00:00 | 00:00:00 | 00:00:00 | |
| DL6DJ-15 | 2026-09-03 09:59:36 | 47.80402 | 11.00764 | 127° | 71km/h | 5289m | 5.3m/s | -7.6°C | 29.8% | 539.2hPa | 2.9V | 00:00:00 | 00:00:00 | 00:00:00 | |
| OE5DXL-15 | 2026-09-03 09:59:35 | 47.80402 | 11.00764 | 128° | 71km/h | 5289m | 5.2m/s | -7.6°C | 30.5% | 539.1hPa | 2.9V | 00:00:00 | 00:00:00 | 00:00:00 | |
| DB0NH | 2026-09-03 09:59:31 | 47.80445 | 11.00690 | 133° | 73km/h | 5270m | 5.1m/s | -7.4°C | 29.5% | 540.6hPa | 2.9V | 00:00:00 | 00:31:42 | 00:00:00 | |
| DG1MJG | 2026-09-03 09:59:29 | 47.80456 | 11.00671 | 132° | 68km/h | 5265m | 3.9m/s | -7.4°C | 28.7% | 540.9hPa | 2.9V | 03:38:00 | 00:00:00 | 00:00:00 | |
| DO3MHA-11 | 2026-09-03 09:59:26 | 47.80502 | 11.00592 | 130° | 73km/h | 5245m | 5.0m/s | -7.2°C | 28.7% | 542.2hPa | 2.9V | 03:37:00 | 00:31:37 | 00:00:00 | |
| DO3MHA-12 | 2026-09-03 09:59:16 | 47.80623 | 11.00386 | 134° | 71km/h | 5204m | 5.5m/s | -6.8°C | 29.2% | 545.0hPa | 2.9V | 00:00:00 | 00:31:27 | 00:00:00 | |
| DB0ND-19 | 2026-09-03 09:59:13 | 47.80660 | 11.00330 | 133° | 69km/h | 5192m | 3.5m/s | 0°C | -1.0% | 546.0hPa | 2.9V | 00:00:00 | 00:00:00 | 00:00:00 | |
| DO3MHA-12 | 2026-09-03 09:59:06 | 47.80749 | 11.00192 | 133° | 73km/h | 5162m | 3.6m/s | -6.4°C | 25.8% | 548.1hPa | 2.9V | 00:00:00 | 00:31:17 | 00:00:00 | |
| DL6DJ-15 | 2026-09-03 09:59:05 | 47.80777 | 11.00147 | 132° | 80km/h | 5155m | 3.7m/s | -6.4°C | 25.5% | 548.5hPa | 2.9V | 00:00:00 | 00:00:00 | 00:00:00 | |
| DB0NH | 2026-09-03 09:59:01 | 47.80814 | 11.00084 | 130° | 71km/h | 5142m | 3.5m/s | -6.3°C | 24.5% | 549.4hPa | 2.9V | 00:00:00 | 00:31:12 | 00:00:00 | |
| DG1MJG | 2026-09-03 09:58:59 | 47.80824 | 11.00065 | 130° | 66km/h | 5139m | 4.0m/s | -6.3°C | 24.1% | 549.7hPa | 2.9V | 03:38:00 | 00:00:00 | 00:00:00 | |
| DO3MHA-11 | 2026-09-03 09:58:56 | 47.80873 | 10.99983 | 134° | 73km/h | 5120m | 3.6m/s | -6.1°C | 23.8% | 550.9hPa | 2.9V | 00:00:00 | 00:31:07 | 00:00:00 | |
| DO3MHA-11 | 2026-09-03 09:58:46 | 47.80990 | 10.99777 | 126° | 69km/h | 5058m | 7.2m/s | -5.5°C | 22.4% | 555.2hPa | 2.9V | 03:38:00 | 00:30:57 | 00:00:00 | |
| NBG1-10 | 2026-09-03 09:58:43 | 47.81025 | 10.99717 | 136° | 68km/h | 5040m | 4.6m/s | -5.4°C | 23.1% | 556.4hPa | 2.9V | 00:00:00 | 00:30:54 | 00:00:00 | |
| DB0ND-19 | 2026-09-03 09:58:42 | 47.81038 | 10.99698 | 135° | 73km/h | 5035m | 5.6m/s | 0°C | -1.0% | 556.9hPa | 2.9V | 00:00:00 | 00:00:00 | 00:00:00 | |
| DO3MHA-12 | 2026-09-03 09:58:36 | 47.81101 | 10.99573 | 125° | 68km/h | 5003m | 5.9m/s | -5.2°C | 23.3% | 559.1hPa | 2.9V | 00:00:00 | 00:30:47 | 00:00:00 | |
| OE5DXL-15 | 2026-09-03 09:58:35 | 47.81111 | 10.99551 | 127° | 66km/h | 4998m | 4.3m/s | -5.1°C | 23.2% | 559.5hPa | 2.9V | 00:00:00 | 00:00:00 | 00:00:00 | |
| DL6DJ-15 | 2026-09-03 09:58:33 | 47.81134 | 10.99510 | 133° | 68km/h | 4988m | 4.1m/s | -5.1°C | 22.5% | 560.2hPa | 2.9V | 00:00:00 | 00:00:00 | 00:00:00 | |
| DB0NH | 2026-09-03 09:58:31 | 47.81158 | 10.99475 | 136° | 64km/h | 4981m | 3.9m/s | -5.0°C | 22.7% | 560.7hPa | 2.9V | 00:00:00 | 00:30:42 | 00:00:00 | |
| DG1MJG | 2026-09-03 09:58:29 | 47.81169 | 10.99458 | 135° | 64km/h | 4977m | 4.6m/s | -5.0°C | 21.8% | 561.0hPa | 2.9V | 03:38:00 | 00:00:00 | 00:00:00 | |
| DO3MHA-12 | 2026-09-03 09:58:26 | 47.81217 | 10.99392 | 138° | 62km/h | 4959m | 5.0m/s | -4.9°C | 23.2% | 562.2hPa | 2.9V | 00:00:00 | 00:30:37 | 00:00:00 | |
| DO3MHA-12 | 2026-09-03 09:58:16 | 47.81319 | 10.99216 | 133° | 69km/h | 4906m | 5.0m/s | -4.6°C | 7.9% | 566.1hPa | 2.9V | 03:39:00 | 00:30:27 | 00:00:00 | |
| NBG1-10 | 2026-09-03 09:58:10 | 47.81390 | 10.99092 | 132° | 62km/h | 4875m | 4.9m/s | -4.6°C | 9.3% | 568.3hPa | 2.9V | 00:00:00 | 00:30:21 | 00:00:00 | |
| DO3MHA-12 | 2026-09-03 09:58:06 | 47.81435 | 10.99021 | 133° | 66km/h | 4853m | 5.8m/s | -4.6°C | 13.3% | 569.9hPa | 2.9V | 00:00:00 | 00:30:17 | 00:00:00 | |
| OE5DXL-15 | 2026-09-03 09:58:05 | 47.81445 | 10.99002 | 128° | 62km/h | 4848m | 5.2m/s | -4.6°C | 15.9% | 570.3hPa | 2.9V | 00:00:00 | 00:00:00 | 00:00:00 | |
| DG1MFX-10 | 2026-09-03 09:58:04 | 47.81445 | 10.99002 | 129° | 64km/h | 4848m | 5.3m/s | -4.7°C | 0% | 0hPa | 2.9V | 00:00:00 | 00:00:00 | 00:00:00 | |
| DL6DJ-15 | 2026-09-03 09:58:02 | 47.81475 | 10.98947 | 131° | 58km/h | 4831m | 4.3m/s | -4.7°C | 17.9% | 571.6hPa | 2.9V | 00:00:00 | 00:00:00 | 00:00:00 | |
| DG1MJG | 2026-09-03 09:57:57 | 47.81523 | 10.98879 | 142° | 71km/h | 4810m | 5.2m/s | -4.8°C | 28.9% | 573.1hPa | 2.9V | 03:39:00 | 00:00:00 | 00:00:00 | |
| DO3MHA-12 | 2026-09-03 09:57:56 | 47.81549 | 10.98845 | 136° | 66km/h | 4800m | 3.8m/s | -4.7°C | 34.6% | 573.7hPa | 2.9V | 00:00:00 | 00:30:07 | 00:00:00 | |
| DB0NH | 2026-09-03 09:57:54 | 47.81571 | 10.98811 | 134° | 62km/h | 4789m | 7.1m/s | -4.6°C | 35.6% | 574.4hPa | 2.9V | 03:39:00 | 00:30:05 | 00:00:00 | |
| DO3MHA-12 | 2026-09-03 09:57:46 | 47.81666 | 10.98674 | 130° | 57km/h | 4744m | 4.6m/s | -4.5°C | 50.1% | 577.8hPa | 2.9V | 00:00:00 | 00:29:57 | 00:00:00 | |
| NBG1-10 | 2026-09-03 09:57:37 | 47.81754 | 10.98536 | 142° | 60km/h | 4710m | 3.9m/s | -4.2°C | 50.8% | 580.4hPa | 2.9V | 00:00:00 | 00:29:48 | 00:00:00 | |
| DO3MHA-12 | 2026-09-03 09:57:36 | 47.81767 | 10.98521 | 142° | 66km/h | 4705m | 5.8m/s | -4.2°C | 50.2% | 580.6hPa | 2.9V | 03:39:00 | 00:29:47 | 00:00:00 | |
| OE5DXL-15 | 2026-09-03 09:57:35 | 47.81780 | 10.98506 | 143° | 60km/h | 4698m | 8.5m/s | -4.1°C | 49.8% | 581.1hPa | 2.9V | 00:00:00 | 00:00:00 | 00:00:00 | |
| DL6DJ-15 | 2026-09-03 09:57:31 | 47.81830 | 10.98440 | 130° | 64km/h | 4678m | 4.7m/s | 0°C | -1.0% | 582.6hPa | 2.9V | 00:00:00 | 00:00:00 | 00:00:00 | |
| DG1MFX-10 | 2026-09-03 09:57:27 | 47.81861 | 10.98381 | 132° | 66km/h | 4662m | 6.9m/s | -3.9°C | 0% | 0hPa | 2.9V | 00:00:00 | 00:00:00 | 00:00:00 | |
| DO3MHA-12 | 2026-09-03 09:57:26 | 47.81884 | 10.98345 | 136° | 58km/h | 4650m | 4.4m/s | -3.7°C | 36.0% | 584.7hPa | 2.9V | 00:00:00 | 00:29:37 | 00:00:00 | |
| DB0NH | 2026-09-03 09:57:24 | 47.81906 | 10.98315 | 138° | 57km/h | 4642m | 3.9m/s | -3.7°C | 38.5% | 585.3hPa | 2.9V | 00:00:00 | 00:29:35 | 00:00:00 | |
| DO3MHA-12 | 2026-09-03 09:57:16 | 47.81982 | 10.98185 | 137° | 55km/h | 4609m | 3.0m/s | -3.5°C | 45.5% | 587.7hPa | 2.9V | 00:00:00 | 00:29:27 | 00:00:00 | |
| DO3MHA-12 | 2026-09-03 09:57:06 | 47.82079 | 10.98039 | 137° | 57km/h | 4572m | 3.2m/s | -3.1°C | 30.3% | 590.5hPa | 2.9V | 00:00:00 | 00:29:17 | 00:00:00 | |
| OE5DXL-15 | 2026-09-03 09:57:05 | 47.82088 | 10.98026 | 138° | 57km/h | 4568m | 3.3m/s | -3.1°C | 29.5% | 590.8hPa | 2.9V | 03:40:00 | 00:00:00 | 00:00:00 | |
| NBG1-10 | 2026-09-03 09:57:04 | 47.82099 | 10.98012 | 139° | 57km/h | 4565m | 3.5m/s | -3.1°C | 33.0% | 591.1hPa | 2.9V | 03:40:00 | 00:29:15 | 00:00:00 | |
| DL6DJ-15 | 2026-09-03 09:57:00 | 47.82138 | 10.97953 | 126° | 57km/h | 4541m | 4.8m/s | 0°C | -1.0% | -1.0hPa | 2.9V | 00:00:00 | 00:00:00 | 00:00:00 | |
| DO3MHA-12 | 2026-09-03 09:56:56 | 47.82177 | 10.97883 | 135° | 58km/h | 4520m | 5.9m/s | -2.6°C | 10.1% | 594.4hPa | 2.9V | 03:40:00 | 00:29:07 | 00:00:00 | |
| DB0NH | 2026-09-03 09:56:54 | 47.82196 | 10.97856 | 137° | 57km/h | 4507m | 5.9m/s | 0°C | 0% | 0hPa | 2.9V | 00:00:00 | 00:29:05 | 00:00:00 | |
| DO3MHA-12 | 2026-09-03 09:56:46 | 47.82275 | 10.97725 | 122° | 55km/h | 4466m | 3.8m/s | -2.8°C | 28.4% | 598.7hPa | 2.9V | 00:00:00 | 00:28:57 | 00:00:00 | |
| DB0ND-19 | 2026-09-03 09:56:38 | 47.82347 | 10.97602 | 137° | 53km/h | 4421m | 4.0m/s | 0°C | -1.0% | 602.1hPa | 2.9V | 00:00:00 | 00:00:00 | 00:00:00 | |
| DO3MHA-12 | 2026-09-03 09:56:36 | 47.82364 | 10.97573 | 127° | 58km/h | 4413m | 4.3m/s | -3.0°C | 65.2% | 602.7hPa | 2.9V | 00:00:00 | 00:28:47 | 00:00:00 | |
| OE5DXL-15 | 2026-09-03 09:56:35 | 47.82372 | 10.97558 | 127° | 58km/h | 4408m | 6.2m/s | -3.0°C | 64.1% | 603.0hPa | 2.9V | 00:00:00 | 00:00:00 | 00:00:00 | |
| NBG1-10 | 2026-09-03 09:56:31 | 47.82412 | 10.97493 | 134° | 58km/h | 4384m | 6.1m/s | -2.8°C | 59.9% | 604.9hPa | 2.9V | 00:00:00 | 00:28:42 | 00:00:00 | |
| DO3MHA-12 | 2026-09-03 09:56:26 | 47.82462 | 10.97402 | 125° | 60km/h | 4353m | 6.6m/s | -2.5°C | 53.7% | 607.2hPa | 2.9V | 00:00:00 | 00:28:37 | 00:00:00 | |
| DB0NH | 2026-09-03 09:56:24 | 47.82480 | 10.97361 | 124° | 53km/h | 4342m | 4.0m/s | 0°C | 0% | 0hPa | 2.9V | 00:00:00 | 00:28:35 | 00:00:00 | |
| DO3MHA-12 | 2026-09-03 09:56:16 | 47.82539 | 10.97210 | 125° | 55km/h | 4300m | 5.5m/s | -2.6°C | 81.7% | 611.1hPa | 2.9V | 03:41:00 | 00:28:27 | 00:00:00 | |
| DO3MHA-12 | 2026-09-03 09:56:06 | 47.82624 | 10.97050 | 124° | 51km/h | 4257m | 5.2m/s | -2.4°C | 34.0% | 614.6hPa | 2.9V | 00:00:00 | 00:28:17 | 00:00:00 | |
| OE5DXL-15 | 2026-09-03 09:56:05 | 47.82631 | 10.97034 | 119° | 49km/h | 4252m | 3.4m/s | -2.4°C | 34.9% | 614.9hPa | 2.9V | 00:00:00 | 00:00:00 | 00:00:00 | |
| DO3MHA-11 | 2026-09-03 09:55:56 | 47.82696 | 10.96891 | 122° | 44km/h | 4213m | 4.0m/s | -2.8°C | 87.4% | 617.9hPa | 2.9V | 00:00:00 | 00:28:07 | 00:00:00 | |
| DG1MJG | 2026-09-03 09:55:55 | 47.82697 | 10.96891 | 122° | 49km/h | 4213m | 4.1m/s | -2.9°C | 86.2% | 618.0hPa | 2.9V | 03:41:00 | 00:00:00 | 00:00:00 | |
| DG1MFX-10 | 2026-09-03 09:55:50 | 47.82724 | 10.96826 | 124° | 40km/h | 4195m | 3.1m/s | 0°C | 0% | 0hPa | 2.9V | 00:00:00 | 00:00:00 | 00:00:00 | |
| DO3MHA-12 | 2026-09-03 09:55:46 | 47.82755 | 10.96750 | 126° | 55km/h | 4164m | 6.4m/s | -2.6°C | 84.3% | 621.5hPa | 2.9V | 00:00:00 | 00:27:57 | 00:00:00 | |
| DB0NH | 2026-09-03 09:55:38 | 47.82818 | 10.96609 | 118° | 47km/h | 4123m | 6.8m/s | 0°C | 0% | 0hPa | 2.9V | 00:00:00 | 00:27:49 | 00:00:00 | |
| DO3MHA-12 | 2026-09-03 09:55:36 | 47.82829 | 10.96578 | 117° | 55km/h | 4112m | 4.5m/s | -2.2°C | 86.3% | 625.7hPa | 2.9V | 03:41:00 | 00:27:47 | 00:00:00 | |
| OE5DXL-15 | 2026-09-03 09:55:35 | 47.82834 | 10.96562 | 116° | 51km/h | 4107m | 5.1m/s | -2.1°C | 86.4% | 626.0hPa | 2.9V | 00:00:00 | 00:00:00 | 00:00:00 | |
| DG1MFX-10 | 2026-09-03 09:55:29 | 47.82870 | 10.96469 | 121° | 62km/h | 4083m | 5.5m/s | 0°C | 0% | 0hPa | 2.9V | 00:00:00 | 00:00:00 | 00:00:00 | |
| DG1MJG | 2026-09-03 09:55:26 | 47.82895 | 10.96399 | 117° | 46km/h | 4061m | 5.6m/s | -1.8°C | 86.1% | 629.8hPa | 2.9V | 03:42:00 | 00:00:00 | 00:00:00 | |
| NBG1-10 | 2026-09-03 09:55:25 | 47.82900 | 10.96383 | 112° | 51km/h | 4056m | 4.5m/s | -1.7°C | 87.1% | 630.2hPa | 2.9V | 00:00:00 | 00:27:36 | 00:00:00 | |
| DO3MHA-12 | 2026-09-03 09:55:16 | 47.82943 | 10.96219 | 120° | 51km/h | 4008m | 6.3m/s | -1.2°C | 85.6% | 634.0hPa | 2.9V | 00:00:00 | 00:27:27 | 00:00:00 | |
| DO3MHA-12 | 2026-09-03 09:55:06 | 47.83007 | 10.96056 | 117° | 44km/h | 3955m | 4.7m/s | -0.7°C | 83.9% | 638.3hPa | 2.9V | 00:00:00 | 00:27:17 | 00:00:00 | |
| OE5DXL-15 | 2026-09-03 09:55:05 | 47.83012 | 10.96042 | 117° | 46km/h | 3951m | 4.3m/s | -0.7°C | 83.7% | 638.6hPa | 2.9V | 03:42:00 | 00:00:00 | 00:00:00 | |
| DO3MHA-12 | 2026-09-03 09:54:56 | 47.83059 | 10.95905 | 127° | 47km/h | 3906m | 5.3m/s | -0.3°C | 80.7% | 642.3hPa | 2.9V | 03:42:00 | 00:27:07 | 00:00:00 | |
| DG1MJG | 2026-09-03 09:54:54 | 47.83068 | 10.95889 | 127° | 53km/h | 3901m | 5.5m/s | -0.3°C | 79.4% | 642.6hPa | 2.9V | 03:43:00 | 00:00:00 | 00:00:00 | |
| NBG1-10 | 2026-09-03 09:54:52 | 47.83086 | 10.95840 | 117° | 37km/h | 3886m | 5.8m/s | -0.1°C | 79.9% | 643.9hPa | 2.9V | 03:42:00 | 00:27:03 | 00:00:00 | |
| DO3MHA-12 | 2026-09-03 09:54:46 | 47.83122 | 10.95753 | 122° | 44km/h | 3846m | 5.4m/s | 0.2°C | 75.9% | 647.1hPa | 2.9V | 00:00:00 | 00:26:57 | 00:00:00 | |
| DO3MHA-12 | 2026-09-03 09:54:36 | 47.83173 | 10.95610 | 105° | 42km/h | 3800m | 4.3m/s | 0.7°C | 70.3% | 651.0hPa | 2.9V | 00:00:00 | 00:26:47 | 00:00:00 | |
| OE5DXL-15 | 2026-09-03 09:54:35 | 47.83175 | 10.95597 | 106° | 40km/h | 3797m | 3.6m/s | 0.7°C | 69.2% | 651.3hPa | 2.9V | 00:00:00 | 00:00:00 | 00:00:00 | |
| DG1MFX-10 | 2026-09-03 09:54:33 | 47.83178 | 10.95584 | 111° | 37km/h | 3793m | 4.0m/s | 0°C | 0% | 0hPa | 2.9V | 00:00:00 | 00:00:00 | 00:00:00 | |
| DO3MHA-11 | 2026-09-03 09:54:26 | 47.83229 | 10.95480 | 124° | 40km/h | 3752m | 7.6m/s | 1.2°C | 52.7% | 654.7hPa | 2.9V | 00:00:00 | 00:26:37 | 00:00:00 | |
| DG1MJG | 2026-09-03 09:54:24 | 47.83236 | 10.95466 | 120° | 46km/h | 3744m | 7.5m/s | 1.3°C | 47.4% | 655.4hPa | 2.9V | 03:43:00 | 00:00:00 | 00:00:00 | |
| DO3MHA-12 | 2026-09-03 09:54:16 | 47.83273 | 10.95346 | 113° | 42km/h | 3696m | 4.5m/s | 1.4°C | 34.4% | 659.3hPa | 2.9V | 03:43:00 | 00:26:27 | 00:00:00 | |
| DO3MHA-12 | 2026-09-03 09:54:06 | 47.83315 | 10.95203 | 101° | 33km/h | 3636m | 4.3m/s | 1.7°C | 31.2% | 664.2hPa | 2.9V | 00:00:00 | 00:26:17 | 00:00:00 | |
| OE5DXL-15 | 2026-09-03 09:54:05 | 47.83316 | 10.95192 | 98° | 35km/h | 3631m | 4.4m/s | 1.8°C | 29.2% | 664.5hPa | 2.9V | 00:00:00 | 00:00:00 | 00:00:00 | |
| DO3MHA-12 | 2026-09-03 09:53:56 | 47.83335 | 10.95088 | 122° | 38km/h | 3587m | 3.8m/s | 2.0°C | 19.0% | 668.3hPa | 2.9V | 00:00:00 | 00:26:07 | 00:00:00 | |
| DG1MJG | 2026-09-03 09:53:53 | 47.83343 | 10.95071 | 121° | 33km/h | 3580m | 3.5m/s | 2.1°C | 18.2% | 668.9hPa | 2.9V | 03:44:00 | 00:00:00 | 00:00:00 | |
| DO3MHA-12 | 2026-09-03 09:53:46 | 47.83371 | 10.94955 | 117° | 35km/h | 3533m | 5.2m/s | 2.3°C | 13.4% | 672.7hPa | 2.9V | 00:00:00 | 00:25:57 | 00:00:00 | |
| DO3MHA-11 | 2026-09-03 09:53:36 | 47.83392 | 10.94828 | 100° | 42km/h | 3484m | 4.5m/s | 2.0°C | 48.5% | 676.8hPa | 2.9V | 00:00:00 | 00:25:47 | 00:00:00 | |
| OE5DXL-15 | 2026-09-03 09:53:35 | 47.83393 | 10.94813 | 102° | 44km/h | 3479m | 3.9m/s | 0°C | 0% | 0hPa | 2.9V | 00:00:00 | 00:25:46 | 00:00:00 | |
| DO3MHA-12 | 2026-09-03 09:53:26 | 47.83400 | 10.94674 | 85° | 42km/h | 3437m | 5.7m/s | 2.0°C | 48.8% | 680.7hPa | 2.9V | 00:00:00 | 00:25:37 | 00:00:00 | |
| DG1MJG | 2026-09-03 09:53:22 | 47.83401 | 10.94624 | 101° | 44km/h | 3418m | 6.0m/s | 2.0°C | 55.2% | 682.3hPa | 2.9V | 03:44:00 | 00:00:00 | 00:00:00 | |
| DO3MHA-12 | 2026-09-03 09:53:16 | 47.83405 | 10.94517 | 87° | 47km/h | 3384m | 4.1m/s | 2.2°C | 61.9% | 685.0hPa | 2.9V | 00:00:00 | 00:25:27 | 00:00:00 | |
| DG1MFX-10 | 2026-09-03 09:53:09 | 47.83418 | 10.94413 | 109° | 53km/h | 3352m | 5.6m/s | 0°C | 0% | 0hPa | 2.9V | 00:00:00 | 00:00:00 | 00:00:00 | |
| DO3MHA-12 | 2026-09-03 09:53:06 | 47.83430 | 10.94347 | 109° | 46km/h | 3333m | 6.0m/s | 2.4°C | 43.8% | 689.2hPa | 2.9V | 00:00:00 | 00:25:17 | 00:00:00 | |
| OE5DXL-15 | 2026-09-03 09:53:05 | 47.83433 | 10.94334 | 106° | 44km/h | 3328m | 3.8m/s | 0°C | 0% | 0hPa | 2.9V | 00:00:00 | 00:00:00 | 00:00:00 | |
| DO3MHA-12 | 2026-09-03 09:52:56 | 47.83446 | 10.94171 | 102° | 46km/h | 3278m | 6.1m/s | 2.8°C | 44.2% | 694.0hPa | 2.9V | 03:44:00 | 00:25:07 | 00:00:00 | |
| DG1MJG | 2026-09-03 09:52:51 | 47.83453 | 10.94092 | 102° | 47km/h | 3255m | 9.4m/s | 3.0°C | 39.1% | 695.9hPa | 2.9V | 03:44:00 | 00:00:00 | 00:00:00 | |
| DO3MHA-11 | 2026-09-03 09:52:46 | 47.83459 | 10.94002 | 94° | 49km/h | 3219m | 9.2m/s | 3.1°C | 34.9% | 699.2hPa | 2.9V | 03:44:00 | 00:24:57 | 00:00:00 | |
| DO3MHA-12 | 2026-09-03 09:52:36 | 47.83466 | 10.93815 | 90° | 47km/h | 3167m | 6.3m/s | 3.5°C | 33.5% | 703.7hPa | 2.9V | 00:00:00 | 00:24:47 | 00:00:00 | |
| NBG1-10 | 2026-09-03 09:52:31 | 47.83462 | 10.93719 | 97° | 46km/h | 3141m | 4.7m/s | 3.6°C | 32.0% | 706.1hPa | 2.9V | 00:00:00 | 00:24:42 | 00:00:00 | |
| DO3MHA-12 | 2026-09-03 09:52:26 | 47.83474 | 10.93640 | 99° | 49km/h | 3114m | 3.8m/s | 3.8°C | 33.1% | 708.4hPa | 2.9V | 00:00:00 | 00:24:37 | 00:00:00 | |
| DG1MFX-10 | 2026-09-03 09:52:24 | 47.83475 | 10.93623 | 94° | 46km/h | 3108m | 7.2m/s | 0°C | 0% | 0hPa | 2.9V | 00:00:00 | 00:00:00 | 00:00:00 | |
| DG1MJG | 2026-09-03 09:52:20 | 47.83473 | 10.93552 | 90° | 53km/h | 3085m | 4.1m/s | 4.0°C | 34.9% | 711.1hPa | 2.9V | 03:45:00 | 00:00:00 | 00:00:00 | |
| DO3MHA-11 | 2026-09-03 09:52:16 | 47.83475 | 10.93454 | 97° | 44km/h | 3062m | 6.0m/s | 4.0°C | 41.7% | 713.1hPa | 2.9V | 00:00:00 | 00:24:27 | 00:00:00 | |
| DO3MHA-12 | 2026-09-03 09:52:06 | 47.83486 | 10.93292 | 90° | 44km/h | 3002m | 6.3m/s | 4.4°C | 40.1% | 718.2hPa | 2.9V | 00:00:00 | 00:24:17 | 00:00:00 | |
| NBG1-10 | 2026-09-03 09:51:58 | 47.83495 | 10.93156 | 110° | 46km/h | 2959m | 5.2m/s | 0°C | 0% | 0hPa | 2.9V | 00:00:00 | 00:24:09 | 00:00:00 | |
| DO3MHA-12 | 2026-09-03 09:51:56 | 47.83499 | 10.93128 | 92° | 49km/h | 2947m | 5.9m/s | 4.9°C | 36.0% | 723.1hPa | 2.9V | 00:00:00 | 00:24:07 | 00:00:00 | |
| DG1MJG | 2026-09-03 09:51:49 | 47.83501 | 10.93015 | 100° | 53km/h | 2915m | 4.3m/s | 5.2°C | 39.0% | 726.0hPa | 2.9V | 03:45:00 | 00:00:00 | 00:00:00 | |
| DO3MHA-12 | 2026-09-03 09:51:46 | 47.83505 | 10.92941 | 88° | 44km/h | 2898m | 4.7m/s | 5.3°C | 37.8% | 727.6hPa | 2.9V | 00:00:00 | 00:23:57 | 00:00:00 | |
| DO3MHA-12 | 2026-09-03 09:51:36 | 47.83513 | 10.92775 | 96° | 47km/h | 2835m | 6.3m/s | 5.7°C | 38.2% | 733.3hPa | 2.9V | 03:45:00 | 00:23:47 | 00:00:00 | |
| DO3MHA-12 | 2026-09-03 09:51:26 | 47.83514 | 10.92601 | 92° | 44km/h | 2771m | 6.5m/s | 6.1°C | 31.3% | 738.9hPa | 2.9V | 00:00:00 | 00:23:37 | 00:00:00 | |
| NBG1-10 | 2026-09-03 09:51:25 | 47.83515 | 10.92588 | 102° | 42km/h | 2765m | 5.5m/s | 0°C | 0% | 0hPa | 2.9V | 00:00:00 | 00:23:36 | 00:00:00 | |
| DG1MJG | 2026-09-03 09:51:18 | 47.83527 | 10.92490 | 101° | 49km/h | 2723m | 8.7m/s | 6.5°C | 33.6% | 743.2hPa | 2.9V | 03:46:00 | 00:00:00 | 00:00:00 | |
| DO3MHA-12 | 2026-09-03 09:51:16 | 47.83533 | 10.92436 | 94° | 47km/h | 2705m | 5.3m/s | 6.6°C | 33.5% | 744.8hPa | 2.9V | 00:00:00 | 00:23:27 | 00:00:00 | |
| DO3MHA-12 | 2026-09-03 09:51:06 | 47.83543 | 10.92258 | 95° | 47km/h | 2647m | 4.5m/s | 7.1°C | 31.0% | 750.2hPa | 2.9V | 00:00:00 | 00:23:17 | 00:00:00 | |
| DO3MHA-11 | 2026-09-03 09:50:56 | 47.83547 | 10.92079 | 95° | 49km/h | 2594m | 4.2m/s | 7.3°C | 27.1% | 755.1hPa | 2.9V | 00:00:00 | 00:23:07 | 00:00:00 | |
| DG1MJG | 2026-09-03 09:50:47 | 47.83552 | 10.91932 | 104° | 46km/h | 2544m | 6.5m/s | 7.4°C | 18.8% | 759.8hPa | 2.9V | 03:46:00 | 00:00:00 | 00:00:00 | |
| DO3MHA-12 | 2026-09-03 09:50:46 | 47.83554 | 10.91899 | 88° | 42km/h | 2530m | 7.0m/s | 7.4°C | 18.3% | 760.8hPa | 2.9V | 00:00:00 | 00:22:57 | 00:00:00 | |
| DO3MHA-12 | 2026-09-03 09:50:36 | 47.83567 | 10.91743 | 90° | 46km/h | 2473m | 5.7m/s | 7.6°C | 19.3% | 766.3hPa | 2.9V | 00:00:00 | 00:22:47 | 00:00:00 | |
| DO3MHA-12 | 2026-09-03 09:50:26 | 47.83579 | 10.91575 | 93° | 47km/h | 2417m | 6.4m/s | 8.0°C | 20.9% | 771.4hPa | 2.9V | 00:00:00 | 00:22:37 | 00:00:00 | |
| DO3MHA-12 | 2026-09-03 09:50:16 | 47.83596 | 10.91397 | 100° | 49km/h | 2359m | 7.0m/s | 8.0°C | 32.0% | 776.9hPa | 2.9V | 03:47:00 | 00:22:27 | 00:00:00 | |
| DO3MHA-12 | 2026-09-03 09:50:06 | 47.83604 | 10.91216 | 95° | 53km/h | 2293m | 5.4m/s | 7.8°C | 63.5% | 783.2hPa | 2.9V | 00:00:00 | 00:22:17 | 00:00:00 | |
| DO3MHA-12 | 2026-09-03 09:49:56 | 47.83612 | 10.91016 | 94° | 51km/h | 2241m | 4.5m/s | 7.7°C | 80.0% | 788.2hPa | 2.9V | 00:00:00 | 00:22:07 | 00:00:00 | |
| DO3MHA-12 | 2026-09-03 09:49:46 | 47.83609 | 10.90824 | 89° | 47km/h | 2177m | 5.9m/s | 8.1°C | 87.3% | 794.1hPa | 2.9V | 00:00:00 | 00:21:57 | 00:00:00 | |
| DO3MHA-12 | 2026-09-03 09:49:36 | 47.83607 | 10.90648 | 77° | 47km/h | 2119m | 3.9m/s | 8.7°C | 84.3% | 800.0hPa | 2.9V | 03:47:00 | 00:21:47 | 00:00:00 | |
| DO3MHA-12 | 2026-09-03 09:49:26 | 47.83588 | 10.90469 | 91° | 49km/h | 2058m | 5.7m/s | 9.3°C | 81.6% | 805.9hPa | 2.9V | 00:00:00 | 00:21:37 | 00:00:00 | |
| DO3MHA-11 | 2026-09-03 09:49:16 | 47.83568 | 10.90292 | 88° | 51km/h | 1997m | 7.1m/s | 9.9°C | 78.7% | 811.7hPa | 2.9V | 00:00:00 | 00:21:27 | 00:00:00 | |
| DO3MHA-12 | 2026-09-03 09:49:16 | 47.83568 | 10.90292 | 88° | 51km/h | 1997m | 7.1m/s | 9.9°C | 78.7% | 811.7hPa | 2.9V | 00:00:00 | 00:21:27 | 00:00:00 | |
| DO3MHA-11 | 2026-09-03 09:49:06 | 47.83555 | 10.90105 | 95° | 47km/h | 1942m | 5.5m/s | 10.4°C | 76.1% | 817.1hPa | 2.9V | 00:00:00 | 00:21:17 | 00:00:00 | |
| DO3MHA-12 | 2026-09-03 09:49:06 | 47.83555 | 10.90105 | 95° | 47km/h | 1942m | 5.5m/s | 10.4°C | 76.1% | 817.1hPa | 2.9V | 00:00:00 | 00:21:17 | 00:00:00 | |
| DO3MHA-11 | 2026-09-03 09:48:56 | 47.83547 | 10.89929 | 77° | 47km/h | 1889m | 4.5m/s | 11.0°C | 73.8% | 822.5hPa | 2.9V | 00:00:00 | 00:21:07 | 00:00:00 | |
| DO3MHA-12 | 2026-09-03 09:48:56 | 47.83547 | 10.89929 | 77° | 47km/h | 1889m | 4.5m/s | 11.0°C | 73.8% | 822.5hPa | 2.9V | 03:48:00 | 00:21:07 | 00:00:00 | |
| DG1MJG | 2026-09-03 09:48:46 | 47.83526 | 10.89769 | 75° | 47km/h | 1839m | 7.4m/s | 11.5°C | 0% | 0hPa | 2.9V | 00:00:00 | 00:00:00 | 00:00:00 | |
| DO3MHA-12 | 2026-09-03 09:48:46 | 47.83523 | 10.89753 | 76° | 44km/h | 1832m | 5.5m/s | 11.5°C | 72.0% | 828.0hPa | 2.9V | 00:00:00 | 00:20:57 | 00:00:00 | |
| DO3MHA-11 | 2026-09-03 09:48:46 | 47.83523 | 10.89753 | 76° | 44km/h | 1832m | 5.5m/s | 11.5°C | 72.0% | 828.0hPa | 2.9V | 03:48:00 | 00:20:57 | 00:00:00 | |
| DO3MHA-11 | 2026-09-03 09:48:36 | 47.83494 | 10.89594 | 69° | 47km/h | 1785m | 4.2m/s | 12.0°C | 70.3% | 832.8hPa | 2.9V | 00:00:00 | 00:20:47 | 00:00:00 | |
| DO3MHA-12 | 2026-09-03 09:48:36 | 47.83494 | 10.89594 | 69° | 47km/h | 1785m | 4.2m/s | 12.0°C | 70.3% | 832.8hPa | 2.9V | 00:00:00 | 00:20:47 | 00:00:00 | |
| DO3MHA-11 | 2026-09-03 09:48:26 | 47.83494 | 10.89424 | 80° | 44km/h | 1734m | 6.8m/s | 12.4°C | 69.4% | 837.8hPa | 2.9V | 00:00:00 | 00:20:37 | 00:00:00 | |
| DO3MHA-12 | 2026-09-03 09:48:26 | 47.83494 | 10.89424 | 80° | 44km/h | 1734m | 6.8m/s | 12.4°C | 69.4% | 837.8hPa | 0V | 00:00:00 | 00:20:37 | 00:00:00 | |
| DG1MJG | 2026-09-03 09:48:16 | 47.83469 | 10.89280 | 87° | 29km/h | 1689m | 3.8m/s | 0°C | 0% | 0hPa | 0V | 00:00:00 | 00:00:00 | 00:00:00 | |
| DO3MHA-11 | 2026-09-03 09:48:16 | 47.83468 | 10.89268 | 92° | 44km/h | 1684m | 6.1m/s | 0°C | 0% | 0hPa | 0V | 00:00:00 | 00:20:27 | 00:00:00 | |
| DO3MHA-12 | 2026-09-03 09:48:16 | 47.83468 | 10.89268 | 92° | 44km/h | 1684m | 6.1m/s | 0°C | 0% | 0hPa | 0V | 03:49:00 | 00:20:27 | 00:00:00 | |
| DO3MHA-11 | 2026-09-03 09:48:06 | 47.83450 | 10.89101 | 83° | 44km/h | 1636m | 4.7m/s | 0°C | 0% | 0hPa | 0V | 00:00:00 | 00:20:17 | 00:00:00 | |
| DO3MHA-12 | 2026-09-03 09:48:06 | 47.83450 | 10.89101 | 83° | 44km/h | 1636m | 4.7m/s | 0°C | 0% | 0hPa | 0V | 00:00:00 | 00:20:17 | 00:00:00 | |
| DO3MHA-12 | 2026-09-03 09:47:56 | 47.83424 | 10.88942 | 65° | 44km/h | 1599m | 3.9m/s | 0°C | 0% | 0hPa | 0V | 00:00:00 | 00:20:07 | 00:00:00 | |
| DO3MHA-11 | 2026-09-03 09:47:56 | 47.83424 | 10.88942 | 65° | 44km/h | 1599m | 3.9m/s | 0°C | 0% | 0hPa | 0V | 00:00:00 | 00:20:07 | 00:00:00 | |
| DO3MHA-11 | 2026-09-03 09:47:46 | 47.83401 | 10.88786 | 61° | 42km/h | 1560m | 3.9m/s | 0°C | 0% | 0hPa | 0V | 00:00:00 | 00:19:57 | 00:00:00 | |
| DO3MHA-12 | 2026-09-03 09:47:46 | 47.83401 | 10.88786 | 61° | 42km/h | 1560m | 3.9m/s | 0°C | 0% | 0hPa | 0V | 00:00:00 | 00:19:57 | 00:00:00 | |
| DO3MHA-11 | 2026-09-03 09:47:36 | 47.83398 | 10.88634 | 108° | 37km/h | 1519m | 3.4m/s | 0°C | 0% | 0hPa | 0V | 00:00:00 | 00:19:47 | 00:00:00 | |
| DO3MHA-12 | 2026-09-03 09:47:36 | 47.83398 | 10.88634 | 108° | 27km/h | 1519m | 3.4m/s | 0°C | 0% | 0hPa | 0V | 00:00:00 | 00:19:47 | 00:00:00 | |
| DO3MHA-11 | 2026-09-03 09:47:26 | 47.83395 | 10.88500 | 95° | 29km/h | 1475m | 4.6m/s | 0°C | 0% | 0hPa | 0V | 00:00:00 | 00:19:37 | 00:00:00 |